<?xml version="1.0" encoding="UTF-8" standalone="no" ?>
<gpx xmlns="http://www.topografix.com/GPX/1/1" xmlns:xsi="http://www.w3.org/2001/XMLSchema-instance" xsi:schemaLocation="http://www.topografix.com/GPX/1/1 http://www.topografix.com/GPX/1/1/gpx.xsd" version="1.1" creator="VisuGPX - https://www.visugpx.com">
  <metadata>
    <name>lE BAUSSET SIGNES</name>
    <desc><![CDATA[Belle ballade, hyères circuit paul ricard signes ]]></desc>
  </metadata>
  <trk>
    <name><![CDATA[le Beausset Signes]]></name>
    <trkseg>
      <trkpt lat="43.1229" lon="6.13111">
        <ele>42.9</ele>
        <time>2014-05-11T04:56:29Z</time>
      </trkpt>
      <trkpt lat="43.1229" lon="6.13111">
        <ele>124.787</ele>
        <time>2014-05-11T04:56:30Z</time>
      </trkpt>
      <trkpt lat="43.12276" lon="6.13084">
        <ele>122.267</ele>
        <time>2014-05-11T04:57:04Z</time>
      </trkpt>
      <trkpt lat="43.12243" lon="6.13075">
        <ele>119.724</ele>
        <time>2014-05-11T04:57:10Z</time>
      </trkpt>
      <trkpt lat="43.12221" lon="6.1308">
        <ele>114.031</ele>
        <time>2014-05-11T04:57:15Z</time>
      </trkpt>
      <trkpt lat="43.12191" lon="6.13103">
        <ele>101.206</ele>
        <time>2014-05-11T04:57:21Z</time>
      </trkpt>
      <trkpt lat="43.12144" lon="6.13143">
        <ele>94.1683</ele>
        <time>2014-05-11T04:57:27Z</time>
      </trkpt>
      <trkpt lat="43.12117" lon="6.13144">
        <ele>94.4179</ele>
        <time>2014-05-11T04:57:32Z</time>
      </trkpt>
      <trkpt lat="43.12101" lon="6.13108">
        <ele>94.6424</ele>
        <time>2014-05-11T04:57:38Z</time>
      </trkpt>
      <trkpt lat="43.12081" lon="6.131">
        <ele>93.8646</ele>
        <time>2014-05-11T04:57:45Z</time>
      </trkpt>
      <trkpt lat="43.12067" lon="6.13093">
        <ele>93.6108</ele>
        <time>2014-05-11T04:57:50Z</time>
      </trkpt>
      <trkpt lat="43.12059" lon="6.13063">
        <ele>94.0333</ele>
        <time>2014-05-11T04:57:56Z</time>
      </trkpt>
      <trkpt lat="43.12057" lon="6.13036">
        <ele>94.0351</ele>
        <time>2014-05-11T04:58:01Z</time>
      </trkpt>
      <trkpt lat="43.12056" lon="6.13002">
        <ele>93.6398</ele>
        <time>2014-05-11T04:58:07Z</time>
      </trkpt>
      <trkpt lat="43.12046" lon="6.12974">
        <ele>91.9571</ele>
        <time>2014-05-11T04:58:12Z</time>
      </trkpt>
      <trkpt lat="43.12039" lon="6.12938">
        <ele>88.2912</ele>
        <time>2014-05-11T04:58:18Z</time>
      </trkpt>
      <trkpt lat="43.12039" lon="6.12905">
        <ele>89.6539</ele>
        <time>2014-05-11T04:58:23Z</time>
      </trkpt>
      <trkpt lat="43.12035" lon="6.12884">
        <ele>91.6392</ele>
        <time>2014-05-11T04:58:26Z</time>
      </trkpt>
      <trkpt lat="43.12037" lon="6.12861">
        <ele>93.5238</ele>
        <time>2014-05-11T04:58:29Z</time>
      </trkpt>
      <trkpt lat="43.12034" lon="6.12826">
        <ele>92.9159</ele>
        <time>2014-05-11T04:58:35Z</time>
      </trkpt>
      <trkpt lat="43.12031" lon="6.12796">
        <ele>92.7838</ele>
        <time>2014-05-11T04:58:42Z</time>
      </trkpt>
      <trkpt lat="43.12029" lon="6.12755">
        <ele>93.7379</ele>
        <time>2014-05-11T04:58:50Z</time>
      </trkpt>
      <trkpt lat="43.12027" lon="6.12725">
        <ele>94.0705</ele>
        <time>2014-05-11T04:58:56Z</time>
      </trkpt>
      <trkpt lat="43.12027" lon="6.12725">
        <ele>38.8</ele>
        <time>2014-05-11T04:59:07Z</time>
      </trkpt>
      <trkpt lat="43.12027" lon="6.12725">
        <ele>38.8</ele>
        <time>2014-05-11T04:59:09Z</time>
      </trkpt>
      <trkpt lat="43.12021" lon="6.12706">
        <ele>93.886</ele>
        <time>2014-05-11T04:59:10Z</time>
      </trkpt>
      <trkpt lat="43.12014" lon="6.12675">
        <ele>92.9905</ele>
        <time>2014-05-11T04:59:51Z</time>
      </trkpt>
      <trkpt lat="43.11996" lon="6.12612">
        <ele>92.6293</ele>
        <time>2014-05-11T05:00:01Z</time>
      </trkpt>
      <trkpt lat="43.11988" lon="6.12587">
        <ele>92.6188</ele>
        <time>2014-05-11T05:00:06Z</time>
      </trkpt>
      <trkpt lat="43.11979" lon="6.12559">
        <ele>93.7329</ele>
        <time>2014-05-11T05:00:12Z</time>
      </trkpt>
      <trkpt lat="43.11971" lon="6.12519">
        <ele>95.2566</ele>
        <time>2014-05-11T05:00:19Z</time>
      </trkpt>
      <trkpt lat="43.11957" lon="6.12487">
        <ele>96.4819</ele>
        <time>2014-05-11T05:00:25Z</time>
      </trkpt>
      <trkpt lat="43.11952" lon="6.1246">
        <ele>98.0691</ele>
        <time>2014-05-11T05:00:30Z</time>
      </trkpt>
      <trkpt lat="43.11954" lon="6.12428">
        <ele>102.487</ele>
        <time>2014-05-11T05:00:36Z</time>
      </trkpt>
      <trkpt lat="43.11953" lon="6.12394">
        <ele>102.394</ele>
        <time>2014-05-11T05:00:41Z</time>
      </trkpt>
      <trkpt lat="43.11944" lon="6.1236">
        <ele>101.163</ele>
        <time>2014-05-11T05:00:46Z</time>
      </trkpt>
      <trkpt lat="43.11939" lon="6.12303">
        <ele>98.0438</ele>
        <time>2014-05-11T05:00:54Z</time>
      </trkpt>
      <trkpt lat="43.11952" lon="6.12271">
        <ele>98.2214</ele>
        <time>2014-05-11T05:00:59Z</time>
      </trkpt>
      <trkpt lat="43.11962" lon="6.1225">
        <ele>97.7102</ele>
        <time>2014-05-11T05:01:02Z</time>
      </trkpt>
      <trkpt lat="43.11976" lon="6.12233">
        <ele>96.2767</ele>
        <time>2014-05-11T05:01:07Z</time>
      </trkpt>
      <trkpt lat="43.12003" lon="6.12207">
        <ele>94.4727</ele>
        <time>2014-05-11T05:01:14Z</time>
      </trkpt>
      <trkpt lat="43.12026" lon="6.12186">
        <ele>96.0144</ele>
        <time>2014-05-11T05:01:20Z</time>
      </trkpt>
      <trkpt lat="43.12051" lon="6.12159">
        <ele>96.3453</ele>
        <time>2014-05-11T05:01:26Z</time>
      </trkpt>
      <trkpt lat="43.12072" lon="6.12138">
        <ele>96.0855</ele>
        <time>2014-05-11T05:01:31Z</time>
      </trkpt>
      <trkpt lat="43.12091" lon="6.12117">
        <ele>95.2442</ele>
        <time>2014-05-11T05:01:36Z</time>
      </trkpt>
      <trkpt lat="43.12103" lon="6.12104">
        <ele>94.6084</ele>
        <time>2014-05-11T05:01:39Z</time>
      </trkpt>
      <trkpt lat="43.12123" lon="6.12084">
        <ele>94.3382</ele>
        <time>2014-05-11T05:01:44Z</time>
      </trkpt>
      <trkpt lat="43.12147" lon="6.12062">
        <ele>95.5719</ele>
        <time>2014-05-11T05:01:50Z</time>
      </trkpt>
      <trkpt lat="43.12168" lon="6.12038">
        <ele>94.9833</ele>
        <time>2014-05-11T05:01:55Z</time>
      </trkpt>
      <trkpt lat="43.1219" lon="6.12021">
        <ele>95.2708</ele>
        <time>2014-05-11T05:02:00Z</time>
      </trkpt>
      <trkpt lat="43.12217" lon="6.11997">
        <ele>94.2343</ele>
        <time>2014-05-11T05:02:06Z</time>
      </trkpt>
      <trkpt lat="43.12229" lon="6.11984">
        <ele>95.1155</ele>
        <time>2014-05-11T05:02:09Z</time>
      </trkpt>
      <trkpt lat="43.12248" lon="6.11963">
        <ele>96.1648</ele>
        <time>2014-05-11T05:02:14Z</time>
      </trkpt>
      <trkpt lat="43.12271" lon="6.11932">
        <ele>93.7303</ele>
        <time>2014-05-11T05:02:21Z</time>
      </trkpt>
      <trkpt lat="43.12275" lon="6.11896">
        <ele>92.882</ele>
        <time>2014-05-11T05:02:26Z</time>
      </trkpt>
      <trkpt lat="43.12272" lon="6.11866">
        <ele>92.3946</ele>
        <time>2014-05-11T05:02:33Z</time>
      </trkpt>
      <trkpt lat="43.12226" lon="6.11851">
        <ele>89.8998</ele>
        <time>2014-05-11T05:02:42Z</time>
      </trkpt>
      <trkpt lat="43.12193" lon="6.11837">
        <ele>87.4382</ele>
        <time>2014-05-11T05:02:47Z</time>
      </trkpt>
      <trkpt lat="43.12188" lon="6.11811">
        <ele>89.4936</ele>
        <time>2014-05-11T05:02:50Z</time>
      </trkpt>
      <trkpt lat="43.1219" lon="6.1178">
        <ele>90.3637</ele>
        <time>2014-05-11T05:02:53Z</time>
      </trkpt>
      <trkpt lat="43.12191" lon="6.11757">
        <ele>89.4274</ele>
        <time>2014-05-11T05:02:56Z</time>
      </trkpt>
      <trkpt lat="43.12191" lon="6.11702">
        <ele>87.5423</ele>
        <time>2014-05-11T05:03:02Z</time>
      </trkpt>
      <trkpt lat="43.12189" lon="6.11637">
        <ele>89.9579</ele>
        <time>2014-05-11T05:03:09Z</time>
      </trkpt>
      <trkpt lat="43.12187" lon="6.11597">
        <ele>87.8697</ele>
        <time>2014-05-11T05:03:14Z</time>
      </trkpt>
      <trkpt lat="43.12183" lon="6.11575">
        <ele>87.5663</ele>
        <time>2014-05-11T05:03:17Z</time>
      </trkpt>
      <trkpt lat="43.12179" lon="6.11553">
        <ele>85.2642</ele>
        <time>2014-05-11T05:03:20Z</time>
      </trkpt>
      <trkpt lat="43.12173" lon="6.1152">
        <ele>84.0403</ele>
        <time>2014-05-11T05:03:25Z</time>
      </trkpt>
      <trkpt lat="43.1217" lon="6.11506">
        <ele>83.3802</ele>
        <time>2014-05-11T05:03:28Z</time>
      </trkpt>
      <trkpt lat="43.1217" lon="6.11506">
        <ele>36.1</ele>
        <time>2014-05-11T05:03:34Z</time>
      </trkpt>
      <trkpt lat="43.12163" lon="6.11467">
        <ele>85.2537</ele>
        <time>2014-05-11T05:03:58Z</time>
      </trkpt>
      <trkpt lat="43.12163" lon="6.11467">
        <ele>35.5</ele>
        <time>2014-05-11T05:03:58Z</time>
      </trkpt>
      <trkpt lat="43.1216" lon="6.11443">
        <ele>85.3022</ele>
        <time>2014-05-11T05:04:01Z</time>
      </trkpt>
      <trkpt lat="43.12157" lon="6.114">
        <ele>86.6565</ele>
        <time>2014-05-11T05:04:06Z</time>
      </trkpt>
      <trkpt lat="43.12154" lon="6.11349">
        <ele>88.4861</ele>
        <time>2014-05-11T05:04:12Z</time>
      </trkpt>
      <trkpt lat="43.12151" lon="6.11306">
        <ele>84.1446</ele>
        <time>2014-05-11T05:04:17Z</time>
      </trkpt>
      <trkpt lat="43.12146" lon="6.11243">
        <ele>84.1309</ele>
        <time>2014-05-11T05:04:24Z</time>
      </trkpt>
      <trkpt lat="43.12147" lon="6.11176">
        <ele>81.5149</ele>
        <time>2014-05-11T05:04:32Z</time>
      </trkpt>
      <trkpt lat="43.12153" lon="6.11136">
        <ele>81.3078</ele>
        <time>2014-05-11T05:04:37Z</time>
      </trkpt>
      <trkpt lat="43.1215" lon="6.11081">
        <ele>80.8636</ele>
        <time>2014-05-11T05:04:43Z</time>
      </trkpt>
      <trkpt lat="43.12154" lon="6.11044">
        <ele>82.1499</ele>
        <time>2014-05-11T05:04:48Z</time>
      </trkpt>
      <trkpt lat="43.12167" lon="6.10997">
        <ele>83.993</ele>
        <time>2014-05-11T05:04:54Z</time>
      </trkpt>
      <trkpt lat="43.12172" lon="6.10975">
        <ele>84.0466</ele>
        <time>2014-05-11T05:04:57Z</time>
      </trkpt>
      <trkpt lat="43.12184" lon="6.10936">
        <ele>84.6181</ele>
        <time>2014-05-11T05:05:03Z</time>
      </trkpt>
      <trkpt lat="43.12189" lon="6.10913">
        <ele>84.6149</ele>
        <time>2014-05-11T05:05:06Z</time>
      </trkpt>
      <trkpt lat="43.12199" lon="6.1088">
        <ele>82.6051</ele>
        <time>2014-05-11T05:05:11Z</time>
      </trkpt>
      <trkpt lat="43.1221" lon="6.10841">
        <ele>85.2789</ele>
        <time>2014-05-11T05:05:17Z</time>
      </trkpt>
      <trkpt lat="43.12223" lon="6.10805">
        <ele>84.4374</ele>
        <time>2014-05-11T05:05:23Z</time>
      </trkpt>
      <trkpt lat="43.12236" lon="6.10768">
        <ele>86.7849</ele>
        <time>2014-05-11T05:05:29Z</time>
      </trkpt>
      <trkpt lat="43.12243" lon="6.10749">
        <ele>87.5827</ele>
        <time>2014-05-11T05:05:32Z</time>
      </trkpt>
      <trkpt lat="43.12257" lon="6.10714">
        <ele>86.0282</ele>
        <time>2014-05-11T05:05:38Z</time>
      </trkpt>
      <trkpt lat="43.1227" lon="6.10679">
        <ele>86.044</ele>
        <time>2014-05-11T05:05:44Z</time>
      </trkpt>
      <trkpt lat="43.12283" lon="6.10645">
        <ele>84.6886</ele>
        <time>2014-05-11T05:05:50Z</time>
      </trkpt>
      <trkpt lat="43.12296" lon="6.10612">
        <ele>85.2019</ele>
        <time>2014-05-11T05:05:56Z</time>
      </trkpt>
      <trkpt lat="43.12308" lon="6.10582">
        <ele>85.2934</ele>
        <time>2014-05-11T05:06:01Z</time>
      </trkpt>
      <trkpt lat="43.1232" lon="6.1055">
        <ele>85.7269</ele>
        <time>2014-05-11T05:06:07Z</time>
      </trkpt>
      <trkpt lat="43.12331" lon="6.10521">
        <ele>86.6871</ele>
        <time>2014-05-11T05:06:13Z</time>
      </trkpt>
      <trkpt lat="43.12344" lon="6.10492">
        <ele>87.3175</ele>
        <time>2014-05-11T05:06:19Z</time>
      </trkpt>
      <trkpt lat="43.12356" lon="6.10461">
        <ele>89.9062</ele>
        <time>2014-05-11T05:06:25Z</time>
      </trkpt>
      <trkpt lat="43.12362" lon="6.10445">
        <ele>89.6966</ele>
        <time>2014-05-11T05:06:28Z</time>
      </trkpt>
      <trkpt lat="43.12367" lon="6.10417">
        <ele>88.7678</ele>
        <time>2014-05-11T05:06:33Z</time>
      </trkpt>
      <trkpt lat="43.12388" lon="6.10378">
        <ele>88.5733</ele>
        <time>2014-05-11T05:06:40Z</time>
      </trkpt>
      <trkpt lat="43.12407" lon="6.1036">
        <ele>88.9559</ele>
        <time>2014-05-11T05:06:45Z</time>
      </trkpt>
      <trkpt lat="43.12425" lon="6.10342">
        <ele>90.1581</ele>
        <time>2014-05-11T05:06:50Z</time>
      </trkpt>
      <trkpt lat="43.12444" lon="6.1032">
        <ele>89.7803</ele>
        <time>2014-05-11T05:06:56Z</time>
      </trkpt>
      <trkpt lat="43.12459" lon="6.10302">
        <ele>89.6364</ele>
        <time>2014-05-11T05:07:01Z</time>
      </trkpt>
      <trkpt lat="43.12478" lon="6.10274">
        <ele>90.1261</ele>
        <time>2014-05-11T05:07:09Z</time>
      </trkpt>
      <trkpt lat="43.12483" lon="6.10243">
        <ele>90.7506</ele>
        <time>2014-05-11T05:07:15Z</time>
      </trkpt>
      <trkpt lat="43.12485" lon="6.10228">
        <ele>91.0445</ele>
        <time>2014-05-11T05:07:18Z</time>
      </trkpt>
      <trkpt lat="43.12492" lon="6.10207">
        <ele>91.3566</ele>
        <time>2014-05-11T05:07:23Z</time>
      </trkpt>
      <trkpt lat="43.12497" lon="6.10195">
        <ele>91.6295</ele>
        <time>2014-05-11T05:07:27Z</time>
      </trkpt>
      <trkpt lat="43.12509" lon="6.10161">
        <ele>92.3412</ele>
        <time>2014-05-11T05:07:34Z</time>
      </trkpt>
      <trkpt lat="43.1252" lon="6.10129">
        <ele>92.1758</ele>
        <time>2014-05-11T05:07:40Z</time>
      </trkpt>
      <trkpt lat="43.12526" lon="6.10101">
        <ele>92.9286</ele>
        <time>2014-05-11T05:07:45Z</time>
      </trkpt>
      <trkpt lat="43.12532" lon="6.10079">
        <ele>92.5791</ele>
        <time>2014-05-11T05:07:49Z</time>
      </trkpt>
      <trkpt lat="43.12541" lon="6.10045">
        <ele>94.0075</ele>
        <time>2014-05-11T05:07:55Z</time>
      </trkpt>
      <trkpt lat="43.12547" lon="6.10027">
        <ele>93.5307</ele>
        <time>2014-05-11T05:07:58Z</time>
      </trkpt>
      <trkpt lat="43.12557" lon="6.09991">
        <ele>92.8118</ele>
        <time>2014-05-11T05:08:04Z</time>
      </trkpt>
      <trkpt lat="43.12567" lon="6.09959">
        <ele>92.6361</ele>
        <time>2014-05-11T05:08:10Z</time>
      </trkpt>
      <trkpt lat="43.12574" lon="6.09942">
        <ele>92.7368</ele>
        <time>2014-05-11T05:08:13Z</time>
      </trkpt>
      <trkpt lat="43.12585" lon="6.09918">
        <ele>93.0837</ele>
        <time>2014-05-11T05:08:18Z</time>
      </trkpt>
      <trkpt lat="43.12603" lon="6.0989">
        <ele>93.9139</ele>
        <time>2014-05-11T05:08:24Z</time>
      </trkpt>
      <trkpt lat="43.12615" lon="6.09881">
        <ele>94.1575</ele>
        <time>2014-05-11T05:08:29Z</time>
      </trkpt>
      <trkpt lat="43.12627" lon="6.09855">
        <ele>94.2915</ele>
        <time>2014-05-11T05:08:35Z</time>
      </trkpt>
      <trkpt lat="43.12632" lon="6.09804">
        <ele>91.4263</ele>
        <time>2014-05-11T05:08:42Z</time>
      </trkpt>
      <trkpt lat="43.12631" lon="6.09767">
        <ele>91.713</ele>
        <time>2014-05-11T05:08:47Z</time>
      </trkpt>
      <trkpt lat="43.12627" lon="6.09724">
        <ele>94.2981</ele>
        <time>2014-05-11T05:08:53Z</time>
      </trkpt>
      <trkpt lat="43.12624" lon="6.09684">
        <ele>93.3491</ele>
        <time>2014-05-11T05:08:59Z</time>
      </trkpt>
      <trkpt lat="43.12622" lon="6.09661">
        <ele>93.0996</ele>
        <time>2014-05-11T05:09:02Z</time>
      </trkpt>
      <trkpt lat="43.12621" lon="6.0964">
        <ele>93.9985</ele>
        <time>2014-05-11T05:09:05Z</time>
      </trkpt>
      <trkpt lat="43.12618" lon="6.09602">
        <ele>89.6733</ele>
        <time>2014-05-11T05:09:11Z</time>
      </trkpt>
      <trkpt lat="43.12617" lon="6.09561">
        <ele>87.7677</ele>
        <time>2014-05-11T05:09:17Z</time>
      </trkpt>
      <trkpt lat="43.12616" lon="6.09528">
        <ele>87.0768</ele>
        <time>2014-05-11T05:09:22Z</time>
      </trkpt>
      <trkpt lat="43.12612" lon="6.09485">
        <ele>89.6259</ele>
        <time>2014-05-11T05:09:28Z</time>
      </trkpt>
      <trkpt lat="43.12609" lon="6.09444">
        <ele>89.5226</ele>
        <time>2014-05-11T05:09:34Z</time>
      </trkpt>
      <trkpt lat="43.12604" lon="6.09404">
        <ele>90.9158</ele>
        <time>2014-05-11T05:09:40Z</time>
      </trkpt>
      <trkpt lat="43.126" lon="6.09363">
        <ele>94.1551</ele>
        <time>2014-05-11T05:09:46Z</time>
      </trkpt>
      <trkpt lat="43.12597" lon="6.09325">
        <ele>94.0547</ele>
        <time>2014-05-11T05:09:52Z</time>
      </trkpt>
      <trkpt lat="43.12595" lon="6.09304">
        <ele>94.6404</ele>
        <time>2014-05-11T05:09:55Z</time>
      </trkpt>
      <trkpt lat="43.12592" lon="6.09262">
        <ele>94.7451</ele>
        <time>2014-05-11T05:10:01Z</time>
      </trkpt>
      <trkpt lat="43.12595" lon="6.09221">
        <ele>96.3245</ele>
        <time>2014-05-11T05:10:07Z</time>
      </trkpt>
      <trkpt lat="43.12614" lon="6.09195">
        <ele>96.4498</ele>
        <time>2014-05-11T05:10:13Z</time>
      </trkpt>
      <trkpt lat="43.12615" lon="6.09161">
        <ele>96.094</ele>
        <time>2014-05-11T05:10:19Z</time>
      </trkpt>
      <trkpt lat="43.12608" lon="6.09121">
        <ele>92.4042</ele>
        <time>2014-05-11T05:10:25Z</time>
      </trkpt>
      <trkpt lat="43.1261" lon="6.09101">
        <ele>89.3615</ele>
        <time>2014-05-11T05:10:28Z</time>
      </trkpt>
      <trkpt lat="43.12611" lon="6.09079">
        <ele>89.4648</ele>
        <time>2014-05-11T05:10:32Z</time>
      </trkpt>
      <trkpt lat="43.1261" lon="6.09035">
        <ele>91.8429</ele>
        <time>2014-05-11T05:10:39Z</time>
      </trkpt>
      <trkpt lat="43.1261" lon="6.08984">
        <ele>92.8953</ele>
        <time>2014-05-11T05:10:45Z</time>
      </trkpt>
      <trkpt lat="43.12609" lon="6.08938">
        <ele>95.2214</ele>
        <time>2014-05-11T05:10:50Z</time>
      </trkpt>
      <trkpt lat="43.12608" lon="6.08888">
        <ele>96.5108</ele>
        <time>2014-05-11T05:10:56Z</time>
      </trkpt>
      <trkpt lat="43.12608" lon="6.08864">
        <ele>96.045</ele>
        <time>2014-05-11T05:10:59Z</time>
      </trkpt>
      <trkpt lat="43.12608" lon="6.0884">
        <ele>95.9766</ele>
        <time>2014-05-11T05:11:02Z</time>
      </trkpt>
      <trkpt lat="43.12609" lon="6.08804">
        <ele>94.5788</ele>
        <time>2014-05-11T05:11:07Z</time>
      </trkpt>
      <trkpt lat="43.12609" lon="6.08758">
        <ele>94.1151</ele>
        <time>2014-05-11T05:11:13Z</time>
      </trkpt>
      <trkpt lat="43.12611" lon="6.08713">
        <ele>96.1599</ele>
        <time>2014-05-11T05:11:19Z</time>
      </trkpt>
      <trkpt lat="43.12614" lon="6.08674">
        <ele>94.5969</ele>
        <time>2014-05-11T05:11:24Z</time>
      </trkpt>
      <trkpt lat="43.12617" lon="6.08654">
        <ele>94.8156</ele>
        <time>2014-05-11T05:11:27Z</time>
      </trkpt>
      <trkpt lat="43.12622" lon="6.08615">
        <ele>95.0419</ele>
        <time>2014-05-11T05:11:32Z</time>
      </trkpt>
      <trkpt lat="43.12631" lon="6.08573">
        <ele>93.6322</ele>
        <time>2014-05-11T05:11:38Z</time>
      </trkpt>
      <trkpt lat="43.12641" lon="6.0854">
        <ele>91.8107</ele>
        <time>2014-05-11T05:11:43Z</time>
      </trkpt>
      <trkpt lat="43.12652" lon="6.08506">
        <ele>92.6664</ele>
        <time>2014-05-11T05:11:48Z</time>
      </trkpt>
      <trkpt lat="43.12666" lon="6.08466">
        <ele>93.7774</ele>
        <time>2014-05-11T05:11:54Z</time>
      </trkpt>
      <trkpt lat="43.12674" lon="6.08445">
        <ele>93.9595</ele>
        <time>2014-05-11T05:11:57Z</time>
      </trkpt>
      <trkpt lat="43.1269" lon="6.08407">
        <ele>93.979</ele>
        <time>2014-05-11T05:12:03Z</time>
      </trkpt>
      <trkpt lat="43.12703" lon="6.08377">
        <ele>94.6176</ele>
        <time>2014-05-11T05:12:08Z</time>
      </trkpt>
      <trkpt lat="43.12719" lon="6.0834">
        <ele>94.4265</ele>
        <time>2014-05-11T05:12:14Z</time>
      </trkpt>
      <trkpt lat="43.12727" lon="6.08321">
        <ele>94.9847</ele>
        <time>2014-05-11T05:12:17Z</time>
      </trkpt>
      <trkpt lat="43.12735" lon="6.08301">
        <ele>94.9375</ele>
        <time>2014-05-11T05:12:20Z</time>
      </trkpt>
      <trkpt lat="43.12747" lon="6.08268">
        <ele>94.1847</ele>
        <time>2014-05-11T05:12:25Z</time>
      </trkpt>
      <trkpt lat="43.12763" lon="6.08228">
        <ele>95.5201</ele>
        <time>2014-05-11T05:12:31Z</time>
      </trkpt>
      <trkpt lat="43.12778" lon="6.08187">
        <ele>96.3066</ele>
        <time>2014-05-11T05:12:37Z</time>
      </trkpt>
      <trkpt lat="43.12791" lon="6.08148">
        <ele>97.3467</ele>
        <time>2014-05-11T05:12:43Z</time>
      </trkpt>
      <trkpt lat="43.12801" lon="6.08116">
        <ele>96.9091</ele>
        <time>2014-05-11T05:12:48Z</time>
      </trkpt>
      <trkpt lat="43.12812" lon="6.08076">
        <ele>97.6424</ele>
        <time>2014-05-11T05:12:54Z</time>
      </trkpt>
      <trkpt lat="43.12818" lon="6.08055">
        <ele>98.0496</ele>
        <time>2014-05-11T05:12:57Z</time>
      </trkpt>
      <trkpt lat="43.12828" lon="6.08018">
        <ele>96.8964</ele>
        <time>2014-05-11T05:13:03Z</time>
      </trkpt>
      <trkpt lat="43.12835" lon="6.07985">
        <ele>98.4175</ele>
        <time>2014-05-11T05:13:08Z</time>
      </trkpt>
      <trkpt lat="43.12843" lon="6.07942">
        <ele>99.8382</ele>
        <time>2014-05-11T05:13:14Z</time>
      </trkpt>
      <trkpt lat="43.1285" lon="6.07898">
        <ele>99.8492</ele>
        <time>2014-05-11T05:13:20Z</time>
      </trkpt>
      <trkpt lat="43.12856" lon="6.07863">
        <ele>101.273</ele>
        <time>2014-05-11T05:13:25Z</time>
      </trkpt>
      <trkpt lat="43.12862" lon="6.07827">
        <ele>99.624</ele>
        <time>2014-05-11T05:13:30Z</time>
      </trkpt>
      <trkpt lat="43.12869" lon="6.07789">
        <ele>101.388</ele>
        <time>2014-05-11T05:13:36Z</time>
      </trkpt>
      <trkpt lat="43.12875" lon="6.07753">
        <ele>100.779</ele>
        <time>2014-05-11T05:13:42Z</time>
      </trkpt>
      <trkpt lat="43.12877" lon="6.07737">
        <ele>99.7961</ele>
        <time>2014-05-11T05:13:45Z</time>
      </trkpt>
      <trkpt lat="43.12879" lon="6.0772">
        <ele>98.6116</ele>
        <time>2014-05-11T05:13:48Z</time>
      </trkpt>
      <trkpt lat="43.12883" lon="6.07684">
        <ele>99.1384</ele>
        <time>2014-05-11T05:13:54Z</time>
      </trkpt>
      <trkpt lat="43.12886" lon="6.0764">
        <ele>99.599</ele>
        <time>2014-05-11T05:14:01Z</time>
      </trkpt>
      <trkpt lat="43.12887" lon="6.0761">
        <ele>97.9671</ele>
        <time>2014-05-11T05:14:06Z</time>
      </trkpt>
      <trkpt lat="43.12857" lon="6.07589">
        <ele>96.0325</ele>
        <time>2014-05-11T05:14:13Z</time>
      </trkpt>
      <trkpt lat="43.12811" lon="6.07571">
        <ele>94.2771</ele>
        <time>2014-05-11T05:14:19Z</time>
      </trkpt>
      <trkpt lat="43.1277" lon="6.07537">
        <ele>91.4269</ele>
        <time>2014-05-11T05:14:24Z</time>
      </trkpt>
      <trkpt lat="43.12727" lon="6.07493">
        <ele>91.3521</ele>
        <time>2014-05-11T05:14:30Z</time>
      </trkpt>
      <trkpt lat="43.127" lon="6.07468">
        <ele>92.8596</ele>
        <time>2014-05-11T05:14:35Z</time>
      </trkpt>
      <trkpt lat="43.12677" lon="6.07444">
        <ele>94.1244</ele>
        <time>2014-05-11T05:14:40Z</time>
      </trkpt>
      <trkpt lat="43.12655" lon="6.07419">
        <ele>93.9361</ele>
        <time>2014-05-11T05:14:46Z</time>
      </trkpt>
      <trkpt lat="43.12636" lon="6.07396">
        <ele>94.773</ele>
        <time>2014-05-11T05:14:52Z</time>
      </trkpt>
      <trkpt lat="43.12624" lon="6.07385">
        <ele>94.8332</ele>
        <time>2014-05-11T05:14:55Z</time>
      </trkpt>
      <trkpt lat="43.12602" lon="6.07367">
        <ele>96.146</ele>
        <time>2014-05-11T05:15:01Z</time>
      </trkpt>
      <trkpt lat="43.12571" lon="6.07344">
        <ele>93.6192</ele>
        <time>2014-05-11T05:15:09Z</time>
      </trkpt>
      <trkpt lat="43.12548" lon="6.07331">
        <ele>89.7891</ele>
        <time>2014-05-11T05:15:14Z</time>
      </trkpt>
      <trkpt lat="43.12516" lon="6.07319">
        <ele>84.046</ele>
        <time>2014-05-11T05:15:20Z</time>
      </trkpt>
      <trkpt lat="43.12477" lon="6.07314">
        <ele>80.528</ele>
        <time>2014-05-11T05:15:26Z</time>
      </trkpt>
      <trkpt lat="43.12444" lon="6.07313">
        <ele>79.2958</ele>
        <time>2014-05-11T05:15:31Z</time>
      </trkpt>
      <trkpt lat="43.1241" lon="6.07313">
        <ele>84.1932</ele>
        <time>2014-05-11T05:15:36Z</time>
      </trkpt>
      <trkpt lat="43.12368" lon="6.07312">
        <ele>85.1912</ele>
        <time>2014-05-11T05:15:43Z</time>
      </trkpt>
      <trkpt lat="43.12338" lon="6.07311">
        <ele>86.1492</ele>
        <time>2014-05-11T05:15:48Z</time>
      </trkpt>
      <trkpt lat="43.1232" lon="6.07313">
        <ele>86.7376</ele>
        <time>2014-05-11T05:15:51Z</time>
      </trkpt>
      <trkpt lat="43.12281" lon="6.07321">
        <ele>87.7139</ele>
        <time>2014-05-11T05:15:58Z</time>
      </trkpt>
      <trkpt lat="43.12249" lon="6.07334">
        <ele>88.7408</ele>
        <time>2014-05-11T05:16:03Z</time>
      </trkpt>
      <trkpt lat="43.12215" lon="6.07347">
        <ele>89.0106</ele>
        <time>2014-05-11T05:16:09Z</time>
      </trkpt>
      <trkpt lat="43.12183" lon="6.07342">
        <ele>91.3955</ele>
        <time>2014-05-11T05:16:15Z</time>
      </trkpt>
      <trkpt lat="43.12172" lon="6.07327">
        <ele>93.0285</ele>
        <time>2014-05-11T05:16:18Z</time>
      </trkpt>
      <trkpt lat="43.12179" lon="6.07294">
        <ele>91.5659</ele>
        <time>2014-05-11T05:16:23Z</time>
      </trkpt>
      <trkpt lat="43.12178" lon="6.07288">
        <ele>91.4555</ele>
        <time>2014-05-11T05:16:27Z</time>
      </trkpt>
      <trkpt lat="43.12178" lon="6.07288">
        <ele>38.5</ele>
        <time>2014-05-11T05:16:33Z</time>
      </trkpt>
      <trkpt lat="43.12178" lon="6.07288">
        <ele>38.5</ele>
        <time>2014-05-11T05:16:37Z</time>
      </trkpt>
      <trkpt lat="43.1218" lon="6.07281">
        <ele>91.0368</ele>
        <time>2014-05-11T05:16:37Z</time>
      </trkpt>
      <trkpt lat="43.12185" lon="6.07231">
        <ele>88.4097</ele>
        <time>2014-05-11T05:16:48Z</time>
      </trkpt>
      <trkpt lat="43.12185" lon="6.07201">
        <ele>88.232</ele>
        <time>2014-05-11T05:16:53Z</time>
      </trkpt>
      <trkpt lat="43.12191" lon="6.07171">
        <ele>88.8821</ele>
        <time>2014-05-11T05:16:58Z</time>
      </trkpt>
      <trkpt lat="43.12197" lon="6.07135">
        <ele>89.5946</ele>
        <time>2014-05-11T05:17:04Z</time>
      </trkpt>
      <trkpt lat="43.12205" lon="6.07094">
        <ele>93.1925</ele>
        <time>2014-05-11T05:17:10Z</time>
      </trkpt>
      <trkpt lat="43.12209" lon="6.07054">
        <ele>91.8091</ele>
        <time>2014-05-11T05:17:16Z</time>
      </trkpt>
      <trkpt lat="43.12211" lon="6.07022">
        <ele>90.94</ele>
        <time>2014-05-11T05:17:21Z</time>
      </trkpt>
      <trkpt lat="43.12211" lon="6.06985">
        <ele>91.6845</ele>
        <time>2014-05-11T05:17:27Z</time>
      </trkpt>
      <trkpt lat="43.12212" lon="6.06969">
        <ele>91.7317</ele>
        <time>2014-05-11T05:17:33Z</time>
      </trkpt>
      <trkpt lat="43.12213" lon="6.06917">
        <ele>94.7264</ele>
        <time>2014-05-11T05:17:41Z</time>
      </trkpt>
      <trkpt lat="43.12215" lon="6.06894">
        <ele>93.0477</ele>
        <time>2014-05-11T05:17:44Z</time>
      </trkpt>
      <trkpt lat="43.12217" lon="6.06874">
        <ele>92.5165</ele>
        <time>2014-05-11T05:17:47Z</time>
      </trkpt>
      <trkpt lat="43.1222" lon="6.0685">
        <ele>92.6875</ele>
        <time>2014-05-11T05:17:50Z</time>
      </trkpt>
      <trkpt lat="43.12224" lon="6.06813">
        <ele>95.8046</ele>
        <time>2014-05-11T05:17:55Z</time>
      </trkpt>
      <trkpt lat="43.12226" lon="6.06792">
        <ele>95.2378</ele>
        <time>2014-05-11T05:17:58Z</time>
      </trkpt>
      <trkpt lat="43.12229" lon="6.06749">
        <ele>96.3526</ele>
        <time>2014-05-11T05:18:04Z</time>
      </trkpt>
      <trkpt lat="43.12235" lon="6.06706">
        <ele>94.8192</ele>
        <time>2014-05-11T05:18:10Z</time>
      </trkpt>
      <trkpt lat="43.12241" lon="6.06662">
        <ele>92.6427</ele>
        <time>2014-05-11T05:18:16Z</time>
      </trkpt>
      <trkpt lat="43.12245" lon="6.06624">
        <ele>94.295</ele>
        <time>2014-05-11T05:18:21Z</time>
      </trkpt>
      <trkpt lat="43.12246" lon="6.06601">
        <ele>94.5411</ele>
        <time>2014-05-11T05:18:24Z</time>
      </trkpt>
      <trkpt lat="43.12246" lon="6.06579">
        <ele>93.0109</ele>
        <time>2014-05-11T05:18:27Z</time>
      </trkpt>
      <trkpt lat="43.12245" lon="6.06539">
        <ele>91.4</ele>
        <time>2014-05-11T05:18:32Z</time>
      </trkpt>
      <trkpt lat="43.12242" lon="6.06489">
        <ele>92.2226</ele>
        <time>2014-05-11T05:18:38Z</time>
      </trkpt>
      <trkpt lat="43.12235" lon="6.06441">
        <ele>92.8624</ele>
        <time>2014-05-11T05:18:44Z</time>
      </trkpt>
      <trkpt lat="43.12223" lon="6.06396">
        <ele>90.2782</ele>
        <time>2014-05-11T05:18:50Z</time>
      </trkpt>
      <trkpt lat="43.12214" lon="6.06362">
        <ele>88.2317</ele>
        <time>2014-05-11T05:18:55Z</time>
      </trkpt>
      <trkpt lat="43.12203" lon="6.06322">
        <ele>85.5341</ele>
        <time>2014-05-11T05:19:01Z</time>
      </trkpt>
      <trkpt lat="43.12192" lon="6.06284">
        <ele>88.4415</ele>
        <time>2014-05-11T05:19:06Z</time>
      </trkpt>
      <trkpt lat="43.12187" lon="6.06245">
        <ele>90.7349</ele>
        <time>2014-05-11T05:19:11Z</time>
      </trkpt>
      <trkpt lat="43.12187" lon="6.06206">
        <ele>92.791</ele>
        <time>2014-05-11T05:19:16Z</time>
      </trkpt>
      <trkpt lat="43.12184" lon="6.06161">
        <ele>91.0963</ele>
        <time>2014-05-11T05:19:22Z</time>
      </trkpt>
      <trkpt lat="43.12179" lon="6.06121">
        <ele>90.6674</ele>
        <time>2014-05-11T05:19:27Z</time>
      </trkpt>
      <trkpt lat="43.12176" lon="6.06069">
        <ele>90.7838</ele>
        <time>2014-05-11T05:19:33Z</time>
      </trkpt>
      <trkpt lat="43.12175" lon="6.06045">
        <ele>89.6867</ele>
        <time>2014-05-11T05:19:36Z</time>
      </trkpt>
      <trkpt lat="43.12174" lon="6.06022">
        <ele>87.9387</ele>
        <time>2014-05-11T05:19:39Z</time>
      </trkpt>
      <trkpt lat="43.12172" lon="6.06">
        <ele>87.037</ele>
        <time>2014-05-11T05:19:42Z</time>
      </trkpt>
      <trkpt lat="43.12166" lon="6.05957">
        <ele>89.3349</ele>
        <time>2014-05-11T05:19:47Z</time>
      </trkpt>
      <trkpt lat="43.12156" lon="6.05913">
        <ele>91.1731</ele>
        <time>2014-05-11T05:19:53Z</time>
      </trkpt>
      <trkpt lat="43.12151" lon="6.0589">
        <ele>91.9643</ele>
        <time>2014-05-11T05:19:56Z</time>
      </trkpt>
      <trkpt lat="43.12145" lon="6.05865">
        <ele>91.3205</ele>
        <time>2014-05-11T05:19:59Z</time>
      </trkpt>
      <trkpt lat="43.1214" lon="6.05844">
        <ele>90.2801</ele>
        <time>2014-05-11T05:20:02Z</time>
      </trkpt>
      <trkpt lat="43.12135" lon="6.05823">
        <ele>90.2539</ele>
        <time>2014-05-11T05:20:05Z</time>
      </trkpt>
      <trkpt lat="43.12125" lon="6.05786">
        <ele>88.3993</ele>
        <time>2014-05-11T05:20:10Z</time>
      </trkpt>
      <trkpt lat="43.12115" lon="6.05749">
        <ele>87.4221</ele>
        <time>2014-05-11T05:20:15Z</time>
      </trkpt>
      <trkpt lat="43.12108" lon="6.05727">
        <ele>87.8275</ele>
        <time>2014-05-11T05:20:18Z</time>
      </trkpt>
      <trkpt lat="43.12099" lon="6.05691">
        <ele>86.7315</ele>
        <time>2014-05-11T05:20:23Z</time>
      </trkpt>
      <trkpt lat="43.12089" lon="6.05654">
        <ele>86.3079</ele>
        <time>2014-05-11T05:20:28Z</time>
      </trkpt>
      <trkpt lat="43.12082" lon="6.05627">
        <ele>86.269</ele>
        <time>2014-05-11T05:20:31Z</time>
      </trkpt>
      <trkpt lat="43.12078" lon="6.05583">
        <ele>85.7246</ele>
        <time>2014-05-11T05:20:36Z</time>
      </trkpt>
      <trkpt lat="43.12077" lon="6.05555">
        <ele>85.9943</ele>
        <time>2014-05-11T05:20:39Z</time>
      </trkpt>
      <trkpt lat="43.12076" lon="6.05507">
        <ele>85.8012</ele>
        <time>2014-05-11T05:20:44Z</time>
      </trkpt>
      <trkpt lat="43.12074" lon="6.05453">
        <ele>84.2082</ele>
        <time>2014-05-11T05:20:50Z</time>
      </trkpt>
      <trkpt lat="43.12086" lon="6.05402">
        <ele>83.3576</ele>
        <time>2014-05-11T05:20:56Z</time>
      </trkpt>
      <trkpt lat="43.12101" lon="6.05353">
        <ele>87.6892</ele>
        <time>2014-05-11T05:21:02Z</time>
      </trkpt>
      <trkpt lat="43.12114" lon="6.05312">
        <ele>86.6028</ele>
        <time>2014-05-11T05:21:07Z</time>
      </trkpt>
      <trkpt lat="43.12122" lon="6.05286">
        <ele>86.1792</ele>
        <time>2014-05-11T05:21:10Z</time>
      </trkpt>
      <trkpt lat="43.12134" lon="6.05236">
        <ele>85.977</ele>
        <time>2014-05-11T05:21:16Z</time>
      </trkpt>
      <trkpt lat="43.12143" lon="6.05192">
        <ele>85.792</ele>
        <time>2014-05-11T05:21:21Z</time>
      </trkpt>
      <trkpt lat="43.12148" lon="6.05166">
        <ele>84.6167</ele>
        <time>2014-05-11T05:21:24Z</time>
      </trkpt>
      <trkpt lat="43.12153" lon="6.05138">
        <ele>85.7552</ele>
        <time>2014-05-11T05:21:27Z</time>
      </trkpt>
      <trkpt lat="43.12158" lon="6.05111">
        <ele>87.3456</ele>
        <time>2014-05-11T05:21:30Z</time>
      </trkpt>
      <trkpt lat="43.12167" lon="6.05071">
        <ele>84.5067</ele>
        <time>2014-05-11T05:21:35Z</time>
      </trkpt>
      <trkpt lat="43.12177" lon="6.05017">
        <ele>81.3207</ele>
        <time>2014-05-11T05:21:41Z</time>
      </trkpt>
      <trkpt lat="43.12187" lon="6.04966">
        <ele>81.9456</ele>
        <time>2014-05-11T05:21:47Z</time>
      </trkpt>
      <trkpt lat="43.12197" lon="6.04906">
        <ele>80.227</ele>
        <time>2014-05-11T05:21:54Z</time>
      </trkpt>
      <trkpt lat="43.12209" lon="6.04853">
        <ele>80.1501</ele>
        <time>2014-05-11T05:22:00Z</time>
      </trkpt>
      <trkpt lat="43.12218" lon="6.04798">
        <ele>80.761</ele>
        <time>2014-05-11T05:22:07Z</time>
      </trkpt>
      <trkpt lat="43.12223" lon="6.04755">
        <ele>80.6135</ele>
        <time>2014-05-11T05:22:12Z</time>
      </trkpt>
      <trkpt lat="43.12227" lon="6.04731">
        <ele>82.1916</ele>
        <time>2014-05-11T05:22:15Z</time>
      </trkpt>
      <trkpt lat="43.12239" lon="6.04679">
        <ele>80.0843</ele>
        <time>2014-05-11T05:22:21Z</time>
      </trkpt>
      <trkpt lat="43.12252" lon="6.04639">
        <ele>79.9704</ele>
        <time>2014-05-11T05:22:26Z</time>
      </trkpt>
      <trkpt lat="43.12266" lon="6.04593">
        <ele>78.2648</ele>
        <time>2014-05-11T05:22:32Z</time>
      </trkpt>
      <trkpt lat="43.12281" lon="6.04542">
        <ele>78.2685</ele>
        <time>2014-05-11T05:22:38Z</time>
      </trkpt>
      <trkpt lat="43.12293" lon="6.04501">
        <ele>77.5206</ele>
        <time>2014-05-11T05:22:43Z</time>
      </trkpt>
      <trkpt lat="43.12303" lon="6.0446">
        <ele>76.9336</ele>
        <time>2014-05-11T05:22:48Z</time>
      </trkpt>
      <trkpt lat="43.12316" lon="6.0441">
        <ele>76.7628</ele>
        <time>2014-05-11T05:22:54Z</time>
      </trkpt>
      <trkpt lat="43.12324" lon="6.04373">
        <ele>79.5937</ele>
        <time>2014-05-11T05:22:59Z</time>
      </trkpt>
      <trkpt lat="43.12331" lon="6.04348">
        <ele>77.8256</ele>
        <time>2014-05-11T05:23:02Z</time>
      </trkpt>
      <trkpt lat="43.12345" lon="6.04308">
        <ele>75.8631</ele>
        <time>2014-05-11T05:23:07Z</time>
      </trkpt>
      <trkpt lat="43.12354" lon="6.04284">
        <ele>75.8047</ele>
        <time>2014-05-11T05:23:10Z</time>
      </trkpt>
      <trkpt lat="43.12361" lon="6.04261">
        <ele>76.3332</ele>
        <time>2014-05-11T05:23:13Z</time>
      </trkpt>
      <trkpt lat="43.12373" lon="6.04225">
        <ele>75.8314</ele>
        <time>2014-05-11T05:23:18Z</time>
      </trkpt>
      <trkpt lat="43.12402" lon="6.04224">
        <ele>79.7968</ele>
        <time>2014-05-11T05:23:23Z</time>
      </trkpt>
      <trkpt lat="43.12433" lon="6.04228">
        <ele>80.0711</ele>
        <time>2014-05-11T05:23:28Z</time>
      </trkpt>
      <trkpt lat="43.1247" lon="6.04236">
        <ele>80.078</ele>
        <time>2014-05-11T05:23:34Z</time>
      </trkpt>
      <trkpt lat="43.12519" lon="6.04237">
        <ele>76.8525</ele>
        <time>2014-05-11T05:23:42Z</time>
      </trkpt>
      <trkpt lat="43.12549" lon="6.04236">
        <ele>77.9882</ele>
        <time>2014-05-11T05:23:47Z</time>
      </trkpt>
      <trkpt lat="43.12579" lon="6.04241">
        <ele>78.591</ele>
        <time>2014-05-11T05:23:52Z</time>
      </trkpt>
      <trkpt lat="43.12609" lon="6.04257">
        <ele>79.5433</ele>
        <time>2014-05-11T05:23:58Z</time>
      </trkpt>
      <trkpt lat="43.12638" lon="6.0427">
        <ele>77.2431</ele>
        <time>2014-05-11T05:24:04Z</time>
      </trkpt>
      <trkpt lat="43.1267" lon="6.0426">
        <ele>79.0568</ele>
        <time>2014-05-11T05:24:10Z</time>
      </trkpt>
      <trkpt lat="43.12687" lon="6.04253">
        <ele>80.3005</ele>
        <time>2014-05-11T05:24:13Z</time>
      </trkpt>
      <trkpt lat="43.12708" lon="6.04246">
        <ele>81.8179</ele>
        <time>2014-05-11T05:24:17Z</time>
      </trkpt>
      <trkpt lat="43.12738" lon="6.04227">
        <ele>79.8613</ele>
        <time>2014-05-11T05:24:23Z</time>
      </trkpt>
      <trkpt lat="43.12759" lon="6.04204">
        <ele>76.8326</ele>
        <time>2014-05-11T05:24:28Z</time>
      </trkpt>
      <trkpt lat="43.12782" lon="6.04174">
        <ele>77.6312</ele>
        <time>2014-05-11T05:24:34Z</time>
      </trkpt>
      <trkpt lat="43.12804" lon="6.04137">
        <ele>76.6923</ele>
        <time>2014-05-11T05:24:40Z</time>
      </trkpt>
      <trkpt lat="43.12822" lon="6.0411">
        <ele>77.8965</ele>
        <time>2014-05-11T05:24:45Z</time>
      </trkpt>
      <trkpt lat="43.12846" lon="6.04078">
        <ele>76.9621</ele>
        <time>2014-05-11T05:24:51Z</time>
      </trkpt>
      <trkpt lat="43.12866" lon="6.04051">
        <ele>76.9902</ele>
        <time>2014-05-11T05:24:56Z</time>
      </trkpt>
      <trkpt lat="43.12894" lon="6.04022">
        <ele>78.2761</ele>
        <time>2014-05-11T05:25:02Z</time>
      </trkpt>
      <trkpt lat="43.12916" lon="6.03998">
        <ele>79.126</ele>
        <time>2014-05-11T05:25:07Z</time>
      </trkpt>
      <trkpt lat="43.1293" lon="6.03959">
        <ele>79.8769</ele>
        <time>2014-05-11T05:25:13Z</time>
      </trkpt>
      <trkpt lat="43.12923" lon="6.03912">
        <ele>79.1538</ele>
        <time>2014-05-11T05:25:19Z</time>
      </trkpt>
      <trkpt lat="43.12925" lon="6.03864">
        <ele>77.2903</ele>
        <time>2014-05-11T05:25:25Z</time>
      </trkpt>
      <trkpt lat="43.1293" lon="6.03842">
        <ele>76.4392</ele>
        <time>2014-05-11T05:25:28Z</time>
      </trkpt>
      <trkpt lat="43.12935" lon="6.0382">
        <ele>76.6595</ele>
        <time>2014-05-11T05:25:31Z</time>
      </trkpt>
      <trkpt lat="43.12943" lon="6.03783">
        <ele>76.581</ele>
        <time>2014-05-11T05:25:36Z</time>
      </trkpt>
      <trkpt lat="43.12949" lon="6.03751">
        <ele>75.0515</ele>
        <time>2014-05-11T05:25:41Z</time>
      </trkpt>
      <trkpt lat="43.12955" lon="6.03711">
        <ele>75.9245</ele>
        <time>2014-05-11T05:25:46Z</time>
      </trkpt>
      <trkpt lat="43.12961" lon="6.03689">
        <ele>76.4905</ele>
        <time>2014-05-11T05:25:49Z</time>
      </trkpt>
      <trkpt lat="43.12977" lon="6.0366">
        <ele>75.5469</ele>
        <time>2014-05-11T05:25:54Z</time>
      </trkpt>
      <trkpt lat="43.13" lon="6.03631">
        <ele>77.1763</ele>
        <time>2014-05-11T05:26:00Z</time>
      </trkpt>
      <trkpt lat="43.13022" lon="6.03606">
        <ele>77.5785</ele>
        <time>2014-05-11T05:26:05Z</time>
      </trkpt>
      <trkpt lat="43.13034" lon="6.03592">
        <ele>78.3003</ele>
        <time>2014-05-11T05:26:08Z</time>
      </trkpt>
      <trkpt lat="43.13054" lon="6.03571">
        <ele>78.7347</ele>
        <time>2014-05-11T05:26:13Z</time>
      </trkpt>
      <trkpt lat="43.13082" lon="6.03546">
        <ele>79.6892</ele>
        <time>2014-05-11T05:26:19Z</time>
      </trkpt>
      <trkpt lat="43.13107" lon="6.03519">
        <ele>80.9154</ele>
        <time>2014-05-11T05:26:25Z</time>
      </trkpt>
      <trkpt lat="43.13131" lon="6.03489">
        <ele>82.4078</ele>
        <time>2014-05-11T05:26:31Z</time>
      </trkpt>
      <trkpt lat="43.13156" lon="6.03463">
        <ele>79.228</ele>
        <time>2014-05-11T05:26:37Z</time>
      </trkpt>
      <trkpt lat="43.13181" lon="6.03438">
        <ele>81.106</ele>
        <time>2014-05-11T05:26:43Z</time>
      </trkpt>
      <trkpt lat="43.13202" lon="6.03416">
        <ele>80.852</ele>
        <time>2014-05-11T05:26:48Z</time>
      </trkpt>
      <trkpt lat="43.13226" lon="6.03389">
        <ele>79.7328</ele>
        <time>2014-05-11T05:26:54Z</time>
      </trkpt>
      <trkpt lat="43.13245" lon="6.03362">
        <ele>79.3028</ele>
        <time>2014-05-11T05:26:59Z</time>
      </trkpt>
      <trkpt lat="43.13267" lon="6.03328">
        <ele>78.5925</ele>
        <time>2014-05-11T05:27:05Z</time>
      </trkpt>
      <trkpt lat="43.13288" lon="6.033">
        <ele>78.5024</ele>
        <time>2014-05-11T05:27:11Z</time>
      </trkpt>
      <trkpt lat="43.13309" lon="6.03283">
        <ele>78.9081</ele>
        <time>2014-05-11T05:27:16Z</time>
      </trkpt>
      <trkpt lat="43.13331" lon="6.03268">
        <ele>78.9448</ele>
        <time>2014-05-11T05:27:21Z</time>
      </trkpt>
      <trkpt lat="43.13346" lon="6.03263">
        <ele>80.1361</ele>
        <time>2014-05-11T05:27:24Z</time>
      </trkpt>
      <trkpt lat="43.1336" lon="6.03264">
        <ele>80.974</ele>
        <time>2014-05-11T05:27:27Z</time>
      </trkpt>
      <trkpt lat="43.13384" lon="6.03265">
        <ele>81.6574</ele>
        <time>2014-05-11T05:27:32Z</time>
      </trkpt>
      <trkpt lat="43.13398" lon="6.03262">
        <ele>81.964</ele>
        <time>2014-05-11T05:27:35Z</time>
      </trkpt>
      <trkpt lat="43.13413" lon="6.03259">
        <ele>80.1294</ele>
        <time>2014-05-11T05:27:38Z</time>
      </trkpt>
      <trkpt lat="43.1343" lon="6.03254">
        <ele>79.7245</ele>
        <time>2014-05-11T05:27:41Z</time>
      </trkpt>
      <trkpt lat="43.13451" lon="6.0324">
        <ele>83.4399</ele>
        <time>2014-05-11T05:27:46Z</time>
      </trkpt>
      <trkpt lat="43.13464" lon="6.03233">
        <ele>84.0557</ele>
        <time>2014-05-11T05:27:49Z</time>
      </trkpt>
      <trkpt lat="43.13476" lon="6.03227">
        <ele>83.3178</ele>
        <time>2014-05-11T05:27:52Z</time>
      </trkpt>
      <trkpt lat="43.13502" lon="6.03213">
        <ele>83.8274</ele>
        <time>2014-05-11T05:27:58Z</time>
      </trkpt>
      <trkpt lat="43.13519" lon="6.03211">
        <ele>85.3009</ele>
        <time>2014-05-11T05:28:04Z</time>
      </trkpt>
      <trkpt lat="43.13519" lon="6.03211">
        <ele>85.3009</ele>
        <time>2014-05-11T05:28:14Z</time>
      </trkpt>
      <trkpt lat="43.13519" lon="6.03211">
        <ele>32</ele>
        <time>2014-05-11T05:28:14Z</time>
      </trkpt>
      <trkpt lat="43.13519" lon="6.03211">
        <ele>32</ele>
        <time>2014-05-11T05:28:27Z</time>
      </trkpt>
      <trkpt lat="43.13534" lon="6.03203">
        <ele>87.0393</ele>
        <time>2014-05-11T05:28:27Z</time>
      </trkpt>
      <trkpt lat="43.13556" lon="6.03186">
        <ele>87.1648</ele>
        <time>2014-05-11T05:28:34Z</time>
      </trkpt>
      <trkpt lat="43.13569" lon="6.03151">
        <ele>86.1367</ele>
        <time>2014-05-11T05:28:40Z</time>
      </trkpt>
      <trkpt lat="43.13578" lon="6.03103">
        <ele>85.9319</ele>
        <time>2014-05-11T05:28:47Z</time>
      </trkpt>
      <trkpt lat="43.13585" lon="6.03074">
        <ele>86.9789</ele>
        <time>2014-05-11T05:28:52Z</time>
      </trkpt>
      <trkpt lat="43.13593" lon="6.0304">
        <ele>88.0947</ele>
        <time>2014-05-11T05:28:57Z</time>
      </trkpt>
      <trkpt lat="43.13598" lon="6.03016">
        <ele>89.6799</ele>
        <time>2014-05-11T05:29:00Z</time>
      </trkpt>
      <trkpt lat="43.1361" lon="6.02969">
        <ele>89.5275</ele>
        <time>2014-05-11T05:29:06Z</time>
      </trkpt>
      <trkpt lat="43.13623" lon="6.02925">
        <ele>87.3177</ele>
        <time>2014-05-11T05:29:12Z</time>
      </trkpt>
      <trkpt lat="43.13633" lon="6.02889">
        <ele>89.4178</ele>
        <time>2014-05-11T05:29:17Z</time>
      </trkpt>
      <trkpt lat="43.13645" lon="6.02843">
        <ele>90.302</ele>
        <time>2014-05-11T05:29:23Z</time>
      </trkpt>
      <trkpt lat="43.13661" lon="6.02799">
        <ele>89.9118</ele>
        <time>2014-05-11T05:29:29Z</time>
      </trkpt>
      <trkpt lat="43.13676" lon="6.02764">
        <ele>89.5027</ele>
        <time>2014-05-11T05:29:34Z</time>
      </trkpt>
      <trkpt lat="43.13685" lon="6.0273">
        <ele>90.481</ele>
        <time>2014-05-11T05:29:39Z</time>
      </trkpt>
      <trkpt lat="43.13703" lon="6.02693">
        <ele>84.7743</ele>
        <time>2014-05-11T05:29:45Z</time>
      </trkpt>
      <trkpt lat="43.1372" lon="6.02654">
        <ele>84.2496</ele>
        <time>2014-05-11T05:29:51Z</time>
      </trkpt>
      <trkpt lat="43.13734" lon="6.02622">
        <ele>81.0018</ele>
        <time>2014-05-11T05:29:57Z</time>
      </trkpt>
      <trkpt lat="43.13746" lon="6.02587">
        <ele>85.0336</ele>
        <time>2014-05-11T05:30:03Z</time>
      </trkpt>
      <trkpt lat="43.13755" lon="6.02548">
        <ele>87.3474</ele>
        <time>2014-05-11T05:30:08Z</time>
      </trkpt>
      <trkpt lat="43.13763" lon="6.02507">
        <ele>88.3784</ele>
        <time>2014-05-11T05:30:13Z</time>
      </trkpt>
      <trkpt lat="43.1377" lon="6.02451">
        <ele>90.3165</ele>
        <time>2014-05-11T05:30:20Z</time>
      </trkpt>
      <trkpt lat="43.13772" lon="6.02413">
        <ele>86.8713</ele>
        <time>2014-05-11T05:30:25Z</time>
      </trkpt>
      <trkpt lat="43.13773" lon="6.02387">
        <ele>84.5318</ele>
        <time>2014-05-11T05:30:28Z</time>
      </trkpt>
      <trkpt lat="43.13773" lon="6.02362">
        <ele>82.3601</ele>
        <time>2014-05-11T05:30:31Z</time>
      </trkpt>
      <trkpt lat="43.13773" lon="6.02322">
        <ele>83.9229</ele>
        <time>2014-05-11T05:30:36Z</time>
      </trkpt>
      <trkpt lat="43.1377" lon="6.023">
        <ele>83.3749</ele>
        <time>2014-05-11T05:30:39Z</time>
      </trkpt>
      <trkpt lat="43.13761" lon="6.02285">
        <ele>82.1247</ele>
        <time>2014-05-11T05:30:42Z</time>
      </trkpt>
      <trkpt lat="43.13727" lon="6.02259">
        <ele>82.2805</ele>
        <time>2014-05-11T05:30:48Z</time>
      </trkpt>
      <trkpt lat="43.13715" lon="6.02239">
        <ele>83.2607</ele>
        <time>2014-05-11T05:30:52Z</time>
      </trkpt>
      <trkpt lat="43.1372" lon="6.02199">
        <ele>83.4646</ele>
        <time>2014-05-11T05:30:57Z</time>
      </trkpt>
      <trkpt lat="43.13747" lon="6.02169">
        <ele>83.9736</ele>
        <time>2014-05-11T05:31:03Z</time>
      </trkpt>
      <trkpt lat="43.13762" lon="6.02159">
        <ele>84.3</ele>
        <time>2014-05-11T05:31:06Z</time>
      </trkpt>
      <trkpt lat="43.13773" lon="6.02123">
        <ele>89.2181</ele>
        <time>2014-05-11T05:31:12Z</time>
      </trkpt>
      <trkpt lat="43.13772" lon="6.0208">
        <ele>85.5629</ele>
        <time>2014-05-11T05:31:18Z</time>
      </trkpt>
      <trkpt lat="43.13773" lon="6.02057">
        <ele>84.9126</ele>
        <time>2014-05-11T05:31:21Z</time>
      </trkpt>
      <trkpt lat="43.13774" lon="6.02037">
        <ele>83.3284</ele>
        <time>2014-05-11T05:31:24Z</time>
      </trkpt>
      <trkpt lat="43.13777" lon="6.02015">
        <ele>80.6885</ele>
        <time>2014-05-11T05:31:27Z</time>
      </trkpt>
      <trkpt lat="43.1378" lon="6.01995">
        <ele>81.3506</ele>
        <time>2014-05-11T05:31:30Z</time>
      </trkpt>
      <trkpt lat="43.13782" lon="6.01975">
        <ele>80.9135</ele>
        <time>2014-05-11T05:31:33Z</time>
      </trkpt>
      <trkpt lat="43.13787" lon="6.01942">
        <ele>84.636</ele>
        <time>2014-05-11T05:31:38Z</time>
      </trkpt>
      <trkpt lat="43.13793" lon="6.01899">
        <ele>85.7544</ele>
        <time>2014-05-11T05:31:44Z</time>
      </trkpt>
      <trkpt lat="43.13795" lon="6.0188">
        <ele>84.1933</ele>
        <time>2014-05-11T05:31:47Z</time>
      </trkpt>
      <trkpt lat="43.13799" lon="6.01848">
        <ele>81.5594</ele>
        <time>2014-05-11T05:31:52Z</time>
      </trkpt>
      <trkpt lat="43.13802" lon="6.01822">
        <ele>82.3693</ele>
        <time>2014-05-11T05:31:57Z</time>
      </trkpt>
      <trkpt lat="43.13801" lon="6.01784">
        <ele>83.5238</ele>
        <time>2014-05-11T05:32:04Z</time>
      </trkpt>
      <trkpt lat="43.13797" lon="6.01755">
        <ele>82.6709</ele>
        <time>2014-05-11T05:32:09Z</time>
      </trkpt>
      <trkpt lat="43.13794" lon="6.01727">
        <ele>85.0137</ele>
        <time>2014-05-11T05:32:14Z</time>
      </trkpt>
      <trkpt lat="43.13789" lon="6.01689">
        <ele>87.4754</ele>
        <time>2014-05-11T05:32:20Z</time>
      </trkpt>
      <trkpt lat="43.13788" lon="6.01653">
        <ele>86.3254</ele>
        <time>2014-05-11T05:32:26Z</time>
      </trkpt>
      <trkpt lat="43.13786" lon="6.01638">
        <ele>85.7292</ele>
        <time>2014-05-11T05:32:29Z</time>
      </trkpt>
      <trkpt lat="43.13785" lon="6.01609">
        <ele>84.0794</ele>
        <time>2014-05-11T05:32:34Z</time>
      </trkpt>
      <trkpt lat="43.1378" lon="6.01582">
        <ele>83.7253</ele>
        <time>2014-05-11T05:32:39Z</time>
      </trkpt>
      <trkpt lat="43.13776" lon="6.01554">
        <ele>85.1766</ele>
        <time>2014-05-11T05:32:44Z</time>
      </trkpt>
      <trkpt lat="43.13774" lon="6.01525">
        <ele>87.2274</ele>
        <time>2014-05-11T05:32:49Z</time>
      </trkpt>
      <trkpt lat="43.1377" lon="6.01502">
        <ele>88.5931</ele>
        <time>2014-05-11T05:32:54Z</time>
      </trkpt>
      <trkpt lat="43.13769" lon="6.01452">
        <ele>91.1909</ele>
        <time>2014-05-11T05:33:03Z</time>
      </trkpt>
      <trkpt lat="43.13773" lon="6.01417">
        <ele>92.2455</ele>
        <time>2014-05-11T05:33:09Z</time>
      </trkpt>
      <trkpt lat="43.13772" lon="6.01388">
        <ele>94.8814</ele>
        <time>2014-05-11T05:33:14Z</time>
      </trkpt>
      <trkpt lat="43.13776" lon="6.01349">
        <ele>96.7789</ele>
        <time>2014-05-11T05:33:20Z</time>
      </trkpt>
      <trkpt lat="43.13778" lon="6.01315">
        <ele>93.9975</ele>
        <time>2014-05-11T05:33:26Z</time>
      </trkpt>
      <trkpt lat="43.13779" lon="6.01294">
        <ele>90.3393</ele>
        <time>2014-05-11T05:33:30Z</time>
      </trkpt>
      <trkpt lat="43.13779" lon="6.01274">
        <ele>86.4713</ele>
        <time>2014-05-11T05:33:33Z</time>
      </trkpt>
      <trkpt lat="43.1378" lon="6.01244">
        <ele>89.1841</ele>
        <time>2014-05-11T05:33:38Z</time>
      </trkpt>
      <trkpt lat="43.1378" lon="6.01226">
        <ele>89.7643</ele>
        <time>2014-05-11T05:33:41Z</time>
      </trkpt>
      <trkpt lat="43.13782" lon="6.012">
        <ele>90.7789</ele>
        <time>2014-05-11T05:33:45Z</time>
      </trkpt>
      <trkpt lat="43.13781" lon="6.01175">
        <ele>87.6463</ele>
        <time>2014-05-11T05:33:50Z</time>
      </trkpt>
      <trkpt lat="43.13778" lon="6.01139">
        <ele>83.0716</ele>
        <time>2014-05-11T05:33:57Z</time>
      </trkpt>
      <trkpt lat="43.13777" lon="6.01123">
        <ele>80.7354</ele>
        <time>2014-05-11T05:34:00Z</time>
      </trkpt>
      <trkpt lat="43.13776" lon="6.01105">
        <ele>79.8005</ele>
        <time>2014-05-11T05:34:03Z</time>
      </trkpt>
      <trkpt lat="43.13772" lon="6.01068">
        <ele>85.7397</ele>
        <time>2014-05-11T05:34:09Z</time>
      </trkpt>
      <trkpt lat="43.1377" lon="6.0104">
        <ele>88.4206</ele>
        <time>2014-05-11T05:34:14Z</time>
      </trkpt>
      <trkpt lat="43.13768" lon="6.01022">
        <ele>88.9161</ele>
        <time>2014-05-11T05:34:17Z</time>
      </trkpt>
      <trkpt lat="43.13767" lon="6.01002">
        <ele>88.4598</ele>
        <time>2014-05-11T05:34:20Z</time>
      </trkpt>
      <trkpt lat="43.13763" lon="6.00968">
        <ele>88.7439</ele>
        <time>2014-05-11T05:34:26Z</time>
      </trkpt>
      <trkpt lat="43.13761" lon="6.00938">
        <ele>91.3958</ele>
        <time>2014-05-11T05:34:31Z</time>
      </trkpt>
      <trkpt lat="43.13762" lon="6.009">
        <ele>95.1582</ele>
        <time>2014-05-11T05:34:38Z</time>
      </trkpt>
      <trkpt lat="43.13764" lon="6.00869">
        <ele>98.0483</ele>
        <time>2014-05-11T05:34:44Z</time>
      </trkpt>
      <trkpt lat="43.13752" lon="6.00833">
        <ele>92.0542</ele>
        <time>2014-05-11T05:34:51Z</time>
      </trkpt>
      <trkpt lat="43.13746" lon="6.00795">
        <ele>86.8636</ele>
        <time>2014-05-11T05:34:57Z</time>
      </trkpt>
      <trkpt lat="43.13744" lon="6.00764">
        <ele>85.1848</ele>
        <time>2014-05-11T05:35:02Z</time>
      </trkpt>
      <trkpt lat="43.13739" lon="6.00731">
        <ele>87.9643</ele>
        <time>2014-05-11T05:35:08Z</time>
      </trkpt>
      <trkpt lat="43.13738" lon="6.00711">
        <ele>89.8376</ele>
        <time>2014-05-11T05:35:11Z</time>
      </trkpt>
      <trkpt lat="43.13737" lon="6.00693">
        <ele>88.5241</ele>
        <time>2014-05-11T05:35:14Z</time>
      </trkpt>
      <trkpt lat="43.13735" lon="6.00662">
        <ele>89.2768</ele>
        <time>2014-05-11T05:35:19Z</time>
      </trkpt>
      <trkpt lat="43.13732" lon="6.00636">
        <ele>90.0769</ele>
        <time>2014-05-11T05:35:24Z</time>
      </trkpt>
      <trkpt lat="43.13728" lon="6.00601">
        <ele>93.5571</ele>
        <time>2014-05-11T05:35:30Z</time>
      </trkpt>
      <trkpt lat="43.13724" lon="6.00563">
        <ele>93.0757</ele>
        <time>2014-05-11T05:35:36Z</time>
      </trkpt>
      <trkpt lat="43.13723" lon="6.00532">
        <ele>93.3425</ele>
        <time>2014-05-11T05:35:41Z</time>
      </trkpt>
      <trkpt lat="43.1372" lon="6.00495">
        <ele>90.1055</ele>
        <time>2014-05-11T05:35:48Z</time>
      </trkpt>
      <trkpt lat="43.13716" lon="6.00465">
        <ele>90.8154</ele>
        <time>2014-05-11T05:35:53Z</time>
      </trkpt>
      <trkpt lat="43.13713" lon="6.0043">
        <ele>91.6582</ele>
        <time>2014-05-11T05:35:59Z</time>
      </trkpt>
      <trkpt lat="43.13712" lon="6.00411">
        <ele>91.645</ele>
        <time>2014-05-11T05:36:02Z</time>
      </trkpt>
      <trkpt lat="43.13711" lon="6.00383">
        <ele>91.5149</ele>
        <time>2014-05-11T05:36:07Z</time>
      </trkpt>
      <trkpt lat="43.1371" lon="6.00348">
        <ele>92.6763</ele>
        <time>2014-05-11T05:36:13Z</time>
      </trkpt>
      <trkpt lat="43.13714" lon="6.00316">
        <ele>93.2298</ele>
        <time>2014-05-11T05:36:19Z</time>
      </trkpt>
      <trkpt lat="43.13724" lon="6.00286">
        <ele>100.759</ele>
        <time>2014-05-11T05:36:25Z</time>
      </trkpt>
      <trkpt lat="43.1371" lon="6.00263">
        <ele>102.806</ele>
        <time>2014-05-11T05:36:30Z</time>
      </trkpt>
      <trkpt lat="43.13697" lon="6.0023">
        <ele>103.562</ele>
        <time>2014-05-11T05:36:36Z</time>
      </trkpt>
      <trkpt lat="43.13696" lon="6.00198">
        <ele>104.926</ele>
        <time>2014-05-11T05:36:41Z</time>
      </trkpt>
      <trkpt lat="43.13695" lon="6.00162">
        <ele>102.719</ele>
        <time>2014-05-11T05:36:47Z</time>
      </trkpt>
      <trkpt lat="43.13693" lon="6.00144">
        <ele>99.9748</ele>
        <time>2014-05-11T05:36:50Z</time>
      </trkpt>
      <trkpt lat="43.13691" lon="6.00108">
        <ele>95.6643</ele>
        <time>2014-05-11T05:36:56Z</time>
      </trkpt>
      <trkpt lat="43.13692" lon="6.00077">
        <ele>95.5411</ele>
        <time>2014-05-11T05:37:01Z</time>
      </trkpt>
      <trkpt lat="43.13695" lon="6.00044">
        <ele>96.8592</ele>
        <time>2014-05-11T05:37:07Z</time>
      </trkpt>
      <trkpt lat="43.13698" lon="6.00014">
        <ele>98.7796</ele>
        <time>2014-05-11T05:37:13Z</time>
      </trkpt>
      <trkpt lat="43.13697" lon="5.99979">
        <ele>100.492</ele>
        <time>2014-05-11T05:37:19Z</time>
      </trkpt>
      <trkpt lat="43.13704" lon="5.99943">
        <ele>104.023</ele>
        <time>2014-05-11T05:37:25Z</time>
      </trkpt>
      <trkpt lat="43.13708" lon="5.99914">
        <ele>105.235</ele>
        <time>2014-05-11T05:37:30Z</time>
      </trkpt>
      <trkpt lat="43.13711" lon="5.99895">
        <ele>107.191</ele>
        <time>2014-05-11T05:37:33Z</time>
      </trkpt>
      <trkpt lat="43.13719" lon="5.99847">
        <ele>108.647</ele>
        <time>2014-05-11T05:37:41Z</time>
      </trkpt>
      <trkpt lat="43.13724" lon="5.99816">
        <ele>106.509</ele>
        <time>2014-05-11T05:37:47Z</time>
      </trkpt>
      <trkpt lat="43.13729" lon="5.9978">
        <ele>106.718</ele>
        <time>2014-05-11T05:37:54Z</time>
      </trkpt>
      <trkpt lat="43.1373" lon="5.99753">
        <ele>107.134</ele>
        <time>2014-05-11T05:37:59Z</time>
      </trkpt>
      <trkpt lat="43.1373" lon="5.99722">
        <ele>108.506</ele>
        <time>2014-05-11T05:38:05Z</time>
      </trkpt>
      <trkpt lat="43.1373" lon="5.99704">
        <ele>108.714</ele>
        <time>2014-05-11T05:38:08Z</time>
      </trkpt>
      <trkpt lat="43.13732" lon="5.99675">
        <ele>109.15</ele>
        <time>2014-05-11T05:38:14Z</time>
      </trkpt>
      <trkpt lat="43.13733" lon="5.99659">
        <ele>109.433</ele>
        <time>2014-05-11T05:38:18Z</time>
      </trkpt>
      <trkpt lat="43.13734" lon="5.99644">
        <ele>109.291</ele>
        <time>2014-05-11T05:38:21Z</time>
      </trkpt>
      <trkpt lat="43.13735" lon="5.99615">
        <ele>107.265</ele>
        <time>2014-05-11T05:38:27Z</time>
      </trkpt>
      <trkpt lat="43.13737" lon="5.996">
        <ele>107.178</ele>
        <time>2014-05-11T05:38:30Z</time>
      </trkpt>
      <trkpt lat="43.13739" lon="5.99592">
        <ele>107.237</ele>
        <time>2014-05-11T05:38:33Z</time>
      </trkpt>
      <trkpt lat="43.13739" lon="5.99592">
        <ele>64.1</ele>
        <time>2014-05-11T05:38:38Z</time>
      </trkpt>
      <trkpt lat="43.13739" lon="5.99592">
        <ele>64.1</ele>
        <time>2014-05-11T05:39:12Z</time>
      </trkpt>
      <trkpt lat="43.1374" lon="5.9955">
        <ele>113.689</ele>
        <time>2014-05-11T05:39:12Z</time>
      </trkpt>
      <trkpt lat="43.13747" lon="5.99521">
        <ele>116.584</ele>
        <time>2014-05-11T05:39:17Z</time>
      </trkpt>
      <trkpt lat="43.13755" lon="5.99484">
        <ele>117.011</ele>
        <time>2014-05-11T05:39:23Z</time>
      </trkpt>
      <trkpt lat="43.13762" lon="5.99451">
        <ele>117.382</ele>
        <time>2014-05-11T05:39:28Z</time>
      </trkpt>
      <trkpt lat="43.13766" lon="5.99429">
        <ele>117.159</ele>
        <time>2014-05-11T05:39:31Z</time>
      </trkpt>
      <trkpt lat="43.13775" lon="5.99385">
        <ele>117.185</ele>
        <time>2014-05-11T05:39:37Z</time>
      </trkpt>
      <trkpt lat="43.1378" lon="5.99359">
        <ele>116.897</ele>
        <time>2014-05-11T05:39:40Z</time>
      </trkpt>
      <trkpt lat="43.13792" lon="5.99308">
        <ele>113.755</ele>
        <time>2014-05-11T05:39:46Z</time>
      </trkpt>
      <trkpt lat="43.138" lon="5.99269">
        <ele>112.876</ele>
        <time>2014-05-11T05:39:51Z</time>
      </trkpt>
      <trkpt lat="43.13818" lon="5.99244">
        <ele>112.33</ele>
        <time>2014-05-11T05:39:56Z</time>
      </trkpt>
      <trkpt lat="43.1382" lon="5.99227">
        <ele>111.64</ele>
        <time>2014-05-11T05:39:59Z</time>
      </trkpt>
      <trkpt lat="43.13818" lon="5.99184">
        <ele>108.929</ele>
        <time>2014-05-11T05:40:05Z</time>
      </trkpt>
      <trkpt lat="43.13818" lon="5.9915">
        <ele>111.034</ele>
        <time>2014-05-11T05:40:10Z</time>
      </trkpt>
      <trkpt lat="43.13818" lon="5.9912">
        <ele>112.928</ele>
        <time>2014-05-11T05:40:15Z</time>
      </trkpt>
      <trkpt lat="43.13819" lon="5.99091">
        <ele>114.132</ele>
        <time>2014-05-11T05:40:20Z</time>
      </trkpt>
      <trkpt lat="43.13821" lon="5.99052">
        <ele>115.786</ele>
        <time>2014-05-11T05:40:26Z</time>
      </trkpt>
      <trkpt lat="43.13821" lon="5.99014">
        <ele>111.075</ele>
        <time>2014-05-11T05:40:32Z</time>
      </trkpt>
      <trkpt lat="43.13821" lon="5.98994">
        <ele>108.127</ele>
        <time>2014-05-11T05:40:35Z</time>
      </trkpt>
      <trkpt lat="43.13823" lon="5.98958">
        <ele>111.301</ele>
        <time>2014-05-11T05:40:40Z</time>
      </trkpt>
      <trkpt lat="43.13826" lon="5.98922">
        <ele>111.432</ele>
        <time>2014-05-11T05:40:45Z</time>
      </trkpt>
      <trkpt lat="43.13828" lon="5.98885">
        <ele>107.912</ele>
        <time>2014-05-11T05:40:51Z</time>
      </trkpt>
      <trkpt lat="43.13831" lon="5.98852">
        <ele>110.214</ele>
        <time>2014-05-11T05:40:56Z</time>
      </trkpt>
      <trkpt lat="43.13837" lon="5.98815">
        <ele>112.979</ele>
        <time>2014-05-11T05:41:02Z</time>
      </trkpt>
      <trkpt lat="43.13844" lon="5.98781">
        <ele>111.629</ele>
        <time>2014-05-11T05:41:08Z</time>
      </trkpt>
      <trkpt lat="43.13838" lon="5.98747">
        <ele>111.833</ele>
        <time>2014-05-11T05:41:13Z</time>
      </trkpt>
      <trkpt lat="43.13832" lon="5.98713">
        <ele>111.447</ele>
        <time>2014-05-11T05:41:17Z</time>
      </trkpt>
      <trkpt lat="43.13833" lon="5.98686">
        <ele>111.162</ele>
        <time>2014-05-11T05:41:22Z</time>
      </trkpt>
      <trkpt lat="43.1383" lon="5.98655">
        <ele>111.565</ele>
        <time>2014-05-11T05:41:27Z</time>
      </trkpt>
      <trkpt lat="43.13828" lon="5.98634">
        <ele>112.098</ele>
        <time>2014-05-11T05:41:30Z</time>
      </trkpt>
      <trkpt lat="43.13826" lon="5.98616">
        <ele>110.156</ele>
        <time>2014-05-11T05:41:33Z</time>
      </trkpt>
      <trkpt lat="43.13824" lon="5.986">
        <ele>110.163</ele>
        <time>2014-05-11T05:41:36Z</time>
      </trkpt>
      <trkpt lat="43.1382" lon="5.98576">
        <ele>113.518</ele>
        <time>2014-05-11T05:41:39Z</time>
      </trkpt>
      <trkpt lat="43.138" lon="5.98544">
        <ele>113.731</ele>
        <time>2014-05-11T05:41:45Z</time>
      </trkpt>
      <trkpt lat="43.13786" lon="5.98538">
        <ele>114.1</ele>
        <time>2014-05-11T05:41:48Z</time>
      </trkpt>
      <trkpt lat="43.13756" lon="5.98535">
        <ele>117.561</ele>
        <time>2014-05-11T05:41:53Z</time>
      </trkpt>
      <trkpt lat="43.13723" lon="5.9854">
        <ele>115.238</ele>
        <time>2014-05-11T05:41:59Z</time>
      </trkpt>
      <trkpt lat="43.13686" lon="5.9855">
        <ele>112.194</ele>
        <time>2014-05-11T05:42:05Z</time>
      </trkpt>
      <trkpt lat="43.13667" lon="5.98558">
        <ele>109.706</ele>
        <time>2014-05-11T05:42:08Z</time>
      </trkpt>
      <trkpt lat="43.13634" lon="5.98567">
        <ele>110.703</ele>
        <time>2014-05-11T05:42:14Z</time>
      </trkpt>
      <trkpt lat="43.13627" lon="5.98569">
        <ele>110.765</ele>
        <time>2014-05-11T05:42:17Z</time>
      </trkpt>
      <trkpt lat="43.13627" lon="5.98569">
        <ele>60.3</ele>
        <time>2014-05-11T05:42:23Z</time>
      </trkpt>
      <trkpt lat="43.13627" lon="5.98569">
        <ele>60.3</ele>
        <time>2014-05-11T05:42:37Z</time>
      </trkpt>
      <trkpt lat="43.13611" lon="5.9856">
        <ele>111.22</ele>
        <time>2014-05-11T05:42:37Z</time>
      </trkpt>
      <trkpt lat="43.13607" lon="5.98537">
        <ele>110.838</ele>
        <time>2014-05-11T05:42:40Z</time>
      </trkpt>
      <trkpt lat="43.13608" lon="5.98491">
        <ele>111.793</ele>
        <time>2014-05-11T05:42:46Z</time>
      </trkpt>
      <trkpt lat="43.13608" lon="5.98448">
        <ele>110.283</ele>
        <time>2014-05-11T05:42:52Z</time>
      </trkpt>
      <trkpt lat="43.13609" lon="5.98403">
        <ele>107.394</ele>
        <time>2014-05-11T05:42:58Z</time>
      </trkpt>
      <trkpt lat="43.13608" lon="5.98363">
        <ele>105.078</ele>
        <time>2014-05-11T05:43:04Z</time>
      </trkpt>
      <trkpt lat="43.13608" lon="5.9833">
        <ele>106.285</ele>
        <time>2014-05-11T05:43:09Z</time>
      </trkpt>
      <trkpt lat="43.13609" lon="5.98292">
        <ele>106.08</ele>
        <time>2014-05-11T05:43:14Z</time>
      </trkpt>
      <trkpt lat="43.13609" lon="5.98244">
        <ele>106.615</ele>
        <time>2014-05-11T05:43:20Z</time>
      </trkpt>
      <trkpt lat="43.13609" lon="5.98209">
        <ele>107.906</ele>
        <time>2014-05-11T05:43:25Z</time>
      </trkpt>
      <trkpt lat="43.13625" lon="5.98171">
        <ele>108.981</ele>
        <time>2014-05-11T05:43:31Z</time>
      </trkpt>
      <trkpt lat="43.13638" lon="5.98158">
        <ele>109.214</ele>
        <time>2014-05-11T05:43:34Z</time>
      </trkpt>
      <trkpt lat="43.13656" lon="5.98136">
        <ele>108.201</ele>
        <time>2014-05-11T05:43:39Z</time>
      </trkpt>
      <trkpt lat="43.13674" lon="5.98105">
        <ele>106.27</ele>
        <time>2014-05-11T05:43:45Z</time>
      </trkpt>
      <trkpt lat="43.13688" lon="5.98076">
        <ele>104.429</ele>
        <time>2014-05-11T05:43:51Z</time>
      </trkpt>
      <trkpt lat="43.13695" lon="5.98061">
        <ele>105.753</ele>
        <time>2014-05-11T05:43:54Z</time>
      </trkpt>
      <trkpt lat="43.13696" lon="5.9804">
        <ele>106.118</ele>
        <time>2014-05-11T05:43:59Z</time>
      </trkpt>
      <trkpt lat="43.13672" lon="5.98003">
        <ele>107.141</ele>
        <time>2014-05-11T05:44:07Z</time>
      </trkpt>
      <trkpt lat="43.13655" lon="5.97975">
        <ele>106.728</ele>
        <time>2014-05-11T05:44:13Z</time>
      </trkpt>
      <trkpt lat="43.13646" lon="5.97958">
        <ele>108.394</ele>
        <time>2014-05-11T05:44:16Z</time>
      </trkpt>
      <trkpt lat="43.1363" lon="5.9793">
        <ele>109.511</ele>
        <time>2014-05-11T05:44:21Z</time>
      </trkpt>
      <trkpt lat="43.13622" lon="5.97913">
        <ele>109.822</ele>
        <time>2014-05-11T05:44:24Z</time>
      </trkpt>
      <trkpt lat="43.13608" lon="5.97886">
        <ele>108.347</ele>
        <time>2014-05-11T05:44:29Z</time>
      </trkpt>
      <trkpt lat="43.136" lon="5.97871">
        <ele>108.407</ele>
        <time>2014-05-11T05:44:32Z</time>
      </trkpt>
      <trkpt lat="43.13579" lon="5.9784">
        <ele>106.973</ele>
        <time>2014-05-11T05:44:38Z</time>
      </trkpt>
      <trkpt lat="43.1357" lon="5.97824">
        <ele>106.767</ele>
        <time>2014-05-11T05:44:41Z</time>
      </trkpt>
      <trkpt lat="43.13556" lon="5.97797">
        <ele>107.448</ele>
        <time>2014-05-11T05:44:47Z</time>
      </trkpt>
      <trkpt lat="43.13559" lon="5.97761">
        <ele>108.375</ele>
        <time>2014-05-11T05:44:54Z</time>
      </trkpt>
      <trkpt lat="43.13534" lon="5.97743">
        <ele>112.087</ele>
        <time>2014-05-11T05:45:00Z</time>
      </trkpt>
      <trkpt lat="43.13516" lon="5.97747">
        <ele>112.363</ele>
        <time>2014-05-11T05:45:03Z</time>
      </trkpt>
      <trkpt lat="43.13477" lon="5.97741">
        <ele>108.756</ele>
        <time>2014-05-11T05:45:11Z</time>
      </trkpt>
      <trkpt lat="43.13477" lon="5.97741">
        <ele>108.756</ele>
        <time>2014-05-11T05:45:17Z</time>
      </trkpt>
      <trkpt lat="43.13477" lon="5.97741">
        <ele>58.5</ele>
        <time>2014-05-11T05:45:17Z</time>
      </trkpt>
      <trkpt lat="43.13477" lon="5.97741">
        <ele>58.5</ele>
        <time>2014-05-11T05:45:20Z</time>
      </trkpt>
      <trkpt lat="43.13477" lon="5.97741">
        <ele>58.5</ele>
        <time>2014-05-11T05:45:22Z</time>
      </trkpt>
      <trkpt lat="43.13477" lon="5.97741">
        <ele>58.5</ele>
        <time>2014-05-11T05:45:54Z</time>
      </trkpt>
      <trkpt lat="43.13477" lon="5.97741">
        <ele>109.381</ele>
        <time>2014-05-11T05:45:55Z</time>
      </trkpt>
      <trkpt lat="43.13459" lon="5.97737">
        <ele>111.025</ele>
        <time>2014-05-11T05:46:09Z</time>
      </trkpt>
      <trkpt lat="43.13425" lon="5.97721">
        <ele>115.523</ele>
        <time>2014-05-11T05:46:15Z</time>
      </trkpt>
      <trkpt lat="43.13391" lon="5.97706">
        <ele>114.507</ele>
        <time>2014-05-11T05:46:20Z</time>
      </trkpt>
      <trkpt lat="43.13351" lon="5.97683">
        <ele>108.582</ele>
        <time>2014-05-11T05:46:26Z</time>
      </trkpt>
      <trkpt lat="43.13306" lon="5.9766">
        <ele>106.677</ele>
        <time>2014-05-11T05:46:32Z</time>
      </trkpt>
      <trkpt lat="43.13263" lon="5.97634">
        <ele>105.27</ele>
        <time>2014-05-11T05:46:38Z</time>
      </trkpt>
      <trkpt lat="43.13231" lon="5.97604">
        <ele>99.4828</ele>
        <time>2014-05-11T05:46:43Z</time>
      </trkpt>
      <trkpt lat="43.13212" lon="5.97556">
        <ele>94.6116</ele>
        <time>2014-05-11T05:46:48Z</time>
      </trkpt>
      <trkpt lat="43.13201" lon="5.97528">
        <ele>93.6469</ele>
        <time>2014-05-11T05:46:51Z</time>
      </trkpt>
      <trkpt lat="43.13191" lon="5.97499">
        <ele>93.8716</ele>
        <time>2014-05-11T05:46:54Z</time>
      </trkpt>
      <trkpt lat="43.13179" lon="5.9745">
        <ele>94.4781</ele>
        <time>2014-05-11T05:46:59Z</time>
      </trkpt>
      <trkpt lat="43.13158" lon="5.97396">
        <ele>88.3798</ele>
        <time>2014-05-11T05:47:05Z</time>
      </trkpt>
      <trkpt lat="43.13142" lon="5.97358">
        <ele>87.5066</ele>
        <time>2014-05-11T05:47:10Z</time>
      </trkpt>
      <trkpt lat="43.13122" lon="5.97312">
        <ele>90.0161</ele>
        <time>2014-05-11T05:47:16Z</time>
      </trkpt>
      <trkpt lat="43.13105" lon="5.97279">
        <ele>91.0542</ele>
        <time>2014-05-11T05:47:21Z</time>
      </trkpt>
      <trkpt lat="43.13096" lon="5.97258">
        <ele>90.6041</ele>
        <time>2014-05-11T05:47:24Z</time>
      </trkpt>
      <trkpt lat="43.13087" lon="5.97236">
        <ele>91.4398</ele>
        <time>2014-05-11T05:47:27Z</time>
      </trkpt>
      <trkpt lat="43.13069" lon="5.97192">
        <ele>89.9322</ele>
        <time>2014-05-11T05:47:33Z</time>
      </trkpt>
      <trkpt lat="43.13052" lon="5.97148">
        <ele>89.4791</ele>
        <time>2014-05-11T05:47:39Z</time>
      </trkpt>
      <trkpt lat="43.13036" lon="5.97107">
        <ele>89.4435</ele>
        <time>2014-05-11T05:47:45Z</time>
      </trkpt>
      <trkpt lat="43.13021" lon="5.97073">
        <ele>89.8773</ele>
        <time>2014-05-11T05:47:50Z</time>
      </trkpt>
      <trkpt lat="43.13013" lon="5.97052">
        <ele>91.2272</ele>
        <time>2014-05-11T05:47:53Z</time>
      </trkpt>
      <trkpt lat="43.13004" lon="5.97031">
        <ele>92.0306</ele>
        <time>2014-05-11T05:47:56Z</time>
      </trkpt>
      <trkpt lat="43.12996" lon="5.97012">
        <ele>91.8954</ele>
        <time>2014-05-11T05:47:59Z</time>
      </trkpt>
      <trkpt lat="43.12978" lon="5.9697">
        <ele>89.3131</ele>
        <time>2014-05-11T05:48:05Z</time>
      </trkpt>
      <trkpt lat="43.1297" lon="5.96948">
        <ele>87.7976</ele>
        <time>2014-05-11T05:48:08Z</time>
      </trkpt>
      <trkpt lat="43.12962" lon="5.96927">
        <ele>86.4819</ele>
        <time>2014-05-11T05:48:11Z</time>
      </trkpt>
      <trkpt lat="43.12949" lon="5.9688">
        <ele>86.9971</ele>
        <time>2014-05-11T05:48:17Z</time>
      </trkpt>
      <trkpt lat="43.12938" lon="5.9684">
        <ele>88.3957</ele>
        <time>2014-05-11T05:48:22Z</time>
      </trkpt>
      <trkpt lat="43.12921" lon="5.9679">
        <ele>89.4969</ele>
        <time>2014-05-11T05:48:28Z</time>
      </trkpt>
      <trkpt lat="43.12905" lon="5.96741">
        <ele>92.8884</ele>
        <time>2014-05-11T05:48:34Z</time>
      </trkpt>
      <trkpt lat="43.12888" lon="5.96696">
        <ele>91.1519</ele>
        <time>2014-05-11T05:48:40Z</time>
      </trkpt>
      <trkpt lat="43.12872" lon="5.96654">
        <ele>89.3896</ele>
        <time>2014-05-11T05:48:45Z</time>
      </trkpt>
      <trkpt lat="43.12864" lon="5.96626">
        <ele>87.3056</ele>
        <time>2014-05-11T05:48:48Z</time>
      </trkpt>
      <trkpt lat="43.1285" lon="5.96582">
        <ele>86.8573</ele>
        <time>2014-05-11T05:48:53Z</time>
      </trkpt>
      <trkpt lat="43.12837" lon="5.96542">
        <ele>85.0777</ele>
        <time>2014-05-11T05:48:58Z</time>
      </trkpt>
      <trkpt lat="43.12828" lon="5.96517">
        <ele>85.2465</ele>
        <time>2014-05-11T05:49:01Z</time>
      </trkpt>
      <trkpt lat="43.12811" lon="5.96466">
        <ele>87.8864</ele>
        <time>2014-05-11T05:49:07Z</time>
      </trkpt>
      <trkpt lat="43.12793" lon="5.96415">
        <ele>87.9327</ele>
        <time>2014-05-11T05:49:13Z</time>
      </trkpt>
      <trkpt lat="43.12777" lon="5.96369">
        <ele>89.8649</ele>
        <time>2014-05-11T05:49:19Z</time>
      </trkpt>
      <trkpt lat="43.12755" lon="5.96312">
        <ele>91.7097</ele>
        <time>2014-05-11T05:49:25Z</time>
      </trkpt>
      <trkpt lat="43.12734" lon="5.96255">
        <ele>88.129</ele>
        <time>2014-05-11T05:49:31Z</time>
      </trkpt>
      <trkpt lat="43.12718" lon="5.96213">
        <ele>88.3294</ele>
        <time>2014-05-11T05:49:36Z</time>
      </trkpt>
      <trkpt lat="43.12695" lon="5.96153">
        <ele>91.5325</ele>
        <time>2014-05-11T05:49:42Z</time>
      </trkpt>
      <trkpt lat="43.12682" lon="5.96124">
        <ele>93.689</ele>
        <time>2014-05-11T05:49:45Z</time>
      </trkpt>
      <trkpt lat="43.12654" lon="5.96067">
        <ele>94.4585</ele>
        <time>2014-05-11T05:49:51Z</time>
      </trkpt>
      <trkpt lat="43.12637" lon="5.96023">
        <ele>97.6009</ele>
        <time>2014-05-11T05:49:56Z</time>
      </trkpt>
      <trkpt lat="43.12627" lon="5.95997">
        <ele>98.0464</ele>
        <time>2014-05-11T05:49:59Z</time>
      </trkpt>
      <trkpt lat="43.12614" lon="5.95969">
        <ele>98.5735</ele>
        <time>2014-05-11T05:50:03Z</time>
      </trkpt>
      <trkpt lat="43.12606" lon="5.95949">
        <ele>98.2596</ele>
        <time>2014-05-11T05:50:18Z</time>
      </trkpt>
      <trkpt lat="43.12595" lon="5.95928">
        <ele>91.7819</ele>
        <time>2014-05-11T05:50:23Z</time>
      </trkpt>
      <trkpt lat="43.12579" lon="5.95899">
        <ele>86.5296</ele>
        <time>2014-05-11T05:50:28Z</time>
      </trkpt>
      <trkpt lat="43.12572" lon="5.9587">
        <ele>87.4881</ele>
        <time>2014-05-11T05:50:33Z</time>
      </trkpt>
      <trkpt lat="43.12557" lon="5.95831">
        <ele>82.6638</ele>
        <time>2014-05-11T05:50:39Z</time>
      </trkpt>
      <trkpt lat="43.12549" lon="5.95812">
        <ele>81.4257</ele>
        <time>2014-05-11T05:50:42Z</time>
      </trkpt>
      <trkpt lat="43.12538" lon="5.95779">
        <ele>82.9689</ele>
        <time>2014-05-11T05:50:46Z</time>
      </trkpt>
      <trkpt lat="43.12519" lon="5.95729">
        <ele>77.76</ele>
        <time>2014-05-11T05:50:51Z</time>
      </trkpt>
      <trkpt lat="43.12503" lon="5.95681">
        <ele>73.8525</ele>
        <time>2014-05-11T05:50:57Z</time>
      </trkpt>
      <trkpt lat="43.12494" lon="5.95657">
        <ele>73.8943</ele>
        <time>2014-05-11T05:51:00Z</time>
      </trkpt>
      <trkpt lat="43.1248" lon="5.95624">
        <ele>72.1578</ele>
        <time>2014-05-11T05:51:05Z</time>
      </trkpt>
      <trkpt lat="43.12464" lon="5.95584">
        <ele>73.3534</ele>
        <time>2014-05-11T05:51:11Z</time>
      </trkpt>
      <trkpt lat="43.12451" lon="5.95543">
        <ele>72.5541</ele>
        <time>2014-05-11T05:51:16Z</time>
      </trkpt>
      <trkpt lat="43.12438" lon="5.95502">
        <ele>69.5549</ele>
        <time>2014-05-11T05:51:22Z</time>
      </trkpt>
      <trkpt lat="43.12421" lon="5.95467">
        <ele>71.3098</ele>
        <time>2014-05-11T05:51:27Z</time>
      </trkpt>
      <trkpt lat="43.1241" lon="5.95445">
        <ele>72.0699</ele>
        <time>2014-05-11T05:51:30Z</time>
      </trkpt>
      <trkpt lat="43.12402" lon="5.9542">
        <ele>75.4578</ele>
        <time>2014-05-11T05:51:33Z</time>
      </trkpt>
      <trkpt lat="43.12393" lon="5.95393">
        <ele>77.5251</ele>
        <time>2014-05-11T05:51:37Z</time>
      </trkpt>
      <trkpt lat="43.12385" lon="5.95355">
        <ele>76.2902</ele>
        <time>2014-05-11T05:51:42Z</time>
      </trkpt>
      <trkpt lat="43.1238" lon="5.95312">
        <ele>75.5652</ele>
        <time>2014-05-11T05:51:47Z</time>
      </trkpt>
      <trkpt lat="43.12379" lon="5.95287">
        <ele>74.2085</ele>
        <time>2014-05-11T05:51:50Z</time>
      </trkpt>
      <trkpt lat="43.12377" lon="5.95244">
        <ele>72.5513</ele>
        <time>2014-05-11T05:51:55Z</time>
      </trkpt>
      <trkpt lat="43.12373" lon="5.95201">
        <ele>73.725</ele>
        <time>2014-05-11T05:52:01Z</time>
      </trkpt>
      <trkpt lat="43.12375" lon="5.95161">
        <ele>74.5824</ele>
        <time>2014-05-11T05:52:06Z</time>
      </trkpt>
      <trkpt lat="43.12372" lon="5.95106">
        <ele>77.0699</ele>
        <time>2014-05-11T05:52:12Z</time>
      </trkpt>
      <trkpt lat="43.12369" lon="5.95079">
        <ele>75.3436</ele>
        <time>2014-05-11T05:52:15Z</time>
      </trkpt>
      <trkpt lat="43.12368" lon="5.95054">
        <ele>74.1383</ele>
        <time>2014-05-11T05:52:18Z</time>
      </trkpt>
      <trkpt lat="43.12365" lon="5.95009">
        <ele>72.1504</ele>
        <time>2014-05-11T05:52:24Z</time>
      </trkpt>
      <trkpt lat="43.12364" lon="5.94983">
        <ele>71.575</ele>
        <time>2014-05-11T05:52:27Z</time>
      </trkpt>
      <trkpt lat="43.12362" lon="5.94944">
        <ele>69.8897</ele>
        <time>2014-05-11T05:52:32Z</time>
      </trkpt>
      <trkpt lat="43.12356" lon="5.949">
        <ele>69.5989</ele>
        <time>2014-05-11T05:52:38Z</time>
      </trkpt>
      <trkpt lat="43.12347" lon="5.94862">
        <ele>68.6583</ele>
        <time>2014-05-11T05:52:44Z</time>
      </trkpt>
      <trkpt lat="43.12344" lon="5.94846">
        <ele>68.1511</ele>
        <time>2014-05-11T05:52:53Z</time>
      </trkpt>
      <trkpt lat="43.12343" lon="5.94838">
        <ele>68.1077</ele>
        <time>2014-05-11T05:52:56Z</time>
      </trkpt>
      <trkpt lat="43.12343" lon="5.94838">
        <ele>12.5</ele>
        <time>2014-05-11T05:53:03Z</time>
      </trkpt>
      <trkpt lat="43.12343" lon="5.94838">
        <ele>12.5</ele>
        <time>2014-05-11T05:53:27Z</time>
      </trkpt>
      <trkpt lat="43.1234" lon="5.94808">
        <ele>71.3034</ele>
        <time>2014-05-11T05:53:27Z</time>
      </trkpt>
      <trkpt lat="43.12333" lon="5.94769">
        <ele>72.4289</ele>
        <time>2014-05-11T05:53:33Z</time>
      </trkpt>
      <trkpt lat="43.12317" lon="5.94723">
        <ele>72.6337</ele>
        <time>2014-05-11T05:53:39Z</time>
      </trkpt>
      <trkpt lat="43.12299" lon="5.94663">
        <ele>70.1444</ele>
        <time>2014-05-11T05:53:47Z</time>
      </trkpt>
      <trkpt lat="43.12289" lon="5.94623">
        <ele>66.9558</ele>
        <time>2014-05-11T05:53:52Z</time>
      </trkpt>
      <trkpt lat="43.12275" lon="5.94581">
        <ele>64.9612</ele>
        <time>2014-05-11T05:53:58Z</time>
      </trkpt>
      <trkpt lat="43.12257" lon="5.94543">
        <ele>62.468</ele>
        <time>2014-05-11T05:54:03Z</time>
      </trkpt>
      <trkpt lat="43.12248" lon="5.94521">
        <ele>60.7253</ele>
        <time>2014-05-11T05:54:06Z</time>
      </trkpt>
      <trkpt lat="43.12232" lon="5.94476">
        <ele>57.9401</ele>
        <time>2014-05-11T05:54:12Z</time>
      </trkpt>
      <trkpt lat="43.12224" lon="5.94454">
        <ele>55.6815</ele>
        <time>2014-05-11T05:54:15Z</time>
      </trkpt>
      <trkpt lat="43.12215" lon="5.94415">
        <ele>54.4386</ele>
        <time>2014-05-11T05:54:20Z</time>
      </trkpt>
      <trkpt lat="43.12201" lon="5.94371">
        <ele>52.331</ele>
        <time>2014-05-11T05:54:26Z</time>
      </trkpt>
      <trkpt lat="43.12187" lon="5.94329">
        <ele>53.3322</ele>
        <time>2014-05-11T05:54:32Z</time>
      </trkpt>
      <trkpt lat="43.12173" lon="5.94293">
        <ele>52.3358</ele>
        <time>2014-05-11T05:54:37Z</time>
      </trkpt>
      <trkpt lat="43.12166" lon="5.94257">
        <ele>54.9683</ele>
        <time>2014-05-11T05:54:42Z</time>
      </trkpt>
      <trkpt lat="43.12163" lon="5.94238">
        <ele>56.0701</ele>
        <time>2014-05-11T05:54:45Z</time>
      </trkpt>
      <trkpt lat="43.12158" lon="5.94217">
        <ele>57.0748</ele>
        <time>2014-05-11T05:54:48Z</time>
      </trkpt>
      <trkpt lat="43.12153" lon="5.94175">
        <ele>58.9758</ele>
        <time>2014-05-11T05:54:54Z</time>
      </trkpt>
      <trkpt lat="43.12161" lon="5.94125">
        <ele>62.9034</ele>
        <time>2014-05-11T05:55:00Z</time>
      </trkpt>
      <trkpt lat="43.12177" lon="5.941">
        <ele>62.0257</ele>
        <time>2014-05-11T05:55:06Z</time>
      </trkpt>
      <trkpt lat="43.12188" lon="5.94082">
        <ele>61.6951</ele>
        <time>2014-05-11T05:55:12Z</time>
      </trkpt>
      <trkpt lat="43.12202" lon="5.94045">
        <ele>61.2202</ele>
        <time>2014-05-11T05:56:26Z</time>
      </trkpt>
      <trkpt lat="43.12214" lon="5.94017">
        <ele>63.5863</ele>
        <time>2014-05-11T05:56:31Z</time>
      </trkpt>
      <trkpt lat="43.12227" lon="5.93989">
        <ele>63.4546</ele>
        <time>2014-05-11T05:56:36Z</time>
      </trkpt>
      <trkpt lat="43.12241" lon="5.9396">
        <ele>62.4295</ele>
        <time>2014-05-11T05:56:42Z</time>
      </trkpt>
      <trkpt lat="43.12249" lon="5.93947">
        <ele>62.2979</ele>
        <time>2014-05-11T05:56:45Z</time>
      </trkpt>
      <trkpt lat="43.12255" lon="5.93937">
        <ele>62.3427</ele>
        <time>2014-05-11T05:56:49Z</time>
      </trkpt>
      <trkpt lat="43.12262" lon="5.93925">
        <ele>62.7719</ele>
        <time>2014-05-11T05:56:54Z</time>
      </trkpt>
      <trkpt lat="43.12269" lon="5.93915">
        <ele>63.4068</ele>
        <time>2014-05-11T05:56:59Z</time>
      </trkpt>
      <trkpt lat="43.12269" lon="5.93915">
        <ele>10.7</ele>
        <time>2014-05-11T05:57:07Z</time>
      </trkpt>
      <trkpt lat="43.12269" lon="5.93915">
        <ele>10.7</ele>
        <time>2014-05-11T05:57:13Z</time>
      </trkpt>
      <trkpt lat="43.1227" lon="5.93913">
        <ele>64.2625</ele>
        <time>2014-05-11T05:57:13Z</time>
      </trkpt>
      <trkpt lat="43.1231" lon="5.93828">
        <ele>64.9372</ele>
        <time>2014-05-11T05:57:30Z</time>
      </trkpt>
      <trkpt lat="43.12323" lon="5.93806">
        <ele>65.7441</ele>
        <time>2014-05-11T05:57:35Z</time>
      </trkpt>
      <trkpt lat="43.12336" lon="5.93788">
        <ele>65.1225</ele>
        <time>2014-05-11T05:57:40Z</time>
      </trkpt>
      <trkpt lat="43.12355" lon="5.93758">
        <ele>64.4357</ele>
        <time>2014-05-11T05:57:47Z</time>
      </trkpt>
      <trkpt lat="43.1237" lon="5.93728">
        <ele>64.2122</ele>
        <time>2014-05-11T05:57:53Z</time>
      </trkpt>
      <trkpt lat="43.12386" lon="5.93698">
        <ele>64.552</ele>
        <time>2014-05-11T05:57:59Z</time>
      </trkpt>
      <trkpt lat="43.12395" lon="5.93681">
        <ele>64.0093</ele>
        <time>2014-05-11T05:58:02Z</time>
      </trkpt>
      <trkpt lat="43.12408" lon="5.93658">
        <ele>64.4142</ele>
        <time>2014-05-11T05:58:09Z</time>
      </trkpt>
      <trkpt lat="43.12431" lon="5.93577">
        <ele>69.0202</ele>
        <time>2014-05-11T05:58:24Z</time>
      </trkpt>
      <trkpt lat="43.12439" lon="5.93539">
        <ele>68.6602</ele>
        <time>2014-05-11T05:58:29Z</time>
      </trkpt>
      <trkpt lat="43.12444" lon="5.93516">
        <ele>67.4133</ele>
        <time>2014-05-11T05:58:32Z</time>
      </trkpt>
      <trkpt lat="43.12452" lon="5.93476">
        <ele>65.3697</ele>
        <time>2014-05-11T05:58:37Z</time>
      </trkpt>
      <trkpt lat="43.12458" lon="5.93438">
        <ele>65.6941</ele>
        <time>2014-05-11T05:58:42Z</time>
      </trkpt>
      <trkpt lat="43.12466" lon="5.9339">
        <ele>66.3522</ele>
        <time>2014-05-11T05:58:48Z</time>
      </trkpt>
      <trkpt lat="43.12472" lon="5.93347">
        <ele>69.8285</ele>
        <time>2014-05-11T05:58:54Z</time>
      </trkpt>
      <trkpt lat="43.12479" lon="5.93292">
        <ele>70.4094</ele>
        <time>2014-05-11T05:59:00Z</time>
      </trkpt>
      <trkpt lat="43.12486" lon="5.93251">
        <ele>70.3944</ele>
        <time>2014-05-11T05:59:05Z</time>
      </trkpt>
      <trkpt lat="43.12491" lon="5.93212">
        <ele>68.817</ele>
        <time>2014-05-11T05:59:10Z</time>
      </trkpt>
      <trkpt lat="43.12492" lon="5.93162">
        <ele>62.3787</ele>
        <time>2014-05-11T05:59:16Z</time>
      </trkpt>
      <trkpt lat="43.12502" lon="5.93104">
        <ele>56.9958</ele>
        <time>2014-05-11T05:59:22Z</time>
      </trkpt>
      <trkpt lat="43.12509" lon="5.93078">
        <ele>55.3682</ele>
        <time>2014-05-11T05:59:25Z</time>
      </trkpt>
      <trkpt lat="43.12526" lon="5.93034">
        <ele>59.1058</ele>
        <time>2014-05-11T05:59:31Z</time>
      </trkpt>
      <trkpt lat="43.12539" lon="5.92988">
        <ele>57.5152</ele>
        <time>2014-05-11T05:59:37Z</time>
      </trkpt>
      <trkpt lat="43.1255" lon="5.92955">
        <ele>56.7725</ele>
        <time>2014-05-11T05:59:42Z</time>
      </trkpt>
      <trkpt lat="43.12558" lon="5.92918">
        <ele>58.5443</ele>
        <time>2014-05-11T05:59:47Z</time>
      </trkpt>
      <trkpt lat="43.12568" lon="5.92877">
        <ele>62.9242</ele>
        <time>2014-05-11T05:59:53Z</time>
      </trkpt>
      <trkpt lat="43.12575" lon="5.9284">
        <ele>63.2312</ele>
        <time>2014-05-11T05:59:58Z</time>
      </trkpt>
      <trkpt lat="43.12582" lon="5.92784">
        <ele>60.6213</ele>
        <time>2014-05-11T06:00:05Z</time>
      </trkpt>
      <trkpt lat="43.12588" lon="5.92741">
        <ele>58.1061</ele>
        <time>2014-05-11T06:00:10Z</time>
      </trkpt>
      <trkpt lat="43.12596" lon="5.92703">
        <ele>57.9317</ele>
        <time>2014-05-11T06:00:15Z</time>
      </trkpt>
      <trkpt lat="43.12603" lon="5.92667">
        <ele>58.1698</ele>
        <time>2014-05-11T06:00:20Z</time>
      </trkpt>
      <trkpt lat="43.12612" lon="5.92626">
        <ele>54.2212</ele>
        <time>2014-05-11T06:00:26Z</time>
      </trkpt>
      <trkpt lat="43.12613" lon="5.92616">
        <ele>54.0263</ele>
        <time>2014-05-11T06:00:29Z</time>
      </trkpt>
      <trkpt lat="43.12613" lon="5.92616">
        <ele>6.2</ele>
        <time>2014-05-11T06:00:35Z</time>
      </trkpt>
      <trkpt lat="43.12613" lon="5.92616">
        <ele>6.2</ele>
        <time>2014-05-11T06:00:57Z</time>
      </trkpt>
      <trkpt lat="43.12621" lon="5.92586">
        <ele>56.5322</ele>
        <time>2014-05-11T06:00:57Z</time>
      </trkpt>
      <trkpt lat="43.12623" lon="5.92572">
        <ele>57.1167</ele>
        <time>2014-05-11T06:01:00Z</time>
      </trkpt>
      <trkpt lat="43.12631" lon="5.92538">
        <ele>56.1072</ele>
        <time>2014-05-11T06:01:05Z</time>
      </trkpt>
      <trkpt lat="43.1264" lon="5.925">
        <ele>58.6708</ele>
        <time>2014-05-11T06:01:10Z</time>
      </trkpt>
      <trkpt lat="43.1265" lon="5.92455">
        <ele>58.6233</ele>
        <time>2014-05-11T06:01:16Z</time>
      </trkpt>
      <trkpt lat="43.1266" lon="5.92406">
        <ele>58.9395</ele>
        <time>2014-05-11T06:01:22Z</time>
      </trkpt>
      <trkpt lat="43.12664" lon="5.92382">
        <ele>60.191</ele>
        <time>2014-05-11T06:01:25Z</time>
      </trkpt>
      <trkpt lat="43.1267" lon="5.92357">
        <ele>59.9431</ele>
        <time>2014-05-11T06:01:28Z</time>
      </trkpt>
      <trkpt lat="43.12678" lon="5.92309">
        <ele>55.1288</ele>
        <time>2014-05-11T06:01:34Z</time>
      </trkpt>
      <trkpt lat="43.12683" lon="5.9227">
        <ele>52.7317</ele>
        <time>2014-05-11T06:01:39Z</time>
      </trkpt>
      <trkpt lat="43.12693" lon="5.92228">
        <ele>56.3647</ele>
        <time>2014-05-11T06:01:45Z</time>
      </trkpt>
      <trkpt lat="43.12701" lon="5.92189">
        <ele>56.3591</ele>
        <time>2014-05-11T06:01:50Z</time>
      </trkpt>
      <trkpt lat="43.12709" lon="5.92151">
        <ele>55.7303</ele>
        <time>2014-05-11T06:01:56Z</time>
      </trkpt>
      <trkpt lat="43.12714" lon="5.9213">
        <ele>54.9075</ele>
        <time>2014-05-11T06:01:59Z</time>
      </trkpt>
      <trkpt lat="43.12718" lon="5.9211">
        <ele>54.2814</ele>
        <time>2014-05-11T06:02:02Z</time>
      </trkpt>
      <trkpt lat="43.12727" lon="5.92071">
        <ele>56.2253</ele>
        <time>2014-05-11T06:02:08Z</time>
      </trkpt>
      <trkpt lat="43.12733" lon="5.92036">
        <ele>56.0608</ele>
        <time>2014-05-11T06:02:14Z</time>
      </trkpt>
      <trkpt lat="43.1274" lon="5.92001">
        <ele>56.4332</ele>
        <time>2014-05-11T06:02:22Z</time>
      </trkpt>
      <trkpt lat="43.12749" lon="5.91968">
        <ele>56.3752</ele>
        <time>2014-05-11T06:02:27Z</time>
      </trkpt>
      <trkpt lat="43.12757" lon="5.91924">
        <ele>56.7871</ele>
        <time>2014-05-11T06:02:33Z</time>
      </trkpt>
      <trkpt lat="43.12765" lon="5.91883">
        <ele>53.4575</ele>
        <time>2014-05-11T06:02:39Z</time>
      </trkpt>
      <trkpt lat="43.12773" lon="5.91838">
        <ele>55.3319</ele>
        <time>2014-05-11T06:02:46Z</time>
      </trkpt>
      <trkpt lat="43.12782" lon="5.91794">
        <ele>56.2916</ele>
        <time>2014-05-11T06:02:52Z</time>
      </trkpt>
      <trkpt lat="43.12787" lon="5.91759">
        <ele>53.1462</ele>
        <time>2014-05-11T06:02:57Z</time>
      </trkpt>
      <trkpt lat="43.12799" lon="5.91719">
        <ele>48.4537</ele>
        <time>2014-05-11T06:03:04Z</time>
      </trkpt>
      <trkpt lat="43.1281" lon="5.91688">
        <ele>46.8628</ele>
        <time>2014-05-11T06:03:09Z</time>
      </trkpt>
      <trkpt lat="43.12823" lon="5.91655">
        <ele>50.6902</ele>
        <time>2014-05-11T06:03:15Z</time>
      </trkpt>
      <trkpt lat="43.12836" lon="5.9162">
        <ele>54.865</ele>
        <time>2014-05-11T06:03:21Z</time>
      </trkpt>
      <trkpt lat="43.12847" lon="5.91584">
        <ele>55.5742</ele>
        <time>2014-05-11T06:03:27Z</time>
      </trkpt>
      <trkpt lat="43.12851" lon="5.91554">
        <ele>54.1093</ele>
        <time>2014-05-11T06:03:32Z</time>
      </trkpt>
      <trkpt lat="43.12853" lon="5.91513">
        <ele>53.4782</ele>
        <time>2014-05-11T06:03:38Z</time>
      </trkpt>
      <trkpt lat="43.12852" lon="5.9148">
        <ele>56.4585</ele>
        <time>2014-05-11T06:03:43Z</time>
      </trkpt>
      <trkpt lat="43.12855" lon="5.91439">
        <ele>57.2849</ele>
        <time>2014-05-11T06:03:49Z</time>
      </trkpt>
      <trkpt lat="43.12852" lon="5.91395">
        <ele>56.8798</ele>
        <time>2014-05-11T06:03:55Z</time>
      </trkpt>
      <trkpt lat="43.12844" lon="5.91352">
        <ele>55.6446</ele>
        <time>2014-05-11T06:04:01Z</time>
      </trkpt>
      <trkpt lat="43.12845" lon="5.91316">
        <ele>54.4173</ele>
        <time>2014-05-11T06:04:07Z</time>
      </trkpt>
      <trkpt lat="43.12845" lon="5.91272">
        <ele>49.9796</ele>
        <time>2014-05-11T06:04:13Z</time>
      </trkpt>
      <trkpt lat="43.12846" lon="5.91227">
        <ele>52.3824</ele>
        <time>2014-05-11T06:04:19Z</time>
      </trkpt>
      <trkpt lat="43.1284" lon="5.91185">
        <ele>57.6833</ele>
        <time>2014-05-11T06:04:25Z</time>
      </trkpt>
      <trkpt lat="43.1284" lon="5.91138">
        <ele>58.4808</ele>
        <time>2014-05-11T06:04:31Z</time>
      </trkpt>
      <trkpt lat="43.12842" lon="5.91106">
        <ele>59.4836</ele>
        <time>2014-05-11T06:04:36Z</time>
      </trkpt>
      <trkpt lat="43.12847" lon="5.91073">
        <ele>58.7643</ele>
        <time>2014-05-11T06:04:41Z</time>
      </trkpt>
      <trkpt lat="43.12848" lon="5.91038">
        <ele>59.7036</ele>
        <time>2014-05-11T06:04:47Z</time>
      </trkpt>
      <trkpt lat="43.12844" lon="5.91001">
        <ele>64.3459</ele>
        <time>2014-05-11T06:04:53Z</time>
      </trkpt>
      <trkpt lat="43.12839" lon="5.90974">
        <ele>64.898</ele>
        <time>2014-05-11T06:04:58Z</time>
      </trkpt>
      <trkpt lat="43.12835" lon="5.90938">
        <ele>60.9231</ele>
        <time>2014-05-11T06:05:04Z</time>
      </trkpt>
      <trkpt lat="43.12829" lon="5.90899">
        <ele>60.6635</ele>
        <time>2014-05-11T06:05:10Z</time>
      </trkpt>
      <trkpt lat="43.12819" lon="5.90865">
        <ele>62.8794</ele>
        <time>2014-05-11T06:05:16Z</time>
      </trkpt>
      <trkpt lat="43.12815" lon="5.90844">
        <ele>62.6383</ele>
        <time>2014-05-11T06:05:20Z</time>
      </trkpt>
      <trkpt lat="43.12807" lon="5.9081">
        <ele>60.6096</ele>
        <time>2014-05-11T06:05:26Z</time>
      </trkpt>
      <trkpt lat="43.12801" lon="5.90781">
        <ele>60.1211</ele>
        <time>2014-05-11T06:05:32Z</time>
      </trkpt>
      <trkpt lat="43.128" lon="5.90778">
        <ele>60.0136</ele>
        <time>2014-05-11T06:05:33Z</time>
      </trkpt>
      <trkpt lat="43.128" lon="5.90778">
        <ele>5</ele>
        <time>2014-05-11T06:05:38Z</time>
      </trkpt>
      <trkpt lat="43.128" lon="5.90778">
        <ele>5</ele>
        <time>2014-05-11T06:05:40Z</time>
      </trkpt>
      <trkpt lat="43.12797" lon="5.90768">
        <ele>59.2307</ele>
        <time>2014-05-11T06:05:40Z</time>
      </trkpt>
      <trkpt lat="43.12795" lon="5.90748">
        <ele>58.8961</ele>
        <time>2014-05-11T06:05:45Z</time>
      </trkpt>
      <trkpt lat="43.12802" lon="5.90703">
        <ele>57.3341</ele>
        <time>2014-05-11T06:05:52Z</time>
      </trkpt>
      <trkpt lat="43.12805" lon="5.90673">
        <ele>52.9424</ele>
        <time>2014-05-11T06:05:57Z</time>
      </trkpt>
      <trkpt lat="43.1281" lon="5.90638">
        <ele>54.8289</ele>
        <time>2014-05-11T06:06:03Z</time>
      </trkpt>
      <trkpt lat="43.12814" lon="5.90618">
        <ele>56.8262</ele>
        <time>2014-05-11T06:06:06Z</time>
      </trkpt>
      <trkpt lat="43.12819" lon="5.90596">
        <ele>57.9582</ele>
        <time>2014-05-11T06:06:09Z</time>
      </trkpt>
      <trkpt lat="43.12822" lon="5.90577">
        <ele>58.3998</ele>
        <time>2014-05-11T06:06:12Z</time>
      </trkpt>
      <trkpt lat="43.12824" lon="5.90561">
        <ele>59.1189</ele>
        <time>2014-05-11T06:06:15Z</time>
      </trkpt>
      <trkpt lat="43.12825" lon="5.90542">
        <ele>59.689</ele>
        <time>2014-05-11T06:06:18Z</time>
      </trkpt>
      <trkpt lat="43.12826" lon="5.90511">
        <ele>57.9162</ele>
        <time>2014-05-11T06:06:23Z</time>
      </trkpt>
      <trkpt lat="43.12828" lon="5.90477">
        <ele>56.3008</ele>
        <time>2014-05-11T06:06:28Z</time>
      </trkpt>
      <trkpt lat="43.12836" lon="5.90447">
        <ele>55.1909</ele>
        <time>2014-05-11T06:06:33Z</time>
      </trkpt>
      <trkpt lat="43.12842" lon="5.90413">
        <ele>55.6416</ele>
        <time>2014-05-11T06:06:39Z</time>
      </trkpt>
      <trkpt lat="43.1285" lon="5.90374">
        <ele>52.4001</ele>
        <time>2014-05-11T06:06:46Z</time>
      </trkpt>
      <trkpt lat="43.12856" lon="5.90352">
        <ele>51.3905</ele>
        <time>2014-05-11T06:06:50Z</time>
      </trkpt>
      <trkpt lat="43.12864" lon="5.90327">
        <ele>50.7176</ele>
        <time>2014-05-11T06:06:55Z</time>
      </trkpt>
      <trkpt lat="43.12873" lon="5.90301">
        <ele>51.9448</ele>
        <time>2014-05-11T06:07:00Z</time>
      </trkpt>
      <trkpt lat="43.12886" lon="5.90274">
        <ele>56.0189</ele>
        <time>2014-05-11T06:07:06Z</time>
      </trkpt>
      <trkpt lat="43.12891" lon="5.90257">
        <ele>57.3227</ele>
        <time>2014-05-11T06:07:14Z</time>
      </trkpt>
      <trkpt lat="43.1289" lon="5.9025">
        <ele>57.3438</ele>
        <time>2014-05-11T06:07:18Z</time>
      </trkpt>
      <trkpt lat="43.1289" lon="5.9025">
        <ele>13</ele>
        <time>2014-05-11T06:07:25Z</time>
      </trkpt>
      <trkpt lat="43.1289" lon="5.9025">
        <ele>13</ele>
        <time>2014-05-11T06:08:05Z</time>
      </trkpt>
      <trkpt lat="43.129" lon="5.9022">
        <ele>59.1006</ele>
        <time>2014-05-11T06:08:05Z</time>
      </trkpt>
      <trkpt lat="43.1291" lon="5.90186">
        <ele>59.6062</ele>
        <time>2014-05-11T06:08:12Z</time>
      </trkpt>
      <trkpt lat="43.12917" lon="5.90151">
        <ele>63.9779</ele>
        <time>2014-05-11T06:08:18Z</time>
      </trkpt>
      <trkpt lat="43.1292" lon="5.90132">
        <ele>64.7937</ele>
        <time>2014-05-11T06:08:21Z</time>
      </trkpt>
      <trkpt lat="43.12923" lon="5.90097">
        <ele>67.3046</ele>
        <time>2014-05-11T06:08:26Z</time>
      </trkpt>
      <trkpt lat="43.12924" lon="5.90078">
        <ele>66.9305</ele>
        <time>2014-05-11T06:08:29Z</time>
      </trkpt>
      <trkpt lat="43.12927" lon="5.90041">
        <ele>62.8081</ele>
        <time>2014-05-11T06:08:35Z</time>
      </trkpt>
      <trkpt lat="43.1293" lon="5.90002">
        <ele>64.9022</ele>
        <time>2014-05-11T06:08:42Z</time>
      </trkpt>
      <trkpt lat="43.1293" lon="5.89972">
        <ele>65.9434</ele>
        <time>2014-05-11T06:08:47Z</time>
      </trkpt>
      <trkpt lat="43.12929" lon="5.89952">
        <ele>67.4166</ele>
        <time>2014-05-11T06:08:50Z</time>
      </trkpt>
      <trkpt lat="43.12929" lon="5.89934">
        <ele>68.8148</ele>
        <time>2014-05-11T06:08:53Z</time>
      </trkpt>
      <trkpt lat="43.12928" lon="5.89916">
        <ele>70.0946</ele>
        <time>2014-05-11T06:08:56Z</time>
      </trkpt>
      <trkpt lat="43.12926" lon="5.89896">
        <ele>71.4255</ele>
        <time>2014-05-11T06:09:00Z</time>
      </trkpt>
      <trkpt lat="43.12923" lon="5.89867">
        <ele>73.4508</ele>
        <time>2014-05-11T06:09:05Z</time>
      </trkpt>
      <trkpt lat="43.12919" lon="5.89834">
        <ele>75.079</ele>
        <time>2014-05-11T06:09:11Z</time>
      </trkpt>
      <trkpt lat="43.12918" lon="5.89802">
        <ele>73.1079</ele>
        <time>2014-05-11T06:09:16Z</time>
      </trkpt>
      <trkpt lat="43.12916" lon="5.89767">
        <ele>71.0117</ele>
        <time>2014-05-11T06:09:22Z</time>
      </trkpt>
      <trkpt lat="43.12912" lon="5.89731">
        <ele>70.2959</ele>
        <time>2014-05-11T06:09:28Z</time>
      </trkpt>
      <trkpt lat="43.1291" lon="5.89707">
        <ele>70.6145</ele>
        <time>2014-05-11T06:09:33Z</time>
      </trkpt>
      <trkpt lat="43.12909" lon="5.89691">
        <ele>71.2805</ele>
        <time>2014-05-11T06:09:36Z</time>
      </trkpt>
      <trkpt lat="43.12905" lon="5.89652">
        <ele>73.9747</ele>
        <time>2014-05-11T06:09:43Z</time>
      </trkpt>
      <trkpt lat="43.12902" lon="5.89613">
        <ele>72.8144</ele>
        <time>2014-05-11T06:09:49Z</time>
      </trkpt>
      <trkpt lat="43.12901" lon="5.89581">
        <ele>72.7626</ele>
        <time>2014-05-11T06:09:54Z</time>
      </trkpt>
      <trkpt lat="43.129" lon="5.89545">
        <ele>71.0025</ele>
        <time>2014-05-11T06:10:00Z</time>
      </trkpt>
      <trkpt lat="43.12899" lon="5.89503">
        <ele>71.8882</ele>
        <time>2014-05-11T06:10:06Z</time>
      </trkpt>
      <trkpt lat="43.12897" lon="5.89484">
        <ele>69.726</ele>
        <time>2014-05-11T06:10:09Z</time>
      </trkpt>
      <trkpt lat="43.12893" lon="5.89447">
        <ele>68.8978</ele>
        <time>2014-05-11T06:10:15Z</time>
      </trkpt>
      <trkpt lat="43.12891" lon="5.89412">
        <ele>70.748</ele>
        <time>2014-05-11T06:10:20Z</time>
      </trkpt>
      <trkpt lat="43.12889" lon="5.89391">
        <ele>70.6534</ele>
        <time>2014-05-11T06:10:23Z</time>
      </trkpt>
      <trkpt lat="43.12884" lon="5.89348">
        <ele>72.8469</ele>
        <time>2014-05-11T06:10:29Z</time>
      </trkpt>
      <trkpt lat="43.12878" lon="5.89316">
        <ele>72.5208</ele>
        <time>2014-05-11T06:10:34Z</time>
      </trkpt>
      <trkpt lat="43.12876" lon="5.89295">
        <ele>72.8805</ele>
        <time>2014-05-11T06:10:37Z</time>
      </trkpt>
      <trkpt lat="43.12874" lon="5.89276">
        <ele>71.8628</ele>
        <time>2014-05-11T06:10:40Z</time>
      </trkpt>
      <trkpt lat="43.12868" lon="5.89247">
        <ele>72.2985</ele>
        <time>2014-05-11T06:10:45Z</time>
      </trkpt>
      <trkpt lat="43.12861" lon="5.89218">
        <ele>71.877</ele>
        <time>2014-05-11T06:10:50Z</time>
      </trkpt>
      <trkpt lat="43.12856" lon="5.89189">
        <ele>73.2887</ele>
        <time>2014-05-11T06:10:55Z</time>
      </trkpt>
      <trkpt lat="43.12847" lon="5.8915">
        <ele>75.0584</ele>
        <time>2014-05-11T06:11:03Z</time>
      </trkpt>
      <trkpt lat="43.12842" lon="5.89124">
        <ele>74.4867</ele>
        <time>2014-05-11T06:11:08Z</time>
      </trkpt>
      <trkpt lat="43.12842" lon="5.89107">
        <ele>74.3434</ele>
        <time>2014-05-11T06:11:11Z</time>
      </trkpt>
      <trkpt lat="43.12845" lon="5.89079">
        <ele>74.1859</ele>
        <time>2014-05-11T06:11:16Z</time>
      </trkpt>
      <trkpt lat="43.12849" lon="5.89063">
        <ele>74.0138</ele>
        <time>2014-05-11T06:11:19Z</time>
      </trkpt>
      <trkpt lat="43.1286" lon="5.89032">
        <ele>74.2197</ele>
        <time>2014-05-11T06:11:25Z</time>
      </trkpt>
      <trkpt lat="43.1287" lon="5.89005">
        <ele>75.0698</ele>
        <time>2014-05-11T06:11:30Z</time>
      </trkpt>
      <trkpt lat="43.12875" lon="5.88968">
        <ele>74.1753</ele>
        <time>2014-05-11T06:11:35Z</time>
      </trkpt>
      <trkpt lat="43.12875" lon="5.88917">
        <ele>72.7796</ele>
        <time>2014-05-11T06:11:41Z</time>
      </trkpt>
      <trkpt lat="43.12873" lon="5.88871">
        <ele>72.9583</ele>
        <time>2014-05-11T06:11:46Z</time>
      </trkpt>
      <trkpt lat="43.12872" lon="5.88812">
        <ele>72.3769</ele>
        <time>2014-05-11T06:11:53Z</time>
      </trkpt>
      <trkpt lat="43.1287" lon="5.88762">
        <ele>68.816</ele>
        <time>2014-05-11T06:11:59Z</time>
      </trkpt>
      <trkpt lat="43.12866" lon="5.88718">
        <ele>69.1936</ele>
        <time>2014-05-11T06:12:05Z</time>
      </trkpt>
      <trkpt lat="43.12855" lon="5.88674">
        <ele>70.1627</ele>
        <time>2014-05-11T06:12:11Z</time>
      </trkpt>
      <trkpt lat="43.12844" lon="5.8863">
        <ele>68.6917</ele>
        <time>2014-05-11T06:12:17Z</time>
      </trkpt>
      <trkpt lat="43.12836" lon="5.88595">
        <ele>68.4923</ele>
        <time>2014-05-11T06:12:22Z</time>
      </trkpt>
      <trkpt lat="43.12831" lon="5.88563">
        <ele>69.0846</ele>
        <time>2014-05-11T06:12:27Z</time>
      </trkpt>
      <trkpt lat="43.12827" lon="5.88528">
        <ele>67.5927</ele>
        <time>2014-05-11T06:12:32Z</time>
      </trkpt>
      <trkpt lat="43.12827" lon="5.88492">
        <ele>68.9885</ele>
        <time>2014-05-11T06:12:37Z</time>
      </trkpt>
      <trkpt lat="43.12827" lon="5.88456">
        <ele>70.4022</ele>
        <time>2014-05-11T06:12:43Z</time>
      </trkpt>
      <trkpt lat="43.12826" lon="5.88415">
        <ele>71.6129</ele>
        <time>2014-05-11T06:12:49Z</time>
      </trkpt>
      <trkpt lat="43.12823" lon="5.88372">
        <ele>70.6854</ele>
        <time>2014-05-11T06:12:55Z</time>
      </trkpt>
      <trkpt lat="43.12822" lon="5.88348">
        <ele>70.2379</ele>
        <time>2014-05-11T06:12:58Z</time>
      </trkpt>
      <trkpt lat="43.12822" lon="5.88326">
        <ele>71.226</ele>
        <time>2014-05-11T06:13:01Z</time>
      </trkpt>
      <trkpt lat="43.12819" lon="5.8829">
        <ele>71.6428</ele>
        <time>2014-05-11T06:13:06Z</time>
      </trkpt>
      <trkpt lat="43.12819" lon="5.88253">
        <ele>72.4585</ele>
        <time>2014-05-11T06:13:12Z</time>
      </trkpt>
      <trkpt lat="43.12818" lon="5.88217">
        <ele>71.3315</ele>
        <time>2014-05-11T06:13:18Z</time>
      </trkpt>
      <trkpt lat="43.12817" lon="5.88178">
        <ele>72.1864</ele>
        <time>2014-05-11T06:13:24Z</time>
      </trkpt>
      <trkpt lat="43.12815" lon="5.88145">
        <ele>72.7281</ele>
        <time>2014-05-11T06:13:29Z</time>
      </trkpt>
      <trkpt lat="43.12823" lon="5.88115">
        <ele>72.6723</ele>
        <time>2014-05-11T06:13:34Z</time>
      </trkpt>
      <trkpt lat="43.12837" lon="5.88085">
        <ele>74.9929</ele>
        <time>2014-05-11T06:13:41Z</time>
      </trkpt>
      <trkpt lat="43.1283" lon="5.8805">
        <ele>76.0299</ele>
        <time>2014-05-11T06:13:48Z</time>
      </trkpt>
      <trkpt lat="43.12836" lon="5.8802">
        <ele>76.2436</ele>
        <time>2014-05-11T06:13:53Z</time>
      </trkpt>
      <trkpt lat="43.12843" lon="5.87993">
        <ele>76.8336</ele>
        <time>2014-05-11T06:13:58Z</time>
      </trkpt>
      <trkpt lat="43.1285" lon="5.87964">
        <ele>76.2572</ele>
        <time>2014-05-11T06:14:03Z</time>
      </trkpt>
      <trkpt lat="43.12857" lon="5.87934">
        <ele>75.7129</ele>
        <time>2014-05-11T06:14:08Z</time>
      </trkpt>
      <trkpt lat="43.12863" lon="5.87899">
        <ele>75.3674</ele>
        <time>2014-05-11T06:14:14Z</time>
      </trkpt>
      <trkpt lat="43.1287" lon="5.87858">
        <ele>78.6063</ele>
        <time>2014-05-11T06:14:21Z</time>
      </trkpt>
      <trkpt lat="43.12874" lon="5.87832">
        <ele>79.9156</ele>
        <time>2014-05-11T06:14:26Z</time>
      </trkpt>
      <trkpt lat="43.12882" lon="5.87799">
        <ele>80.4178</ele>
        <time>2014-05-11T06:14:32Z</time>
      </trkpt>
      <trkpt lat="43.12892" lon="5.87771">
        <ele>78.0282</ele>
        <time>2014-05-11T06:14:37Z</time>
      </trkpt>
      <trkpt lat="43.12902" lon="5.87748">
        <ele>78.5005</ele>
        <time>2014-05-11T06:14:42Z</time>
      </trkpt>
      <trkpt lat="43.12909" lon="5.87734">
        <ele>79.4509</ele>
        <time>2014-05-11T06:14:45Z</time>
      </trkpt>
      <trkpt lat="43.12921" lon="5.87712">
        <ele>79.8156</ele>
        <time>2014-05-11T06:14:51Z</time>
      </trkpt>
      <trkpt lat="43.12923" lon="5.8771">
        <ele>79.835</ele>
        <time>2014-05-11T06:14:52Z</time>
      </trkpt>
      <trkpt lat="43.12923" lon="5.8771">
        <ele>32.5</ele>
        <time>2014-05-11T06:14:57Z</time>
      </trkpt>
      <trkpt lat="43.12923" lon="5.8771">
        <ele>32.5</ele>
        <time>2014-05-11T06:15:32Z</time>
      </trkpt>
      <trkpt lat="43.12934" lon="5.87683">
        <ele>81.5359</ele>
        <time>2014-05-11T06:15:32Z</time>
      </trkpt>
      <trkpt lat="43.1294" lon="5.87667">
        <ele>84.6884</ele>
        <time>2014-05-11T06:15:35Z</time>
      </trkpt>
      <trkpt lat="43.12952" lon="5.87636">
        <ele>88.3453</ele>
        <time>2014-05-11T06:15:41Z</time>
      </trkpt>
      <trkpt lat="43.12958" lon="5.87622">
        <ele>88.6144</ele>
        <time>2014-05-11T06:15:44Z</time>
      </trkpt>
      <trkpt lat="43.12964" lon="5.87607">
        <ele>88.0964</ele>
        <time>2014-05-11T06:15:47Z</time>
      </trkpt>
      <trkpt lat="43.12974" lon="5.87585">
        <ele>87.7666</ele>
        <time>2014-05-11T06:15:52Z</time>
      </trkpt>
      <trkpt lat="43.12979" lon="5.87571">
        <ele>85.7911</ele>
        <time>2014-05-11T06:15:55Z</time>
      </trkpt>
      <trkpt lat="43.1299" lon="5.87537">
        <ele>85.5665</ele>
        <time>2014-05-11T06:16:01Z</time>
      </trkpt>
      <trkpt lat="43.12999" lon="5.87511">
        <ele>87.104</ele>
        <time>2014-05-11T06:16:06Z</time>
      </trkpt>
      <trkpt lat="43.13016" lon="5.87471">
        <ele>89.6745</ele>
        <time>2014-05-11T06:16:14Z</time>
      </trkpt>
      <trkpt lat="43.13027" lon="5.87444">
        <ele>89.627</ele>
        <time>2014-05-11T06:16:19Z</time>
      </trkpt>
      <trkpt lat="43.13038" lon="5.87416">
        <ele>91.6802</ele>
        <time>2014-05-11T06:16:24Z</time>
      </trkpt>
      <trkpt lat="43.13048" lon="5.87389">
        <ele>91.719</ele>
        <time>2014-05-11T06:16:29Z</time>
      </trkpt>
      <trkpt lat="43.13059" lon="5.87363">
        <ele>92.6242</ele>
        <time>2014-05-11T06:16:34Z</time>
      </trkpt>
      <trkpt lat="43.13065" lon="5.87348">
        <ele>92.6256</ele>
        <time>2014-05-11T06:16:37Z</time>
      </trkpt>
      <trkpt lat="43.13076" lon="5.87313">
        <ele>90.8912</ele>
        <time>2014-05-11T06:16:43Z</time>
      </trkpt>
      <trkpt lat="43.13086" lon="5.87268">
        <ele>87.2693</ele>
        <time>2014-05-11T06:16:50Z</time>
      </trkpt>
      <trkpt lat="43.13095" lon="5.8723">
        <ele>88.847</ele>
        <time>2014-05-11T06:16:57Z</time>
      </trkpt>
      <trkpt lat="43.13104" lon="5.87195">
        <ele>88.6441</ele>
        <time>2014-05-11T06:17:03Z</time>
      </trkpt>
      <trkpt lat="43.13109" lon="5.8717">
        <ele>90.5469</ele>
        <time>2014-05-11T06:17:08Z</time>
      </trkpt>
      <trkpt lat="43.13116" lon="5.8714">
        <ele>90.7444</ele>
        <time>2014-05-11T06:17:14Z</time>
      </trkpt>
      <trkpt lat="43.13121" lon="5.87119">
        <ele>90.8783</ele>
        <time>2014-05-11T06:17:18Z</time>
      </trkpt>
      <trkpt lat="43.1313" lon="5.8709">
        <ele>91.3095</ele>
        <time>2014-05-11T06:17:24Z</time>
      </trkpt>
      <trkpt lat="43.13136" lon="5.87064">
        <ele>91.9964</ele>
        <time>2014-05-11T06:17:29Z</time>
      </trkpt>
      <trkpt lat="43.13143" lon="5.87036">
        <ele>92.6926</ele>
        <time>2014-05-11T06:17:34Z</time>
      </trkpt>
      <trkpt lat="43.13151" lon="5.87005">
        <ele>96.2665</ele>
        <time>2014-05-11T06:17:40Z</time>
      </trkpt>
      <trkpt lat="43.13157" lon="5.86978">
        <ele>97.3121</ele>
        <time>2014-05-11T06:17:45Z</time>
      </trkpt>
      <trkpt lat="43.13163" lon="5.86941">
        <ele>97.5136</ele>
        <time>2014-05-11T06:17:52Z</time>
      </trkpt>
      <trkpt lat="43.13172" lon="5.86911">
        <ele>97.5439</ele>
        <time>2014-05-11T06:17:59Z</time>
      </trkpt>
      <trkpt lat="43.13181" lon="5.86875">
        <ele>97.4414</ele>
        <time>2014-05-11T06:18:08Z</time>
      </trkpt>
      <trkpt lat="43.13184" lon="5.86863">
        <ele>97.402</ele>
        <time>2014-05-11T06:18:11Z</time>
      </trkpt>
      <trkpt lat="43.13187" lon="5.86851">
        <ele>97.556</ele>
        <time>2014-05-11T06:18:14Z</time>
      </trkpt>
      <trkpt lat="43.13198" lon="5.86813">
        <ele>97.7596</ele>
        <time>2014-05-11T06:18:23Z</time>
      </trkpt>
      <trkpt lat="43.13205" lon="5.86786">
        <ele>97.8247</ele>
        <time>2014-05-11T06:18:30Z</time>
      </trkpt>
      <trkpt lat="43.13207" lon="5.86775">
        <ele>98.1213</ele>
        <time>2014-05-11T06:18:33Z</time>
      </trkpt>
      <trkpt lat="43.1321" lon="5.86763">
        <ele>98.4847</ele>
        <time>2014-05-11T06:18:36Z</time>
      </trkpt>
      <trkpt lat="43.13219" lon="5.86729">
        <ele>99.6817</ele>
        <time>2014-05-11T06:18:45Z</time>
      </trkpt>
      <trkpt lat="43.13226" lon="5.86704">
        <ele>100.454</ele>
        <time>2014-05-11T06:18:51Z</time>
      </trkpt>
      <trkpt lat="43.13231" lon="5.86683">
        <ele>101.447</ele>
        <time>2014-05-11T06:18:57Z</time>
      </trkpt>
      <trkpt lat="43.13239" lon="5.8665">
        <ele>102.307</ele>
        <time>2014-05-11T06:19:05Z</time>
      </trkpt>
      <trkpt lat="43.13242" lon="5.86639">
        <ele>102.675</ele>
        <time>2014-05-11T06:19:08Z</time>
      </trkpt>
      <trkpt lat="43.13245" lon="5.86626">
        <ele>103.059</ele>
        <time>2014-05-11T06:19:11Z</time>
      </trkpt>
      <trkpt lat="43.13251" lon="5.86597">
        <ele>104.052</ele>
        <time>2014-05-11T06:19:18Z</time>
      </trkpt>
      <trkpt lat="43.13253" lon="5.86586">
        <ele>104.621</ele>
        <time>2014-05-11T06:19:21Z</time>
      </trkpt>
      <trkpt lat="43.13266" lon="5.86538">
        <ele>106.753</ele>
        <time>2014-05-11T06:19:33Z</time>
      </trkpt>
      <trkpt lat="43.13273" lon="5.86507">
        <ele>107.944</ele>
        <time>2014-05-11T06:19:40Z</time>
      </trkpt>
      <trkpt lat="43.13282" lon="5.86476">
        <ele>109.384</ele>
        <time>2014-05-11T06:19:48Z</time>
      </trkpt>
      <trkpt lat="43.1329" lon="5.86445">
        <ele>109.737</ele>
        <time>2014-05-11T06:19:56Z</time>
      </trkpt>
      <trkpt lat="43.13295" lon="5.86422">
        <ele>110.669</ele>
        <time>2014-05-11T06:20:02Z</time>
      </trkpt>
      <trkpt lat="43.13302" lon="5.86394">
        <ele>111.519</ele>
        <time>2014-05-11T06:20:10Z</time>
      </trkpt>
      <trkpt lat="43.13306" lon="5.86376">
        <ele>112.341</ele>
        <time>2014-05-11T06:20:15Z</time>
      </trkpt>
      <trkpt lat="43.13313" lon="5.86352">
        <ele>113.383</ele>
        <time>2014-05-11T06:20:20Z</time>
      </trkpt>
      <trkpt lat="43.13318" lon="5.86329">
        <ele>114.239</ele>
        <time>2014-05-11T06:20:25Z</time>
      </trkpt>
      <trkpt lat="43.13324" lon="5.86304">
        <ele>115.086</ele>
        <time>2014-05-11T06:20:32Z</time>
      </trkpt>
      <trkpt lat="43.13337" lon="5.86269">
        <ele>116.502</ele>
        <time>2014-05-11T06:20:40Z</time>
      </trkpt>
      <trkpt lat="43.13346" lon="5.86241">
        <ele>117.456</ele>
        <time>2014-05-11T06:20:47Z</time>
      </trkpt>
      <trkpt lat="43.13354" lon="5.86214">
        <ele>117.861</ele>
        <time>2014-05-11T06:20:53Z</time>
      </trkpt>
      <trkpt lat="43.13366" lon="5.86178">
        <ele>118.672</ele>
        <time>2014-05-11T06:21:01Z</time>
      </trkpt>
      <trkpt lat="43.13379" lon="5.86145">
        <ele>119.339</ele>
        <time>2014-05-11T06:21:08Z</time>
      </trkpt>
      <trkpt lat="43.13392" lon="5.86115">
        <ele>120.132</ele>
        <time>2014-05-11T06:21:15Z</time>
      </trkpt>
      <trkpt lat="43.134" lon="5.86093">
        <ele>121.09</ele>
        <time>2014-05-11T06:21:20Z</time>
      </trkpt>
      <trkpt lat="43.13412" lon="5.86055">
        <ele>124.228</ele>
        <time>2014-05-11T06:21:27Z</time>
      </trkpt>
      <trkpt lat="43.13424" lon="5.86023">
        <ele>124.691</ele>
        <time>2014-05-11T06:21:33Z</time>
      </trkpt>
      <trkpt lat="43.13432" lon="5.86004">
        <ele>125.757</ele>
        <time>2014-05-11T06:21:36Z</time>
      </trkpt>
      <trkpt lat="43.13447" lon="5.85967">
        <ele>126.33</ele>
        <time>2014-05-11T06:21:42Z</time>
      </trkpt>
      <trkpt lat="43.13458" lon="5.85941">
        <ele>125.926</ele>
        <time>2014-05-11T06:21:47Z</time>
      </trkpt>
      <trkpt lat="43.13473" lon="5.8591">
        <ele>127.366</ele>
        <time>2014-05-11T06:21:53Z</time>
      </trkpt>
      <trkpt lat="43.13495" lon="5.85889">
        <ele>126.38</ele>
        <time>2014-05-11T06:21:59Z</time>
      </trkpt>
      <trkpt lat="43.13501" lon="5.85859">
        <ele>128.809</ele>
        <time>2014-05-11T06:22:06Z</time>
      </trkpt>
      <trkpt lat="43.13506" lon="5.85802">
        <ele>129.262</ele>
        <time>2014-05-11T06:22:15Z</time>
      </trkpt>
      <trkpt lat="43.13518" lon="5.85765">
        <ele>128.947</ele>
        <time>2014-05-11T06:22:21Z</time>
      </trkpt>
      <trkpt lat="43.13532" lon="5.85733">
        <ele>131.153</ele>
        <time>2014-05-11T06:22:26Z</time>
      </trkpt>
      <trkpt lat="43.13542" lon="5.85696">
        <ele>129.278</ele>
        <time>2014-05-11T06:22:31Z</time>
      </trkpt>
      <trkpt lat="43.1354" lon="5.85651">
        <ele>128.122</ele>
        <time>2014-05-11T06:22:36Z</time>
      </trkpt>
      <trkpt lat="43.13531" lon="5.85596">
        <ele>128.932</ele>
        <time>2014-05-11T06:22:41Z</time>
      </trkpt>
      <trkpt lat="43.13515" lon="5.85522">
        <ele>126.278</ele>
        <time>2014-05-11T06:22:47Z</time>
      </trkpt>
      <trkpt lat="43.13501" lon="5.85459">
        <ele>124.802</ele>
        <time>2014-05-11T06:22:52Z</time>
      </trkpt>
      <trkpt lat="43.13488" lon="5.85381">
        <ele>124.658</ele>
        <time>2014-05-11T06:22:58Z</time>
      </trkpt>
      <trkpt lat="43.1349" lon="5.85315">
        <ele>120.322</ele>
        <time>2014-05-11T06:23:03Z</time>
      </trkpt>
      <trkpt lat="43.13506" lon="5.85272">
        <ele>116.251</ele>
        <time>2014-05-11T06:23:06Z</time>
      </trkpt>
      <trkpt lat="43.13546" lon="5.85203">
        <ele>109.121</ele>
        <time>2014-05-11T06:23:12Z</time>
      </trkpt>
      <trkpt lat="43.13567" lon="5.85178">
        <ele>107.416</ele>
        <time>2014-05-11T06:23:15Z</time>
      </trkpt>
      <trkpt lat="43.13588" lon="5.85154">
        <ele>105.73</ele>
        <time>2014-05-11T06:23:18Z</time>
      </trkpt>
      <trkpt lat="43.13624" lon="5.85112">
        <ele>103.791</ele>
        <time>2014-05-11T06:23:23Z</time>
      </trkpt>
      <trkpt lat="43.13655" lon="5.85083">
        <ele>101.546</ele>
        <time>2014-05-11T06:23:28Z</time>
      </trkpt>
      <trkpt lat="43.13688" lon="5.85065">
        <ele>99.2941</ele>
        <time>2014-05-11T06:23:33Z</time>
      </trkpt>
      <trkpt lat="43.13723" lon="5.85057">
        <ele>99.5242</ele>
        <time>2014-05-11T06:23:39Z</time>
      </trkpt>
      <trkpt lat="43.13751" lon="5.85055">
        <ele>99.0441</ele>
        <time>2014-05-11T06:24:16Z</time>
      </trkpt>
      <trkpt lat="43.13764" lon="5.85053">
        <ele>99.4917</ele>
        <time>2014-05-11T06:24:19Z</time>
      </trkpt>
      <trkpt lat="43.1379" lon="5.85048">
        <ele>100.154</ele>
        <time>2014-05-11T06:24:25Z</time>
      </trkpt>
      <trkpt lat="43.13801" lon="5.85044">
        <ele>100.76</ele>
        <time>2014-05-11T06:24:28Z</time>
      </trkpt>
      <trkpt lat="43.13822" lon="5.85037">
        <ele>100.313</ele>
        <time>2014-05-11T06:24:33Z</time>
      </trkpt>
      <trkpt lat="43.13856" lon="5.85026">
        <ele>99.1338</ele>
        <time>2014-05-11T06:24:41Z</time>
      </trkpt>
      <trkpt lat="43.13879" lon="5.85017">
        <ele>98.9623</ele>
        <time>2014-05-11T06:24:46Z</time>
      </trkpt>
      <trkpt lat="43.13894" lon="5.85012">
        <ele>99.1397</ele>
        <time>2014-05-11T06:24:49Z</time>
      </trkpt>
      <trkpt lat="43.13928" lon="5.84998">
        <ele>98.2147</ele>
        <time>2014-05-11T06:24:55Z</time>
      </trkpt>
      <trkpt lat="43.13963" lon="5.84987">
        <ele>97.3238</ele>
        <time>2014-05-11T06:25:01Z</time>
      </trkpt>
      <trkpt lat="43.13997" lon="5.84977">
        <ele>95.725</ele>
        <time>2014-05-11T06:25:06Z</time>
      </trkpt>
      <trkpt lat="43.14038" lon="5.84963">
        <ele>94.3388</ele>
        <time>2014-05-11T06:25:12Z</time>
      </trkpt>
      <trkpt lat="43.14058" lon="5.84953">
        <ele>93.288</ele>
        <time>2014-05-11T06:25:15Z</time>
      </trkpt>
      <trkpt lat="43.1408" lon="5.84941">
        <ele>91.463</ele>
        <time>2014-05-11T06:25:18Z</time>
      </trkpt>
      <trkpt lat="43.14099" lon="5.84925">
        <ele>90.1533</ele>
        <time>2014-05-11T06:25:21Z</time>
      </trkpt>
      <trkpt lat="43.14117" lon="5.84907">
        <ele>89.5977</ele>
        <time>2014-05-11T06:25:24Z</time>
      </trkpt>
      <trkpt lat="43.14132" lon="5.84891">
        <ele>90.9565</ele>
        <time>2014-05-11T06:25:27Z</time>
      </trkpt>
      <trkpt lat="43.14146" lon="5.84875">
        <ele>91.9567</ele>
        <time>2014-05-11T06:25:30Z</time>
      </trkpt>
      <trkpt lat="43.1417" lon="5.84848">
        <ele>93.9687</ele>
        <time>2014-05-11T06:25:36Z</time>
      </trkpt>
      <trkpt lat="43.14186" lon="5.84827">
        <ele>97.5474</ele>
        <time>2014-05-11T06:25:41Z</time>
      </trkpt>
      <trkpt lat="43.14207" lon="5.84805">
        <ele>102.699</ele>
        <time>2014-05-11T06:25:47Z</time>
      </trkpt>
      <trkpt lat="43.14228" lon="5.84782">
        <ele>98.8145</ele>
        <time>2014-05-11T06:25:53Z</time>
      </trkpt>
      <trkpt lat="43.14249" lon="5.84762">
        <ele>99.2035</ele>
        <time>2014-05-11T06:25:59Z</time>
      </trkpt>
      <trkpt lat="43.14264" lon="5.84746">
        <ele>99.3244</ele>
        <time>2014-05-11T06:26:04Z</time>
      </trkpt>
      <trkpt lat="43.14283" lon="5.84728">
        <ele>100.173</ele>
        <time>2014-05-11T06:26:10Z</time>
      </trkpt>
      <trkpt lat="43.14301" lon="5.84711">
        <ele>98.0034</ele>
        <time>2014-05-11T06:26:15Z</time>
      </trkpt>
      <trkpt lat="43.14319" lon="5.84696">
        <ele>96.8282</ele>
        <time>2014-05-11T06:26:20Z</time>
      </trkpt>
      <trkpt lat="43.14334" lon="5.84686">
        <ele>96.1997</ele>
        <time>2014-05-11T06:26:24Z</time>
      </trkpt>
      <trkpt lat="43.14358" lon="5.84681">
        <ele>98.6068</ele>
        <time>2014-05-11T06:26:30Z</time>
      </trkpt>
      <trkpt lat="43.14392" lon="5.8469">
        <ele>99.127</ele>
        <time>2014-05-11T06:26:37Z</time>
      </trkpt>
      <trkpt lat="43.14412" lon="5.84702">
        <ele>102.026</ele>
        <time>2014-05-11T06:26:42Z</time>
      </trkpt>
      <trkpt lat="43.14431" lon="5.84714">
        <ele>104.484</ele>
        <time>2014-05-11T06:26:47Z</time>
      </trkpt>
      <trkpt lat="43.14457" lon="5.84728">
        <ele>105.288</ele>
        <time>2014-05-11T06:26:53Z</time>
      </trkpt>
      <trkpt lat="43.14483" lon="5.84744">
        <ele>104.972</ele>
        <time>2014-05-11T06:26:59Z</time>
      </trkpt>
      <trkpt lat="43.14513" lon="5.84762">
        <ele>105.063</ele>
        <time>2014-05-11T06:27:07Z</time>
      </trkpt>
      <trkpt lat="43.14544" lon="5.84784">
        <ele>105.087</ele>
        <time>2014-05-11T06:27:15Z</time>
      </trkpt>
      <trkpt lat="43.14566" lon="5.84799">
        <ele>105.644</ele>
        <time>2014-05-11T06:27:20Z</time>
      </trkpt>
      <trkpt lat="43.14577" lon="5.84807">
        <ele>107.842</ele>
        <time>2014-05-11T06:27:23Z</time>
      </trkpt>
      <trkpt lat="43.14599" lon="5.84819">
        <ele>104.965</ele>
        <time>2014-05-11T06:27:28Z</time>
      </trkpt>
      <trkpt lat="43.1462" lon="5.84823">
        <ele>102.497</ele>
        <time>2014-05-11T06:27:33Z</time>
      </trkpt>
      <trkpt lat="43.14655" lon="5.84827">
        <ele>105.764</ele>
        <time>2014-05-11T06:27:40Z</time>
      </trkpt>
      <trkpt lat="43.14669" lon="5.84827">
        <ele>105.818</ele>
        <time>2014-05-11T06:27:43Z</time>
      </trkpt>
      <trkpt lat="43.14694" lon="5.84826">
        <ele>106.84</ele>
        <time>2014-05-11T06:27:48Z</time>
      </trkpt>
      <trkpt lat="43.14712" lon="5.84823">
        <ele>107.807</ele>
        <time>2014-05-11T06:27:52Z</time>
      </trkpt>
      <trkpt lat="43.14744" lon="5.84804">
        <ele>106.32</ele>
        <time>2014-05-11T06:27:59Z</time>
      </trkpt>
      <trkpt lat="43.14767" lon="5.84783">
        <ele>107.713</ele>
        <time>2014-05-11T06:28:05Z</time>
      </trkpt>
      <trkpt lat="43.14789" lon="5.84758">
        <ele>107.202</ele>
        <time>2014-05-11T06:28:11Z</time>
      </trkpt>
      <trkpt lat="43.14809" lon="5.84732">
        <ele>104.113</ele>
        <time>2014-05-11T06:28:17Z</time>
      </trkpt>
      <trkpt lat="43.14827" lon="5.847">
        <ele>103.311</ele>
        <time>2014-05-11T06:28:23Z</time>
      </trkpt>
      <trkpt lat="43.14846" lon="5.84676">
        <ele>105.271</ele>
        <time>2014-05-11T06:28:29Z</time>
      </trkpt>
      <trkpt lat="43.14869" lon="5.84678">
        <ele>108.611</ele>
        <time>2014-05-11T06:28:35Z</time>
      </trkpt>
      <trkpt lat="43.14885" lon="5.84692">
        <ele>109.954</ele>
        <time>2014-05-11T06:28:40Z</time>
      </trkpt>
      <trkpt lat="43.14904" lon="5.84709">
        <ele>110.239</ele>
        <time>2014-05-11T06:28:46Z</time>
      </trkpt>
      <trkpt lat="43.14925" lon="5.84726">
        <ele>111.419</ele>
        <time>2014-05-11T06:28:53Z</time>
      </trkpt>
      <trkpt lat="43.14945" lon="5.84743">
        <ele>113.073</ele>
        <time>2014-05-11T06:28:59Z</time>
      </trkpt>
      <trkpt lat="43.14963" lon="5.84761">
        <ele>115.638</ele>
        <time>2014-05-11T06:29:04Z</time>
      </trkpt>
      <trkpt lat="43.14971" lon="5.8477">
        <ele>115.771</ele>
        <time>2014-05-11T06:29:07Z</time>
      </trkpt>
      <trkpt lat="43.14986" lon="5.84785">
        <ele>115.76</ele>
        <time>2014-05-11T06:29:11Z</time>
      </trkpt>
      <trkpt lat="43.15001" lon="5.848">
        <ele>116.123</ele>
        <time>2014-05-11T06:29:16Z</time>
      </trkpt>
      <trkpt lat="43.15024" lon="5.84819">
        <ele>115.566</ele>
        <time>2014-05-11T06:29:24Z</time>
      </trkpt>
      <trkpt lat="43.15046" lon="5.84834">
        <ele>115.367</ele>
        <time>2014-05-11T06:29:29Z</time>
      </trkpt>
      <trkpt lat="43.15068" lon="5.84845">
        <ele>115.429</ele>
        <time>2014-05-11T06:29:34Z</time>
      </trkpt>
      <trkpt lat="43.15095" lon="5.84847">
        <ele>117.025</ele>
        <time>2014-05-11T06:29:40Z</time>
      </trkpt>
      <trkpt lat="43.15126" lon="5.84833">
        <ele>122.636</ele>
        <time>2014-05-11T06:29:47Z</time>
      </trkpt>
      <trkpt lat="43.15148" lon="5.84803">
        <ele>120.95</ele>
        <time>2014-05-11T06:29:53Z</time>
      </trkpt>
      <trkpt lat="43.15159" lon="5.84785">
        <ele>120.297</ele>
        <time>2014-05-11T06:29:56Z</time>
      </trkpt>
      <trkpt lat="43.15166" lon="5.8477">
        <ele>119.918</ele>
        <time>2014-05-11T06:29:59Z</time>
      </trkpt>
      <trkpt lat="43.15171" lon="5.84751">
        <ele>119.39</ele>
        <time>2014-05-11T06:30:02Z</time>
      </trkpt>
      <trkpt lat="43.15171" lon="5.84718">
        <ele>119.034</ele>
        <time>2014-05-11T06:30:07Z</time>
      </trkpt>
      <trkpt lat="43.15167" lon="5.84686">
        <ele>118.684</ele>
        <time>2014-05-11T06:30:12Z</time>
      </trkpt>
      <trkpt lat="43.15163" lon="5.84655">
        <ele>116.679</ele>
        <time>2014-05-11T06:30:17Z</time>
      </trkpt>
      <trkpt lat="43.15158" lon="5.84619">
        <ele>116.641</ele>
        <time>2014-05-11T06:30:23Z</time>
      </trkpt>
      <trkpt lat="43.15157" lon="5.84588">
        <ele>117.016</ele>
        <time>2014-05-11T06:30:28Z</time>
      </trkpt>
      <trkpt lat="43.15157" lon="5.84556">
        <ele>119.453</ele>
        <time>2014-05-11T06:30:34Z</time>
      </trkpt>
      <trkpt lat="43.15157" lon="5.84537">
        <ele>118.068</ele>
        <time>2014-05-11T06:30:37Z</time>
      </trkpt>
      <trkpt lat="43.15162" lon="5.84513">
        <ele>113.837</ele>
        <time>2014-05-11T06:30:41Z</time>
      </trkpt>
      <trkpt lat="43.1518" lon="5.84483">
        <ele>110.341</ele>
        <time>2014-05-11T06:30:48Z</time>
      </trkpt>
      <trkpt lat="43.15198" lon="5.8447">
        <ele>111.123</ele>
        <time>2014-05-11T06:30:53Z</time>
      </trkpt>
      <trkpt lat="43.15221" lon="5.84453">
        <ele>115.053</ele>
        <time>2014-05-11T06:30:59Z</time>
      </trkpt>
      <trkpt lat="43.15242" lon="5.84459">
        <ele>119.972</ele>
        <time>2014-05-11T06:31:04Z</time>
      </trkpt>
      <trkpt lat="43.15264" lon="5.84472">
        <ele>123.533</ele>
        <time>2014-05-11T06:31:09Z</time>
      </trkpt>
      <trkpt lat="43.15291" lon="5.84493">
        <ele>127.454</ele>
        <time>2014-05-11T06:31:16Z</time>
      </trkpt>
      <trkpt lat="43.15315" lon="5.84509">
        <ele>132.191</ele>
        <time>2014-05-11T06:31:22Z</time>
      </trkpt>
      <trkpt lat="43.15341" lon="5.84511">
        <ele>131.475</ele>
        <time>2014-05-11T06:31:29Z</time>
      </trkpt>
      <trkpt lat="43.15365" lon="5.84502">
        <ele>132.283</ele>
        <time>2014-05-11T06:31:36Z</time>
      </trkpt>
      <trkpt lat="43.15379" lon="5.84492">
        <ele>134.068</ele>
        <time>2014-05-11T06:31:40Z</time>
      </trkpt>
      <trkpt lat="43.15404" lon="5.8446">
        <ele>133.378</ele>
        <time>2014-05-11T06:31:48Z</time>
      </trkpt>
      <trkpt lat="43.15427" lon="5.84438">
        <ele>126.839</ele>
        <time>2014-05-11T06:31:54Z</time>
      </trkpt>
      <trkpt lat="43.15439" lon="5.84429">
        <ele>125.364</ele>
        <time>2014-05-11T06:31:57Z</time>
      </trkpt>
      <trkpt lat="43.15463" lon="5.84406">
        <ele>118.524</ele>
        <time>2014-05-11T06:32:04Z</time>
      </trkpt>
      <trkpt lat="43.1548" lon="5.84387">
        <ele>118.603</ele>
        <time>2014-05-11T06:32:09Z</time>
      </trkpt>
      <trkpt lat="43.15498" lon="5.84353">
        <ele>125.057</ele>
        <time>2014-05-11T06:32:16Z</time>
      </trkpt>
      <trkpt lat="43.15508" lon="5.84324">
        <ele>125.952</ele>
        <time>2014-05-11T06:32:22Z</time>
      </trkpt>
      <trkpt lat="43.15516" lon="5.84293">
        <ele>128.878</ele>
        <time>2014-05-11T06:32:28Z</time>
      </trkpt>
      <trkpt lat="43.15525" lon="5.84274">
        <ele>132.757</ele>
        <time>2014-05-11T06:32:32Z</time>
      </trkpt>
      <trkpt lat="43.15549" lon="5.8426">
        <ele>139.218</ele>
        <time>2014-05-11T06:32:39Z</time>
      </trkpt>
      <trkpt lat="43.15569" lon="5.84273">
        <ele>141.379</ele>
        <time>2014-05-11T06:32:44Z</time>
      </trkpt>
      <trkpt lat="43.15581" lon="5.84281">
        <ele>141.715</ele>
        <time>2014-05-11T06:32:47Z</time>
      </trkpt>
      <trkpt lat="43.15593" lon="5.84293">
        <ele>141.78</ele>
        <time>2014-05-11T06:32:50Z</time>
      </trkpt>
      <trkpt lat="43.15608" lon="5.84311">
        <ele>141.226</ele>
        <time>2014-05-11T06:32:54Z</time>
      </trkpt>
      <trkpt lat="43.15622" lon="5.84335">
        <ele>140.545</ele>
        <time>2014-05-11T06:32:59Z</time>
      </trkpt>
      <trkpt lat="43.15637" lon="5.84364">
        <ele>138.371</ele>
        <time>2014-05-11T06:33:05Z</time>
      </trkpt>
      <trkpt lat="43.1565" lon="5.84392">
        <ele>137.276</ele>
        <time>2014-05-11T06:33:11Z</time>
      </trkpt>
      <trkpt lat="43.15664" lon="5.84419">
        <ele>136.225</ele>
        <time>2014-05-11T06:33:17Z</time>
      </trkpt>
      <trkpt lat="43.1568" lon="5.84445">
        <ele>136.017</ele>
        <time>2014-05-11T06:33:24Z</time>
      </trkpt>
      <trkpt lat="43.15695" lon="5.84465">
        <ele>135.641</ele>
        <time>2014-05-11T06:33:30Z</time>
      </trkpt>
      <trkpt lat="43.15709" lon="5.84483">
        <ele>134.948</ele>
        <time>2014-05-11T06:33:37Z</time>
      </trkpt>
      <trkpt lat="43.15727" lon="5.84493">
        <ele>134.967</ele>
        <time>2014-05-11T06:33:45Z</time>
      </trkpt>
      <trkpt lat="43.1575" lon="5.84489">
        <ele>136.515</ele>
        <time>2014-05-11T06:33:56Z</time>
      </trkpt>
      <trkpt lat="43.15771" lon="5.84457">
        <ele>139.174</ele>
        <time>2014-05-11T06:34:05Z</time>
      </trkpt>
      <trkpt lat="43.1579" lon="5.84417">
        <ele>138.381</ele>
        <time>2014-05-11T06:34:14Z</time>
      </trkpt>
      <trkpt lat="43.15807" lon="5.84392">
        <ele>139.161</ele>
        <time>2014-05-11T06:34:20Z</time>
      </trkpt>
      <trkpt lat="43.15827" lon="5.84377">
        <ele>140.201</ele>
        <time>2014-05-11T06:34:26Z</time>
      </trkpt>
      <trkpt lat="43.15851" lon="5.84368">
        <ele>143.919</ele>
        <time>2014-05-11T06:34:32Z</time>
      </trkpt>
      <trkpt lat="43.15872" lon="5.84361">
        <ele>147.666</ele>
        <time>2014-05-11T06:34:38Z</time>
      </trkpt>
      <trkpt lat="43.15897" lon="5.84359">
        <ele>148.825</ele>
        <time>2014-05-11T06:34:45Z</time>
      </trkpt>
      <trkpt lat="43.15918" lon="5.84346">
        <ele>149.373</ele>
        <time>2014-05-11T06:34:51Z</time>
      </trkpt>
      <trkpt lat="43.15929" lon="5.84337">
        <ele>149.629</ele>
        <time>2014-05-11T06:34:55Z</time>
      </trkpt>
      <trkpt lat="43.15943" lon="5.84323">
        <ele>149.944</ele>
        <time>2014-05-11T06:35:01Z</time>
      </trkpt>
      <trkpt lat="43.15947" lon="5.84307">
        <ele>150.174</ele>
        <time>2014-05-11T06:35:06Z</time>
      </trkpt>
      <trkpt lat="43.15945" lon="5.84281">
        <ele>150.855</ele>
        <time>2014-05-11T06:35:13Z</time>
      </trkpt>
      <trkpt lat="43.15948" lon="5.84247">
        <ele>150.774</ele>
        <time>2014-05-11T06:35:21Z</time>
      </trkpt>
      <trkpt lat="43.15952" lon="5.84211">
        <ele>149.395</ele>
        <time>2014-05-11T06:35:29Z</time>
      </trkpt>
      <trkpt lat="43.15951" lon="5.84185">
        <ele>148.626</ele>
        <time>2014-05-11T06:35:35Z</time>
      </trkpt>
      <trkpt lat="43.15948" lon="5.84152">
        <ele>148.264</ele>
        <time>2014-05-11T06:35:42Z</time>
      </trkpt>
      <trkpt lat="43.15938" lon="5.84127">
        <ele>148.584</ele>
        <time>2014-05-11T06:35:48Z</time>
      </trkpt>
      <trkpt lat="43.15918" lon="5.84097">
        <ele>158.245</ele>
        <time>2014-05-11T06:35:55Z</time>
      </trkpt>
      <trkpt lat="43.15898" lon="5.84068">
        <ele>162.414</ele>
        <time>2014-05-11T06:36:02Z</time>
      </trkpt>
      <trkpt lat="43.15877" lon="5.84053">
        <ele>164.463</ele>
        <time>2014-05-11T06:36:08Z</time>
      </trkpt>
      <trkpt lat="43.15852" lon="5.8404">
        <ele>166.529</ele>
        <time>2014-05-11T06:36:14Z</time>
      </trkpt>
      <trkpt lat="43.15831" lon="5.84034">
        <ele>167.855</ele>
        <time>2014-05-11T06:36:19Z</time>
      </trkpt>
      <trkpt lat="43.15806" lon="5.84013">
        <ele>170.002</ele>
        <time>2014-05-11T06:36:26Z</time>
      </trkpt>
      <trkpt lat="43.15788" lon="5.83989">
        <ele>171.272</ele>
        <time>2014-05-11T06:36:32Z</time>
      </trkpt>
      <trkpt lat="43.15775" lon="5.83957">
        <ele>170.749</ele>
        <time>2014-05-11T06:36:38Z</time>
      </trkpt>
      <trkpt lat="43.15772" lon="5.83926">
        <ele>165.35</ele>
        <time>2014-05-11T06:36:43Z</time>
      </trkpt>
      <trkpt lat="43.15777" lon="5.8389">
        <ele>158.174</ele>
        <time>2014-05-11T06:36:48Z</time>
      </trkpt>
      <trkpt lat="43.15789" lon="5.83864">
        <ele>158.191</ele>
        <time>2014-05-11T06:36:52Z</time>
      </trkpt>
      <trkpt lat="43.15804" lon="5.83833">
        <ele>156.645</ele>
        <time>2014-05-11T06:36:58Z</time>
      </trkpt>
      <trkpt lat="43.15805" lon="5.83806">
        <ele>157.009</ele>
        <time>2014-05-11T06:37:03Z</time>
      </trkpt>
      <trkpt lat="43.15789" lon="5.83777">
        <ele>162.931</ele>
        <time>2014-05-11T06:37:10Z</time>
      </trkpt>
      <trkpt lat="43.15775" lon="5.83759">
        <ele>166.134</ele>
        <time>2014-05-11T06:37:14Z</time>
      </trkpt>
      <trkpt lat="43.15762" lon="5.83727">
        <ele>163.101</ele>
        <time>2014-05-11T06:37:19Z</time>
      </trkpt>
      <trkpt lat="43.15761" lon="5.83689">
        <ele>158.119</ele>
        <time>2014-05-11T06:37:25Z</time>
      </trkpt>
      <trkpt lat="43.15773" lon="5.83656">
        <ele>157.141</ele>
        <time>2014-05-11T06:37:30Z</time>
      </trkpt>
      <trkpt lat="43.15795" lon="5.83627">
        <ele>158.336</ele>
        <time>2014-05-11T06:37:36Z</time>
      </trkpt>
      <trkpt lat="43.15824" lon="5.836">
        <ele>160.296</ele>
        <time>2014-05-11T06:37:42Z</time>
      </trkpt>
      <trkpt lat="43.15844" lon="5.83579">
        <ele>161.022</ele>
        <time>2014-05-11T06:37:47Z</time>
      </trkpt>
      <trkpt lat="43.15865" lon="5.83552">
        <ele>160.665</ele>
        <time>2014-05-11T06:37:53Z</time>
      </trkpt>
      <trkpt lat="43.15881" lon="5.83524">
        <ele>162.739</ele>
        <time>2014-05-11T06:37:59Z</time>
      </trkpt>
      <trkpt lat="43.15893" lon="5.83495">
        <ele>163.123</ele>
        <time>2014-05-11T06:38:04Z</time>
      </trkpt>
      <trkpt lat="43.159" lon="5.83475">
        <ele>163.039</ele>
        <time>2014-05-11T06:38:07Z</time>
      </trkpt>
      <trkpt lat="43.15914" lon="5.83437">
        <ele>160.415</ele>
        <time>2014-05-11T06:38:12Z</time>
      </trkpt>
      <trkpt lat="43.1592" lon="5.83403">
        <ele>155.25</ele>
        <time>2014-05-11T06:38:17Z</time>
      </trkpt>
      <trkpt lat="43.15925" lon="5.83359">
        <ele>154.751</ele>
        <time>2014-05-11T06:38:23Z</time>
      </trkpt>
      <trkpt lat="43.15927" lon="5.83342">
        <ele>156.853</ele>
        <time>2014-05-11T06:38:26Z</time>
      </trkpt>
      <trkpt lat="43.1593" lon="5.83324">
        <ele>155.729</ele>
        <time>2014-05-11T06:38:29Z</time>
      </trkpt>
      <trkpt lat="43.15931" lon="5.83306">
        <ele>155.242</ele>
        <time>2014-05-11T06:38:32Z</time>
      </trkpt>
      <trkpt lat="43.15934" lon="5.83266">
        <ele>158.793</ele>
        <time>2014-05-11T06:38:38Z</time>
      </trkpt>
      <trkpt lat="43.15939" lon="5.8322">
        <ele>161.263</ele>
        <time>2014-05-11T06:38:44Z</time>
      </trkpt>
      <trkpt lat="43.15958" lon="5.83179">
        <ele>162.186</ele>
        <time>2014-05-11T06:38:50Z</time>
      </trkpt>
      <trkpt lat="43.15979" lon="5.83156">
        <ele>164.107</ele>
        <time>2014-05-11T06:38:55Z</time>
      </trkpt>
      <trkpt lat="43.15993" lon="5.83147">
        <ele>164.615</ele>
        <time>2014-05-11T06:38:58Z</time>
      </trkpt>
      <trkpt lat="43.16008" lon="5.83138">
        <ele>162.951</ele>
        <time>2014-05-11T06:39:01Z</time>
      </trkpt>
      <trkpt lat="43.16037" lon="5.83128">
        <ele>165.639</ele>
        <time>2014-05-11T06:39:07Z</time>
      </trkpt>
      <trkpt lat="43.16062" lon="5.83124">
        <ele>168.859</ele>
        <time>2014-05-11T06:39:12Z</time>
      </trkpt>
      <trkpt lat="43.16091" lon="5.83139">
        <ele>169.308</ele>
        <time>2014-05-11T06:39:18Z</time>
      </trkpt>
      <trkpt lat="43.16103" lon="5.83149">
        <ele>168.267</ele>
        <time>2014-05-11T06:39:21Z</time>
      </trkpt>
      <trkpt lat="43.16122" lon="5.83176">
        <ele>166.04</ele>
        <time>2014-05-11T06:39:27Z</time>
      </trkpt>
      <trkpt lat="43.16131" lon="5.8319">
        <ele>166.915</ele>
        <time>2014-05-11T06:39:30Z</time>
      </trkpt>
      <trkpt lat="43.16147" lon="5.83214">
        <ele>166.722</ele>
        <time>2014-05-11T06:39:35Z</time>
      </trkpt>
      <trkpt lat="43.16172" lon="5.83244">
        <ele>165.248</ele>
        <time>2014-05-11T06:39:41Z</time>
      </trkpt>
      <trkpt lat="43.16181" lon="5.83253">
        <ele>165.334</ele>
        <time>2014-05-11T06:39:44Z</time>
      </trkpt>
      <trkpt lat="43.16191" lon="5.83264">
        <ele>166.332</ele>
        <time>2014-05-11T06:39:47Z</time>
      </trkpt>
      <trkpt lat="43.16208" lon="5.83279">
        <ele>167.252</ele>
        <time>2014-05-11T06:39:52Z</time>
      </trkpt>
      <trkpt lat="43.16231" lon="5.833">
        <ele>169.441</ele>
        <time>2014-05-11T06:40:00Z</time>
      </trkpt>
      <trkpt lat="43.1625" lon="5.83314">
        <ele>169.872</ele>
        <time>2014-05-11T06:40:05Z</time>
      </trkpt>
      <trkpt lat="43.16266" lon="5.83319">
        <ele>171.815</ele>
        <time>2014-05-11T06:40:09Z</time>
      </trkpt>
      <trkpt lat="43.16291" lon="5.8331">
        <ele>172.124</ele>
        <time>2014-05-11T06:40:16Z</time>
      </trkpt>
      <trkpt lat="43.16305" lon="5.83278">
        <ele>172.847</ele>
        <time>2014-05-11T06:40:23Z</time>
      </trkpt>
      <trkpt lat="43.16303" lon="5.83246">
        <ele>174.818</ele>
        <time>2014-05-11T06:40:28Z</time>
      </trkpt>
      <trkpt lat="43.16302" lon="5.83203">
        <ele>181.638</ele>
        <time>2014-05-11T06:40:34Z</time>
      </trkpt>
      <trkpt lat="43.16308" lon="5.83181">
        <ele>181.187</ele>
        <time>2014-05-11T06:40:37Z</time>
      </trkpt>
      <trkpt lat="43.16324" lon="5.8314">
        <ele>179.762</ele>
        <time>2014-05-11T06:40:42Z</time>
      </trkpt>
      <trkpt lat="43.1635" lon="5.83098">
        <ele>177.883</ele>
        <time>2014-05-11T06:40:48Z</time>
      </trkpt>
      <trkpt lat="43.16372" lon="5.83065">
        <ele>170.59</ele>
        <time>2014-05-11T06:40:54Z</time>
      </trkpt>
      <trkpt lat="43.1639" lon="5.8304">
        <ele>169.27</ele>
        <time>2014-05-11T06:40:59Z</time>
      </trkpt>
      <trkpt lat="43.1641" lon="5.83018">
        <ele>170.658</ele>
        <time>2014-05-11T06:41:04Z</time>
      </trkpt>
      <trkpt lat="43.16435" lon="5.82998">
        <ele>172.248</ele>
        <time>2014-05-11T06:41:10Z</time>
      </trkpt>
      <trkpt lat="43.16461" lon="5.8298">
        <ele>174.339</ele>
        <time>2014-05-11T06:41:16Z</time>
      </trkpt>
      <trkpt lat="43.16481" lon="5.82964">
        <ele>176.325</ele>
        <time>2014-05-11T06:41:21Z</time>
      </trkpt>
      <trkpt lat="43.16494" lon="5.82954">
        <ele>176.208</ele>
        <time>2014-05-11T06:41:24Z</time>
      </trkpt>
      <trkpt lat="43.16514" lon="5.82941">
        <ele>176.141</ele>
        <time>2014-05-11T06:41:29Z</time>
      </trkpt>
      <trkpt lat="43.16528" lon="5.82934">
        <ele>178.654</ele>
        <time>2014-05-11T06:41:32Z</time>
      </trkpt>
      <trkpt lat="43.16555" lon="5.82921">
        <ele>182.171</ele>
        <time>2014-05-11T06:41:38Z</time>
      </trkpt>
      <trkpt lat="43.16568" lon="5.82914">
        <ele>182.594</ele>
        <time>2014-05-11T06:41:41Z</time>
      </trkpt>
      <trkpt lat="43.16595" lon="5.82901">
        <ele>182.049</ele>
        <time>2014-05-11T06:41:47Z</time>
      </trkpt>
      <trkpt lat="43.16623" lon="5.82888">
        <ele>180.921</ele>
        <time>2014-05-11T06:41:53Z</time>
      </trkpt>
      <trkpt lat="43.16636" lon="5.82882">
        <ele>178.942</ele>
        <time>2014-05-11T06:41:56Z</time>
      </trkpt>
      <trkpt lat="43.16662" lon="5.82871">
        <ele>177.711</ele>
        <time>2014-05-11T06:42:01Z</time>
      </trkpt>
      <trkpt lat="43.16683" lon="5.82864">
        <ele>180.643</ele>
        <time>2014-05-11T06:42:06Z</time>
      </trkpt>
      <trkpt lat="43.16708" lon="5.82856">
        <ele>182.603</ele>
        <time>2014-05-11T06:42:12Z</time>
      </trkpt>
      <trkpt lat="43.16733" lon="5.8285">
        <ele>182.97</ele>
        <time>2014-05-11T06:42:17Z</time>
      </trkpt>
      <trkpt lat="43.1676" lon="5.82848">
        <ele>182.128</ele>
        <time>2014-05-11T06:42:22Z</time>
      </trkpt>
      <trkpt lat="43.16783" lon="5.82857">
        <ele>183.286</ele>
        <time>2014-05-11T06:42:27Z</time>
      </trkpt>
      <trkpt lat="43.16797" lon="5.82866">
        <ele>183.414</ele>
        <time>2014-05-11T06:42:30Z</time>
      </trkpt>
      <trkpt lat="43.1681" lon="5.82874">
        <ele>183.435</ele>
        <time>2014-05-11T06:42:33Z</time>
      </trkpt>
      <trkpt lat="43.16823" lon="5.82879">
        <ele>183.515</ele>
        <time>2014-05-11T06:42:36Z</time>
      </trkpt>
      <trkpt lat="43.1685" lon="5.82887">
        <ele>185.484</ele>
        <time>2014-05-11T06:42:41Z</time>
      </trkpt>
      <trkpt lat="43.16877" lon="5.82892">
        <ele>184.839</ele>
        <time>2014-05-11T06:42:47Z</time>
      </trkpt>
      <trkpt lat="43.16902" lon="5.82892">
        <ele>181.97</ele>
        <time>2014-05-11T06:42:52Z</time>
      </trkpt>
      <trkpt lat="43.16932" lon="5.82904">
        <ele>180.797</ele>
        <time>2014-05-11T06:42:58Z</time>
      </trkpt>
      <trkpt lat="43.16956" lon="5.82922">
        <ele>180.587</ele>
        <time>2014-05-11T06:43:04Z</time>
      </trkpt>
      <trkpt lat="43.16969" lon="5.82933">
        <ele>181.127</ele>
        <time>2014-05-11T06:43:07Z</time>
      </trkpt>
      <trkpt lat="43.16997" lon="5.82956">
        <ele>180.88</ele>
        <time>2014-05-11T06:43:13Z</time>
      </trkpt>
      <trkpt lat="43.17011" lon="5.82968">
        <ele>181.741</ele>
        <time>2014-05-11T06:43:16Z</time>
      </trkpt>
      <trkpt lat="43.17032" lon="5.82987">
        <ele>180.411</ele>
        <time>2014-05-11T06:43:22Z</time>
      </trkpt>
      <trkpt lat="43.17055" lon="5.83005">
        <ele>184.129</ele>
        <time>2014-05-11T06:43:28Z</time>
      </trkpt>
      <trkpt lat="43.17069" lon="5.83014">
        <ele>185.695</ele>
        <time>2014-05-11T06:43:31Z</time>
      </trkpt>
      <trkpt lat="43.17099" lon="5.83034">
        <ele>183.189</ele>
        <time>2014-05-11T06:43:37Z</time>
      </trkpt>
      <trkpt lat="43.17121" lon="5.8304">
        <ele>182.9</ele>
        <time>2014-05-11T06:43:42Z</time>
      </trkpt>
      <trkpt lat="43.17151" lon="5.83042">
        <ele>186.046</ele>
        <time>2014-05-11T06:43:49Z</time>
      </trkpt>
      <trkpt lat="43.17172" lon="5.83037">
        <ele>186.69</ele>
        <time>2014-05-11T06:43:54Z</time>
      </trkpt>
      <trkpt lat="43.17208" lon="5.83019">
        <ele>184.385</ele>
        <time>2014-05-11T06:44:02Z</time>
      </trkpt>
      <trkpt lat="43.17233" lon="5.83004">
        <ele>186.717</ele>
        <time>2014-05-11T06:44:07Z</time>
      </trkpt>
      <trkpt lat="43.17252" lon="5.82993">
        <ele>188.619</ele>
        <time>2014-05-11T06:44:12Z</time>
      </trkpt>
      <trkpt lat="43.17265" lon="5.82981">
        <ele>188.862</ele>
        <time>2014-05-11T06:44:19Z</time>
      </trkpt>
      <trkpt lat="43.17266" lon="5.82979">
        <ele>188.89</ele>
        <time>2014-05-11T06:44:20Z</time>
      </trkpt>
      <trkpt lat="43.17266" lon="5.82979">
        <ele>146.4</ele>
        <time>2014-05-11T06:44:27Z</time>
      </trkpt>
      <trkpt lat="43.17266" lon="5.82979">
        <ele>146.4</ele>
        <time>2014-05-11T06:44:44Z</time>
      </trkpt>
      <trkpt lat="43.17298" lon="5.82952">
        <ele>192.701</ele>
        <time>2014-05-11T06:44:44Z</time>
      </trkpt>
      <trkpt lat="43.17319" lon="5.8294">
        <ele>192.547</ele>
        <time>2014-05-11T06:44:49Z</time>
      </trkpt>
      <trkpt lat="43.17344" lon="5.82924">
        <ele>192.341</ele>
        <time>2014-05-11T06:44:55Z</time>
      </trkpt>
      <trkpt lat="43.17354" lon="5.82916">
        <ele>193.485</ele>
        <time>2014-05-11T06:44:58Z</time>
      </trkpt>
      <trkpt lat="43.17367" lon="5.82908">
        <ele>194.035</ele>
        <time>2014-05-11T06:45:01Z</time>
      </trkpt>
      <trkpt lat="43.17392" lon="5.82893">
        <ele>196.518</ele>
        <time>2014-05-11T06:45:07Z</time>
      </trkpt>
      <trkpt lat="43.17412" lon="5.8288">
        <ele>192.94</ele>
        <time>2014-05-11T06:45:12Z</time>
      </trkpt>
      <trkpt lat="43.1744" lon="5.82858">
        <ele>191.306</ele>
        <time>2014-05-11T06:45:19Z</time>
      </trkpt>
      <trkpt lat="43.1746" lon="5.8284">
        <ele>191.106</ele>
        <time>2014-05-11T06:45:24Z</time>
      </trkpt>
      <trkpt lat="43.17483" lon="5.82821">
        <ele>193.105</ele>
        <time>2014-05-11T06:45:30Z</time>
      </trkpt>
      <trkpt lat="43.17503" lon="5.82805">
        <ele>194.293</ele>
        <time>2014-05-11T06:45:35Z</time>
      </trkpt>
      <trkpt lat="43.17525" lon="5.82785">
        <ele>193.915</ele>
        <time>2014-05-11T06:45:41Z</time>
      </trkpt>
      <trkpt lat="43.17539" lon="5.82776">
        <ele>195.306</ele>
        <time>2014-05-11T06:45:44Z</time>
      </trkpt>
      <trkpt lat="43.17552" lon="5.82769">
        <ele>194.781</ele>
        <time>2014-05-11T06:45:48Z</time>
      </trkpt>
      <trkpt lat="43.17567" lon="5.82759">
        <ele>194.609</ele>
        <time>2014-05-11T06:45:52Z</time>
      </trkpt>
      <trkpt lat="43.17588" lon="5.82748">
        <ele>196.439</ele>
        <time>2014-05-11T06:45:57Z</time>
      </trkpt>
      <trkpt lat="43.17608" lon="5.82735">
        <ele>197.491</ele>
        <time>2014-05-11T06:46:02Z</time>
      </trkpt>
      <trkpt lat="43.17632" lon="5.82716">
        <ele>196.254</ele>
        <time>2014-05-11T06:46:08Z</time>
      </trkpt>
      <trkpt lat="43.17644" lon="5.82706">
        <ele>195.627</ele>
        <time>2014-05-11T06:46:11Z</time>
      </trkpt>
      <trkpt lat="43.17665" lon="5.82691">
        <ele>197.489</ele>
        <time>2014-05-11T06:46:16Z</time>
      </trkpt>
      <trkpt lat="43.17691" lon="5.82673">
        <ele>198.06</ele>
        <time>2014-05-11T06:46:22Z</time>
      </trkpt>
      <trkpt lat="43.17703" lon="5.82665">
        <ele>198.321</ele>
        <time>2014-05-11T06:46:25Z</time>
      </trkpt>
      <trkpt lat="43.17728" lon="5.82648">
        <ele>195.909</ele>
        <time>2014-05-11T06:46:31Z</time>
      </trkpt>
      <trkpt lat="43.17753" lon="5.82633">
        <ele>196.001</ele>
        <time>2014-05-11T06:46:37Z</time>
      </trkpt>
      <trkpt lat="43.17782" lon="5.82613">
        <ele>197.841</ele>
        <time>2014-05-11T06:46:44Z</time>
      </trkpt>
      <trkpt lat="43.17801" lon="5.82597">
        <ele>202.019</ele>
        <time>2014-05-11T06:46:49Z</time>
      </trkpt>
      <trkpt lat="43.17825" lon="5.82582">
        <ele>202.968</ele>
        <time>2014-05-11T06:46:55Z</time>
      </trkpt>
      <trkpt lat="43.17838" lon="5.82575">
        <ele>202.62</ele>
        <time>2014-05-11T06:46:58Z</time>
      </trkpt>
      <trkpt lat="43.1786" lon="5.82558">
        <ele>205.876</ele>
        <time>2014-05-11T06:47:04Z</time>
      </trkpt>
      <trkpt lat="43.17888" lon="5.82538">
        <ele>206.951</ele>
        <time>2014-05-11T06:47:12Z</time>
      </trkpt>
      <trkpt lat="43.17909" lon="5.82522">
        <ele>207.361</ele>
        <time>2014-05-11T06:47:18Z</time>
      </trkpt>
      <trkpt lat="43.17921" lon="5.82515">
        <ele>208.754</ele>
        <time>2014-05-11T06:47:21Z</time>
      </trkpt>
      <trkpt lat="43.17944" lon="5.82496">
        <ele>209.422</ele>
        <time>2014-05-11T06:47:28Z</time>
      </trkpt>
      <trkpt lat="43.17961" lon="5.82483">
        <ele>210.3</ele>
        <time>2014-05-11T06:47:33Z</time>
      </trkpt>
      <trkpt lat="43.17981" lon="5.82464">
        <ele>210.457</ele>
        <time>2014-05-11T06:47:39Z</time>
      </trkpt>
      <trkpt lat="43.18001" lon="5.82443">
        <ele>206.064</ele>
        <time>2014-05-11T06:47:45Z</time>
      </trkpt>
      <trkpt lat="43.18012" lon="5.82433">
        <ele>205.386</ele>
        <time>2014-05-11T06:47:48Z</time>
      </trkpt>
      <trkpt lat="43.18035" lon="5.82415">
        <ele>208.914</ele>
        <time>2014-05-11T06:47:54Z</time>
      </trkpt>
      <trkpt lat="43.18046" lon="5.82407">
        <ele>209.215</ele>
        <time>2014-05-11T06:47:57Z</time>
      </trkpt>
      <trkpt lat="43.18069" lon="5.82383">
        <ele>210.932</ele>
        <time>2014-05-11T06:48:04Z</time>
      </trkpt>
      <trkpt lat="43.18091" lon="5.82359">
        <ele>213.366</ele>
        <time>2014-05-11T06:48:10Z</time>
      </trkpt>
      <trkpt lat="43.18111" lon="5.82338">
        <ele>212.768</ele>
        <time>2014-05-11T06:48:16Z</time>
      </trkpt>
      <trkpt lat="43.18138" lon="5.82312">
        <ele>215.947</ele>
        <time>2014-05-11T06:48:23Z</time>
      </trkpt>
      <trkpt lat="43.18159" lon="5.82292">
        <ele>214.839</ele>
        <time>2014-05-11T06:48:29Z</time>
      </trkpt>
      <trkpt lat="43.1818" lon="5.82273">
        <ele>216.953</ele>
        <time>2014-05-11T06:48:35Z</time>
      </trkpt>
      <trkpt lat="43.1819" lon="5.82264">
        <ele>217.976</ele>
        <time>2014-05-11T06:48:38Z</time>
      </trkpt>
      <trkpt lat="43.18205" lon="5.82248">
        <ele>216.689</ele>
        <time>2014-05-11T06:48:42Z</time>
      </trkpt>
      <trkpt lat="43.18223" lon="5.8223">
        <ele>215.276</ele>
        <time>2014-05-11T06:48:47Z</time>
      </trkpt>
      <trkpt lat="43.18234" lon="5.8222">
        <ele>214.807</ele>
        <time>2014-05-11T06:48:50Z</time>
      </trkpt>
      <trkpt lat="43.18244" lon="5.82211">
        <ele>215.649</ele>
        <time>2014-05-11T06:48:53Z</time>
      </trkpt>
      <trkpt lat="43.18263" lon="5.82193">
        <ele>217.806</ele>
        <time>2014-05-11T06:48:59Z</time>
      </trkpt>
      <trkpt lat="43.18279" lon="5.82177">
        <ele>219.273</ele>
        <time>2014-05-11T06:49:04Z</time>
      </trkpt>
      <trkpt lat="43.183" lon="5.82155">
        <ele>220.241</ele>
        <time>2014-05-11T06:49:11Z</time>
      </trkpt>
      <trkpt lat="43.18309" lon="5.82147">
        <ele>220.191</ele>
        <time>2014-05-11T06:49:14Z</time>
      </trkpt>
      <trkpt lat="43.18335" lon="5.82125">
        <ele>219.918</ele>
        <time>2014-05-11T06:49:21Z</time>
      </trkpt>
      <trkpt lat="43.18351" lon="5.82111">
        <ele>219.763</ele>
        <time>2014-05-11T06:49:26Z</time>
      </trkpt>
      <trkpt lat="43.18361" lon="5.82101">
        <ele>219.693</ele>
        <time>2014-05-11T06:49:29Z</time>
      </trkpt>
      <trkpt lat="43.18381" lon="5.82083">
        <ele>221.356</ele>
        <time>2014-05-11T06:49:35Z</time>
      </trkpt>
      <trkpt lat="43.18402" lon="5.82065">
        <ele>221.804</ele>
        <time>2014-05-11T06:49:41Z</time>
      </trkpt>
      <trkpt lat="43.18418" lon="5.82052">
        <ele>222.604</ele>
        <time>2014-05-11T06:49:46Z</time>
      </trkpt>
      <trkpt lat="43.18429" lon="5.82042">
        <ele>222.452</ele>
        <time>2014-05-11T06:49:49Z</time>
      </trkpt>
      <trkpt lat="43.18437" lon="5.82033">
        <ele>222.365</ele>
        <time>2014-05-11T06:49:52Z</time>
      </trkpt>
      <trkpt lat="43.18447" lon="5.82024">
        <ele>223.175</ele>
        <time>2014-05-11T06:49:55Z</time>
      </trkpt>
      <trkpt lat="43.18472" lon="5.81999">
        <ele>222.218</ele>
        <time>2014-05-11T06:50:02Z</time>
      </trkpt>
      <trkpt lat="43.1849" lon="5.81982">
        <ele>222.984</ele>
        <time>2014-05-11T06:50:08Z</time>
      </trkpt>
      <trkpt lat="43.18508" lon="5.81965">
        <ele>222.266</ele>
        <time>2014-05-11T06:50:13Z</time>
      </trkpt>
      <trkpt lat="43.18527" lon="5.81947">
        <ele>222.41</ele>
        <time>2014-05-11T06:50:19Z</time>
      </trkpt>
      <trkpt lat="43.18556" lon="5.81921">
        <ele>221.322</ele>
        <time>2014-05-11T06:50:26Z</time>
      </trkpt>
      <trkpt lat="43.18567" lon="5.81909">
        <ele>221.933</ele>
        <time>2014-05-11T06:50:29Z</time>
      </trkpt>
      <trkpt lat="43.18588" lon="5.81888">
        <ele>218.622</ele>
        <time>2014-05-11T06:50:34Z</time>
      </trkpt>
      <trkpt lat="43.18607" lon="5.81869">
        <ele>218.549</ele>
        <time>2014-05-11T06:50:39Z</time>
      </trkpt>
      <trkpt lat="43.18632" lon="5.81845">
        <ele>217.83</ele>
        <time>2014-05-11T06:50:45Z</time>
      </trkpt>
      <trkpt lat="43.18657" lon="5.81821">
        <ele>216.84</ele>
        <time>2014-05-11T06:50:51Z</time>
      </trkpt>
      <trkpt lat="43.18678" lon="5.81801">
        <ele>217.387</ele>
        <time>2014-05-11T06:50:56Z</time>
      </trkpt>
      <trkpt lat="43.1869" lon="5.81787">
        <ele>218.475</ele>
        <time>2014-05-11T06:50:59Z</time>
      </trkpt>
      <trkpt lat="43.18714" lon="5.81759">
        <ele>220.58</ele>
        <time>2014-05-11T06:51:05Z</time>
      </trkpt>
      <trkpt lat="43.18735" lon="5.81736">
        <ele>219.871</ele>
        <time>2014-05-11T06:51:10Z</time>
      </trkpt>
      <trkpt lat="43.18746" lon="5.81723">
        <ele>219.133</ele>
        <time>2014-05-11T06:51:13Z</time>
      </trkpt>
      <trkpt lat="43.18758" lon="5.8171">
        <ele>219.071</ele>
        <time>2014-05-11T06:51:16Z</time>
      </trkpt>
      <trkpt lat="43.18782" lon="5.81683">
        <ele>222.938</ele>
        <time>2014-05-11T06:51:22Z</time>
      </trkpt>
      <trkpt lat="43.18802" lon="5.81663">
        <ele>223.732</ele>
        <time>2014-05-11T06:51:27Z</time>
      </trkpt>
      <trkpt lat="43.18824" lon="5.81641">
        <ele>220.663</ele>
        <time>2014-05-11T06:51:33Z</time>
      </trkpt>
      <trkpt lat="43.18835" lon="5.81629">
        <ele>222.665</ele>
        <time>2014-05-11T06:51:36Z</time>
      </trkpt>
      <trkpt lat="43.18858" lon="5.81606">
        <ele>222.345</ele>
        <time>2014-05-11T06:51:41Z</time>
      </trkpt>
      <trkpt lat="43.18882" lon="5.81577">
        <ele>220.884</ele>
        <time>2014-05-11T06:51:47Z</time>
      </trkpt>
      <trkpt lat="43.18907" lon="5.81542">
        <ele>222.205</ele>
        <time>2014-05-11T06:51:53Z</time>
      </trkpt>
      <trkpt lat="43.18931" lon="5.81511">
        <ele>221.73</ele>
        <time>2014-05-11T06:51:58Z</time>
      </trkpt>
      <trkpt lat="43.18959" lon="5.81469">
        <ele>222.062</ele>
        <time>2014-05-11T06:52:04Z</time>
      </trkpt>
      <trkpt lat="43.18982" lon="5.81434">
        <ele>222.21</ele>
        <time>2014-05-11T06:52:09Z</time>
      </trkpt>
      <trkpt lat="43.18994" lon="5.81417">
        <ele>221.022</ele>
        <time>2014-05-11T06:52:12Z</time>
      </trkpt>
      <trkpt lat="43.19009" lon="5.81397">
        <ele>220.776</ele>
        <time>2014-05-11T06:52:15Z</time>
      </trkpt>
      <trkpt lat="43.19033" lon="5.81365">
        <ele>219.687</ele>
        <time>2014-05-11T06:52:20Z</time>
      </trkpt>
      <trkpt lat="43.1906" lon="5.81326">
        <ele>218.783</ele>
        <time>2014-05-11T06:52:26Z</time>
      </trkpt>
      <trkpt lat="43.19073" lon="5.81308">
        <ele>218.247</ele>
        <time>2014-05-11T06:52:29Z</time>
      </trkpt>
      <trkpt lat="43.19087" lon="5.81291">
        <ele>218.917</ele>
        <time>2014-05-11T06:52:32Z</time>
      </trkpt>
      <trkpt lat="43.19102" lon="5.81274">
        <ele>219.054</ele>
        <time>2014-05-11T06:52:35Z</time>
      </trkpt>
      <trkpt lat="43.19131" lon="5.81274">
        <ele>217.286</ele>
        <time>2014-05-11T06:52:40Z</time>
      </trkpt>
      <trkpt lat="43.19163" lon="5.81269">
        <ele>217.419</ele>
        <time>2014-05-11T06:52:46Z</time>
      </trkpt>
      <trkpt lat="43.19177" lon="5.81238">
        <ele>218.175</ele>
        <time>2014-05-11T06:52:51Z</time>
      </trkpt>
      <trkpt lat="43.19174" lon="5.81191">
        <ele>219.343</ele>
        <time>2014-05-11T06:52:57Z</time>
      </trkpt>
      <trkpt lat="43.19194" lon="5.81152">
        <ele>219.485</ele>
        <time>2014-05-11T06:53:02Z</time>
      </trkpt>
      <trkpt lat="43.19206" lon="5.81133">
        <ele>219.941</ele>
        <time>2014-05-11T06:53:05Z</time>
      </trkpt>
      <trkpt lat="43.19219" lon="5.81115">
        <ele>219.277</ele>
        <time>2014-05-11T06:53:08Z</time>
      </trkpt>
      <trkpt lat="43.19233" lon="5.81097">
        <ele>217.299</ele>
        <time>2014-05-11T06:53:11Z</time>
      </trkpt>
      <trkpt lat="43.19245" lon="5.81079">
        <ele>216.882</ele>
        <time>2014-05-11T06:53:14Z</time>
      </trkpt>
      <trkpt lat="43.19258" lon="5.81061">
        <ele>215.171</ele>
        <time>2014-05-11T06:53:17Z</time>
      </trkpt>
      <trkpt lat="43.19281" lon="5.81031">
        <ele>216.011</ele>
        <time>2014-05-11T06:53:22Z</time>
      </trkpt>
      <trkpt lat="43.19309" lon="5.80995">
        <ele>215.678</ele>
        <time>2014-05-11T06:53:28Z</time>
      </trkpt>
      <trkpt lat="43.19336" lon="5.8096">
        <ele>212.93</ele>
        <time>2014-05-11T06:53:34Z</time>
      </trkpt>
      <trkpt lat="43.19361" lon="5.80925">
        <ele>212.944</ele>
        <time>2014-05-11T06:53:40Z</time>
      </trkpt>
      <trkpt lat="43.19383" lon="5.80895">
        <ele>212.25</ele>
        <time>2014-05-11T06:53:45Z</time>
      </trkpt>
      <trkpt lat="43.19408" lon="5.80864">
        <ele>210.378</ele>
        <time>2014-05-11T06:53:50Z</time>
      </trkpt>
      <trkpt lat="43.19424" lon="5.80845">
        <ele>210.823</ele>
        <time>2014-05-11T06:53:53Z</time>
      </trkpt>
      <trkpt lat="43.19444" lon="5.80816">
        <ele>211.794</ele>
        <time>2014-05-11T06:53:58Z</time>
      </trkpt>
      <trkpt lat="43.19464" lon="5.80787">
        <ele>212.793</ele>
        <time>2014-05-11T06:54:03Z</time>
      </trkpt>
      <trkpt lat="43.19496" lon="5.80743">
        <ele>215.079</ele>
        <time>2014-05-11T06:54:09Z</time>
      </trkpt>
      <trkpt lat="43.19522" lon="5.80709">
        <ele>213.969</ele>
        <time>2014-05-11T06:54:14Z</time>
      </trkpt>
      <trkpt lat="43.19552" lon="5.80672">
        <ele>209.736</ele>
        <time>2014-05-11T06:54:20Z</time>
      </trkpt>
      <trkpt lat="43.19569" lon="5.80665">
        <ele>209.08</ele>
        <time>2014-05-11T06:54:23Z</time>
      </trkpt>
      <trkpt lat="43.19588" lon="5.8063">
        <ele>211.982</ele>
        <time>2014-05-11T06:54:29Z</time>
      </trkpt>
      <trkpt lat="43.19617" lon="5.80603">
        <ele>213.254</ele>
        <time>2014-05-11T06:54:35Z</time>
      </trkpt>
      <trkpt lat="43.19636" lon="5.80592">
        <ele>214.347</ele>
        <time>2014-05-11T06:54:38Z</time>
      </trkpt>
      <trkpt lat="43.19655" lon="5.80585">
        <ele>215.707</ele>
        <time>2014-05-11T06:54:41Z</time>
      </trkpt>
      <trkpt lat="43.19694" lon="5.80586">
        <ele>214.621</ele>
        <time>2014-05-11T06:54:47Z</time>
      </trkpt>
      <trkpt lat="43.19722" lon="5.80595">
        <ele>210.006</ele>
        <time>2014-05-11T06:54:51Z</time>
      </trkpt>
      <trkpt lat="43.19765" lon="5.80621">
        <ele>208.491</ele>
        <time>2014-05-11T06:54:57Z</time>
      </trkpt>
      <trkpt lat="43.19799" lon="5.80643">
        <ele>210.299</ele>
        <time>2014-05-11T06:55:02Z</time>
      </trkpt>
      <trkpt lat="43.19821" lon="5.80657">
        <ele>208.405</ele>
        <time>2014-05-11T06:55:05Z</time>
      </trkpt>
      <trkpt lat="43.19855" lon="5.8068">
        <ele>208.35</ele>
        <time>2014-05-11T06:55:10Z</time>
      </trkpt>
      <trkpt lat="43.19875" lon="5.80693">
        <ele>206.209</ele>
        <time>2014-05-11T06:55:13Z</time>
      </trkpt>
      <trkpt lat="43.19894" lon="5.80706">
        <ele>203.779</ele>
        <time>2014-05-11T06:55:16Z</time>
      </trkpt>
      <trkpt lat="43.19915" lon="5.8072">
        <ele>201.553</ele>
        <time>2014-05-11T06:55:19Z</time>
      </trkpt>
      <trkpt lat="43.19935" lon="5.80731">
        <ele>200.338</ele>
        <time>2014-05-11T06:55:22Z</time>
      </trkpt>
      <trkpt lat="43.19962" lon="5.80748">
        <ele>198.882</ele>
        <time>2014-05-11T06:55:26Z</time>
      </trkpt>
      <trkpt lat="43.20001" lon="5.80775">
        <ele>197.498</ele>
        <time>2014-05-11T06:55:32Z</time>
      </trkpt>
      <trkpt lat="43.20025" lon="5.80789">
        <ele>197.068</ele>
        <time>2014-05-11T06:55:36Z</time>
      </trkpt>
      <trkpt lat="43.20053" lon="5.80801">
        <ele>196.229</ele>
        <time>2014-05-11T06:55:42Z</time>
      </trkpt>
      <trkpt lat="43.20083" lon="5.80809">
        <ele>198.664</ele>
        <time>2014-05-11T06:55:48Z</time>
      </trkpt>
      <trkpt lat="43.20103" lon="5.80813">
        <ele>198.543</ele>
        <time>2014-05-11T06:55:53Z</time>
      </trkpt>
      <trkpt lat="43.20125" lon="5.80813">
        <ele>198.567</ele>
        <time>2014-05-11T06:55:59Z</time>
      </trkpt>
      <trkpt lat="43.2014" lon="5.80813">
        <ele>198.786</ele>
        <time>2014-05-11T06:56:03Z</time>
      </trkpt>
      <trkpt lat="43.20162" lon="5.80812">
        <ele>198.929</ele>
        <time>2014-05-11T06:56:09Z</time>
      </trkpt>
      <trkpt lat="43.2018" lon="5.8081">
        <ele>198.794</ele>
        <time>2014-05-11T06:56:15Z</time>
      </trkpt>
      <trkpt lat="43.20207" lon="5.80806">
        <ele>199.679</ele>
        <time>2014-05-11T06:56:22Z</time>
      </trkpt>
      <trkpt lat="43.20227" lon="5.80803">
        <ele>200.296</ele>
        <time>2014-05-11T06:56:28Z</time>
      </trkpt>
      <trkpt lat="43.20244" lon="5.80802">
        <ele>200.729</ele>
        <time>2014-05-11T06:56:33Z</time>
      </trkpt>
      <trkpt lat="43.20272" lon="5.80799">
        <ele>201.482</ele>
        <time>2014-05-11T06:56:41Z</time>
      </trkpt>
      <trkpt lat="43.20292" lon="5.80798">
        <ele>201.883</ele>
        <time>2014-05-11T06:56:47Z</time>
      </trkpt>
      <trkpt lat="43.20312" lon="5.80794">
        <ele>202.837</ele>
        <time>2014-05-11T06:56:53Z</time>
      </trkpt>
      <trkpt lat="43.20322" lon="5.80793">
        <ele>203.486</ele>
        <time>2014-05-11T06:56:56Z</time>
      </trkpt>
      <trkpt lat="43.20335" lon="5.80794">
        <ele>204.334</ele>
        <time>2014-05-11T06:57:00Z</time>
      </trkpt>
      <trkpt lat="43.2035" lon="5.80798">
        <ele>204.899</ele>
        <time>2014-05-11T06:57:05Z</time>
      </trkpt>
      <trkpt lat="43.20371" lon="5.80804">
        <ele>205.694</ele>
        <time>2014-05-11T06:57:12Z</time>
      </trkpt>
      <trkpt lat="43.20389" lon="5.80812">
        <ele>206.895</ele>
        <time>2014-05-11T06:57:18Z</time>
      </trkpt>
      <trkpt lat="43.20397" lon="5.80816">
        <ele>207.304</ele>
        <time>2014-05-11T06:57:21Z</time>
      </trkpt>
      <trkpt lat="43.20406" lon="5.80822">
        <ele>207.645</ele>
        <time>2014-05-11T06:57:24Z</time>
      </trkpt>
      <trkpt lat="43.20415" lon="5.8083">
        <ele>207.794</ele>
        <time>2014-05-11T06:57:27Z</time>
      </trkpt>
      <trkpt lat="43.20429" lon="5.80845">
        <ele>208.091</ele>
        <time>2014-05-11T06:57:33Z</time>
      </trkpt>
      <trkpt lat="43.20437" lon="5.80853">
        <ele>208.423</ele>
        <time>2014-05-11T06:57:36Z</time>
      </trkpt>
      <trkpt lat="43.20446" lon="5.80861">
        <ele>208.83</ele>
        <time>2014-05-11T06:57:39Z</time>
      </trkpt>
      <trkpt lat="43.20464" lon="5.80875">
        <ele>209.576</ele>
        <time>2014-05-11T06:57:46Z</time>
      </trkpt>
      <trkpt lat="43.20484" lon="5.80895">
        <ele>210.413</ele>
        <time>2014-05-11T06:57:53Z</time>
      </trkpt>
      <trkpt lat="43.20504" lon="5.80913">
        <ele>210.71</ele>
        <time>2014-05-11T06:57:59Z</time>
      </trkpt>
      <trkpt lat="43.20513" lon="5.80921">
        <ele>210.971</ele>
        <time>2014-05-11T06:58:02Z</time>
      </trkpt>
      <trkpt lat="43.20525" lon="5.8093">
        <ele>212.876</ele>
        <time>2014-05-11T06:58:06Z</time>
      </trkpt>
      <trkpt lat="43.20546" lon="5.80946">
        <ele>214.817</ele>
        <time>2014-05-11T06:58:12Z</time>
      </trkpt>
      <trkpt lat="43.20564" lon="5.80963">
        <ele>217.966</ele>
        <time>2014-05-11T06:58:18Z</time>
      </trkpt>
      <trkpt lat="43.20583" lon="5.8098">
        <ele>220.344</ele>
        <time>2014-05-11T06:58:24Z</time>
      </trkpt>
      <trkpt lat="43.20585" lon="5.80981">
        <ele>220.407</ele>
        <time>2014-05-11T06:58:25Z</time>
      </trkpt>
      <trkpt lat="43.20585" lon="5.80981">
        <ele>179.3</ele>
        <time>2014-05-11T06:58:31Z</time>
      </trkpt>
      <trkpt lat="43.20585" lon="5.80981">
        <ele>179.3</ele>
        <time>2014-05-11T06:59:21Z</time>
      </trkpt>
      <trkpt lat="43.206" lon="5.80991">
        <ele>222.01</ele>
        <time>2014-05-11T06:59:21Z</time>
      </trkpt>
      <trkpt lat="43.20622" lon="5.81009">
        <ele>221.243</ele>
        <time>2014-05-11T06:59:27Z</time>
      </trkpt>
      <trkpt lat="43.20645" lon="5.81032">
        <ele>222.707</ele>
        <time>2014-05-11T06:59:32Z</time>
      </trkpt>
      <trkpt lat="43.20677" lon="5.8106">
        <ele>223.18</ele>
        <time>2014-05-11T06:59:38Z</time>
      </trkpt>
      <trkpt lat="43.20707" lon="5.81087">
        <ele>225.19</ele>
        <time>2014-05-11T06:59:44Z</time>
      </trkpt>
      <trkpt lat="43.20722" lon="5.811">
        <ele>225.844</ele>
        <time>2014-05-11T06:59:47Z</time>
      </trkpt>
      <trkpt lat="43.20748" lon="5.81126">
        <ele>223.668</ele>
        <time>2014-05-11T06:59:52Z</time>
      </trkpt>
      <trkpt lat="43.20774" lon="5.81153">
        <ele>221.154</ele>
        <time>2014-05-11T06:59:57Z</time>
      </trkpt>
      <trkpt lat="43.20791" lon="5.81169">
        <ele>219.454</ele>
        <time>2014-05-11T07:00:00Z</time>
      </trkpt>
      <trkpt lat="43.20827" lon="5.81195">
        <ele>218.277</ele>
        <time>2014-05-11T07:00:06Z</time>
      </trkpt>
      <trkpt lat="43.20859" lon="5.81209">
        <ele>216.152</ele>
        <time>2014-05-11T07:00:11Z</time>
      </trkpt>
      <trkpt lat="43.20897" lon="5.81213">
        <ele>215.454</ele>
        <time>2014-05-11T07:00:17Z</time>
      </trkpt>
      <trkpt lat="43.20917" lon="5.81211">
        <ele>214.273</ele>
        <time>2014-05-11T07:00:20Z</time>
      </trkpt>
      <trkpt lat="43.20933" lon="5.8121">
        <ele>213.711</ele>
        <time>2014-05-11T07:00:23Z</time>
      </trkpt>
      <trkpt lat="43.20957" lon="5.81203">
        <ele>213.671</ele>
        <time>2014-05-11T07:00:28Z</time>
      </trkpt>
      <trkpt lat="43.2097" lon="5.81198">
        <ele>214.984</ele>
        <time>2014-05-11T07:00:31Z</time>
      </trkpt>
      <trkpt lat="43.20982" lon="5.81193">
        <ele>215.036</ele>
        <time>2014-05-11T07:00:34Z</time>
      </trkpt>
      <trkpt lat="43.20995" lon="5.81188">
        <ele>215.831</ele>
        <time>2014-05-11T07:00:37Z</time>
      </trkpt>
      <trkpt lat="43.21012" lon="5.81178">
        <ele>216.198</ele>
        <time>2014-05-11T07:00:42Z</time>
      </trkpt>
      <trkpt lat="43.21021" lon="5.81172">
        <ele>215.477</ele>
        <time>2014-05-11T07:00:45Z</time>
      </trkpt>
      <trkpt lat="43.21032" lon="5.81168">
        <ele>216.273</ele>
        <time>2014-05-11T07:00:48Z</time>
      </trkpt>
      <trkpt lat="43.21042" lon="5.81164">
        <ele>216.116</ele>
        <time>2014-05-11T07:00:51Z</time>
      </trkpt>
      <trkpt lat="43.21055" lon="5.8116">
        <ele>216.545</ele>
        <time>2014-05-11T07:00:54Z</time>
      </trkpt>
      <trkpt lat="43.21078" lon="5.81151">
        <ele>216.92</ele>
        <time>2014-05-11T07:01:00Z</time>
      </trkpt>
      <trkpt lat="43.2109" lon="5.81148">
        <ele>217.104</ele>
        <time>2014-05-11T07:01:03Z</time>
      </trkpt>
      <trkpt lat="43.211" lon="5.81144">
        <ele>217.226</ele>
        <time>2014-05-11T07:01:06Z</time>
      </trkpt>
      <trkpt lat="43.2111" lon="5.81141">
        <ele>217.375</ele>
        <time>2014-05-11T07:01:09Z</time>
      </trkpt>
      <trkpt lat="43.21132" lon="5.81135">
        <ele>216.964</ele>
        <time>2014-05-11T07:01:15Z</time>
      </trkpt>
      <trkpt lat="43.21143" lon="5.81132">
        <ele>216.714</ele>
        <time>2014-05-11T07:01:18Z</time>
      </trkpt>
      <trkpt lat="43.21171" lon="5.8113">
        <ele>215.252</ele>
        <time>2014-05-11T07:01:26Z</time>
      </trkpt>
      <trkpt lat="43.21189" lon="5.81133">
        <ele>215.545</ele>
        <time>2014-05-11T07:01:31Z</time>
      </trkpt>
      <trkpt lat="43.21206" lon="5.8114">
        <ele>220.65</ele>
        <time>2014-05-11T07:01:36Z</time>
      </trkpt>
      <trkpt lat="43.21233" lon="5.81156">
        <ele>225.169</ele>
        <time>2014-05-11T07:01:45Z</time>
      </trkpt>
      <trkpt lat="43.21253" lon="5.81182">
        <ele>229.511</ele>
        <time>2014-05-11T07:01:52Z</time>
      </trkpt>
      <trkpt lat="43.21267" lon="5.81212">
        <ele>230.338</ele>
        <time>2014-05-11T07:01:58Z</time>
      </trkpt>
      <trkpt lat="43.21277" lon="5.81255">
        <ele>235.405</ele>
        <time>2014-05-11T07:02:04Z</time>
      </trkpt>
      <trkpt lat="43.21285" lon="5.81309">
        <ele>234.703</ele>
        <time>2014-05-11T07:02:10Z</time>
      </trkpt>
      <trkpt lat="43.21292" lon="5.81365">
        <ele>233.368</ele>
        <time>2014-05-11T07:02:16Z</time>
      </trkpt>
      <trkpt lat="43.21299" lon="5.81422">
        <ele>236.011</ele>
        <time>2014-05-11T07:02:22Z</time>
      </trkpt>
      <trkpt lat="43.21302" lon="5.81447">
        <ele>237.017</ele>
        <time>2014-05-11T07:02:25Z</time>
      </trkpt>
      <trkpt lat="43.21334" lon="5.81477">
        <ele>235.553</ele>
        <time>2014-05-11T07:02:32Z</time>
      </trkpt>
      <trkpt lat="43.21361" lon="5.81464">
        <ele>230.754</ele>
        <time>2014-05-11T07:02:38Z</time>
      </trkpt>
      <trkpt lat="43.21361" lon="5.81464">
        <ele>230.754</ele>
        <time>2014-05-11T07:02:43Z</time>
      </trkpt>
      <trkpt lat="43.21361" lon="5.81464">
        <ele>183.4</ele>
        <time>2014-05-11T07:02:43Z</time>
      </trkpt>
      <trkpt lat="43.21361" lon="5.81464">
        <ele>183.4</ele>
        <time>2014-05-11T07:03:02Z</time>
      </trkpt>
      <trkpt lat="43.21383" lon="5.81482">
        <ele>226.807</ele>
        <time>2014-05-11T07:03:02Z</time>
      </trkpt>
      <trkpt lat="43.21404" lon="5.81481">
        <ele>223.922</ele>
        <time>2014-05-11T07:03:08Z</time>
      </trkpt>
      <trkpt lat="43.21424" lon="5.81477">
        <ele>224.151</ele>
        <time>2014-05-11T07:03:15Z</time>
      </trkpt>
      <trkpt lat="43.21441" lon="5.81477">
        <ele>224.469</ele>
        <time>2014-05-11T07:03:20Z</time>
      </trkpt>
      <trkpt lat="43.21463" lon="5.81483">
        <ele>225.531</ele>
        <time>2014-05-11T07:03:26Z</time>
      </trkpt>
      <trkpt lat="43.21472" lon="5.81481">
        <ele>225.981</ele>
        <time>2014-05-11T07:03:31Z</time>
      </trkpt>
      <trkpt lat="43.21493" lon="5.81468">
        <ele>227.815</ele>
        <time>2014-05-11T07:03:43Z</time>
      </trkpt>
      <trkpt lat="43.21498" lon="5.81466">
        <ele>228.993</ele>
        <time>2014-05-11T07:03:46Z</time>
      </trkpt>
      <trkpt lat="43.21498" lon="5.81466">
        <ele>196.4</ele>
        <time>2014-05-11T07:03:53Z</time>
      </trkpt>
      <trkpt lat="43.21498" lon="5.81466">
        <ele>196.4</ele>
        <time>2014-05-11T07:04:09Z</time>
      </trkpt>
      <trkpt lat="43.21475" lon="5.81481">
        <ele>240.592</ele>
        <time>2014-05-11T07:04:09Z</time>
      </trkpt>
      <trkpt lat="43.21444" lon="5.81483">
        <ele>245.45</ele>
        <time>2014-05-11T07:04:15Z</time>
      </trkpt>
      <trkpt lat="43.21416" lon="5.81475">
        <ele>247.548</ele>
        <time>2014-05-11T07:04:21Z</time>
      </trkpt>
      <trkpt lat="43.21397" lon="5.81475">
        <ele>247.365</ele>
        <time>2014-05-11T07:04:25Z</time>
      </trkpt>
      <trkpt lat="43.21372" lon="5.81471">
        <ele>245.089</ele>
        <time>2014-05-11T07:04:29Z</time>
      </trkpt>
      <trkpt lat="43.21359" lon="5.81441">
        <ele>239.697</ele>
        <time>2014-05-11T07:04:35Z</time>
      </trkpt>
      <trkpt lat="43.21364" lon="5.81422">
        <ele>238.801</ele>
        <time>2014-05-11T07:04:38Z</time>
      </trkpt>
      <trkpt lat="43.21365" lon="5.81387">
        <ele>235.968</ele>
        <time>2014-05-11T07:04:44Z</time>
      </trkpt>
      <trkpt lat="43.21366" lon="5.81356">
        <ele>234.694</ele>
        <time>2014-05-11T07:04:49Z</time>
      </trkpt>
      <trkpt lat="43.2137" lon="5.81326">
        <ele>235.912</ele>
        <time>2014-05-11T07:04:55Z</time>
      </trkpt>
      <trkpt lat="43.21375" lon="5.81303">
        <ele>236.417</ele>
        <time>2014-05-11T07:05:00Z</time>
      </trkpt>
      <trkpt lat="43.21377" lon="5.81288">
        <ele>236.915</ele>
        <time>2014-05-11T07:05:03Z</time>
      </trkpt>
      <trkpt lat="43.21382" lon="5.81256">
        <ele>237.106</ele>
        <time>2014-05-11T07:05:09Z</time>
      </trkpt>
      <trkpt lat="43.21387" lon="5.81229">
        <ele>237.455</ele>
        <time>2014-05-11T07:05:15Z</time>
      </trkpt>
      <trkpt lat="43.2139" lon="5.81215">
        <ele>237.881</ele>
        <time>2014-05-11T07:05:18Z</time>
      </trkpt>
      <trkpt lat="43.21397" lon="5.81183">
        <ele>238.198</ele>
        <time>2014-05-11T07:05:25Z</time>
      </trkpt>
      <trkpt lat="43.21406" lon="5.81163">
        <ele>238.29</ele>
        <time>2014-05-11T07:05:30Z</time>
      </trkpt>
      <trkpt lat="43.21412" lon="5.81151">
        <ele>238.482</ele>
        <time>2014-05-11T07:05:33Z</time>
      </trkpt>
      <trkpt lat="43.21419" lon="5.81139">
        <ele>238.773</ele>
        <time>2014-05-11T07:05:36Z</time>
      </trkpt>
      <trkpt lat="43.21427" lon="5.81127">
        <ele>239.062</ele>
        <time>2014-05-11T07:05:39Z</time>
      </trkpt>
      <trkpt lat="43.21435" lon="5.81115">
        <ele>239.429</ele>
        <time>2014-05-11T07:05:43Z</time>
      </trkpt>
      <trkpt lat="43.21442" lon="5.81105">
        <ele>239.628</ele>
        <time>2014-05-11T07:05:46Z</time>
      </trkpt>
      <trkpt lat="43.21456" lon="5.81085">
        <ele>239.498</ele>
        <time>2014-05-11T07:05:52Z</time>
      </trkpt>
      <trkpt lat="43.21481" lon="5.81062">
        <ele>238.889</ele>
        <time>2014-05-11T07:06:01Z</time>
      </trkpt>
      <trkpt lat="43.21503" lon="5.81063">
        <ele>238.41</ele>
        <time>2014-05-11T07:06:08Z</time>
      </trkpt>
      <trkpt lat="43.21521" lon="5.81079">
        <ele>238.263</ele>
        <time>2014-05-11T07:06:18Z</time>
      </trkpt>
      <trkpt lat="43.2154" lon="5.81105">
        <ele>239.417</ele>
        <time>2014-05-11T07:06:27Z</time>
      </trkpt>
      <trkpt lat="43.21562" lon="5.81117">
        <ele>240.58</ele>
        <time>2014-05-11T07:06:33Z</time>
      </trkpt>
      <trkpt lat="43.2158" lon="5.81117">
        <ele>241.216</ele>
        <time>2014-05-11T07:06:38Z</time>
      </trkpt>
      <trkpt lat="43.21606" lon="5.81109">
        <ele>241.331</ele>
        <time>2014-05-11T07:06:46Z</time>
      </trkpt>
      <trkpt lat="43.21622" lon="5.8109">
        <ele>241.721</ele>
        <time>2014-05-11T07:06:52Z</time>
      </trkpt>
      <trkpt lat="43.21628" lon="5.81068">
        <ele>242.348</ele>
        <time>2014-05-11T07:06:58Z</time>
      </trkpt>
      <trkpt lat="43.21627" lon="5.81036">
        <ele>243.376</ele>
        <time>2014-05-11T07:07:04Z</time>
      </trkpt>
      <trkpt lat="43.21623" lon="5.81006">
        <ele>244.795</ele>
        <time>2014-05-11T07:07:10Z</time>
      </trkpt>
      <trkpt lat="43.21624" lon="5.80977">
        <ele>245.947</ele>
        <time>2014-05-11T07:07:16Z</time>
      </trkpt>
      <trkpt lat="43.21638" lon="5.80948">
        <ele>247.103</ele>
        <time>2014-05-11T07:07:23Z</time>
      </trkpt>
      <trkpt lat="43.21658" lon="5.80928">
        <ele>248.145</ele>
        <time>2014-05-11T07:07:30Z</time>
      </trkpt>
      <trkpt lat="43.21679" lon="5.80916">
        <ele>249.606</ele>
        <time>2014-05-11T07:07:37Z</time>
      </trkpt>
      <trkpt lat="43.217" lon="5.80906">
        <ele>250.475</ele>
        <time>2014-05-11T07:07:44Z</time>
      </trkpt>
      <trkpt lat="43.21718" lon="5.80894">
        <ele>250.869</ele>
        <time>2014-05-11T07:07:51Z</time>
      </trkpt>
      <trkpt lat="43.21733" lon="5.80883">
        <ele>251.296</ele>
        <time>2014-05-11T07:07:56Z</time>
      </trkpt>
      <trkpt lat="43.21749" lon="5.8087">
        <ele>251.52</ele>
        <time>2014-05-11T07:08:02Z</time>
      </trkpt>
      <trkpt lat="43.21769" lon="5.80856">
        <ele>251.458</ele>
        <time>2014-05-11T07:08:09Z</time>
      </trkpt>
      <trkpt lat="43.21791" lon="5.8084">
        <ele>251.649</ele>
        <time>2014-05-11T07:08:16Z</time>
      </trkpt>
      <trkpt lat="43.21807" lon="5.80832">
        <ele>252.359</ele>
        <time>2014-05-11T07:08:22Z</time>
      </trkpt>
      <trkpt lat="43.21829" lon="5.80831">
        <ele>253.368</ele>
        <time>2014-05-11T07:08:29Z</time>
      </trkpt>
      <trkpt lat="43.21852" lon="5.80853">
        <ele>256.092</ele>
        <time>2014-05-11T07:08:38Z</time>
      </trkpt>
      <trkpt lat="43.21857" lon="5.8089">
        <ele>258.194</ele>
        <time>2014-05-11T07:08:47Z</time>
      </trkpt>
      <trkpt lat="43.21853" lon="5.8092">
        <ele>259.873</ele>
        <time>2014-05-11T07:08:53Z</time>
      </trkpt>
      <trkpt lat="43.2185" lon="5.80933">
        <ele>260.624</ele>
        <time>2014-05-11T07:08:56Z</time>
      </trkpt>
      <trkpt lat="43.21842" lon="5.80959">
        <ele>262.164</ele>
        <time>2014-05-11T07:09:02Z</time>
      </trkpt>
      <trkpt lat="43.21836" lon="5.80982">
        <ele>263.501</ele>
        <time>2014-05-11T07:09:08Z</time>
      </trkpt>
      <trkpt lat="43.21831" lon="5.81002">
        <ele>264.503</ele>
        <time>2014-05-11T07:09:13Z</time>
      </trkpt>
      <trkpt lat="43.21827" lon="5.81015">
        <ele>265.116</ele>
        <time>2014-05-11T07:09:16Z</time>
      </trkpt>
      <trkpt lat="43.21824" lon="5.81029">
        <ele>265.78</ele>
        <time>2014-05-11T07:09:19Z</time>
      </trkpt>
      <trkpt lat="43.21821" lon="5.81044">
        <ele>266.201</ele>
        <time>2014-05-11T07:09:22Z</time>
      </trkpt>
      <trkpt lat="43.2182" lon="5.81062">
        <ele>266.806</ele>
        <time>2014-05-11T07:09:26Z</time>
      </trkpt>
      <trkpt lat="43.21821" lon="5.81092">
        <ele>267.802</ele>
        <time>2014-05-11T07:09:32Z</time>
      </trkpt>
      <trkpt lat="43.21824" lon="5.81127">
        <ele>269.504</ele>
        <time>2014-05-11T07:09:39Z</time>
      </trkpt>
      <trkpt lat="43.21828" lon="5.81154">
        <ele>271.161</ele>
        <time>2014-05-11T07:09:45Z</time>
      </trkpt>
      <trkpt lat="43.21829" lon="5.81173">
        <ele>272.234</ele>
        <time>2014-05-11T07:09:49Z</time>
      </trkpt>
      <trkpt lat="43.21829" lon="5.81206">
        <ele>274.028</ele>
        <time>2014-05-11T07:09:56Z</time>
      </trkpt>
      <trkpt lat="43.21832" lon="5.81238">
        <ele>275.325</ele>
        <time>2014-05-11T07:10:03Z</time>
      </trkpt>
      <trkpt lat="43.21833" lon="5.81255">
        <ele>275.894</ele>
        <time>2014-05-11T07:10:07Z</time>
      </trkpt>
      <trkpt lat="43.21834" lon="5.81275">
        <ele>276.702</ele>
        <time>2014-05-11T07:10:12Z</time>
      </trkpt>
      <trkpt lat="43.21837" lon="5.81304">
        <ele>278.025</ele>
        <time>2014-05-11T07:10:19Z</time>
      </trkpt>
      <trkpt lat="43.21845" lon="5.81332">
        <ele>279.278</ele>
        <time>2014-05-11T07:10:26Z</time>
      </trkpt>
      <trkpt lat="43.21856" lon="5.81351">
        <ele>280.029</ele>
        <time>2014-05-11T07:10:31Z</time>
      </trkpt>
      <trkpt lat="43.21874" lon="5.81367">
        <ele>280.828</ele>
        <time>2014-05-11T07:10:38Z</time>
      </trkpt>
      <trkpt lat="43.21895" lon="5.81378">
        <ele>280.684</ele>
        <time>2014-05-11T07:10:45Z</time>
      </trkpt>
      <trkpt lat="43.21917" lon="5.81378">
        <ele>280.312</ele>
        <time>2014-05-11T07:10:52Z</time>
      </trkpt>
      <trkpt lat="43.21938" lon="5.81372">
        <ele>280.262</ele>
        <time>2014-05-11T07:10:59Z</time>
      </trkpt>
      <trkpt lat="43.21963" lon="5.81361">
        <ele>280.29</ele>
        <time>2014-05-11T07:11:07Z</time>
      </trkpt>
      <trkpt lat="43.21987" lon="5.81348">
        <ele>280.685</ele>
        <time>2014-05-11T07:11:15Z</time>
      </trkpt>
      <trkpt lat="43.22002" lon="5.81341">
        <ele>281.193</ele>
        <time>2014-05-11T07:11:20Z</time>
      </trkpt>
      <trkpt lat="43.22022" lon="5.81329">
        <ele>282.274</ele>
        <time>2014-05-11T07:11:27Z</time>
      </trkpt>
      <trkpt lat="43.22045" lon="5.81314">
        <ele>283.54</ele>
        <time>2014-05-11T07:11:35Z</time>
      </trkpt>
      <trkpt lat="43.22064" lon="5.81301">
        <ele>284.555</ele>
        <time>2014-05-11T07:11:42Z</time>
      </trkpt>
      <trkpt lat="43.22086" lon="5.81285">
        <ele>285.646</ele>
        <time>2014-05-11T07:11:50Z</time>
      </trkpt>
      <trkpt lat="43.22098" lon="5.81275">
        <ele>286.638</ele>
        <time>2014-05-11T07:11:55Z</time>
      </trkpt>
      <trkpt lat="43.22116" lon="5.81261">
        <ele>288.108</ele>
        <time>2014-05-11T07:12:01Z</time>
      </trkpt>
      <trkpt lat="43.22133" lon="5.81249">
        <ele>289.546</ele>
        <time>2014-05-11T07:12:07Z</time>
      </trkpt>
      <trkpt lat="43.22152" lon="5.81235">
        <ele>290.25</ele>
        <time>2014-05-11T07:12:14Z</time>
      </trkpt>
      <trkpt lat="43.2216" lon="5.81229">
        <ele>290.6</ele>
        <time>2014-05-11T07:12:17Z</time>
      </trkpt>
      <trkpt lat="43.22171" lon="5.81222">
        <ele>291.291</ele>
        <time>2014-05-11T07:12:21Z</time>
      </trkpt>
      <trkpt lat="43.22189" lon="5.81215">
        <ele>291.999</ele>
        <time>2014-05-11T07:12:27Z</time>
      </trkpt>
      <trkpt lat="43.22205" lon="5.81213">
        <ele>292.631</ele>
        <time>2014-05-11T07:12:33Z</time>
      </trkpt>
      <trkpt lat="43.22231" lon="5.81217">
        <ele>293.974</ele>
        <time>2014-05-11T07:12:42Z</time>
      </trkpt>
      <trkpt lat="43.22255" lon="5.81224">
        <ele>295.361</ele>
        <time>2014-05-11T07:12:49Z</time>
      </trkpt>
      <trkpt lat="43.22274" lon="5.81229">
        <ele>296.452</ele>
        <time>2014-05-11T07:12:55Z</time>
      </trkpt>
      <trkpt lat="43.22294" lon="5.81237">
        <ele>297.439</ele>
        <time>2014-05-11T07:13:02Z</time>
      </trkpt>
      <trkpt lat="43.22315" lon="5.81245">
        <ele>297.969</ele>
        <time>2014-05-11T07:13:09Z</time>
      </trkpt>
      <trkpt lat="43.22324" lon="5.81247">
        <ele>298.213</ele>
        <time>2014-05-11T07:13:12Z</time>
      </trkpt>
      <trkpt lat="43.22346" lon="5.81246">
        <ele>299.171</ele>
        <time>2014-05-11T07:13:20Z</time>
      </trkpt>
      <trkpt lat="43.22363" lon="5.8124">
        <ele>299.971</ele>
        <time>2014-05-11T07:13:26Z</time>
      </trkpt>
      <trkpt lat="43.22372" lon="5.81236">
        <ele>300.315</ele>
        <time>2014-05-11T07:13:29Z</time>
      </trkpt>
      <trkpt lat="43.2238" lon="5.8123">
        <ele>300.713</ele>
        <time>2014-05-11T07:13:32Z</time>
      </trkpt>
      <trkpt lat="43.22401" lon="5.81213">
        <ele>302.105</ele>
        <time>2014-05-11T07:13:41Z</time>
      </trkpt>
      <trkpt lat="43.22401" lon="5.81213">
        <ele>302.105</ele>
        <time>2014-05-11T07:13:46Z</time>
      </trkpt>
      <trkpt lat="43.22401" lon="5.81213">
        <ele>269</ele>
        <time>2014-05-11T07:13:46Z</time>
      </trkpt>
      <trkpt lat="43.22401" lon="5.81213">
        <ele>269</ele>
        <time>2014-05-11T07:14:18Z</time>
      </trkpt>
      <trkpt lat="43.22426" lon="5.81198">
        <ele>302.361</ele>
        <time>2014-05-11T07:14:18Z</time>
      </trkpt>
      <trkpt lat="43.22435" lon="5.81186">
        <ele>302.752</ele>
        <time>2014-05-11T07:14:22Z</time>
      </trkpt>
      <trkpt lat="43.22441" lon="5.81174">
        <ele>303.1</ele>
        <time>2014-05-11T07:14:25Z</time>
      </trkpt>
      <trkpt lat="43.22454" lon="5.81142">
        <ele>304.068</ele>
        <time>2014-05-11T07:14:32Z</time>
      </trkpt>
      <trkpt lat="43.22459" lon="5.81122">
        <ele>304.965</ele>
        <time>2014-05-11T07:14:37Z</time>
      </trkpt>
      <trkpt lat="43.22471" lon="5.81085">
        <ele>306.32</ele>
        <time>2014-05-11T07:14:46Z</time>
      </trkpt>
      <trkpt lat="43.22489" lon="5.81067">
        <ele>307.877</ele>
        <time>2014-05-11T07:14:53Z</time>
      </trkpt>
      <trkpt lat="43.22512" lon="5.81054">
        <ele>309.299</ele>
        <time>2014-05-11T07:15:01Z</time>
      </trkpt>
      <trkpt lat="43.2253" lon="5.81051">
        <ele>310.291</ele>
        <time>2014-05-11T07:15:07Z</time>
      </trkpt>
      <trkpt lat="43.22537" lon="5.8105">
        <ele>310.768</ele>
        <time>2014-05-11T07:15:10Z</time>
      </trkpt>
      <trkpt lat="43.22549" lon="5.81052">
        <ele>311.403</ele>
        <time>2014-05-11T07:15:14Z</time>
      </trkpt>
      <trkpt lat="43.2257" lon="5.81057">
        <ele>312.146</ele>
        <time>2014-05-11T07:15:21Z</time>
      </trkpt>
      <trkpt lat="43.22587" lon="5.8106">
        <ele>312.656</ele>
        <time>2014-05-11T07:15:27Z</time>
      </trkpt>
      <trkpt lat="43.22614" lon="5.81058">
        <ele>313.837</ele>
        <time>2014-05-11T07:15:36Z</time>
      </trkpt>
      <trkpt lat="43.22637" lon="5.81045">
        <ele>314.913</ele>
        <time>2014-05-11T07:15:44Z</time>
      </trkpt>
      <trkpt lat="43.22657" lon="5.81031">
        <ele>315.846</ele>
        <time>2014-05-11T07:15:51Z</time>
      </trkpt>
      <trkpt lat="43.22666" lon="5.81022">
        <ele>316.354</ele>
        <time>2014-05-11T07:15:55Z</time>
      </trkpt>
      <trkpt lat="43.22682" lon="5.8101">
        <ele>317.241</ele>
        <time>2014-05-11T07:16:01Z</time>
      </trkpt>
      <trkpt lat="43.22706" lon="5.8099">
        <ele>318.549</ele>
        <time>2014-05-11T07:16:10Z</time>
      </trkpt>
      <trkpt lat="43.22721" lon="5.80978">
        <ele>319.595</ele>
        <time>2014-05-11T07:16:16Z</time>
      </trkpt>
      <trkpt lat="43.22729" lon="5.8097">
        <ele>320.145</ele>
        <time>2014-05-11T07:16:19Z</time>
      </trkpt>
      <trkpt lat="43.22736" lon="5.80963">
        <ele>320.666</ele>
        <time>2014-05-11T07:16:22Z</time>
      </trkpt>
      <trkpt lat="43.22743" lon="5.80957">
        <ele>321.271</ele>
        <time>2014-05-11T07:16:25Z</time>
      </trkpt>
      <trkpt lat="43.22764" lon="5.80943">
        <ele>322.481</ele>
        <time>2014-05-11T07:16:33Z</time>
      </trkpt>
      <trkpt lat="43.2279" lon="5.80922">
        <ele>324.014</ele>
        <time>2014-05-11T07:16:42Z</time>
      </trkpt>
      <trkpt lat="43.22812" lon="5.80902">
        <ele>325.661</ele>
        <time>2014-05-11T07:16:50Z</time>
      </trkpt>
      <trkpt lat="43.22828" lon="5.80891">
        <ele>326.781</ele>
        <time>2014-05-11T07:16:56Z</time>
      </trkpt>
      <trkpt lat="43.22848" lon="5.80875">
        <ele>328.382</ele>
        <time>2014-05-11T07:17:03Z</time>
      </trkpt>
      <trkpt lat="43.22863" lon="5.80862">
        <ele>329.961</ele>
        <time>2014-05-11T07:17:09Z</time>
      </trkpt>
      <trkpt lat="43.22884" lon="5.80844">
        <ele>331.775</ele>
        <time>2014-05-11T07:17:17Z</time>
      </trkpt>
      <trkpt lat="43.22905" lon="5.80829">
        <ele>333.707</ele>
        <time>2014-05-11T07:17:25Z</time>
      </trkpt>
      <trkpt lat="43.22913" lon="5.80823">
        <ele>334.43</ele>
        <time>2014-05-11T07:17:28Z</time>
      </trkpt>
      <trkpt lat="43.22924" lon="5.80814">
        <ele>335.149</ele>
        <time>2014-05-11T07:17:32Z</time>
      </trkpt>
      <trkpt lat="43.22938" lon="5.80791">
        <ele>336.468</ele>
        <time>2014-05-11T07:17:39Z</time>
      </trkpt>
      <trkpt lat="43.22944" lon="5.8078">
        <ele>336.779</ele>
        <time>2014-05-11T07:17:42Z</time>
      </trkpt>
      <trkpt lat="43.22957" lon="5.80757">
        <ele>337.729</ele>
        <time>2014-05-11T07:17:49Z</time>
      </trkpt>
      <trkpt lat="43.22963" lon="5.80747">
        <ele>337.935</ele>
        <time>2014-05-11T07:17:52Z</time>
      </trkpt>
      <trkpt lat="43.22969" lon="5.80736">
        <ele>338.068</ele>
        <time>2014-05-11T07:17:55Z</time>
      </trkpt>
      <trkpt lat="43.22975" lon="5.80724">
        <ele>338.52</ele>
        <time>2014-05-11T07:17:58Z</time>
      </trkpt>
      <trkpt lat="43.22988" lon="5.80701">
        <ele>339.639</ele>
        <time>2014-05-11T07:18:05Z</time>
      </trkpt>
      <trkpt lat="43.23002" lon="5.80678">
        <ele>340.146</ele>
        <time>2014-05-11T07:18:13Z</time>
      </trkpt>
      <trkpt lat="43.23013" lon="5.80656">
        <ele>341.052</ele>
        <time>2014-05-11T07:18:19Z</time>
      </trkpt>
      <trkpt lat="43.23019" lon="5.80647">
        <ele>341.622</ele>
        <time>2014-05-11T07:18:22Z</time>
      </trkpt>
      <trkpt lat="43.23033" lon="5.80622">
        <ele>342.195</ele>
        <time>2014-05-11T07:18:29Z</time>
      </trkpt>
      <trkpt lat="43.23044" lon="5.80602">
        <ele>342.847</ele>
        <time>2014-05-11T07:18:35Z</time>
      </trkpt>
      <trkpt lat="43.2306" lon="5.80571">
        <ele>343.675</ele>
        <time>2014-05-11T07:18:43Z</time>
      </trkpt>
      <trkpt lat="43.23072" lon="5.80551">
        <ele>344.815</ele>
        <time>2014-05-11T07:18:49Z</time>
      </trkpt>
      <trkpt lat="43.23077" lon="5.80542">
        <ele>345.521</ele>
        <time>2014-05-11T07:18:52Z</time>
      </trkpt>
      <trkpt lat="43.23094" lon="5.80522">
        <ele>347.001</ele>
        <time>2014-05-11T07:19:00Z</time>
      </trkpt>
      <trkpt lat="43.23111" lon="5.80516">
        <ele>347.887</ele>
        <time>2014-05-11T07:19:05Z</time>
      </trkpt>
      <trkpt lat="43.23133" lon="5.80515">
        <ele>349.069</ele>
        <time>2014-05-11T07:19:12Z</time>
      </trkpt>
      <trkpt lat="43.23154" lon="5.80521">
        <ele>350.16</ele>
        <time>2014-05-11T07:19:19Z</time>
      </trkpt>
      <trkpt lat="43.23178" lon="5.80542">
        <ele>351.457</ele>
        <time>2014-05-11T07:19:28Z</time>
      </trkpt>
      <trkpt lat="43.23187" lon="5.8056">
        <ele>352.13</ele>
        <time>2014-05-11T07:19:33Z</time>
      </trkpt>
      <trkpt lat="43.23188" lon="5.80593">
        <ele>353.323</ele>
        <time>2014-05-11T07:19:40Z</time>
      </trkpt>
      <trkpt lat="43.2318" lon="5.8062">
        <ele>354.428</ele>
        <time>2014-05-11T07:19:46Z</time>
      </trkpt>
      <trkpt lat="43.2317" lon="5.80652">
        <ele>355.496</ele>
        <time>2014-05-11T07:19:53Z</time>
      </trkpt>
      <trkpt lat="43.23159" lon="5.80679">
        <ele>356.243</ele>
        <time>2014-05-11T07:19:59Z</time>
      </trkpt>
      <trkpt lat="43.23149" lon="5.80704">
        <ele>356.804</ele>
        <time>2014-05-11T07:20:05Z</time>
      </trkpt>
      <trkpt lat="43.2314" lon="5.80725">
        <ele>357.557</ele>
        <time>2014-05-11T07:20:10Z</time>
      </trkpt>
      <trkpt lat="43.23128" lon="5.80752">
        <ele>358.979</ele>
        <time>2014-05-11T07:20:17Z</time>
      </trkpt>
      <trkpt lat="43.23116" lon="5.80781">
        <ele>360.598</ele>
        <time>2014-05-11T07:20:25Z</time>
      </trkpt>
      <trkpt lat="43.23107" lon="5.80803">
        <ele>361.184</ele>
        <time>2014-05-11T07:20:30Z</time>
      </trkpt>
      <trkpt lat="43.23105" lon="5.80833">
        <ele>361.607</ele>
        <time>2014-05-11T07:20:38Z</time>
      </trkpt>
      <trkpt lat="43.23124" lon="5.80859">
        <ele>362.493</ele>
        <time>2014-05-11T07:20:45Z</time>
      </trkpt>
      <trkpt lat="43.23143" lon="5.80875">
        <ele>363.711</ele>
        <time>2014-05-11T07:20:51Z</time>
      </trkpt>
      <trkpt lat="43.23158" lon="5.80879">
        <ele>364.682</ele>
        <time>2014-05-11T07:20:55Z</time>
      </trkpt>
      <trkpt lat="43.23171" lon="5.80876">
        <ele>365.399</ele>
        <time>2014-05-11T07:20:59Z</time>
      </trkpt>
      <trkpt lat="43.23188" lon="5.80865">
        <ele>366.267</ele>
        <time>2014-05-11T07:21:05Z</time>
      </trkpt>
      <trkpt lat="43.23206" lon="5.8085">
        <ele>367.534</ele>
        <time>2014-05-11T07:21:12Z</time>
      </trkpt>
      <trkpt lat="43.2323" lon="5.80824">
        <ele>368.566</ele>
        <time>2014-05-11T07:21:21Z</time>
      </trkpt>
      <trkpt lat="43.23249" lon="5.80803">
        <ele>369.555</ele>
        <time>2014-05-11T07:21:29Z</time>
      </trkpt>
      <trkpt lat="43.23264" lon="5.80781">
        <ele>370.273</ele>
        <time>2014-05-11T07:21:36Z</time>
      </trkpt>
      <trkpt lat="43.23271" lon="5.80771">
        <ele>370.888</ele>
        <time>2014-05-11T07:21:39Z</time>
      </trkpt>
      <trkpt lat="43.23291" lon="5.8074">
        <ele>372.1</ele>
        <time>2014-05-11T07:21:47Z</time>
      </trkpt>
      <trkpt lat="43.23297" lon="5.80728">
        <ele>372.531</ele>
        <time>2014-05-11T07:21:50Z</time>
      </trkpt>
      <trkpt lat="43.23308" lon="5.80702">
        <ele>373.341</ele>
        <time>2014-05-11T07:21:57Z</time>
      </trkpt>
      <trkpt lat="43.23319" lon="5.80676">
        <ele>374.502</ele>
        <time>2014-05-11T07:22:04Z</time>
      </trkpt>
      <trkpt lat="43.23335" lon="5.80652">
        <ele>375.465</ele>
        <time>2014-05-11T07:22:12Z</time>
      </trkpt>
      <trkpt lat="43.2335" lon="5.80634">
        <ele>375.973</ele>
        <time>2014-05-11T07:22:18Z</time>
      </trkpt>
      <trkpt lat="43.23368" lon="5.80608">
        <ele>376.772</ele>
        <time>2014-05-11T07:22:26Z</time>
      </trkpt>
      <trkpt lat="43.23379" lon="5.8058">
        <ele>377.663</ele>
        <time>2014-05-11T07:22:33Z</time>
      </trkpt>
      <trkpt lat="43.23388" lon="5.80548">
        <ele>378.27</ele>
        <time>2014-05-11T07:22:41Z</time>
      </trkpt>
      <trkpt lat="43.23394" lon="5.80523">
        <ele>378.773</ele>
        <time>2014-05-11T07:22:46Z</time>
      </trkpt>
      <trkpt lat="43.23401" lon="5.80496">
        <ele>379.685</ele>
        <time>2014-05-11T07:22:52Z</time>
      </trkpt>
      <trkpt lat="43.23407" lon="5.80475">
        <ele>380.663</ele>
        <time>2014-05-11T07:22:58Z</time>
      </trkpt>
      <trkpt lat="43.23412" lon="5.80458">
        <ele>381.444</ele>
        <time>2014-05-11T07:23:02Z</time>
      </trkpt>
      <trkpt lat="43.23417" lon="5.80444">
        <ele>381.857</ele>
        <time>2014-05-11T07:23:05Z</time>
      </trkpt>
      <trkpt lat="43.23421" lon="5.80431">
        <ele>382.247</ele>
        <time>2014-05-11T07:23:08Z</time>
      </trkpt>
      <trkpt lat="43.2343" lon="5.80411">
        <ele>383.026</ele>
        <time>2014-05-11T07:23:13Z</time>
      </trkpt>
      <trkpt lat="43.23444" lon="5.80387">
        <ele>383.884</ele>
        <time>2014-05-11T07:23:20Z</time>
      </trkpt>
      <trkpt lat="43.2345" lon="5.80376">
        <ele>384.229</ele>
        <time>2014-05-11T07:23:23Z</time>
      </trkpt>
      <trkpt lat="43.23461" lon="5.80356">
        <ele>385.07</ele>
        <time>2014-05-11T07:23:29Z</time>
      </trkpt>
      <trkpt lat="43.23476" lon="5.8033">
        <ele>387.026</ele>
        <time>2014-05-11T07:23:36Z</time>
      </trkpt>
      <trkpt lat="43.23491" lon="5.80308">
        <ele>388.33</ele>
        <time>2014-05-11T07:23:43Z</time>
      </trkpt>
      <trkpt lat="43.23507" lon="5.80284">
        <ele>389.824</ele>
        <time>2014-05-11T07:23:50Z</time>
      </trkpt>
      <trkpt lat="43.23525" lon="5.80259">
        <ele>391.534</ele>
        <time>2014-05-11T07:23:58Z</time>
      </trkpt>
      <trkpt lat="43.23542" lon="5.80239">
        <ele>392.544</ele>
        <time>2014-05-11T07:24:06Z</time>
      </trkpt>
      <trkpt lat="43.2357" lon="5.80209">
        <ele>393.4</ele>
        <time>2014-05-11T07:24:16Z</time>
      </trkpt>
      <trkpt lat="43.23586" lon="5.80193">
        <ele>393.948</ele>
        <time>2014-05-11T07:24:22Z</time>
      </trkpt>
      <trkpt lat="43.23606" lon="5.80176">
        <ele>394.768</ele>
        <time>2014-05-11T07:24:29Z</time>
      </trkpt>
      <trkpt lat="43.23615" lon="5.80171">
        <ele>395.176</ele>
        <time>2014-05-11T07:24:32Z</time>
      </trkpt>
      <trkpt lat="43.2364" lon="5.80172">
        <ele>395.91</ele>
        <time>2014-05-11T07:24:40Z</time>
      </trkpt>
      <trkpt lat="43.23654" lon="5.80183">
        <ele>396.81</ele>
        <time>2014-05-11T07:24:45Z</time>
      </trkpt>
      <trkpt lat="43.23673" lon="5.80204">
        <ele>398.108</ele>
        <time>2014-05-11T07:24:52Z</time>
      </trkpt>
      <trkpt lat="43.23682" lon="5.80217">
        <ele>398.883</ele>
        <time>2014-05-11T07:24:56Z</time>
      </trkpt>
      <trkpt lat="43.23703" lon="5.80242">
        <ele>401.909</ele>
        <time>2014-05-11T07:25:04Z</time>
      </trkpt>
      <trkpt lat="43.2372" lon="5.80262">
        <ele>402.658</ele>
        <time>2014-05-11T07:25:11Z</time>
      </trkpt>
      <trkpt lat="43.23726" lon="5.80272">
        <ele>402.898</ele>
        <time>2014-05-11T07:25:14Z</time>
      </trkpt>
      <trkpt lat="43.23743" lon="5.80294">
        <ele>403.886</ele>
        <time>2014-05-11T07:25:21Z</time>
      </trkpt>
      <trkpt lat="43.23758" lon="5.80309">
        <ele>405.784</ele>
        <time>2014-05-11T07:25:27Z</time>
      </trkpt>
      <trkpt lat="43.23782" lon="5.80325">
        <ele>406.279</ele>
        <time>2014-05-11T07:25:35Z</time>
      </trkpt>
      <trkpt lat="43.238" lon="5.80325">
        <ele>406.855</ele>
        <time>2014-05-11T07:25:40Z</time>
      </trkpt>
      <trkpt lat="43.23819" lon="5.80319">
        <ele>407.381</ele>
        <time>2014-05-11T07:25:45Z</time>
      </trkpt>
      <trkpt lat="43.23835" lon="5.80311">
        <ele>407.95</ele>
        <time>2014-05-11T07:25:50Z</time>
      </trkpt>
      <trkpt lat="43.23852" lon="5.80303">
        <ele>408.398</ele>
        <time>2014-05-11T07:25:55Z</time>
      </trkpt>
      <trkpt lat="43.23868" lon="5.80294">
        <ele>409.225</ele>
        <time>2014-05-11T07:26:01Z</time>
      </trkpt>
      <trkpt lat="43.2389" lon="5.80278">
        <ele>410.392</ele>
        <time>2014-05-11T07:26:09Z</time>
      </trkpt>
      <trkpt lat="43.23904" lon="5.80262">
        <ele>410.959</ele>
        <time>2014-05-11T07:26:15Z</time>
      </trkpt>
      <trkpt lat="43.23919" lon="5.8024">
        <ele>411.389</ele>
        <time>2014-05-11T07:26:22Z</time>
      </trkpt>
      <trkpt lat="43.2393" lon="5.8022">
        <ele>411.785</ele>
        <time>2014-05-11T07:26:27Z</time>
      </trkpt>
      <trkpt lat="43.23937" lon="5.80207">
        <ele>412.095</ele>
        <time>2014-05-11T07:26:30Z</time>
      </trkpt>
      <trkpt lat="43.23953" lon="5.80187">
        <ele>412.825</ele>
        <time>2014-05-11T07:26:37Z</time>
      </trkpt>
      <trkpt lat="43.2396" lon="5.80179">
        <ele>412.975</ele>
        <time>2014-05-11T07:26:40Z</time>
      </trkpt>
      <trkpt lat="43.23967" lon="5.80172">
        <ele>413.234</ele>
        <time>2014-05-11T07:26:43Z</time>
      </trkpt>
      <trkpt lat="43.2399" lon="5.80158">
        <ele>413.469</ele>
        <time>2014-05-11T07:26:50Z</time>
      </trkpt>
      <trkpt lat="43.24" lon="5.80155">
        <ele>413.888</ele>
        <time>2014-05-11T07:26:53Z</time>
      </trkpt>
      <trkpt lat="43.24026" lon="5.80148">
        <ele>414.264</ele>
        <time>2014-05-11T07:27:02Z</time>
      </trkpt>
      <trkpt lat="43.24054" lon="5.80147">
        <ele>414.484</ele>
        <time>2014-05-11T07:27:10Z</time>
      </trkpt>
      <trkpt lat="43.24065" lon="5.80147">
        <ele>414.536</ele>
        <time>2014-05-11T07:27:13Z</time>
      </trkpt>
      <trkpt lat="43.24081" lon="5.80147">
        <ele>414.499</ele>
        <time>2014-05-11T07:27:18Z</time>
      </trkpt>
      <trkpt lat="43.24105" lon="5.8015">
        <ele>415.458</ele>
        <time>2014-05-11T07:27:26Z</time>
      </trkpt>
      <trkpt lat="43.24125" lon="5.80164">
        <ele>416.818</ele>
        <time>2014-05-11T07:27:33Z</time>
      </trkpt>
      <trkpt lat="43.24141" lon="5.80182">
        <ele>418.26</ele>
        <time>2014-05-11T07:27:40Z</time>
      </trkpt>
      <trkpt lat="43.24148" lon="5.80206">
        <ele>419.164</ele>
        <time>2014-05-11T07:27:47Z</time>
      </trkpt>
      <trkpt lat="43.24139" lon="5.80236">
        <ele>420.256</ele>
        <time>2014-05-11T07:27:55Z</time>
      </trkpt>
      <trkpt lat="43.24135" lon="5.80262">
        <ele>420.637</ele>
        <time>2014-05-11T07:28:02Z</time>
      </trkpt>
      <trkpt lat="43.24141" lon="5.80287">
        <ele>420.871</ele>
        <time>2014-05-11T07:28:09Z</time>
      </trkpt>
      <trkpt lat="43.24149" lon="5.80323">
        <ele>421.39</ele>
        <time>2014-05-11T07:28:18Z</time>
      </trkpt>
      <trkpt lat="43.24158" lon="5.80358">
        <ele>422.478</ele>
        <time>2014-05-11T07:28:26Z</time>
      </trkpt>
      <trkpt lat="43.2416" lon="5.80382">
        <ele>423.189</ele>
        <time>2014-05-11T07:28:32Z</time>
      </trkpt>
      <trkpt lat="43.24158" lon="5.80407">
        <ele>424.147</ele>
        <time>2014-05-11T07:28:38Z</time>
      </trkpt>
      <trkpt lat="43.24155" lon="5.80434">
        <ele>425.523</ele>
        <time>2014-05-11T07:28:45Z</time>
      </trkpt>
      <trkpt lat="43.24151" lon="5.80459">
        <ele>426.518</ele>
        <time>2014-05-11T07:28:51Z</time>
      </trkpt>
      <trkpt lat="43.24146" lon="5.8049">
        <ele>428.735</ele>
        <time>2014-05-11T07:28:59Z</time>
      </trkpt>
      <trkpt lat="43.24141" lon="5.80515">
        <ele>430.407</ele>
        <time>2014-05-11T07:29:06Z</time>
      </trkpt>
      <trkpt lat="43.24138" lon="5.80547">
        <ele>432.866</ele>
        <time>2014-05-11T07:29:16Z</time>
      </trkpt>
      <trkpt lat="43.24133" lon="5.80565">
        <ele>434.18</ele>
        <time>2014-05-11T07:29:22Z</time>
      </trkpt>
      <trkpt lat="43.24128" lon="5.80585">
        <ele>435.231</ele>
        <time>2014-05-11T07:29:28Z</time>
      </trkpt>
      <trkpt lat="43.2412" lon="5.80616">
        <ele>437.347</ele>
        <time>2014-05-11T07:29:37Z</time>
      </trkpt>
      <trkpt lat="43.24116" lon="5.80634">
        <ele>438.342</ele>
        <time>2014-05-11T07:29:42Z</time>
      </trkpt>
      <trkpt lat="43.24113" lon="5.80657">
        <ele>439.594</ele>
        <time>2014-05-11T07:29:49Z</time>
      </trkpt>
      <trkpt lat="43.24112" lon="5.8069">
        <ele>441.117</ele>
        <time>2014-05-11T07:29:59Z</time>
      </trkpt>
      <trkpt lat="43.24113" lon="5.80724">
        <ele>443.165</ele>
        <time>2014-05-11T07:30:09Z</time>
      </trkpt>
      <trkpt lat="43.2412" lon="5.8074">
        <ele>444.602</ele>
        <time>2014-05-11T07:30:14Z</time>
      </trkpt>
      <trkpt lat="43.24134" lon="5.80763">
        <ele>446.81</ele>
        <time>2014-05-11T07:30:22Z</time>
      </trkpt>
      <trkpt lat="43.24152" lon="5.80777">
        <ele>448.566</ele>
        <time>2014-05-11T07:30:30Z</time>
      </trkpt>
      <trkpt lat="43.24169" lon="5.80786">
        <ele>449.814</ele>
        <time>2014-05-11T07:30:37Z</time>
      </trkpt>
      <trkpt lat="43.24187" lon="5.80789">
        <ele>451.23</ele>
        <time>2014-05-11T07:30:44Z</time>
      </trkpt>
      <trkpt lat="43.24212" lon="5.8078">
        <ele>453.063</ele>
        <time>2014-05-11T07:30:54Z</time>
      </trkpt>
      <trkpt lat="43.2423" lon="5.80772">
        <ele>453.819</ele>
        <time>2014-05-11T07:31:01Z</time>
      </trkpt>
      <trkpt lat="43.24243" lon="5.80757">
        <ele>454.463</ele>
        <time>2014-05-11T07:31:07Z</time>
      </trkpt>
      <trkpt lat="43.24255" lon="5.8074">
        <ele>455.135</ele>
        <time>2014-05-11T07:31:13Z</time>
      </trkpt>
      <trkpt lat="43.24268" lon="5.80722">
        <ele>456.218</ele>
        <time>2014-05-11T07:31:20Z</time>
      </trkpt>
      <trkpt lat="43.24277" lon="5.80709">
        <ele>456.977</ele>
        <time>2014-05-11T07:31:25Z</time>
      </trkpt>
      <trkpt lat="43.24294" lon="5.80682">
        <ele>457.821</ele>
        <time>2014-05-11T07:31:35Z</time>
      </trkpt>
      <trkpt lat="43.24309" lon="5.80664">
        <ele>458.502</ele>
        <time>2014-05-11T07:31:42Z</time>
      </trkpt>
      <trkpt lat="43.24322" lon="5.80651">
        <ele>458.866</ele>
        <time>2014-05-11T07:31:48Z</time>
      </trkpt>
      <trkpt lat="43.24333" lon="5.80641">
        <ele>459.094</ele>
        <time>2014-05-11T07:31:53Z</time>
      </trkpt>
      <trkpt lat="43.24354" lon="5.80624">
        <ele>459.535</ele>
        <time>2014-05-11T07:32:01Z</time>
      </trkpt>
      <trkpt lat="43.24376" lon="5.80606">
        <ele>460.517</ele>
        <time>2014-05-11T07:32:09Z</time>
      </trkpt>
      <trkpt lat="43.2439" lon="5.80601">
        <ele>461.283</ele>
        <time>2014-05-11T07:32:13Z</time>
      </trkpt>
      <trkpt lat="43.24405" lon="5.80598">
        <ele>462.054</ele>
        <time>2014-05-11T07:32:18Z</time>
      </trkpt>
      <trkpt lat="43.24417" lon="5.80597">
        <ele>462.523</ele>
        <time>2014-05-11T07:32:22Z</time>
      </trkpt>
      <trkpt lat="43.24441" lon="5.80599">
        <ele>463.691</ele>
        <time>2014-05-11T07:32:29Z</time>
      </trkpt>
      <trkpt lat="43.24458" lon="5.80601">
        <ele>464.473</ele>
        <time>2014-05-11T07:32:34Z</time>
      </trkpt>
      <trkpt lat="43.24482" lon="5.80601">
        <ele>465.344</ele>
        <time>2014-05-11T07:32:42Z</time>
      </trkpt>
      <trkpt lat="43.24495" lon="5.80601">
        <ele>465.929</ele>
        <time>2014-05-11T07:32:46Z</time>
      </trkpt>
      <trkpt lat="43.24517" lon="5.806">
        <ele>467.431</ele>
        <time>2014-05-11T07:32:52Z</time>
      </trkpt>
      <trkpt lat="43.24532" lon="5.80604">
        <ele>468.592</ele>
        <time>2014-05-11T07:32:57Z</time>
      </trkpt>
      <trkpt lat="43.24558" lon="5.80607">
        <ele>470.41</ele>
        <time>2014-05-11T07:33:04Z</time>
      </trkpt>
      <trkpt lat="43.24577" lon="5.80612">
        <ele>471.463</ele>
        <time>2014-05-11T07:33:10Z</time>
      </trkpt>
      <trkpt lat="43.24608" lon="5.80615">
        <ele>472.801</ele>
        <time>2014-05-11T07:33:19Z</time>
      </trkpt>
      <trkpt lat="43.24631" lon="5.80619">
        <ele>473.631</ele>
        <time>2014-05-11T07:33:26Z</time>
      </trkpt>
      <trkpt lat="43.24649" lon="5.80622">
        <ele>474.344</ele>
        <time>2014-05-11T07:33:31Z</time>
      </trkpt>
      <trkpt lat="43.24667" lon="5.80623">
        <ele>474.959</ele>
        <time>2014-05-11T07:33:36Z</time>
      </trkpt>
      <trkpt lat="43.2469" lon="5.80625">
        <ele>476.121</ele>
        <time>2014-05-11T07:33:43Z</time>
      </trkpt>
      <trkpt lat="43.247" lon="5.80627">
        <ele>476.587</ele>
        <time>2014-05-11T07:33:46Z</time>
      </trkpt>
      <trkpt lat="43.24727" lon="5.80631">
        <ele>477.63</ele>
        <time>2014-05-11T07:33:54Z</time>
      </trkpt>
      <trkpt lat="43.24754" lon="5.80635">
        <ele>479.476</ele>
        <time>2014-05-11T07:34:01Z</time>
      </trkpt>
      <trkpt lat="43.24779" lon="5.80637">
        <ele>483.323</ele>
        <time>2014-05-11T07:34:07Z</time>
      </trkpt>
      <trkpt lat="43.2479" lon="5.80639">
        <ele>484.62</ele>
        <time>2014-05-11T07:34:10Z</time>
      </trkpt>
      <trkpt lat="43.24815" lon="5.80641">
        <ele>484.965</ele>
        <time>2014-05-11T07:34:17Z</time>
      </trkpt>
      <trkpt lat="43.24826" lon="5.80641">
        <ele>485.032</ele>
        <time>2014-05-11T07:34:20Z</time>
      </trkpt>
      <trkpt lat="43.24837" lon="5.80642">
        <ele>485.105</ele>
        <time>2014-05-11T07:34:23Z</time>
      </trkpt>
      <trkpt lat="43.24847" lon="5.80643">
        <ele>485.112</ele>
        <time>2014-05-11T07:34:26Z</time>
      </trkpt>
      <trkpt lat="43.24872" lon="5.80647">
        <ele>485.434</ele>
        <time>2014-05-11T07:34:33Z</time>
      </trkpt>
      <trkpt lat="43.24882" lon="5.80649">
        <ele>485.657</ele>
        <time>2014-05-11T07:34:36Z</time>
      </trkpt>
      <trkpt lat="43.24891" lon="5.8065">
        <ele>485.921</ele>
        <time>2014-05-11T07:34:39Z</time>
      </trkpt>
      <trkpt lat="43.249" lon="5.80652">
        <ele>486.02</ele>
        <time>2014-05-11T07:34:42Z</time>
      </trkpt>
      <trkpt lat="43.2492" lon="5.80654">
        <ele>486.385</ele>
        <time>2014-05-11T07:34:48Z</time>
      </trkpt>
      <trkpt lat="43.24942" lon="5.80657">
        <ele>486.719</ele>
        <time>2014-05-11T07:34:55Z</time>
      </trkpt>
      <trkpt lat="43.24968" lon="5.80661">
        <ele>487.276</ele>
        <time>2014-05-11T07:35:03Z</time>
      </trkpt>
      <trkpt lat="43.24992" lon="5.80665">
        <ele>488.045</ele>
        <time>2014-05-11T07:35:10Z</time>
      </trkpt>
      <trkpt lat="43.25001" lon="5.80665">
        <ele>488.655</ele>
        <time>2014-05-11T07:35:13Z</time>
      </trkpt>
      <trkpt lat="43.25015" lon="5.80667">
        <ele>489.191</ele>
        <time>2014-05-11T07:35:17Z</time>
      </trkpt>
      <trkpt lat="43.25026" lon="5.80667">
        <ele>489.761</ele>
        <time>2014-05-11T07:35:20Z</time>
      </trkpt>
      <trkpt lat="43.25047" lon="5.8067">
        <ele>490.419</ele>
        <time>2014-05-11T07:35:27Z</time>
      </trkpt>
      <trkpt lat="43.25074" lon="5.80676">
        <ele>491.866</ele>
        <time>2014-05-11T07:35:34Z</time>
      </trkpt>
      <trkpt lat="43.25094" lon="5.80678">
        <ele>491.312</ele>
        <time>2014-05-11T07:35:39Z</time>
      </trkpt>
      <trkpt lat="43.25117" lon="5.8068">
        <ele>489.975</ele>
        <time>2014-05-11T07:35:45Z</time>
      </trkpt>
      <trkpt lat="43.25137" lon="5.80683">
        <ele>490.594</ele>
        <time>2014-05-11T07:35:50Z</time>
      </trkpt>
      <trkpt lat="43.25152" lon="5.80684">
        <ele>492.559</ele>
        <time>2014-05-11T07:35:53Z</time>
      </trkpt>
      <trkpt lat="43.25178" lon="5.80689">
        <ele>493.305</ele>
        <time>2014-05-11T07:35:59Z</time>
      </trkpt>
      <trkpt lat="43.252" lon="5.80694">
        <ele>492.645</ele>
        <time>2014-05-11T07:36:04Z</time>
      </trkpt>
      <trkpt lat="43.25213" lon="5.80696">
        <ele>492.675</ele>
        <time>2014-05-11T07:36:07Z</time>
      </trkpt>
      <trkpt lat="43.2524" lon="5.80699">
        <ele>491.156</ele>
        <time>2014-05-11T07:36:13Z</time>
      </trkpt>
      <trkpt lat="43.25254" lon="5.80702">
        <ele>492.958</ele>
        <time>2014-05-11T07:36:16Z</time>
      </trkpt>
      <trkpt lat="43.2527" lon="5.80704">
        <ele>494.016</ele>
        <time>2014-05-11T07:36:19Z</time>
      </trkpt>
      <trkpt lat="43.25302" lon="5.80706">
        <ele>493.338</ele>
        <time>2014-05-11T07:36:25Z</time>
      </trkpt>
      <trkpt lat="43.25327" lon="5.80708">
        <ele>493.254</ele>
        <time>2014-05-11T07:36:30Z</time>
      </trkpt>
      <trkpt lat="43.25355" lon="5.80715">
        <ele>492.418</ele>
        <time>2014-05-11T07:36:36Z</time>
      </trkpt>
      <trkpt lat="43.25384" lon="5.80729">
        <ele>491.656</ele>
        <time>2014-05-11T07:36:42Z</time>
      </trkpt>
      <trkpt lat="43.25414" lon="5.80746">
        <ele>492.078</ele>
        <time>2014-05-11T07:36:48Z</time>
      </trkpt>
      <trkpt lat="43.25443" lon="5.80762">
        <ele>492.311</ele>
        <time>2014-05-11T07:36:54Z</time>
      </trkpt>
      <trkpt lat="43.25454" lon="5.8077">
        <ele>492.499</ele>
        <time>2014-05-11T07:36:57Z</time>
      </trkpt>
      <trkpt lat="43.25472" lon="5.80778">
        <ele>494.042</ele>
        <time>2014-05-11T07:37:01Z</time>
      </trkpt>
      <trkpt lat="43.25487" lon="5.80785">
        <ele>494.617</ele>
        <time>2014-05-11T07:37:04Z</time>
      </trkpt>
      <trkpt lat="43.25503" lon="5.8079">
        <ele>495.326</ele>
        <time>2014-05-11T07:37:07Z</time>
      </trkpt>
      <trkpt lat="43.25522" lon="5.8079">
        <ele>496.464</ele>
        <time>2014-05-11T07:37:11Z</time>
      </trkpt>
      <trkpt lat="43.25549" lon="5.80785">
        <ele>495.672</ele>
        <time>2014-05-11T07:37:17Z</time>
      </trkpt>
      <trkpt lat="43.25564" lon="5.8078">
        <ele>496.991</ele>
        <time>2014-05-11T07:37:20Z</time>
      </trkpt>
      <trkpt lat="43.25588" lon="5.80768">
        <ele>495.918</ele>
        <time>2014-05-11T07:37:25Z</time>
      </trkpt>
      <trkpt lat="43.25606" lon="5.80762">
        <ele>496.34</ele>
        <time>2014-05-11T07:37:29Z</time>
      </trkpt>
      <trkpt lat="43.25625" lon="5.80753">
        <ele>495.606</ele>
        <time>2014-05-11T07:37:34Z</time>
      </trkpt>
      <trkpt lat="43.25652" lon="5.80746">
        <ele>495.643</ele>
        <time>2014-05-11T07:37:40Z</time>
      </trkpt>
      <trkpt lat="43.25679" lon="5.80738">
        <ele>495.385</ele>
        <time>2014-05-11T07:37:46Z</time>
      </trkpt>
      <trkpt lat="43.25692" lon="5.80734">
        <ele>495.179</ele>
        <time>2014-05-11T07:37:49Z</time>
      </trkpt>
      <trkpt lat="43.25704" lon="5.80731">
        <ele>496.87</ele>
        <time>2014-05-11T07:37:52Z</time>
      </trkpt>
      <trkpt lat="43.25726" lon="5.80726">
        <ele>500.875</ele>
        <time>2014-05-11T07:37:57Z</time>
      </trkpt>
      <trkpt lat="43.25751" lon="5.80718">
        <ele>499.73</ele>
        <time>2014-05-11T07:38:03Z</time>
      </trkpt>
      <trkpt lat="43.25776" lon="5.8071">
        <ele>498.797</ele>
        <time>2014-05-11T07:38:09Z</time>
      </trkpt>
      <trkpt lat="43.25799" lon="5.80703">
        <ele>499.473</ele>
        <time>2014-05-11T07:38:15Z</time>
      </trkpt>
      <trkpt lat="43.2581" lon="5.807">
        <ele>499.835</ele>
        <time>2014-05-11T07:38:18Z</time>
      </trkpt>
      <trkpt lat="43.25828" lon="5.80694">
        <ele>499.756</ele>
        <time>2014-05-11T07:38:23Z</time>
      </trkpt>
      <trkpt lat="43.2585" lon="5.80689">
        <ele>499.249</ele>
        <time>2014-05-11T07:38:29Z</time>
      </trkpt>
      <trkpt lat="43.2587" lon="5.8068">
        <ele>499.43</ele>
        <time>2014-05-11T07:38:35Z</time>
      </trkpt>
      <trkpt lat="43.25889" lon="5.8067">
        <ele>499.657</ele>
        <time>2014-05-11T07:38:41Z</time>
      </trkpt>
      <trkpt lat="43.25912" lon="5.80654">
        <ele>500.145</ele>
        <time>2014-05-11T07:38:48Z</time>
      </trkpt>
      <trkpt lat="43.25935" lon="5.80643">
        <ele>500.363</ele>
        <time>2014-05-11T07:38:55Z</time>
      </trkpt>
      <trkpt lat="43.25954" lon="5.80634">
        <ele>500.358</ele>
        <time>2014-05-11T07:39:01Z</time>
      </trkpt>
      <trkpt lat="43.25976" lon="5.80626">
        <ele>500.933</ele>
        <time>2014-05-11T07:39:07Z</time>
      </trkpt>
      <trkpt lat="43.25991" lon="5.80621">
        <ele>501.258</ele>
        <time>2014-05-11T07:39:12Z</time>
      </trkpt>
      <trkpt lat="43.26002" lon="5.80617">
        <ele>501.223</ele>
        <time>2014-05-11T07:39:15Z</time>
      </trkpt>
      <trkpt lat="43.26027" lon="5.80607">
        <ele>502.331</ele>
        <time>2014-05-11T07:39:21Z</time>
      </trkpt>
      <trkpt lat="43.26047" lon="5.80607">
        <ele>503.405</ele>
        <time>2014-05-11T07:39:26Z</time>
      </trkpt>
      <trkpt lat="43.26064" lon="5.80613">
        <ele>502.959</ele>
        <time>2014-05-11T07:39:31Z</time>
      </trkpt>
      <trkpt lat="43.26092" lon="5.80628">
        <ele>506.024</ele>
        <time>2014-05-11T07:39:38Z</time>
      </trkpt>
      <trkpt lat="43.2611" lon="5.8064">
        <ele>506.394</ele>
        <time>2014-05-11T07:39:43Z</time>
      </trkpt>
      <trkpt lat="43.2612" lon="5.8065">
        <ele>508.653</ele>
        <time>2014-05-11T07:39:46Z</time>
      </trkpt>
      <trkpt lat="43.26137" lon="5.80672">
        <ele>509.225</ele>
        <time>2014-05-11T07:39:52Z</time>
      </trkpt>
      <trkpt lat="43.2616" lon="5.80694">
        <ele>507.87</ele>
        <time>2014-05-11T07:39:59Z</time>
      </trkpt>
      <trkpt lat="43.26178" lon="5.80713">
        <ele>509.427</ele>
        <time>2014-05-11T07:40:05Z</time>
      </trkpt>
      <trkpt lat="43.26199" lon="5.8074">
        <ele>509.534</ele>
        <time>2014-05-11T07:40:12Z</time>
      </trkpt>
      <trkpt lat="43.26214" lon="5.80757">
        <ele>509.38</ele>
        <time>2014-05-11T07:40:17Z</time>
      </trkpt>
      <trkpt lat="43.26233" lon="5.80773">
        <ele>508.875</ele>
        <time>2014-05-11T07:40:23Z</time>
      </trkpt>
      <trkpt lat="43.26243" lon="5.80781">
        <ele>508.192</ele>
        <time>2014-05-11T07:40:26Z</time>
      </trkpt>
      <trkpt lat="43.26255" lon="5.80789">
        <ele>507.64</ele>
        <time>2014-05-11T07:40:29Z</time>
      </trkpt>
      <trkpt lat="43.26267" lon="5.80797">
        <ele>508.099</ele>
        <time>2014-05-11T07:40:32Z</time>
      </trkpt>
      <trkpt lat="43.26288" lon="5.80805">
        <ele>513.581</ele>
        <time>2014-05-11T07:40:38Z</time>
      </trkpt>
      <trkpt lat="43.26307" lon="5.80803">
        <ele>513.632</ele>
        <time>2014-05-11T07:40:43Z</time>
      </trkpt>
      <trkpt lat="43.26331" lon="5.80792">
        <ele>513.439</ele>
        <time>2014-05-11T07:40:50Z</time>
      </trkpt>
      <trkpt lat="43.26352" lon="5.80778">
        <ele>513.495</ele>
        <time>2014-05-11T07:40:56Z</time>
      </trkpt>
      <trkpt lat="43.26373" lon="5.80761">
        <ele>513.542</ele>
        <time>2014-05-11T07:41:03Z</time>
      </trkpt>
      <trkpt lat="43.26383" lon="5.80753">
        <ele>513.667</ele>
        <time>2014-05-11T07:41:06Z</time>
      </trkpt>
      <trkpt lat="43.26409" lon="5.80734">
        <ele>514.354</ele>
        <time>2014-05-11T07:41:14Z</time>
      </trkpt>
      <trkpt lat="43.26427" lon="5.80718">
        <ele>515.517</ele>
        <time>2014-05-11T07:41:20Z</time>
      </trkpt>
      <trkpt lat="43.26458" lon="5.80696">
        <ele>515.935</ele>
        <time>2014-05-11T07:41:29Z</time>
      </trkpt>
      <trkpt lat="43.26483" lon="5.80676">
        <ele>516.769</ele>
        <time>2014-05-11T07:41:36Z</time>
      </trkpt>
      <trkpt lat="43.26503" lon="5.80658">
        <ele>517.409</ele>
        <time>2014-05-11T07:41:41Z</time>
      </trkpt>
      <trkpt lat="43.26525" lon="5.8064">
        <ele>518.043</ele>
        <time>2014-05-11T07:41:48Z</time>
      </trkpt>
      <trkpt lat="43.26552" lon="5.80619">
        <ele>517.725</ele>
        <time>2014-05-11T07:41:55Z</time>
      </trkpt>
      <trkpt lat="43.26573" lon="5.80603">
        <ele>517.002</ele>
        <time>2014-05-11T07:42:00Z</time>
      </trkpt>
      <trkpt lat="43.26598" lon="5.80582">
        <ele>516.155</ele>
        <time>2014-05-11T07:42:06Z</time>
      </trkpt>
      <trkpt lat="43.26622" lon="5.80564">
        <ele>515.821</ele>
        <time>2014-05-11T07:42:11Z</time>
      </trkpt>
      <trkpt lat="43.2665" lon="5.80543">
        <ele>515.05</ele>
        <time>2014-05-11T07:42:17Z</time>
      </trkpt>
      <trkpt lat="43.26665" lon="5.80532">
        <ele>516.542</ele>
        <time>2014-05-11T07:42:20Z</time>
      </trkpt>
      <trkpt lat="43.26693" lon="5.80511">
        <ele>517.958</ele>
        <time>2014-05-11T07:42:26Z</time>
      </trkpt>
      <trkpt lat="43.26721" lon="5.80494">
        <ele>516.279</ele>
        <time>2014-05-11T07:42:32Z</time>
      </trkpt>
      <trkpt lat="43.26734" lon="5.80487">
        <ele>515.103</ele>
        <time>2014-05-11T07:42:35Z</time>
      </trkpt>
      <trkpt lat="43.26764" lon="5.80475">
        <ele>515.426</ele>
        <time>2014-05-11T07:42:41Z</time>
      </trkpt>
      <trkpt lat="43.2679" lon="5.80465">
        <ele>514.162</ele>
        <time>2014-05-11T07:42:46Z</time>
      </trkpt>
      <trkpt lat="43.26817" lon="5.80453">
        <ele>513.468</ele>
        <time>2014-05-11T07:42:51Z</time>
      </trkpt>
      <trkpt lat="43.26832" lon="5.80447">
        <ele>512.871</ele>
        <time>2014-05-11T07:42:54Z</time>
      </trkpt>
      <trkpt lat="43.26847" lon="5.8044">
        <ele>515.357</ele>
        <time>2014-05-11T07:42:57Z</time>
      </trkpt>
      <trkpt lat="43.26871" lon="5.8043">
        <ele>516.286</ele>
        <time>2014-05-11T07:43:02Z</time>
      </trkpt>
      <trkpt lat="43.26896" lon="5.80418">
        <ele>515.752</ele>
        <time>2014-05-11T07:43:08Z</time>
      </trkpt>
      <trkpt lat="43.2691" lon="5.80409">
        <ele>514.162</ele>
        <time>2014-05-11T07:43:11Z</time>
      </trkpt>
      <trkpt lat="43.26938" lon="5.80396">
        <ele>513.283</ele>
        <time>2014-05-11T07:43:17Z</time>
      </trkpt>
      <trkpt lat="43.26964" lon="5.80386">
        <ele>513.305</ele>
        <time>2014-05-11T07:43:22Z</time>
      </trkpt>
      <trkpt lat="43.26993" lon="5.80375">
        <ele>512.045</ele>
        <time>2014-05-11T07:43:28Z</time>
      </trkpt>
      <trkpt lat="43.27018" lon="5.80366">
        <ele>513.998</ele>
        <time>2014-05-11T07:43:33Z</time>
      </trkpt>
      <trkpt lat="43.27034" lon="5.8036">
        <ele>514.971</ele>
        <time>2014-05-11T07:43:36Z</time>
      </trkpt>
      <trkpt lat="43.27048" lon="5.80354">
        <ele>514.154</ele>
        <time>2014-05-11T07:43:39Z</time>
      </trkpt>
      <trkpt lat="43.27072" lon="5.80347">
        <ele>511.853</ele>
        <time>2014-05-11T07:43:45Z</time>
      </trkpt>
      <trkpt lat="43.27098" lon="5.80338">
        <ele>514.762</ele>
        <time>2014-05-11T07:43:51Z</time>
      </trkpt>
      <trkpt lat="43.27119" lon="5.80328">
        <ele>516.928</ele>
        <time>2014-05-11T07:43:57Z</time>
      </trkpt>
      <trkpt lat="43.27146" lon="5.80315">
        <ele>519.225</ele>
        <time>2014-05-11T07:44:03Z</time>
      </trkpt>
      <trkpt lat="43.27175" lon="5.80304">
        <ele>518.618</ele>
        <time>2014-05-11T07:44:09Z</time>
      </trkpt>
      <trkpt lat="43.27216" lon="5.80286">
        <ele>516.043</ele>
        <time>2014-05-11T07:44:15Z</time>
      </trkpt>
      <trkpt lat="43.27256" lon="5.80276">
        <ele>516.465</ele>
        <time>2014-05-11T07:44:20Z</time>
      </trkpt>
      <trkpt lat="43.27312" lon="5.80281">
        <ele>513.681</ele>
        <time>2014-05-11T07:44:26Z</time>
      </trkpt>
      <trkpt lat="43.27361" lon="5.80299">
        <ele>508.734</ele>
        <time>2014-05-11T07:44:31Z</time>
      </trkpt>
      <trkpt lat="43.27391" lon="5.80312">
        <ele>508.737</ele>
        <time>2014-05-11T07:44:34Z</time>
      </trkpt>
      <trkpt lat="43.27439" lon="5.80348">
        <ele>505.202</ele>
        <time>2014-05-11T07:44:39Z</time>
      </trkpt>
      <trkpt lat="43.27485" lon="5.80398">
        <ele>500.595</ele>
        <time>2014-05-11T07:44:45Z</time>
      </trkpt>
      <trkpt lat="43.27521" lon="5.80423">
        <ele>499.737</ele>
        <time>2014-05-11T07:44:50Z</time>
      </trkpt>
      <trkpt lat="43.27542" lon="5.80446">
        <ele>500.737</ele>
        <time>2014-05-11T07:44:53Z</time>
      </trkpt>
      <trkpt lat="43.27585" lon="5.80489">
        <ele>501.836</ele>
        <time>2014-05-11T07:44:59Z</time>
      </trkpt>
      <trkpt lat="43.27621" lon="5.80535">
        <ele>497.637</ele>
        <time>2014-05-11T07:45:04Z</time>
      </trkpt>
      <trkpt lat="43.27655" lon="5.80605">
        <ele>494.2</ele>
        <time>2014-05-11T07:45:10Z</time>
      </trkpt>
      <trkpt lat="43.27678" lon="5.80679">
        <ele>493.11</ele>
        <time>2014-05-11T07:45:16Z</time>
      </trkpt>
      <trkpt lat="43.27687" lon="5.80713">
        <ele>491.781</ele>
        <time>2014-05-11T07:45:19Z</time>
      </trkpt>
      <trkpt lat="43.277" lon="5.8079">
        <ele>491.721</ele>
        <time>2014-05-11T07:45:25Z</time>
      </trkpt>
      <trkpt lat="43.27704" lon="5.80824">
        <ele>491.617</ele>
        <time>2014-05-11T07:45:28Z</time>
      </trkpt>
      <trkpt lat="43.27707" lon="5.80861">
        <ele>493.081</ele>
        <time>2014-05-11T07:45:31Z</time>
      </trkpt>
      <trkpt lat="43.2771" lon="5.80921">
        <ele>493.626</ele>
        <time>2014-05-11T07:45:36Z</time>
      </trkpt>
      <trkpt lat="43.2771" lon="5.80956">
        <ele>491.856</ele>
        <time>2014-05-11T07:45:39Z</time>
      </trkpt>
      <trkpt lat="43.2771" lon="5.80989">
        <ele>490.537</ele>
        <time>2014-05-11T07:45:42Z</time>
      </trkpt>
      <trkpt lat="43.27708" lon="5.81026">
        <ele>490.823</ele>
        <time>2014-05-11T07:45:45Z</time>
      </trkpt>
      <trkpt lat="43.27706" lon="5.81082">
        <ele>490.48</ele>
        <time>2014-05-11T07:45:50Z</time>
      </trkpt>
      <trkpt lat="43.27706" lon="5.81149">
        <ele>488.279</ele>
        <time>2014-05-11T07:45:56Z</time>
      </trkpt>
      <trkpt lat="43.27713" lon="5.81183">
        <ele>487.871</ele>
        <time>2014-05-11T07:45:59Z</time>
      </trkpt>
      <trkpt lat="43.27721" lon="5.81216">
        <ele>487.37</ele>
        <time>2014-05-11T07:46:02Z</time>
      </trkpt>
      <trkpt lat="43.2773" lon="5.81248">
        <ele>486.858</ele>
        <time>2014-05-11T07:46:05Z</time>
      </trkpt>
      <trkpt lat="43.27748" lon="5.81313">
        <ele>487.077</ele>
        <time>2014-05-11T07:46:11Z</time>
      </trkpt>
      <trkpt lat="43.27766" lon="5.81374">
        <ele>484.776</ele>
        <time>2014-05-11T07:46:17Z</time>
      </trkpt>
      <trkpt lat="43.27775" lon="5.81404">
        <ele>484.238</ele>
        <time>2014-05-11T07:46:20Z</time>
      </trkpt>
      <trkpt lat="43.27783" lon="5.81434">
        <ele>484.922</ele>
        <time>2014-05-11T07:46:23Z</time>
      </trkpt>
      <trkpt lat="43.27797" lon="5.81485">
        <ele>485.229</ele>
        <time>2014-05-11T07:46:28Z</time>
      </trkpt>
      <trkpt lat="43.27809" lon="5.8155">
        <ele>483.969</ele>
        <time>2014-05-11T07:46:34Z</time>
      </trkpt>
      <trkpt lat="43.27822" lon="5.81614">
        <ele>483.935</ele>
        <time>2014-05-11T07:46:40Z</time>
      </trkpt>
      <trkpt lat="43.27838" lon="5.81665">
        <ele>482.687</ele>
        <time>2014-05-11T07:46:45Z</time>
      </trkpt>
      <trkpt lat="43.27855" lon="5.81717">
        <ele>481.781</ele>
        <time>2014-05-11T07:46:50Z</time>
      </trkpt>
      <trkpt lat="43.27871" lon="5.81781">
        <ele>480.75</ele>
        <time>2014-05-11T07:46:56Z</time>
      </trkpt>
      <trkpt lat="43.27879" lon="5.81813">
        <ele>482.804</ele>
        <time>2014-05-11T07:46:59Z</time>
      </trkpt>
      <trkpt lat="43.27895" lon="5.81879">
        <ele>483.997</ele>
        <time>2014-05-11T07:47:05Z</time>
      </trkpt>
      <trkpt lat="43.27914" lon="5.81929">
        <ele>483.328</ele>
        <time>2014-05-11T07:47:10Z</time>
      </trkpt>
      <trkpt lat="43.27939" lon="5.81978">
        <ele>482.909</ele>
        <time>2014-05-11T07:47:15Z</time>
      </trkpt>
      <trkpt lat="43.27978" lon="5.82031">
        <ele>480.94</ele>
        <time>2014-05-11T07:47:21Z</time>
      </trkpt>
      <trkpt lat="43.28006" lon="5.82077">
        <ele>479.23</ele>
        <time>2014-05-11T07:47:26Z</time>
      </trkpt>
      <trkpt lat="43.2803" lon="5.82142">
        <ele>478.684</ele>
        <time>2014-05-11T07:47:32Z</time>
      </trkpt>
      <trkpt lat="43.28046" lon="5.82195">
        <ele>477.216</ele>
        <time>2014-05-11T07:47:37Z</time>
      </trkpt>
      <trkpt lat="43.28064" lon="5.8225">
        <ele>475.354</ele>
        <time>2014-05-11T07:47:42Z</time>
      </trkpt>
      <trkpt lat="43.28083" lon="5.82303">
        <ele>474.7</ele>
        <time>2014-05-11T07:47:47Z</time>
      </trkpt>
      <trkpt lat="43.28104" lon="5.82362">
        <ele>472.032</ele>
        <time>2014-05-11T07:47:53Z</time>
      </trkpt>
      <trkpt lat="43.2812" lon="5.82409">
        <ele>469.035</ele>
        <time>2014-05-11T07:47:58Z</time>
      </trkpt>
      <trkpt lat="43.28129" lon="5.8246">
        <ele>468.417</ele>
        <time>2014-05-11T07:48:03Z</time>
      </trkpt>
      <trkpt lat="43.28135" lon="5.82514">
        <ele>469.791</ele>
        <time>2014-05-11T07:48:08Z</time>
      </trkpt>
      <trkpt lat="43.28152" lon="5.82564">
        <ele>467.661</ele>
        <time>2014-05-11T07:48:13Z</time>
      </trkpt>
      <trkpt lat="43.28184" lon="5.82619">
        <ele>467.996</ele>
        <time>2014-05-11T07:48:19Z</time>
      </trkpt>
      <trkpt lat="43.282" lon="5.82645">
        <ele>468.579</ele>
        <time>2014-05-11T07:48:22Z</time>
      </trkpt>
      <trkpt lat="43.28225" lon="5.82686">
        <ele>469.882</ele>
        <time>2014-05-11T07:48:27Z</time>
      </trkpt>
      <trkpt lat="43.2824" lon="5.82712">
        <ele>470.643</ele>
        <time>2014-05-11T07:48:30Z</time>
      </trkpt>
      <trkpt lat="43.2827" lon="5.82769">
        <ele>470.408</ele>
        <time>2014-05-11T07:48:36Z</time>
      </trkpt>
      <trkpt lat="43.283" lon="5.82821">
        <ele>468.914</ele>
        <time>2014-05-11T07:48:42Z</time>
      </trkpt>
      <trkpt lat="43.28329" lon="5.82876">
        <ele>463.398</ele>
        <time>2014-05-11T07:48:48Z</time>
      </trkpt>
      <trkpt lat="43.28343" lon="5.82902">
        <ele>461.047</ele>
        <time>2014-05-11T07:48:51Z</time>
      </trkpt>
      <trkpt lat="43.28361" lon="5.82961">
        <ele>460.7</ele>
        <time>2014-05-11T07:48:57Z</time>
      </trkpt>
      <trkpt lat="43.28365" lon="5.83025">
        <ele>462.386</ele>
        <time>2014-05-11T07:49:03Z</time>
      </trkpt>
      <trkpt lat="43.28367" lon="5.83056">
        <ele>465.175</ele>
        <time>2014-05-11T07:49:06Z</time>
      </trkpt>
      <trkpt lat="43.28371" lon="5.8312">
        <ele>466.961</ele>
        <time>2014-05-11T07:49:12Z</time>
      </trkpt>
      <trkpt lat="43.28373" lon="5.83183">
        <ele>466.813</ele>
        <time>2014-05-11T07:49:18Z</time>
      </trkpt>
      <trkpt lat="43.28373" lon="5.83244">
        <ele>465.755</ele>
        <time>2014-05-11T07:49:24Z</time>
      </trkpt>
      <trkpt lat="43.28374" lon="5.83306">
        <ele>465.229</ele>
        <time>2014-05-11T07:49:30Z</time>
      </trkpt>
      <trkpt lat="43.28375" lon="5.83368">
        <ele>461.882</ele>
        <time>2014-05-11T07:49:36Z</time>
      </trkpt>
      <trkpt lat="43.2838" lon="5.83417">
        <ele>459.805</ele>
        <time>2014-05-11T07:49:41Z</time>
      </trkpt>
      <trkpt lat="43.28392" lon="5.8348">
        <ele>459.314</ele>
        <time>2014-05-11T07:49:47Z</time>
      </trkpt>
      <trkpt lat="43.28399" lon="5.83512">
        <ele>459.195</ele>
        <time>2014-05-11T07:49:50Z</time>
      </trkpt>
      <trkpt lat="43.28405" lon="5.83543">
        <ele>459.396</ele>
        <time>2014-05-11T07:49:53Z</time>
      </trkpt>
      <trkpt lat="43.28412" lon="5.83575">
        <ele>459.789</ele>
        <time>2014-05-11T07:49:56Z</time>
      </trkpt>
      <trkpt lat="43.28423" lon="5.83627">
        <ele>460.493</ele>
        <time>2014-05-11T07:50:01Z</time>
      </trkpt>
      <trkpt lat="43.28435" lon="5.83691">
        <ele>461.815</ele>
        <time>2014-05-11T07:50:07Z</time>
      </trkpt>
      <trkpt lat="43.28444" lon="5.83747">
        <ele>457.419</ele>
        <time>2014-05-11T07:50:12Z</time>
      </trkpt>
      <trkpt lat="43.28451" lon="5.83804">
        <ele>456.769</ele>
        <time>2014-05-11T07:50:17Z</time>
      </trkpt>
      <trkpt lat="43.28457" lon="5.83856">
        <ele>456.301</ele>
        <time>2014-05-11T07:50:22Z</time>
      </trkpt>
      <trkpt lat="43.28462" lon="5.83923">
        <ele>457.223</ele>
        <time>2014-05-11T07:50:28Z</time>
      </trkpt>
      <trkpt lat="43.28467" lon="5.8399">
        <ele>457.644</ele>
        <time>2014-05-11T07:50:34Z</time>
      </trkpt>
      <trkpt lat="43.28474" lon="5.84057">
        <ele>457.519</ele>
        <time>2014-05-11T07:50:40Z</time>
      </trkpt>
      <trkpt lat="43.28479" lon="5.84095">
        <ele>457.456</ele>
        <time>2014-05-11T07:50:43Z</time>
      </trkpt>
      <trkpt lat="43.28488" lon="5.84154">
        <ele>453.604</ele>
        <time>2014-05-11T07:50:48Z</time>
      </trkpt>
      <trkpt lat="43.28496" lon="5.84213">
        <ele>451.768</ele>
        <time>2014-05-11T07:50:53Z</time>
      </trkpt>
      <trkpt lat="43.28504" lon="5.84278">
        <ele>450.505</ele>
        <time>2014-05-11T07:50:59Z</time>
      </trkpt>
      <trkpt lat="43.28511" lon="5.84336">
        <ele>452.259</ele>
        <time>2014-05-11T07:51:05Z</time>
      </trkpt>
      <trkpt lat="43.28516" lon="5.84382">
        <ele>452.038</ele>
        <time>2014-05-11T07:51:10Z</time>
      </trkpt>
      <trkpt lat="43.28522" lon="5.84431">
        <ele>453.562</ele>
        <time>2014-05-11T07:51:16Z</time>
      </trkpt>
      <trkpt lat="43.28524" lon="5.84478">
        <ele>456.416</ele>
        <time>2014-05-11T07:51:22Z</time>
      </trkpt>
      <trkpt lat="43.28518" lon="5.84501">
        <ele>459.298</ele>
        <time>2014-05-11T07:51:26Z</time>
      </trkpt>
      <trkpt lat="43.28509" lon="5.84522">
        <ele>459.685</ele>
        <time>2014-05-11T07:51:31Z</time>
      </trkpt>
      <trkpt lat="43.28491" lon="5.84532">
        <ele>460.865</ele>
        <time>2014-05-11T07:51:39Z</time>
      </trkpt>
      <trkpt lat="43.2847" lon="5.84515">
        <ele>461.71</ele>
        <time>2014-05-11T07:51:47Z</time>
      </trkpt>
      <trkpt lat="43.2845" lon="5.84501">
        <ele>462.607</ele>
        <time>2014-05-11T07:51:54Z</time>
      </trkpt>
      <trkpt lat="43.28434" lon="5.84481">
        <ele>463.662</ele>
        <time>2014-05-11T07:52:02Z</time>
      </trkpt>
      <trkpt lat="43.28417" lon="5.84469">
        <ele>464.554</ele>
        <time>2014-05-11T07:52:10Z</time>
      </trkpt>
      <trkpt lat="43.28417" lon="5.84469">
        <ele>464.554</ele>
        <time>2014-05-11T07:52:15Z</time>
      </trkpt>
      <trkpt lat="43.28417" lon="5.84469">
        <ele>422.4</ele>
        <time>2014-05-11T07:52:15Z</time>
      </trkpt>
      <trkpt lat="43.28417" lon="5.84469">
        <ele>422.4</ele>
        <time>2014-05-11T07:52:51Z</time>
      </trkpt>
      <trkpt lat="43.28417" lon="5.84469">
        <ele>422.4</ele>
        <time>2014-05-11T07:52:52Z</time>
      </trkpt>
      <trkpt lat="43.28417" lon="5.84469">
        <ele>422.4</ele>
        <time>2014-05-11T08:00:48Z</time>
      </trkpt>
      <trkpt lat="43.28415" lon="5.84463">
        <ele>470.172</ele>
        <time>2014-05-11T08:00:51Z</time>
      </trkpt>
      <trkpt lat="43.28401" lon="5.84463">
        <ele>471.405</ele>
        <time>2014-05-11T08:01:06Z</time>
      </trkpt>
      <trkpt lat="43.28382" lon="5.84451">
        <ele>471.129</ele>
        <time>2014-05-11T08:01:12Z</time>
      </trkpt>
      <trkpt lat="43.28354" lon="5.84434">
        <ele>463.241</ele>
        <time>2014-05-11T08:01:19Z</time>
      </trkpt>
      <trkpt lat="43.28338" lon="5.84424">
        <ele>462.864</ele>
        <time>2014-05-11T08:01:23Z</time>
      </trkpt>
      <trkpt lat="43.28312" lon="5.84407">
        <ele>467.042</ele>
        <time>2014-05-11T08:01:29Z</time>
      </trkpt>
      <trkpt lat="43.28284" lon="5.84385">
        <ele>467.553</ele>
        <time>2014-05-11T08:01:36Z</time>
      </trkpt>
      <trkpt lat="43.28262" lon="5.84374">
        <ele>468.331</ele>
        <time>2014-05-11T08:01:41Z</time>
      </trkpt>
      <trkpt lat="43.28235" lon="5.84371">
        <ele>465.895</ele>
        <time>2014-05-11T08:01:47Z</time>
      </trkpt>
      <trkpt lat="43.28219" lon="5.84372">
        <ele>464.595</ele>
        <time>2014-05-11T08:01:50Z</time>
      </trkpt>
      <trkpt lat="43.28195" lon="5.84371">
        <ele>465.082</ele>
        <time>2014-05-11T08:01:55Z</time>
      </trkpt>
      <trkpt lat="43.28169" lon="5.84372">
        <ele>468.025</ele>
        <time>2014-05-11T08:02:00Z</time>
      </trkpt>
      <trkpt lat="43.28141" lon="5.84366">
        <ele>468.156</ele>
        <time>2014-05-11T08:02:06Z</time>
      </trkpt>
      <trkpt lat="43.28128" lon="5.84357">
        <ele>469.869</ele>
        <time>2014-05-11T08:02:09Z</time>
      </trkpt>
      <trkpt lat="43.28103" lon="5.84342">
        <ele>471.544</ele>
        <time>2014-05-11T08:02:16Z</time>
      </trkpt>
      <trkpt lat="43.2808" lon="5.84335">
        <ele>473.866</ele>
        <time>2014-05-11T08:02:21Z</time>
      </trkpt>
      <trkpt lat="43.28056" lon="5.84328">
        <ele>473.625</ele>
        <time>2014-05-11T08:02:27Z</time>
      </trkpt>
      <trkpt lat="43.28034" lon="5.84323">
        <ele>474.661</ele>
        <time>2014-05-11T08:02:33Z</time>
      </trkpt>
      <trkpt lat="43.28018" lon="5.84322">
        <ele>474.59</ele>
        <time>2014-05-11T08:02:38Z</time>
      </trkpt>
      <trkpt lat="43.27998" lon="5.84328">
        <ele>474.602</ele>
        <time>2014-05-11T08:02:47Z</time>
      </trkpt>
      <trkpt lat="43.27982" lon="5.8435">
        <ele>475.413</ele>
        <time>2014-05-11T08:02:54Z</time>
      </trkpt>
      <trkpt lat="43.27975" lon="5.84379">
        <ele>474.837</ele>
        <time>2014-05-11T08:03:01Z</time>
      </trkpt>
      <trkpt lat="43.27976" lon="5.84395">
        <ele>473.946</ele>
        <time>2014-05-11T08:03:07Z</time>
      </trkpt>
      <trkpt lat="43.27989" lon="5.84373">
        <ele>470.948</ele>
        <time>2014-05-11T08:03:13Z</time>
      </trkpt>
      <trkpt lat="43.28011" lon="5.84339">
        <ele>467.437</ele>
        <time>2014-05-11T08:03:18Z</time>
      </trkpt>
      <trkpt lat="43.28041" lon="5.84323">
        <ele>466.506</ele>
        <time>2014-05-11T08:03:22Z</time>
      </trkpt>
      <trkpt lat="43.28086" lon="5.84329">
        <ele>465.791</ele>
        <time>2014-05-11T08:03:28Z</time>
      </trkpt>
      <trkpt lat="43.2811" lon="5.84334">
        <ele>465.266</ele>
        <time>2014-05-11T08:03:31Z</time>
      </trkpt>
      <trkpt lat="43.28152" lon="5.84349">
        <ele>466.839</ele>
        <time>2014-05-11T08:03:37Z</time>
      </trkpt>
      <trkpt lat="43.28181" lon="5.84354">
        <ele>465.998</ele>
        <time>2014-05-11T08:03:41Z</time>
      </trkpt>
      <trkpt lat="43.28222" lon="5.84359">
        <ele>466.281</ele>
        <time>2014-05-11T08:03:47Z</time>
      </trkpt>
      <trkpt lat="43.2824" lon="5.84361">
        <ele>463.371</ele>
        <time>2014-05-11T08:03:50Z</time>
      </trkpt>
      <trkpt lat="43.28259" lon="5.84365">
        <ele>463.598</ele>
        <time>2014-05-11T08:03:53Z</time>
      </trkpt>
      <trkpt lat="43.28289" lon="5.84377">
        <ele>462.534</ele>
        <time>2014-05-11T08:03:59Z</time>
      </trkpt>
      <trkpt lat="43.28313" lon="5.84392">
        <ele>463.045</ele>
        <time>2014-05-11T08:04:05Z</time>
      </trkpt>
      <trkpt lat="43.2834" lon="5.8441">
        <ele>466.393</ele>
        <time>2014-05-11T08:04:11Z</time>
      </trkpt>
      <trkpt lat="43.28362" lon="5.84428">
        <ele>466.956</ele>
        <time>2014-05-11T08:04:17Z</time>
      </trkpt>
      <trkpt lat="43.28383" lon="5.84443">
        <ele>465.917</ele>
        <time>2014-05-11T08:04:22Z</time>
      </trkpt>
      <trkpt lat="43.28409" lon="5.84458">
        <ele>465.795</ele>
        <time>2014-05-11T08:04:28Z</time>
      </trkpt>
      <trkpt lat="43.28437" lon="5.84478">
        <ele>469.672</ele>
        <time>2014-05-11T08:04:34Z</time>
      </trkpt>
      <trkpt lat="43.28463" lon="5.84501">
        <ele>469.858</ele>
        <time>2014-05-11T08:04:39Z</time>
      </trkpt>
      <trkpt lat="43.28496" lon="5.84528">
        <ele>468.398</ele>
        <time>2014-05-11T08:04:45Z</time>
      </trkpt>
      <trkpt lat="43.28511" lon="5.84525">
        <ele>468.892</ele>
        <time>2014-05-11T08:04:48Z</time>
      </trkpt>
      <trkpt lat="43.28524" lon="5.84499">
        <ele>466.201</ele>
        <time>2014-05-11T08:04:54Z</time>
      </trkpt>
      <trkpt lat="43.28529" lon="5.84524">
        <ele>460.333</ele>
        <time>2014-05-11T08:05:01Z</time>
      </trkpt>
      <trkpt lat="43.28534" lon="5.84566">
        <ele>453.34</ele>
        <time>2014-05-11T08:05:07Z</time>
      </trkpt>
      <trkpt lat="43.28543" lon="5.84602">
        <ele>451.264</ele>
        <time>2014-05-11T08:05:11Z</time>
      </trkpt>
      <trkpt lat="43.28549" lon="5.8463">
        <ele>449.738</ele>
        <time>2014-05-11T08:05:14Z</time>
      </trkpt>
      <trkpt lat="43.28558" lon="5.84683">
        <ele>450.077</ele>
        <time>2014-05-11T08:05:19Z</time>
      </trkpt>
      <trkpt lat="43.28591" lon="5.84743">
        <ele>452.148</ele>
        <time>2014-05-11T08:05:25Z</time>
      </trkpt>
      <trkpt lat="43.28615" lon="5.84755">
        <ele>451.62</ele>
        <time>2014-05-11T08:05:28Z</time>
      </trkpt>
      <trkpt lat="43.28646" lon="5.84758">
        <ele>449.791</ele>
        <time>2014-05-11T08:05:31Z</time>
      </trkpt>
      <trkpt lat="43.28697" lon="5.84787">
        <ele>449.212</ele>
        <time>2014-05-11T08:05:36Z</time>
      </trkpt>
      <trkpt lat="43.28728" lon="5.84856">
        <ele>448.281</ele>
        <time>2014-05-11T08:05:42Z</time>
      </trkpt>
      <trkpt lat="43.28736" lon="5.84895">
        <ele>446.67</ele>
        <time>2014-05-11T08:05:45Z</time>
      </trkpt>
      <trkpt lat="43.28745" lon="5.84962">
        <ele>441.926</ele>
        <time>2014-05-11T08:05:51Z</time>
      </trkpt>
      <trkpt lat="43.28768" lon="5.85017">
        <ele>439.82</ele>
        <time>2014-05-11T08:05:57Z</time>
      </trkpt>
      <trkpt lat="43.28794" lon="5.85092">
        <ele>440.803</ele>
        <time>2014-05-11T08:06:03Z</time>
      </trkpt>
      <trkpt lat="43.28806" lon="5.85181">
        <ele>440.543</ele>
        <time>2014-05-11T08:06:09Z</time>
      </trkpt>
      <trkpt lat="43.28808" lon="5.8526">
        <ele>434.952</ele>
        <time>2014-05-11T08:06:15Z</time>
      </trkpt>
      <trkpt lat="43.28828" lon="5.85297">
        <ele>436.778</ele>
        <time>2014-05-11T08:06:19Z</time>
      </trkpt>
      <trkpt lat="43.28841" lon="5.85366">
        <ele>431.144</ele>
        <time>2014-05-11T08:06:25Z</time>
      </trkpt>
      <trkpt lat="43.2886" lon="5.85452">
        <ele>429.501</ele>
        <time>2014-05-11T08:06:31Z</time>
      </trkpt>
      <trkpt lat="43.28902" lon="5.85535">
        <ele>431.979</ele>
        <time>2014-05-11T08:06:37Z</time>
      </trkpt>
      <trkpt lat="43.28951" lon="5.8562">
        <ele>431.091</ele>
        <time>2014-05-11T08:06:43Z</time>
      </trkpt>
      <trkpt lat="43.28991" lon="5.85701">
        <ele>418.987</ele>
        <time>2014-05-11T08:06:49Z</time>
      </trkpt>
      <trkpt lat="43.29001" lon="5.85774">
        <ele>410.746</ele>
        <time>2014-05-11T08:06:54Z</time>
      </trkpt>
      <trkpt lat="43.29009" lon="5.85848">
        <ele>406.571</ele>
        <time>2014-05-11T08:06:59Z</time>
      </trkpt>
      <trkpt lat="43.29016" lon="5.85889">
        <ele>405.07</ele>
        <time>2014-05-11T08:07:02Z</time>
      </trkpt>
      <trkpt lat="43.29027" lon="5.85955">
        <ele>403.612</ele>
        <time>2014-05-11T08:07:07Z</time>
      </trkpt>
      <trkpt lat="43.29017" lon="5.8601">
        <ele>401.497</ele>
        <time>2014-05-11T08:07:12Z</time>
      </trkpt>
      <trkpt lat="43.29011" lon="5.86079">
        <ele>396.304</ele>
        <time>2014-05-11T08:07:17Z</time>
      </trkpt>
      <trkpt lat="43.29006" lon="5.86163">
        <ele>391.782</ele>
        <time>2014-05-11T08:07:23Z</time>
      </trkpt>
      <trkpt lat="43.29009" lon="5.86219">
        <ele>385.918</ele>
        <time>2014-05-11T08:07:29Z</time>
      </trkpt>
      <trkpt lat="43.29015" lon="5.86264">
        <ele>383.899</ele>
        <time>2014-05-11T08:07:34Z</time>
      </trkpt>
      <trkpt lat="43.29023" lon="5.86311">
        <ele>379.216</ele>
        <time>2014-05-11T08:07:40Z</time>
      </trkpt>
      <trkpt lat="43.29028" lon="5.86347">
        <ele>381.447</ele>
        <time>2014-05-11T08:07:45Z</time>
      </trkpt>
      <trkpt lat="43.29029" lon="5.86365">
        <ele>382.905</ele>
        <time>2014-05-11T08:07:48Z</time>
      </trkpt>
      <trkpt lat="43.29029" lon="5.86365">
        <ele>342.1</ele>
        <time>2014-05-11T08:07:54Z</time>
      </trkpt>
      <trkpt lat="43.29029" lon="5.86365">
        <ele>342.1</ele>
        <time>2014-05-11T08:08:13Z</time>
      </trkpt>
      <trkpt lat="43.29029" lon="5.86365">
        <ele>342.1</ele>
        <time>2014-05-11T08:08:15Z</time>
      </trkpt>
      <trkpt lat="43.29029" lon="5.86365">
        <ele>342.1</ele>
        <time>2014-05-11T08:33:34Z</time>
      </trkpt>
      <trkpt lat="43.29062" lon="5.86361">
        <ele>398.271</ele>
        <time>2014-05-11T08:33:36Z</time>
      </trkpt>
      <trkpt lat="43.29034" lon="5.86372">
        <ele>398.18</ele>
        <time>2014-05-11T08:34:16Z</time>
      </trkpt>
      <trkpt lat="43.29044" lon="5.86437">
        <ele>398.05</ele>
        <time>2014-05-11T08:34:28Z</time>
      </trkpt>
      <trkpt lat="43.29049" lon="5.86476">
        <ele>394.651</ele>
        <time>2014-05-11T08:34:34Z</time>
      </trkpt>
      <trkpt lat="43.29055" lon="5.86518">
        <ele>392.779</ele>
        <time>2014-05-11T08:34:40Z</time>
      </trkpt>
      <trkpt lat="43.2906" lon="5.86558">
        <ele>392.931</ele>
        <time>2014-05-11T08:34:45Z</time>
      </trkpt>
      <trkpt lat="43.29057" lon="5.86595">
        <ele>391.987</ele>
        <time>2014-05-11T08:34:50Z</time>
      </trkpt>
      <trkpt lat="43.29054" lon="5.86634">
        <ele>394.978</ele>
        <time>2014-05-11T08:34:55Z</time>
      </trkpt>
      <trkpt lat="43.29048" lon="5.86698">
        <ele>394.825</ele>
        <time>2014-05-11T08:35:01Z</time>
      </trkpt>
      <trkpt lat="43.29052" lon="5.86754">
        <ele>392.873</ele>
        <time>2014-05-11T08:35:06Z</time>
      </trkpt>
      <trkpt lat="43.29048" lon="5.86806">
        <ele>392.833</ele>
        <time>2014-05-11T08:35:11Z</time>
      </trkpt>
      <trkpt lat="43.29042" lon="5.86863">
        <ele>392.651</ele>
        <time>2014-05-11T08:35:16Z</time>
      </trkpt>
      <trkpt lat="43.29032" lon="5.86926">
        <ele>390.347</ele>
        <time>2014-05-11T08:35:21Z</time>
      </trkpt>
      <trkpt lat="43.29016" lon="5.87006">
        <ele>387.584</ele>
        <time>2014-05-11T08:35:27Z</time>
      </trkpt>
      <trkpt lat="43.29003" lon="5.8704">
        <ele>385.582</ele>
        <time>2014-05-11T08:35:30Z</time>
      </trkpt>
      <trkpt lat="43.28967" lon="5.87094">
        <ele>384.36</ele>
        <time>2014-05-11T08:35:35Z</time>
      </trkpt>
      <trkpt lat="43.28941" lon="5.87139">
        <ele>381.693</ele>
        <time>2014-05-11T08:35:41Z</time>
      </trkpt>
      <trkpt lat="43.28937" lon="5.87194">
        <ele>381.389</ele>
        <time>2014-05-11T08:35:46Z</time>
      </trkpt>
      <trkpt lat="43.28927" lon="5.87254">
        <ele>380.083</ele>
        <time>2014-05-11T08:35:51Z</time>
      </trkpt>
      <trkpt lat="43.2892" lon="5.87293">
        <ele>377.954</ele>
        <time>2014-05-11T08:35:54Z</time>
      </trkpt>
      <trkpt lat="43.28913" lon="5.8733">
        <ele>376.574</ele>
        <time>2014-05-11T08:35:57Z</time>
      </trkpt>
      <trkpt lat="43.28906" lon="5.8737">
        <ele>376.23</ele>
        <time>2014-05-11T08:36:00Z</time>
      </trkpt>
      <trkpt lat="43.28891" lon="5.87433">
        <ele>377.5</ele>
        <time>2014-05-11T08:36:05Z</time>
      </trkpt>
      <trkpt lat="43.28878" lon="5.87496">
        <ele>377.107</ele>
        <time>2014-05-11T08:36:10Z</time>
      </trkpt>
      <trkpt lat="43.28864" lon="5.8757">
        <ele>375.471</ele>
        <time>2014-05-11T08:36:16Z</time>
      </trkpt>
      <trkpt lat="43.28855" lon="5.87629">
        <ele>373.236</ele>
        <time>2014-05-11T08:36:21Z</time>
      </trkpt>
      <trkpt lat="43.2885" lon="5.87665">
        <ele>371.326</ele>
        <time>2014-05-11T08:36:24Z</time>
      </trkpt>
      <trkpt lat="43.28845" lon="5.87701">
        <ele>370.46</ele>
        <time>2014-05-11T08:36:27Z</time>
      </trkpt>
      <trkpt lat="43.28841" lon="5.87735">
        <ele>368.979</ele>
        <time>2014-05-11T08:36:30Z</time>
      </trkpt>
      <trkpt lat="43.2883" lon="5.87803">
        <ele>368.625</ele>
        <time>2014-05-11T08:36:36Z</time>
      </trkpt>
      <trkpt lat="43.2882" lon="5.8786">
        <ele>366.897</ele>
        <time>2014-05-11T08:36:41Z</time>
      </trkpt>
      <trkpt lat="43.28812" lon="5.87914">
        <ele>366.247</ele>
        <time>2014-05-11T08:36:46Z</time>
      </trkpt>
      <trkpt lat="43.28802" lon="5.87968">
        <ele>367.423</ele>
        <time>2014-05-11T08:36:51Z</time>
      </trkpt>
      <trkpt lat="43.2879" lon="5.88034">
        <ele>367.887</ele>
        <time>2014-05-11T08:36:57Z</time>
      </trkpt>
      <trkpt lat="43.28785" lon="5.88066">
        <ele>368.063</ele>
        <time>2014-05-11T08:37:00Z</time>
      </trkpt>
      <trkpt lat="43.2878" lon="5.88099">
        <ele>367.247</ele>
        <time>2014-05-11T08:37:03Z</time>
      </trkpt>
      <trkpt lat="43.2877" lon="5.88163">
        <ele>367.63</ele>
        <time>2014-05-11T08:37:09Z</time>
      </trkpt>
      <trkpt lat="43.28759" lon="5.88227">
        <ele>367.641</ele>
        <time>2014-05-11T08:37:15Z</time>
      </trkpt>
      <trkpt lat="43.28751" lon="5.88282">
        <ele>367.597</ele>
        <time>2014-05-11T08:37:20Z</time>
      </trkpt>
      <trkpt lat="43.2874" lon="5.88346">
        <ele>367.051</ele>
        <time>2014-05-11T08:37:26Z</time>
      </trkpt>
      <trkpt lat="43.28734" lon="5.88377">
        <ele>367.568</ele>
        <time>2014-05-11T08:37:29Z</time>
      </trkpt>
      <trkpt lat="43.28726" lon="5.88429">
        <ele>366</ele>
        <time>2014-05-11T08:37:34Z</time>
      </trkpt>
      <trkpt lat="43.28721" lon="5.88493">
        <ele>364.689</ele>
        <time>2014-05-11T08:37:40Z</time>
      </trkpt>
      <trkpt lat="43.28723" lon="5.88546">
        <ele>366.425</ele>
        <time>2014-05-11T08:37:45Z</time>
      </trkpt>
      <trkpt lat="43.2873" lon="5.88606">
        <ele>365.756</ele>
        <time>2014-05-11T08:37:51Z</time>
      </trkpt>
      <trkpt lat="43.28734" lon="5.88638">
        <ele>364.909</ele>
        <time>2014-05-11T08:37:54Z</time>
      </trkpt>
      <trkpt lat="43.28738" lon="5.88696">
        <ele>366.556</ele>
        <time>2014-05-11T08:38:00Z</time>
      </trkpt>
      <trkpt lat="43.28741" lon="5.88754">
        <ele>366.986</ele>
        <time>2014-05-11T08:38:06Z</time>
      </trkpt>
      <trkpt lat="43.28742" lon="5.88785">
        <ele>364.94</ele>
        <time>2014-05-11T08:38:09Z</time>
      </trkpt>
      <trkpt lat="43.2874" lon="5.88832">
        <ele>364.647</ele>
        <time>2014-05-11T08:38:14Z</time>
      </trkpt>
      <trkpt lat="43.28735" lon="5.88859">
        <ele>366.026</ele>
        <time>2014-05-11T08:38:17Z</time>
      </trkpt>
      <trkpt lat="43.28729" lon="5.88887">
        <ele>365.534</ele>
        <time>2014-05-11T08:38:20Z</time>
      </trkpt>
      <trkpt lat="43.28717" lon="5.88931">
        <ele>364.752</ele>
        <time>2014-05-11T08:38:25Z</time>
      </trkpt>
      <trkpt lat="43.28703" lon="5.88981">
        <ele>365.293</ele>
        <time>2014-05-11T08:38:31Z</time>
      </trkpt>
      <trkpt lat="43.28692" lon="5.89023">
        <ele>364.753</ele>
        <time>2014-05-11T08:38:36Z</time>
      </trkpt>
      <trkpt lat="43.2868" lon="5.89068">
        <ele>363.518</ele>
        <time>2014-05-11T08:38:41Z</time>
      </trkpt>
      <trkpt lat="43.28661" lon="5.89119">
        <ele>364.367</ele>
        <time>2014-05-11T08:38:47Z</time>
      </trkpt>
      <trkpt lat="43.28635" lon="5.89156">
        <ele>362.486</ele>
        <time>2014-05-11T08:38:52Z</time>
      </trkpt>
      <trkpt lat="43.28601" lon="5.89192">
        <ele>361.278</ele>
        <time>2014-05-11T08:38:58Z</time>
      </trkpt>
      <trkpt lat="43.28574" lon="5.8922">
        <ele>361.652</ele>
        <time>2014-05-11T08:39:03Z</time>
      </trkpt>
      <trkpt lat="43.28552" lon="5.8925">
        <ele>362.926</ele>
        <time>2014-05-11T08:39:08Z</time>
      </trkpt>
      <trkpt lat="43.2854" lon="5.89293">
        <ele>365.384</ele>
        <time>2014-05-11T08:39:13Z</time>
      </trkpt>
      <trkpt lat="43.28534" lon="5.89321">
        <ele>365.759</ele>
        <time>2014-05-11T08:39:16Z</time>
      </trkpt>
      <trkpt lat="43.28514" lon="5.89368">
        <ele>364.828</ele>
        <time>2014-05-11T08:39:22Z</time>
      </trkpt>
      <trkpt lat="43.28488" lon="5.89404">
        <ele>363.725</ele>
        <time>2014-05-11T08:39:27Z</time>
      </trkpt>
      <trkpt lat="43.28471" lon="5.89423">
        <ele>362.404</ele>
        <time>2014-05-11T08:39:30Z</time>
      </trkpt>
      <trkpt lat="43.28445" lon="5.89447">
        <ele>363.913</ele>
        <time>2014-05-11T08:39:35Z</time>
      </trkpt>
      <trkpt lat="43.28432" lon="5.89462">
        <ele>363.839</ele>
        <time>2014-05-11T08:39:38Z</time>
      </trkpt>
      <trkpt lat="43.28418" lon="5.89479">
        <ele>364.197</ele>
        <time>2014-05-11T08:39:41Z</time>
      </trkpt>
      <trkpt lat="43.28398" lon="5.89509">
        <ele>363.641</ele>
        <time>2014-05-11T08:39:46Z</time>
      </trkpt>
      <trkpt lat="43.28381" lon="5.89551">
        <ele>365.939</ele>
        <time>2014-05-11T08:39:52Z</time>
      </trkpt>
      <trkpt lat="43.28369" lon="5.89595">
        <ele>369.161</ele>
        <time>2014-05-11T08:39:58Z</time>
      </trkpt>
      <trkpt lat="43.28361" lon="5.8963">
        <ele>371.891</ele>
        <time>2014-05-11T08:40:03Z</time>
      </trkpt>
      <trkpt lat="43.28357" lon="5.89652">
        <ele>372.211</ele>
        <time>2014-05-11T08:40:06Z</time>
      </trkpt>
      <trkpt lat="43.28344" lon="5.89703">
        <ele>373.071</ele>
        <time>2014-05-11T08:40:12Z</time>
      </trkpt>
      <trkpt lat="43.28325" lon="5.8975">
        <ele>374.186</ele>
        <time>2014-05-11T08:40:18Z</time>
      </trkpt>
      <trkpt lat="43.28308" lon="5.89801">
        <ele>373.822</ele>
        <time>2014-05-11T08:40:24Z</time>
      </trkpt>
      <trkpt lat="43.28299" lon="5.89846">
        <ele>372.926</ele>
        <time>2014-05-11T08:40:29Z</time>
      </trkpt>
      <trkpt lat="43.28277" lon="5.8989">
        <ele>370.201</ele>
        <time>2014-05-11T08:40:35Z</time>
      </trkpt>
      <trkpt lat="43.28246" lon="5.89925">
        <ele>365.667</ele>
        <time>2014-05-11T08:40:41Z</time>
      </trkpt>
      <trkpt lat="43.28233" lon="5.8994">
        <ele>365.016</ele>
        <time>2014-05-11T08:40:44Z</time>
      </trkpt>
      <trkpt lat="43.28211" lon="5.89967">
        <ele>363.485</ele>
        <time>2014-05-11T08:40:49Z</time>
      </trkpt>
      <trkpt lat="43.2819" lon="5.89999">
        <ele>363.743</ele>
        <time>2014-05-11T08:40:54Z</time>
      </trkpt>
      <trkpt lat="43.28175" lon="5.90036">
        <ele>365.393</ele>
        <time>2014-05-11T08:40:59Z</time>
      </trkpt>
      <trkpt lat="43.28161" lon="5.90089">
        <ele>367.844</ele>
        <time>2014-05-11T08:41:05Z</time>
      </trkpt>
      <trkpt lat="43.28138" lon="5.90133">
        <ele>367.64</ele>
        <time>2014-05-11T08:41:11Z</time>
      </trkpt>
      <trkpt lat="43.2812" lon="5.90156">
        <ele>367.023</ele>
        <time>2014-05-11T08:41:14Z</time>
      </trkpt>
      <trkpt lat="43.28096" lon="5.90186">
        <ele>364.664</ele>
        <time>2014-05-11T08:41:19Z</time>
      </trkpt>
      <trkpt lat="43.2808" lon="5.90223">
        <ele>362.935</ele>
        <time>2014-05-11T08:41:24Z</time>
      </trkpt>
      <trkpt lat="43.28069" lon="5.90264">
        <ele>364.132</ele>
        <time>2014-05-11T08:41:29Z</time>
      </trkpt>
      <trkpt lat="43.28059" lon="5.90315">
        <ele>365.145</ele>
        <time>2014-05-11T08:41:35Z</time>
      </trkpt>
      <trkpt lat="43.28045" lon="5.90368">
        <ele>366.423</ele>
        <time>2014-05-11T08:41:41Z</time>
      </trkpt>
      <trkpt lat="43.28037" lon="5.90393">
        <ele>365.984</ele>
        <time>2014-05-11T08:41:44Z</time>
      </trkpt>
      <trkpt lat="43.28024" lon="5.90436">
        <ele>366.696</ele>
        <time>2014-05-11T08:41:49Z</time>
      </trkpt>
      <trkpt lat="43.28013" lon="5.90475">
        <ele>366.978</ele>
        <time>2014-05-11T08:41:54Z</time>
      </trkpt>
      <trkpt lat="43.2801" lon="5.905">
        <ele>366.793</ele>
        <time>2014-05-11T08:41:57Z</time>
      </trkpt>
      <trkpt lat="43.28007" lon="5.9055">
        <ele>367.977</ele>
        <time>2014-05-11T08:42:03Z</time>
      </trkpt>
      <trkpt lat="43.28004" lon="5.90596">
        <ele>368.34</ele>
        <time>2014-05-11T08:42:09Z</time>
      </trkpt>
      <trkpt lat="43.27995" lon="5.90634">
        <ele>366.707</ele>
        <time>2014-05-11T08:42:15Z</time>
      </trkpt>
      <trkpt lat="43.27986" lon="5.9066">
        <ele>366.81</ele>
        <time>2014-05-11T08:42:20Z</time>
      </trkpt>
      <trkpt lat="43.2798" lon="5.90686">
        <ele>368.191</ele>
        <time>2014-05-11T08:42:25Z</time>
      </trkpt>
      <trkpt lat="43.27971" lon="5.90729">
        <ele>367.055</ele>
        <time>2014-05-11T08:42:32Z</time>
      </trkpt>
      <trkpt lat="43.27964" lon="5.90762">
        <ele>368.187</ele>
        <time>2014-05-11T08:42:37Z</time>
      </trkpt>
      <trkpt lat="43.27954" lon="5.90809">
        <ele>370.017</ele>
        <time>2014-05-11T08:42:43Z</time>
      </trkpt>
      <trkpt lat="43.27949" lon="5.90832">
        <ele>371.515</ele>
        <time>2014-05-11T08:42:46Z</time>
      </trkpt>
      <trkpt lat="43.27932" lon="5.90874">
        <ele>373.761</ele>
        <time>2014-05-11T08:42:52Z</time>
      </trkpt>
      <trkpt lat="43.27899" lon="5.9087">
        <ele>374.461</ele>
        <time>2014-05-11T08:42:57Z</time>
      </trkpt>
      <trkpt lat="43.27872" lon="5.90892">
        <ele>374.274</ele>
        <time>2014-05-11T08:43:03Z</time>
      </trkpt>
      <trkpt lat="43.27866" lon="5.90919">
        <ele>372.066</ele>
        <time>2014-05-11T08:43:07Z</time>
      </trkpt>
      <trkpt lat="43.27863" lon="5.90945">
        <ele>370.441</ele>
        <time>2014-05-11T08:43:10Z</time>
      </trkpt>
      <trkpt lat="43.27859" lon="5.9097">
        <ele>369.461</ele>
        <time>2014-05-11T08:43:13Z</time>
      </trkpt>
      <trkpt lat="43.27849" lon="5.90993">
        <ele>367.674</ele>
        <time>2014-05-11T08:43:16Z</time>
      </trkpt>
      <trkpt lat="43.27827" lon="5.91034">
        <ele>366.848</ele>
        <time>2014-05-11T08:43:21Z</time>
      </trkpt>
      <trkpt lat="43.27783" lon="5.91066">
        <ele>364.02</ele>
        <time>2014-05-11T08:43:27Z</time>
      </trkpt>
      <trkpt lat="43.27759" lon="5.91074">
        <ele>362.601</ele>
        <time>2014-05-11T08:43:30Z</time>
      </trkpt>
      <trkpt lat="43.27722" lon="5.91108">
        <ele>361.518</ele>
        <time>2014-05-11T08:43:35Z</time>
      </trkpt>
      <trkpt lat="43.27695" lon="5.91164">
        <ele>359.585</ele>
        <time>2014-05-11T08:43:40Z</time>
      </trkpt>
      <trkpt lat="43.27671" lon="5.91225">
        <ele>357.204</ele>
        <time>2014-05-11T08:43:45Z</time>
      </trkpt>
      <trkpt lat="43.27652" lon="5.9128">
        <ele>356.718</ele>
        <time>2014-05-11T08:43:50Z</time>
      </trkpt>
      <trkpt lat="43.2764" lon="5.91312">
        <ele>357.211</ele>
        <time>2014-05-11T08:43:53Z</time>
      </trkpt>
      <trkpt lat="43.2763" lon="5.91342">
        <ele>358.093</ele>
        <time>2014-05-11T08:43:56Z</time>
      </trkpt>
      <trkpt lat="43.27603" lon="5.91386">
        <ele>357.69</ele>
        <time>2014-05-11T08:44:01Z</time>
      </trkpt>
      <trkpt lat="43.27586" lon="5.91405">
        <ele>356.992</ele>
        <time>2014-05-11T08:44:04Z</time>
      </trkpt>
      <trkpt lat="43.27558" lon="5.91439">
        <ele>353.292</ele>
        <time>2014-05-11T08:44:09Z</time>
      </trkpt>
      <trkpt lat="43.27524" lon="5.91478">
        <ele>351.447</ele>
        <time>2014-05-11T08:44:15Z</time>
      </trkpt>
      <trkpt lat="43.27506" lon="5.91496">
        <ele>351.158</ele>
        <time>2014-05-11T08:44:18Z</time>
      </trkpt>
      <trkpt lat="43.27472" lon="5.91524">
        <ele>350.043</ele>
        <time>2014-05-11T08:44:24Z</time>
      </trkpt>
      <trkpt lat="43.27449" lon="5.91547">
        <ele>353.739</ele>
        <time>2014-05-11T08:44:29Z</time>
      </trkpt>
      <trkpt lat="43.27429" lon="5.91581">
        <ele>354.337</ele>
        <time>2014-05-11T08:44:35Z</time>
      </trkpt>
      <trkpt lat="43.27411" lon="5.91638">
        <ele>353.807</ele>
        <time>2014-05-11T08:44:42Z</time>
      </trkpt>
      <trkpt lat="43.27406" lon="5.91686">
        <ele>354.292</ele>
        <time>2014-05-11T08:44:47Z</time>
      </trkpt>
      <trkpt lat="43.27406" lon="5.91737">
        <ele>351.692</ele>
        <time>2014-05-11T08:44:52Z</time>
      </trkpt>
      <trkpt lat="43.27416" lon="5.9177">
        <ele>351.542</ele>
        <time>2014-05-11T08:44:55Z</time>
      </trkpt>
      <trkpt lat="43.27437" lon="5.91806">
        <ele>351.718</ele>
        <time>2014-05-11T08:44:59Z</time>
      </trkpt>
      <trkpt lat="43.27469" lon="5.91863">
        <ele>348.788</ele>
        <time>2014-05-11T08:45:05Z</time>
      </trkpt>
      <trkpt lat="43.27474" lon="5.91919">
        <ele>348.448</ele>
        <time>2014-05-11T08:45:10Z</time>
      </trkpt>
      <trkpt lat="43.27462" lon="5.91946">
        <ele>348.537</ele>
        <time>2014-05-11T08:45:13Z</time>
      </trkpt>
      <trkpt lat="43.27449" lon="5.91969">
        <ele>347.557</ele>
        <time>2014-05-11T08:45:16Z</time>
      </trkpt>
      <trkpt lat="43.2744" lon="5.91996">
        <ele>345.955</ele>
        <time>2014-05-11T08:45:19Z</time>
      </trkpt>
      <trkpt lat="43.27458" lon="5.92057">
        <ele>342.569</ele>
        <time>2014-05-11T08:45:26Z</time>
      </trkpt>
      <trkpt lat="43.27479" lon="5.92108">
        <ele>341.183</ele>
        <time>2014-05-11T08:45:32Z</time>
      </trkpt>
      <trkpt lat="43.27486" lon="5.9216">
        <ele>343.334</ele>
        <time>2014-05-11T08:45:38Z</time>
      </trkpt>
      <trkpt lat="43.27486" lon="5.92183">
        <ele>342.782</ele>
        <time>2014-05-11T08:45:41Z</time>
      </trkpt>
      <trkpt lat="43.27506" lon="5.92215">
        <ele>344.924</ele>
        <time>2014-05-11T08:45:46Z</time>
      </trkpt>
      <trkpt lat="43.27525" lon="5.92227">
        <ele>347.954</ele>
        <time>2014-05-11T08:45:49Z</time>
      </trkpt>
      <trkpt lat="43.27552" lon="5.92244">
        <ele>348.888</ele>
        <time>2014-05-11T08:45:53Z</time>
      </trkpt>
      <trkpt lat="43.27577" lon="5.92297">
        <ele>347.586</ele>
        <time>2014-05-11T08:45:59Z</time>
      </trkpt>
      <trkpt lat="43.27586" lon="5.92352">
        <ele>347.675</ele>
        <time>2014-05-11T08:46:04Z</time>
      </trkpt>
      <trkpt lat="43.27574" lon="5.92419">
        <ele>349.506</ele>
        <time>2014-05-11T08:46:10Z</time>
      </trkpt>
      <trkpt lat="43.27548" lon="5.92484">
        <ele>345.887</ele>
        <time>2014-05-11T08:46:16Z</time>
      </trkpt>
      <trkpt lat="43.27539" lon="5.92539">
        <ele>341.797</ele>
        <time>2014-05-11T08:46:21Z</time>
      </trkpt>
      <trkpt lat="43.27542" lon="5.92607">
        <ele>340.886</ele>
        <time>2014-05-11T08:46:27Z</time>
      </trkpt>
      <trkpt lat="43.27545" lon="5.92671">
        <ele>338.866</ele>
        <time>2014-05-11T08:46:33Z</time>
      </trkpt>
      <trkpt lat="43.2754" lon="5.92731">
        <ele>338.512</ele>
        <time>2014-05-11T08:46:38Z</time>
      </trkpt>
      <trkpt lat="43.27546" lon="5.92797">
        <ele>336.641</ele>
        <time>2014-05-11T08:46:44Z</time>
      </trkpt>
      <trkpt lat="43.27557" lon="5.92835">
        <ele>336.18</ele>
        <time>2014-05-11T08:46:48Z</time>
      </trkpt>
      <trkpt lat="43.27565" lon="5.92888">
        <ele>332.311</ele>
        <time>2014-05-11T08:46:53Z</time>
      </trkpt>
      <trkpt lat="43.27564" lon="5.92945">
        <ele>327.534</ele>
        <time>2014-05-11T08:46:58Z</time>
      </trkpt>
      <trkpt lat="43.27556" lon="5.93005">
        <ele>327.414</ele>
        <time>2014-05-11T08:47:04Z</time>
      </trkpt>
      <trkpt lat="43.27532" lon="5.93072">
        <ele>329.406</ele>
        <time>2014-05-11T08:47:11Z</time>
      </trkpt>
      <trkpt lat="43.27508" lon="5.93129">
        <ele>332.63</ele>
        <time>2014-05-11T08:47:17Z</time>
      </trkpt>
      <trkpt lat="43.27497" lon="5.93155">
        <ele>333.41</ele>
        <time>2014-05-11T08:47:20Z</time>
      </trkpt>
      <trkpt lat="43.27487" lon="5.93183">
        <ele>335.333</ele>
        <time>2014-05-11T08:47:23Z</time>
      </trkpt>
      <trkpt lat="43.27477" lon="5.93211">
        <ele>334.716</ele>
        <time>2014-05-11T08:47:26Z</time>
      </trkpt>
      <trkpt lat="43.27456" lon="5.9327">
        <ele>336.462</ele>
        <time>2014-05-11T08:47:32Z</time>
      </trkpt>
      <trkpt lat="43.27436" lon="5.93315">
        <ele>335.443</ele>
        <time>2014-05-11T08:47:37Z</time>
      </trkpt>
      <trkpt lat="43.27407" lon="5.93376">
        <ele>333.938</ele>
        <time>2014-05-11T08:47:43Z</time>
      </trkpt>
      <trkpt lat="43.27381" lon="5.93425">
        <ele>332.232</ele>
        <time>2014-05-11T08:47:48Z</time>
      </trkpt>
      <trkpt lat="43.27364" lon="5.9349">
        <ele>330.481</ele>
        <time>2014-05-11T08:47:54Z</time>
      </trkpt>
      <trkpt lat="43.27358" lon="5.9352">
        <ele>331.137</ele>
        <time>2014-05-11T08:47:57Z</time>
      </trkpt>
      <trkpt lat="43.27352" lon="5.93547">
        <ele>332.22</ele>
        <time>2014-05-11T08:48:00Z</time>
      </trkpt>
      <trkpt lat="43.27341" lon="5.93569">
        <ele>332.388</ele>
        <time>2014-05-11T08:48:03Z</time>
      </trkpt>
      <trkpt lat="43.2732" lon="5.93617">
        <ele>332.332</ele>
        <time>2014-05-11T08:48:09Z</time>
      </trkpt>
      <trkpt lat="43.27311" lon="5.93644">
        <ele>332.942</ele>
        <time>2014-05-11T08:48:12Z</time>
      </trkpt>
      <trkpt lat="43.27303" lon="5.9367">
        <ele>332.772</ele>
        <time>2014-05-11T08:48:15Z</time>
      </trkpt>
      <trkpt lat="43.27297" lon="5.93699">
        <ele>333.391</ele>
        <time>2014-05-11T08:48:18Z</time>
      </trkpt>
      <trkpt lat="43.27291" lon="5.93733">
        <ele>330.823</ele>
        <time>2014-05-11T08:48:21Z</time>
      </trkpt>
      <trkpt lat="43.27286" lon="5.93763">
        <ele>327.722</ele>
        <time>2014-05-11T08:48:24Z</time>
      </trkpt>
      <trkpt lat="43.27279" lon="5.9381">
        <ele>324.313</ele>
        <time>2014-05-11T08:48:29Z</time>
      </trkpt>
      <trkpt lat="43.27277" lon="5.93867">
        <ele>324.446</ele>
        <time>2014-05-11T08:48:35Z</time>
      </trkpt>
      <trkpt lat="43.27274" lon="5.93896">
        <ele>324.251</ele>
        <time>2014-05-11T08:48:38Z</time>
      </trkpt>
      <trkpt lat="43.27265" lon="5.93955">
        <ele>326.918</ele>
        <time>2014-05-11T08:48:44Z</time>
      </trkpt>
      <trkpt lat="43.27255" lon="5.94004">
        <ele>328.316</ele>
        <time>2014-05-11T08:48:49Z</time>
      </trkpt>
      <trkpt lat="43.27243" lon="5.94053">
        <ele>328.309</ele>
        <time>2014-05-11T08:48:54Z</time>
      </trkpt>
      <trkpt lat="43.27237" lon="5.94085">
        <ele>327.492</ele>
        <time>2014-05-11T08:48:57Z</time>
      </trkpt>
      <trkpt lat="43.27234" lon="5.9411">
        <ele>326.339</ele>
        <time>2014-05-11T08:49:00Z</time>
      </trkpt>
      <trkpt lat="43.27243" lon="5.94147">
        <ele>325.228</ele>
        <time>2014-05-11T08:49:05Z</time>
      </trkpt>
      <trkpt lat="43.27254" lon="5.94194">
        <ele>323.299</ele>
        <time>2014-05-11T08:49:11Z</time>
      </trkpt>
      <trkpt lat="43.27253" lon="5.94218">
        <ele>322.317</ele>
        <time>2014-05-11T08:49:14Z</time>
      </trkpt>
      <trkpt lat="43.27228" lon="5.94249">
        <ele>321.479</ele>
        <time>2014-05-11T08:49:20Z</time>
      </trkpt>
      <trkpt lat="43.27212" lon="5.94254">
        <ele>320.793</ele>
        <time>2014-05-11T08:49:23Z</time>
      </trkpt>
      <trkpt lat="43.27195" lon="5.94254">
        <ele>320.365</ele>
        <time>2014-05-11T08:49:26Z</time>
      </trkpt>
      <trkpt lat="43.2716" lon="5.94234">
        <ele>319.004</ele>
        <time>2014-05-11T08:49:32Z</time>
      </trkpt>
      <trkpt lat="43.27134" lon="5.94199">
        <ele>318.618</ele>
        <time>2014-05-11T08:49:38Z</time>
      </trkpt>
      <trkpt lat="43.27098" lon="5.94184">
        <ele>319.313</ele>
        <time>2014-05-11T08:49:44Z</time>
      </trkpt>
      <trkpt lat="43.27061" lon="5.94182">
        <ele>318.186</ele>
        <time>2014-05-11T08:49:50Z</time>
      </trkpt>
      <trkpt lat="43.27017" lon="5.94179">
        <ele>321.914</ele>
        <time>2014-05-11T08:49:57Z</time>
      </trkpt>
      <trkpt lat="43.2699" lon="5.94202">
        <ele>321.022</ele>
        <time>2014-05-11T08:50:02Z</time>
      </trkpt>
      <trkpt lat="43.26962" lon="5.94248">
        <ele>318.439</ele>
        <time>2014-05-11T08:50:08Z</time>
      </trkpt>
      <trkpt lat="43.26928" lon="5.9429">
        <ele>313.956</ele>
        <time>2014-05-11T08:50:14Z</time>
      </trkpt>
      <trkpt lat="43.26894" lon="5.94327">
        <ele>311.773</ele>
        <time>2014-05-11T08:50:19Z</time>
      </trkpt>
      <trkpt lat="43.26874" lon="5.94348">
        <ele>310.672</ele>
        <time>2014-05-11T08:50:22Z</time>
      </trkpt>
      <trkpt lat="43.26847" lon="5.94375">
        <ele>309.604</ele>
        <time>2014-05-11T08:50:29Z</time>
      </trkpt>
      <trkpt lat="43.26847" lon="5.94375">
        <ele>309.604</ele>
        <time>2014-05-11T08:50:35Z</time>
      </trkpt>
      <trkpt lat="43.26847" lon="5.94375">
        <ele>264.4</ele>
        <time>2014-05-11T08:50:35Z</time>
      </trkpt>
      <trkpt lat="43.26847" lon="5.94375">
        <ele>264.4</ele>
        <time>2014-05-11T08:51:22Z</time>
      </trkpt>
      <trkpt lat="43.26839" lon="5.94398">
        <ele>312.957</ele>
        <time>2014-05-11T08:51:22Z</time>
      </trkpt>
      <trkpt lat="43.26823" lon="5.94441">
        <ele>314.644</ele>
        <time>2014-05-11T08:51:29Z</time>
      </trkpt>
      <trkpt lat="43.2681" lon="5.94484">
        <ele>315.427</ele>
        <time>2014-05-11T08:51:34Z</time>
      </trkpt>
      <trkpt lat="43.26799" lon="5.94532">
        <ele>313.64</ele>
        <time>2014-05-11T08:51:39Z</time>
      </trkpt>
      <trkpt lat="43.26774" lon="5.94584">
        <ele>311.658</ele>
        <time>2014-05-11T08:51:45Z</time>
      </trkpt>
      <trkpt lat="43.26752" lon="5.94599">
        <ele>308.951</ele>
        <time>2014-05-11T08:51:48Z</time>
      </trkpt>
      <trkpt lat="43.26731" lon="5.94611">
        <ele>307.591</ele>
        <time>2014-05-11T08:51:51Z</time>
      </trkpt>
      <trkpt lat="43.26698" lon="5.94628">
        <ele>306.73</ele>
        <time>2014-05-11T08:51:56Z</time>
      </trkpt>
      <trkpt lat="43.26659" lon="5.94649">
        <ele>306.295</ele>
        <time>2014-05-11T08:52:02Z</time>
      </trkpt>
      <trkpt lat="43.26628" lon="5.94676">
        <ele>305.781</ele>
        <time>2014-05-11T08:52:07Z</time>
      </trkpt>
      <trkpt lat="43.26607" lon="5.9469">
        <ele>306.692</ele>
        <time>2014-05-11T08:52:10Z</time>
      </trkpt>
      <trkpt lat="43.26564" lon="5.94722">
        <ele>303.881</ele>
        <time>2014-05-11T08:52:16Z</time>
      </trkpt>
      <trkpt lat="43.26545" lon="5.94766">
        <ele>302.624</ele>
        <time>2014-05-11T08:52:20Z</time>
      </trkpt>
      <trkpt lat="43.26515" lon="5.94822">
        <ele>305.549</ele>
        <time>2014-05-11T08:52:25Z</time>
      </trkpt>
      <trkpt lat="43.26482" lon="5.94866">
        <ele>304.608</ele>
        <time>2014-05-11T08:52:30Z</time>
      </trkpt>
      <trkpt lat="43.26463" lon="5.94893">
        <ele>304.418</ele>
        <time>2014-05-11T08:52:33Z</time>
      </trkpt>
      <trkpt lat="43.26444" lon="5.94921">
        <ele>303.437</ele>
        <time>2014-05-11T08:52:36Z</time>
      </trkpt>
      <trkpt lat="43.26418" lon="5.94969">
        <ele>302.076</ele>
        <time>2014-05-11T08:52:41Z</time>
      </trkpt>
      <trkpt lat="43.26418" lon="5.9505">
        <ele>298.24</ele>
        <time>2014-05-11T08:52:47Z</time>
      </trkpt>
      <trkpt lat="43.2643" lon="5.95108">
        <ele>298.344</ele>
        <time>2014-05-11T08:52:52Z</time>
      </trkpt>
      <trkpt lat="43.26447" lon="5.95134">
        <ele>297.77</ele>
        <time>2014-05-11T08:52:55Z</time>
      </trkpt>
      <trkpt lat="43.26466" lon="5.95156">
        <ele>296.459</ele>
        <time>2014-05-11T08:52:58Z</time>
      </trkpt>
      <trkpt lat="43.26486" lon="5.95175">
        <ele>295.103</ele>
        <time>2014-05-11T08:53:01Z</time>
      </trkpt>
      <trkpt lat="43.26521" lon="5.95201">
        <ele>293.569</ele>
        <time>2014-05-11T08:53:06Z</time>
      </trkpt>
      <trkpt lat="43.26555" lon="5.95228">
        <ele>293.743</ele>
        <time>2014-05-11T08:53:11Z</time>
      </trkpt>
      <trkpt lat="43.26579" lon="5.95254">
        <ele>293.776</ele>
        <time>2014-05-11T08:53:15Z</time>
      </trkpt>
      <trkpt lat="43.26614" lon="5.95298">
        <ele>295.043</ele>
        <time>2014-05-11T08:53:21Z</time>
      </trkpt>
      <trkpt lat="43.26641" lon="5.95337">
        <ele>293.878</ele>
        <time>2014-05-11T08:53:26Z</time>
      </trkpt>
      <trkpt lat="43.26654" lon="5.95364">
        <ele>293</ele>
        <time>2014-05-11T08:53:29Z</time>
      </trkpt>
      <trkpt lat="43.26662" lon="5.95395">
        <ele>293.563</ele>
        <time>2014-05-11T08:53:32Z</time>
      </trkpt>
      <trkpt lat="43.26663" lon="5.95425">
        <ele>292.869</ele>
        <time>2014-05-11T08:53:35Z</time>
      </trkpt>
      <trkpt lat="43.2666" lon="5.95478">
        <ele>291.384</ele>
        <time>2014-05-11T08:53:40Z</time>
      </trkpt>
      <trkpt lat="43.26641" lon="5.95542">
        <ele>290.844</ele>
        <time>2014-05-11T08:53:46Z</time>
      </trkpt>
      <trkpt lat="43.26602" lon="5.95573">
        <ele>288.655</ele>
        <time>2014-05-11T08:53:51Z</time>
      </trkpt>
      <trkpt lat="43.26561" lon="5.95592">
        <ele>283.34</ele>
        <time>2014-05-11T08:53:56Z</time>
      </trkpt>
      <trkpt lat="43.26542" lon="5.95653">
        <ele>276.951</ele>
        <time>2014-05-11T08:54:02Z</time>
      </trkpt>
      <trkpt lat="43.26527" lon="5.95711">
        <ele>274.367</ele>
        <time>2014-05-11T08:54:08Z</time>
      </trkpt>
      <trkpt lat="43.26513" lon="5.95739">
        <ele>272.258</ele>
        <time>2014-05-11T08:54:11Z</time>
      </trkpt>
      <trkpt lat="43.26497" lon="5.95766">
        <ele>272.134</ele>
        <time>2014-05-11T08:54:14Z</time>
      </trkpt>
      <trkpt lat="43.26483" lon="5.9579">
        <ele>271.903</ele>
        <time>2014-05-11T08:54:17Z</time>
      </trkpt>
      <trkpt lat="43.26474" lon="5.95816">
        <ele>274.826</ele>
        <time>2014-05-11T08:54:20Z</time>
      </trkpt>
      <trkpt lat="43.26465" lon="5.95871">
        <ele>278.602</ele>
        <time>2014-05-11T08:54:25Z</time>
      </trkpt>
      <trkpt lat="43.26447" lon="5.95928">
        <ele>279.489</ele>
        <time>2014-05-11T08:54:31Z</time>
      </trkpt>
      <trkpt lat="43.26433" lon="5.95954">
        <ele>278.953</ele>
        <time>2014-05-11T08:54:34Z</time>
      </trkpt>
      <trkpt lat="43.26419" lon="5.95979">
        <ele>277.491</ele>
        <time>2014-05-11T08:54:37Z</time>
      </trkpt>
      <trkpt lat="43.26394" lon="5.96035">
        <ele>275.783</ele>
        <time>2014-05-11T08:54:43Z</time>
      </trkpt>
      <trkpt lat="43.26375" lon="5.96108">
        <ele>274.647</ele>
        <time>2014-05-11T08:54:50Z</time>
      </trkpt>
      <trkpt lat="43.26362" lon="5.96161">
        <ele>274.746</ele>
        <time>2014-05-11T08:54:55Z</time>
      </trkpt>
      <trkpt lat="43.26354" lon="5.96192">
        <ele>277.119</ele>
        <time>2014-05-11T08:54:58Z</time>
      </trkpt>
      <trkpt lat="43.26342" lon="5.96244">
        <ele>279.438</ele>
        <time>2014-05-11T08:55:03Z</time>
      </trkpt>
      <trkpt lat="43.26336" lon="5.96276">
        <ele>277.981</ele>
        <time>2014-05-11T08:55:06Z</time>
      </trkpt>
      <trkpt lat="43.26336" lon="5.96309">
        <ele>276.708</ele>
        <time>2014-05-11T08:55:09Z</time>
      </trkpt>
      <trkpt lat="43.2636" lon="5.96365">
        <ele>273.038</ele>
        <time>2014-05-11T08:55:15Z</time>
      </trkpt>
      <trkpt lat="43.26396" lon="5.964">
        <ele>273.161</ele>
        <time>2014-05-11T08:55:20Z</time>
      </trkpt>
      <trkpt lat="43.26446" lon="5.96437">
        <ele>273.329</ele>
        <time>2014-05-11T08:55:27Z</time>
      </trkpt>
      <trkpt lat="43.26477" lon="5.96485">
        <ele>272.998</ele>
        <time>2014-05-11T08:55:33Z</time>
      </trkpt>
      <trkpt lat="43.26486" lon="5.96534">
        <ele>271.009</ele>
        <time>2014-05-11T08:55:38Z</time>
      </trkpt>
      <trkpt lat="43.26485" lon="5.96563">
        <ele>272.413</ele>
        <time>2014-05-11T08:55:41Z</time>
      </trkpt>
      <trkpt lat="43.26478" lon="5.96623">
        <ele>274.153</ele>
        <time>2014-05-11T08:55:47Z</time>
      </trkpt>
      <trkpt lat="43.26484" lon="5.96674">
        <ele>273.923</ele>
        <time>2014-05-11T08:55:52Z</time>
      </trkpt>
      <trkpt lat="43.26514" lon="5.96712">
        <ele>280.331</ele>
        <time>2014-05-11T08:55:58Z</time>
      </trkpt>
      <trkpt lat="43.26544" lon="5.96744">
        <ele>284.038</ele>
        <time>2014-05-11T08:56:03Z</time>
      </trkpt>
      <trkpt lat="43.26566" lon="5.96784">
        <ele>284.659</ele>
        <time>2014-05-11T08:56:08Z</time>
      </trkpt>
      <trkpt lat="43.26597" lon="5.96822">
        <ele>283.634</ele>
        <time>2014-05-11T08:56:14Z</time>
      </trkpt>
      <trkpt lat="43.26609" lon="5.96865">
        <ele>282.082</ele>
        <time>2014-05-11T08:56:19Z</time>
      </trkpt>
      <trkpt lat="43.26593" lon="5.96923">
        <ele>277.474</ele>
        <time>2014-05-11T08:56:25Z</time>
      </trkpt>
      <trkpt lat="43.26567" lon="5.96964">
        <ele>273.979</ele>
        <time>2014-05-11T08:56:30Z</time>
      </trkpt>
      <trkpt lat="43.26575" lon="5.97016">
        <ele>272.451</ele>
        <time>2014-05-11T08:56:36Z</time>
      </trkpt>
      <trkpt lat="43.26598" lon="5.97059">
        <ele>271.445</ele>
        <time>2014-05-11T08:56:41Z</time>
      </trkpt>
      <trkpt lat="43.2661" lon="5.97084">
        <ele>270.226</ele>
        <time>2014-05-11T08:56:44Z</time>
      </trkpt>
      <trkpt lat="43.26625" lon="5.97118">
        <ele>268.366</ele>
        <time>2014-05-11T08:56:48Z</time>
      </trkpt>
      <trkpt lat="43.26637" lon="5.97142">
        <ele>265.285</ele>
        <time>2014-05-11T08:56:51Z</time>
      </trkpt>
      <trkpt lat="43.26649" lon="5.97165">
        <ele>263.373</ele>
        <time>2014-05-11T08:56:54Z</time>
      </trkpt>
      <trkpt lat="43.26669" lon="5.97217">
        <ele>265.294</ele>
        <time>2014-05-11T08:57:00Z</time>
      </trkpt>
      <trkpt lat="43.26684" lon="5.9727">
        <ele>260.93</ele>
        <time>2014-05-11T08:57:06Z</time>
      </trkpt>
      <trkpt lat="43.26698" lon="5.97323">
        <ele>261.498</ele>
        <time>2014-05-11T08:57:12Z</time>
      </trkpt>
      <trkpt lat="43.26706" lon="5.97362">
        <ele>264.434</ele>
        <time>2014-05-11T08:57:17Z</time>
      </trkpt>
      <trkpt lat="43.26716" lon="5.97405">
        <ele>269.015</ele>
        <time>2014-05-11T08:57:23Z</time>
      </trkpt>
      <trkpt lat="43.2672" lon="5.97442">
        <ele>268.818</ele>
        <time>2014-05-11T08:57:29Z</time>
      </trkpt>
      <trkpt lat="43.26694" lon="5.97464">
        <ele>264.737</ele>
        <time>2014-05-11T08:57:34Z</time>
      </trkpt>
      <trkpt lat="43.26672" lon="5.9751">
        <ele>263.22</ele>
        <time>2014-05-11T08:57:39Z</time>
      </trkpt>
      <trkpt lat="43.26671" lon="5.97546">
        <ele>261.629</ele>
        <time>2014-05-11T08:57:42Z</time>
      </trkpt>
      <trkpt lat="43.26692" lon="5.97622">
        <ele>256.621</ele>
        <time>2014-05-11T08:57:48Z</time>
      </trkpt>
      <trkpt lat="43.26714" lon="5.97704">
        <ele>256.554</ele>
        <time>2014-05-11T08:57:54Z</time>
      </trkpt>
      <trkpt lat="43.26731" lon="5.97783">
        <ele>257.317</ele>
        <time>2014-05-11T08:58:00Z</time>
      </trkpt>
      <trkpt lat="43.26737" lon="5.97823">
        <ele>258.421</ele>
        <time>2014-05-11T08:58:03Z</time>
      </trkpt>
      <trkpt lat="43.26753" lon="5.97889">
        <ele>258.072</ele>
        <time>2014-05-11T08:58:08Z</time>
      </trkpt>
      <trkpt lat="43.26774" lon="5.9795">
        <ele>254.266</ele>
        <time>2014-05-11T08:58:13Z</time>
      </trkpt>
      <trkpt lat="43.26786" lon="5.98008">
        <ele>252.385</ele>
        <time>2014-05-11T08:58:18Z</time>
      </trkpt>
      <trkpt lat="43.26781" lon="5.98075">
        <ele>251.808</ele>
        <time>2014-05-11T08:58:24Z</time>
      </trkpt>
      <trkpt lat="43.26752" lon="5.98117">
        <ele>250.281</ele>
        <time>2014-05-11T08:58:29Z</time>
      </trkpt>
      <trkpt lat="43.26734" lon="5.98137">
        <ele>245.11</ele>
        <time>2014-05-11T08:58:32Z</time>
      </trkpt>
      <trkpt lat="43.26708" lon="5.98166">
        <ele>242.019</ele>
        <time>2014-05-11T08:58:37Z</time>
      </trkpt>
      <trkpt lat="43.26681" lon="5.98207">
        <ele>246.865</ele>
        <time>2014-05-11T08:58:43Z</time>
      </trkpt>
      <trkpt lat="43.26669" lon="5.98225">
        <ele>248.218</ele>
        <time>2014-05-11T08:58:46Z</time>
      </trkpt>
      <trkpt lat="43.26638" lon="5.9826">
        <ele>249.153</ele>
        <time>2014-05-11T08:58:52Z</time>
      </trkpt>
      <trkpt lat="43.26598" lon="5.98299">
        <ele>247.236</ele>
        <time>2014-05-11T08:58:58Z</time>
      </trkpt>
      <trkpt lat="43.26578" lon="5.98314">
        <ele>246.645</ele>
        <time>2014-05-11T08:59:01Z</time>
      </trkpt>
      <trkpt lat="43.26547" lon="5.98337">
        <ele>247.382</ele>
        <time>2014-05-11T08:59:06Z</time>
      </trkpt>
      <trkpt lat="43.2651" lon="5.98361">
        <ele>245.266</ele>
        <time>2014-05-11T08:59:12Z</time>
      </trkpt>
      <trkpt lat="43.2647" lon="5.98365">
        <ele>243.144</ele>
        <time>2014-05-11T08:59:18Z</time>
      </trkpt>
      <trkpt lat="43.26426" lon="5.98355">
        <ele>239.289</ele>
        <time>2014-05-11T08:59:25Z</time>
      </trkpt>
      <trkpt lat="43.26392" lon="5.98347">
        <ele>239.172</ele>
        <time>2014-05-11T08:59:30Z</time>
      </trkpt>
      <trkpt lat="43.2636" lon="5.9834">
        <ele>238.431</ele>
        <time>2014-05-11T08:59:35Z</time>
      </trkpt>
      <trkpt lat="43.2634" lon="5.98335">
        <ele>237.317</ele>
        <time>2014-05-11T08:59:38Z</time>
      </trkpt>
      <trkpt lat="43.2632" lon="5.98329">
        <ele>238.061</ele>
        <time>2014-05-11T08:59:41Z</time>
      </trkpt>
      <trkpt lat="43.26301" lon="5.98313">
        <ele>236.911</ele>
        <time>2014-05-11T08:59:44Z</time>
      </trkpt>
      <trkpt lat="43.26271" lon="5.98279">
        <ele>235.045</ele>
        <time>2014-05-11T08:59:50Z</time>
      </trkpt>
      <trkpt lat="43.26256" lon="5.98259">
        <ele>237.981</ele>
        <time>2014-05-11T08:59:53Z</time>
      </trkpt>
      <trkpt lat="43.26221" lon="5.98224">
        <ele>239.819</ele>
        <time>2014-05-11T08:59:59Z</time>
      </trkpt>
      <trkpt lat="43.26182" lon="5.98212">
        <ele>239.213</ele>
        <time>2014-05-11T09:00:05Z</time>
      </trkpt>
      <trkpt lat="43.26136" lon="5.98215">
        <ele>236.062</ele>
        <time>2014-05-11T09:00:12Z</time>
      </trkpt>
      <trkpt lat="43.26098" lon="5.98226">
        <ele>233.153</ele>
        <time>2014-05-11T09:00:17Z</time>
      </trkpt>
      <trkpt lat="43.26058" lon="5.98255">
        <ele>234.268</ele>
        <time>2014-05-11T09:00:23Z</time>
      </trkpt>
      <trkpt lat="43.26038" lon="5.98277">
        <ele>234.26</ele>
        <time>2014-05-11T09:00:26Z</time>
      </trkpt>
      <trkpt lat="43.26012" lon="5.98317">
        <ele>233.176</ele>
        <time>2014-05-11T09:00:31Z</time>
      </trkpt>
      <trkpt lat="43.25985" lon="5.98358">
        <ele>237.38</ele>
        <time>2014-05-11T09:00:37Z</time>
      </trkpt>
      <trkpt lat="43.2595" lon="5.98395">
        <ele>241.462</ele>
        <time>2014-05-11T09:00:43Z</time>
      </trkpt>
      <trkpt lat="43.25912" lon="5.98429">
        <ele>241.863</ele>
        <time>2014-05-11T09:00:49Z</time>
      </trkpt>
      <trkpt lat="43.25879" lon="5.9845">
        <ele>240.342</ele>
        <time>2014-05-11T09:00:54Z</time>
      </trkpt>
      <trkpt lat="43.25831" lon="5.98474">
        <ele>234.87</ele>
        <time>2014-05-11T09:01:01Z</time>
      </trkpt>
      <trkpt lat="43.25803" lon="5.98491">
        <ele>232.67</ele>
        <time>2014-05-11T09:01:06Z</time>
      </trkpt>
      <trkpt lat="43.25784" lon="5.98502">
        <ele>231.389</ele>
        <time>2014-05-11T09:01:09Z</time>
      </trkpt>
      <trkpt lat="43.25765" lon="5.98515">
        <ele>229.928</ele>
        <time>2014-05-11T09:01:12Z</time>
      </trkpt>
      <trkpt lat="43.25745" lon="5.9853">
        <ele>228.54</ele>
        <time>2014-05-11T09:01:15Z</time>
      </trkpt>
      <trkpt lat="43.25714" lon="5.98556">
        <ele>225.166</ele>
        <time>2014-05-11T09:01:20Z</time>
      </trkpt>
      <trkpt lat="43.25696" lon="5.9857">
        <ele>223.174</ele>
        <time>2014-05-11T09:01:23Z</time>
      </trkpt>
      <trkpt lat="43.25678" lon="5.98585">
        <ele>222.682</ele>
        <time>2014-05-11T09:01:26Z</time>
      </trkpt>
      <trkpt lat="43.25661" lon="5.98601">
        <ele>223.542</ele>
        <time>2014-05-11T09:01:29Z</time>
      </trkpt>
      <trkpt lat="43.25646" lon="5.98624">
        <ele>224.043</ele>
        <time>2014-05-11T09:01:32Z</time>
      </trkpt>
      <trkpt lat="43.25633" lon="5.98647">
        <ele>224.665</ele>
        <time>2014-05-11T09:01:35Z</time>
      </trkpt>
      <trkpt lat="43.25608" lon="5.98691">
        <ele>225.321</ele>
        <time>2014-05-11T09:01:41Z</time>
      </trkpt>
      <trkpt lat="43.25593" lon="5.98715">
        <ele>227.682</ele>
        <time>2014-05-11T09:01:44Z</time>
      </trkpt>
      <trkpt lat="43.25568" lon="5.98754">
        <ele>229.021</ele>
        <time>2014-05-11T09:01:49Z</time>
      </trkpt>
      <trkpt lat="43.25537" lon="5.98806">
        <ele>227.709</ele>
        <time>2014-05-11T09:01:55Z</time>
      </trkpt>
      <trkpt lat="43.25511" lon="5.9887">
        <ele>228.511</ele>
        <time>2014-05-11T09:02:01Z</time>
      </trkpt>
      <trkpt lat="43.25487" lon="5.98911">
        <ele>228.061</ele>
        <time>2014-05-11T09:02:06Z</time>
      </trkpt>
      <trkpt lat="43.25462" lon="5.98958">
        <ele>225.453</ele>
        <time>2014-05-11T09:02:12Z</time>
      </trkpt>
      <trkpt lat="43.25446" lon="5.99004">
        <ele>224.353</ele>
        <time>2014-05-11T09:02:17Z</time>
      </trkpt>
      <trkpt lat="43.2543" lon="5.9906">
        <ele>224.8</ele>
        <time>2014-05-11T09:02:23Z</time>
      </trkpt>
      <trkpt lat="43.25415" lon="5.99118">
        <ele>230.17</ele>
        <time>2014-05-11T09:02:29Z</time>
      </trkpt>
      <trkpt lat="43.25392" lon="5.99166">
        <ele>228.935</ele>
        <time>2014-05-11T09:02:35Z</time>
      </trkpt>
      <trkpt lat="43.25368" lon="5.99203">
        <ele>230.034</ele>
        <time>2014-05-11T09:02:40Z</time>
      </trkpt>
      <trkpt lat="43.25337" lon="5.99239">
        <ele>229.373</ele>
        <time>2014-05-11T09:02:46Z</time>
      </trkpt>
      <trkpt lat="43.25314" lon="5.99271">
        <ele>226.938</ele>
        <time>2014-05-11T09:02:51Z</time>
      </trkpt>
      <trkpt lat="43.25281" lon="5.99313">
        <ele>226.547</ele>
        <time>2014-05-11T09:02:57Z</time>
      </trkpt>
      <trkpt lat="43.25254" lon="5.99353">
        <ele>227.127</ele>
        <time>2014-05-11T09:03:03Z</time>
      </trkpt>
      <trkpt lat="43.25232" lon="5.99387">
        <ele>226.803</ele>
        <time>2014-05-11T09:03:08Z</time>
      </trkpt>
      <trkpt lat="43.252" lon="5.99428">
        <ele>226.581</ele>
        <time>2014-05-11T09:03:14Z</time>
      </trkpt>
      <trkpt lat="43.25158" lon="5.99442">
        <ele>223.201</ele>
        <time>2014-05-11T09:03:20Z</time>
      </trkpt>
      <trkpt lat="43.25115" lon="5.99467">
        <ele>218.75</ele>
        <time>2014-05-11T09:03:26Z</time>
      </trkpt>
      <trkpt lat="43.25102" lon="5.99536">
        <ele>223.376</ele>
        <time>2014-05-11T09:03:32Z</time>
      </trkpt>
      <trkpt lat="43.25101" lon="5.99609">
        <ele>223.871</ele>
        <time>2014-05-11T09:03:38Z</time>
      </trkpt>
      <trkpt lat="43.25099" lon="5.99669">
        <ele>224.94</ele>
        <time>2014-05-11T09:03:43Z</time>
      </trkpt>
      <trkpt lat="43.25089" lon="5.99721">
        <ele>222.691</ele>
        <time>2014-05-11T09:03:48Z</time>
      </trkpt>
      <trkpt lat="43.25067" lon="5.99785">
        <ele>223.37</ele>
        <time>2014-05-11T09:03:54Z</time>
      </trkpt>
      <trkpt lat="43.25041" lon="5.99831">
        <ele>222.932</ele>
        <time>2014-05-11T09:03:59Z</time>
      </trkpt>
      <trkpt lat="43.25005" lon="5.99855">
        <ele>217.968</ele>
        <time>2014-05-11T09:04:04Z</time>
      </trkpt>
      <trkpt lat="43.2498" lon="5.99851">
        <ele>214.682</ele>
        <time>2014-05-11T09:04:07Z</time>
      </trkpt>
      <trkpt lat="43.24938" lon="5.99841">
        <ele>209.796</ele>
        <time>2014-05-11T09:04:13Z</time>
      </trkpt>
      <trkpt lat="43.24914" lon="5.9984">
        <ele>206.882</ele>
        <time>2014-05-11T09:04:16Z</time>
      </trkpt>
      <trkpt lat="43.24867" lon="5.99851">
        <ele>205.255</ele>
        <time>2014-05-11T09:04:22Z</time>
      </trkpt>
      <trkpt lat="43.24818" lon="5.99876">
        <ele>205.091</ele>
        <time>2014-05-11T09:04:28Z</time>
      </trkpt>
      <trkpt lat="43.24756" lon="5.99907">
        <ele>200.981</ele>
        <time>2014-05-11T09:04:34Z</time>
      </trkpt>
      <trkpt lat="43.24725" lon="5.99928">
        <ele>200.38</ele>
        <time>2014-05-11T09:04:37Z</time>
      </trkpt>
      <trkpt lat="43.24668" lon="5.99977">
        <ele>200.673</ele>
        <time>2014-05-11T09:04:43Z</time>
      </trkpt>
      <trkpt lat="43.24613" lon="6.00004">
        <ele>198.999</ele>
        <time>2014-05-11T09:04:49Z</time>
      </trkpt>
      <trkpt lat="43.24573" lon="6.00021">
        <ele>192.91</ele>
        <time>2014-05-11T09:04:54Z</time>
      </trkpt>
      <trkpt lat="43.2455" lon="6.0003">
        <ele>192.407</ele>
        <time>2014-05-11T09:04:57Z</time>
      </trkpt>
      <trkpt lat="43.2452" lon="6.00033">
        <ele>192.598</ele>
        <time>2014-05-11T09:05:02Z</time>
      </trkpt>
      <trkpt lat="43.24481" lon="6.00031">
        <ele>187.658</ele>
        <time>2014-05-11T09:05:08Z</time>
      </trkpt>
      <trkpt lat="43.24444" lon="6.00034">
        <ele>184.78</ele>
        <time>2014-05-11T09:05:15Z</time>
      </trkpt>
      <trkpt lat="43.2441" lon="6.00041">
        <ele>187.833</ele>
        <time>2014-05-11T09:05:22Z</time>
      </trkpt>
      <trkpt lat="43.24387" lon="6.00052">
        <ele>192.565</ele>
        <time>2014-05-11T09:05:27Z</time>
      </trkpt>
      <trkpt lat="43.24363" lon="6.00075">
        <ele>194.827</ele>
        <time>2014-05-11T09:05:32Z</time>
      </trkpt>
      <trkpt lat="43.24336" lon="6.00108">
        <ele>190.793</ele>
        <time>2014-05-11T09:05:38Z</time>
      </trkpt>
      <trkpt lat="43.24314" lon="6.00138">
        <ele>187.41</ele>
        <time>2014-05-11T09:05:43Z</time>
      </trkpt>
      <trkpt lat="43.24287" lon="6.00172">
        <ele>189.077</ele>
        <time>2014-05-11T09:05:49Z</time>
      </trkpt>
      <trkpt lat="43.24262" lon="6.00213">
        <ele>189.439</ele>
        <time>2014-05-11T09:05:56Z</time>
      </trkpt>
      <trkpt lat="43.24238" lon="6.0025">
        <ele>192.644</ele>
        <time>2014-05-11T09:06:02Z</time>
      </trkpt>
      <trkpt lat="43.24226" lon="6.00265">
        <ele>191.627</ele>
        <time>2014-05-11T09:06:05Z</time>
      </trkpt>
      <trkpt lat="43.24199" lon="6.00288">
        <ele>191.609</ele>
        <time>2014-05-11T09:06:11Z</time>
      </trkpt>
      <trkpt lat="43.24184" lon="6.00304">
        <ele>190.527</ele>
        <time>2014-05-11T09:06:14Z</time>
      </trkpt>
      <trkpt lat="43.2416" lon="6.00329">
        <ele>187.926</ele>
        <time>2014-05-11T09:06:19Z</time>
      </trkpt>
      <trkpt lat="43.24134" lon="6.00351">
        <ele>187.626</ele>
        <time>2014-05-11T09:06:24Z</time>
      </trkpt>
      <trkpt lat="43.24105" lon="6.00373">
        <ele>187.42</ele>
        <time>2014-05-11T09:06:29Z</time>
      </trkpt>
      <trkpt lat="43.24087" lon="6.00386">
        <ele>187.994</ele>
        <time>2014-05-11T09:06:32Z</time>
      </trkpt>
      <trkpt lat="43.24069" lon="6.00399">
        <ele>187.135</ele>
        <time>2014-05-11T09:06:35Z</time>
      </trkpt>
      <trkpt lat="43.24029" lon="6.00424">
        <ele>184.78</ele>
        <time>2014-05-11T09:06:41Z</time>
      </trkpt>
      <trkpt lat="43.24009" lon="6.00434">
        <ele>184.743</ele>
        <time>2014-05-11T09:06:44Z</time>
      </trkpt>
      <trkpt lat="43.2396" lon="6.0046">
        <ele>184.24</ele>
        <time>2014-05-11T09:06:50Z</time>
      </trkpt>
      <trkpt lat="43.23911" lon="6.00466">
        <ele>186.684</ele>
        <time>2014-05-11T09:06:56Z</time>
      </trkpt>
      <trkpt lat="43.2386" lon="6.00474">
        <ele>183.738</ele>
        <time>2014-05-11T09:07:02Z</time>
      </trkpt>
      <trkpt lat="43.23813" lon="6.00497">
        <ele>184.883</ele>
        <time>2014-05-11T09:07:08Z</time>
      </trkpt>
      <trkpt lat="43.23792" lon="6.00511">
        <ele>183.791</ele>
        <time>2014-05-11T09:07:11Z</time>
      </trkpt>
      <trkpt lat="43.2376" lon="6.00549">
        <ele>181.888</ele>
        <time>2014-05-11T09:07:16Z</time>
      </trkpt>
      <trkpt lat="43.23732" lon="6.00606">
        <ele>181.735</ele>
        <time>2014-05-11T09:07:22Z</time>
      </trkpt>
      <trkpt lat="43.23722" lon="6.00638">
        <ele>182.458</ele>
        <time>2014-05-11T09:07:25Z</time>
      </trkpt>
      <trkpt lat="43.23709" lon="6.00691">
        <ele>183.998</ele>
        <time>2014-05-11T09:07:30Z</time>
      </trkpt>
      <trkpt lat="43.23698" lon="6.00736">
        <ele>186.754</ele>
        <time>2014-05-11T09:07:35Z</time>
      </trkpt>
      <trkpt lat="43.23688" lon="6.00761">
        <ele>186.647</ele>
        <time>2014-05-11T09:07:38Z</time>
      </trkpt>
      <trkpt lat="43.23675" lon="6.00784">
        <ele>186.69</ele>
        <time>2014-05-11T09:07:41Z</time>
      </trkpt>
      <trkpt lat="43.2365" lon="6.00819">
        <ele>185.72</ele>
        <time>2014-05-11T09:07:46Z</time>
      </trkpt>
      <trkpt lat="43.23633" lon="6.00834">
        <ele>186.134</ele>
        <time>2014-05-11T09:07:49Z</time>
      </trkpt>
      <trkpt lat="43.23613" lon="6.00848">
        <ele>187.137</ele>
        <time>2014-05-11T09:07:52Z</time>
      </trkpt>
      <trkpt lat="43.2359" lon="6.00856">
        <ele>185.446</ele>
        <time>2014-05-11T09:07:55Z</time>
      </trkpt>
      <trkpt lat="43.23547" lon="6.00861">
        <ele>183.451</ele>
        <time>2014-05-11T09:08:01Z</time>
      </trkpt>
      <trkpt lat="43.23504" lon="6.00855">
        <ele>182.95</ele>
        <time>2014-05-11T09:08:07Z</time>
      </trkpt>
      <trkpt lat="43.23466" lon="6.00849">
        <ele>180.124</ele>
        <time>2014-05-11T09:08:12Z</time>
      </trkpt>
      <trkpt lat="43.23414" lon="6.00838">
        <ele>180.195</ele>
        <time>2014-05-11T09:08:19Z</time>
      </trkpt>
      <trkpt lat="43.23379" lon="6.00835">
        <ele>180.833</ele>
        <time>2014-05-11T09:08:24Z</time>
      </trkpt>
      <trkpt lat="43.23344" lon="6.00849">
        <ele>182.244</ele>
        <time>2014-05-11T09:08:29Z</time>
      </trkpt>
      <trkpt lat="43.23312" lon="6.00882">
        <ele>184.348</ele>
        <time>2014-05-11T09:08:34Z</time>
      </trkpt>
      <trkpt lat="43.23281" lon="6.00914">
        <ele>182.769</ele>
        <time>2014-05-11T09:08:39Z</time>
      </trkpt>
      <trkpt lat="43.23251" lon="6.0094">
        <ele>180.963</ele>
        <time>2014-05-11T09:08:44Z</time>
      </trkpt>
      <trkpt lat="43.23215" lon="6.00965">
        <ele>178.148</ele>
        <time>2014-05-11T09:08:50Z</time>
      </trkpt>
      <trkpt lat="43.23179" lon="6.01001">
        <ele>172.578</ele>
        <time>2014-05-11T09:08:56Z</time>
      </trkpt>
      <trkpt lat="43.23138" lon="6.01029">
        <ele>168.993</ele>
        <time>2014-05-11T09:09:02Z</time>
      </trkpt>
      <trkpt lat="43.23096" lon="6.0106">
        <ele>164.795</ele>
        <time>2014-05-11T09:09:08Z</time>
      </trkpt>
      <trkpt lat="43.2306" lon="6.01082">
        <ele>162.651</ele>
        <time>2014-05-11T09:09:13Z</time>
      </trkpt>
      <trkpt lat="43.23018" lon="6.01106">
        <ele>163.977</ele>
        <time>2014-05-11T09:09:19Z</time>
      </trkpt>
      <trkpt lat="43.22983" lon="6.01122">
        <ele>166.744</ele>
        <time>2014-05-11T09:09:24Z</time>
      </trkpt>
      <trkpt lat="43.22951" lon="6.01141">
        <ele>165.974</ele>
        <time>2014-05-11T09:09:29Z</time>
      </trkpt>
      <trkpt lat="43.22914" lon="6.01165">
        <ele>165.807</ele>
        <time>2014-05-11T09:09:35Z</time>
      </trkpt>
      <trkpt lat="43.22879" lon="6.0119">
        <ele>166.117</ele>
        <time>2014-05-11T09:09:41Z</time>
      </trkpt>
      <trkpt lat="43.22853" lon="6.01222">
        <ele>165.546</ele>
        <time>2014-05-11T09:09:46Z</time>
      </trkpt>
      <trkpt lat="43.22839" lon="6.01282">
        <ele>169.969</ele>
        <time>2014-05-11T09:09:52Z</time>
      </trkpt>
      <trkpt lat="43.22845" lon="6.01341">
        <ele>171.704</ele>
        <time>2014-05-11T09:09:58Z</time>
      </trkpt>
      <trkpt lat="43.22844" lon="6.01402">
        <ele>169.502</ele>
        <time>2014-05-11T09:10:04Z</time>
      </trkpt>
      <trkpt lat="43.22812" lon="6.01442">
        <ele>165.934</ele>
        <time>2014-05-11T09:10:11Z</time>
      </trkpt>
      <trkpt lat="43.22777" lon="6.01463">
        <ele>162.393</ele>
        <time>2014-05-11T09:10:17Z</time>
      </trkpt>
      <trkpt lat="43.22747" lon="6.01478">
        <ele>159.854</ele>
        <time>2014-05-11T09:10:22Z</time>
      </trkpt>
      <trkpt lat="43.22709" lon="6.01505">
        <ele>160.072</ele>
        <time>2014-05-11T09:10:28Z</time>
      </trkpt>
      <trkpt lat="43.22681" lon="6.01526">
        <ele>161.692</ele>
        <time>2014-05-11T09:10:33Z</time>
      </trkpt>
      <trkpt lat="43.22662" lon="6.01542">
        <ele>161.337</ele>
        <time>2014-05-11T09:10:36Z</time>
      </trkpt>
      <trkpt lat="43.22626" lon="6.01569">
        <ele>163.008</ele>
        <time>2014-05-11T09:10:42Z</time>
      </trkpt>
      <trkpt lat="43.2261" lon="6.01584">
        <ele>165.596</ele>
        <time>2014-05-11T09:10:45Z</time>
      </trkpt>
      <trkpt lat="43.22587" lon="6.01614">
        <ele>167.843</ele>
        <time>2014-05-11T09:10:50Z</time>
      </trkpt>
      <trkpt lat="43.22567" lon="6.01646">
        <ele>170.181</ele>
        <time>2014-05-11T09:10:55Z</time>
      </trkpt>
      <trkpt lat="43.2255" lon="6.01684">
        <ele>171.532</ele>
        <time>2014-05-11T09:11:00Z</time>
      </trkpt>
      <trkpt lat="43.2254" lon="6.01723">
        <ele>172.792</ele>
        <time>2014-05-11T09:11:05Z</time>
      </trkpt>
      <trkpt lat="43.22536" lon="6.01746">
        <ele>174.931</ele>
        <time>2014-05-11T09:11:08Z</time>
      </trkpt>
      <trkpt lat="43.22535" lon="6.01788">
        <ele>173.701</ele>
        <time>2014-05-11T09:11:14Z</time>
      </trkpt>
      <trkpt lat="43.2254" lon="6.01812">
        <ele>172.159</ele>
        <time>2014-05-11T09:11:17Z</time>
      </trkpt>
      <trkpt lat="43.2255" lon="6.01857">
        <ele>169.486</ele>
        <time>2014-05-11T09:11:22Z</time>
      </trkpt>
      <trkpt lat="43.22561" lon="6.01911">
        <ele>167.798</ele>
        <time>2014-05-11T09:11:28Z</time>
      </trkpt>
      <trkpt lat="43.22561" lon="6.01956">
        <ele>167.719</ele>
        <time>2014-05-11T09:11:33Z</time>
      </trkpt>
      <trkpt lat="43.22556" lon="6.02006">
        <ele>168.522</ele>
        <time>2014-05-11T09:11:39Z</time>
      </trkpt>
      <trkpt lat="43.22551" lon="6.02046">
        <ele>169.865</ele>
        <time>2014-05-11T09:11:44Z</time>
      </trkpt>
      <trkpt lat="43.22539" lon="6.02096">
        <ele>170.945</ele>
        <time>2014-05-11T09:11:50Z</time>
      </trkpt>
      <trkpt lat="43.22528" lon="6.02118">
        <ele>170.062</ele>
        <time>2014-05-11T09:11:53Z</time>
      </trkpt>
      <trkpt lat="43.22502" lon="6.02153">
        <ele>165.614</ele>
        <time>2014-05-11T09:11:58Z</time>
      </trkpt>
      <trkpt lat="43.22467" lon="6.02184">
        <ele>161.898</ele>
        <time>2014-05-11T09:12:03Z</time>
      </trkpt>
      <trkpt lat="43.22432" lon="6.02205">
        <ele>159.268</ele>
        <time>2014-05-11T09:12:08Z</time>
      </trkpt>
      <trkpt lat="43.22409" lon="6.02219">
        <ele>159.102</ele>
        <time>2014-05-11T09:12:11Z</time>
      </trkpt>
      <trkpt lat="43.22373" lon="6.02246">
        <ele>155.854</ele>
        <time>2014-05-11T09:12:16Z</time>
      </trkpt>
      <trkpt lat="43.22354" lon="6.02264">
        <ele>154.076</ele>
        <time>2014-05-11T09:12:19Z</time>
      </trkpt>
      <trkpt lat="43.22335" lon="6.02286">
        <ele>152.751</ele>
        <time>2014-05-11T09:12:22Z</time>
      </trkpt>
      <trkpt lat="43.22316" lon="6.0231">
        <ele>152.641</ele>
        <time>2014-05-11T09:12:25Z</time>
      </trkpt>
      <trkpt lat="43.22299" lon="6.02332">
        <ele>153.732</ele>
        <time>2014-05-11T09:12:28Z</time>
      </trkpt>
      <trkpt lat="43.22262" lon="6.02338">
        <ele>155.886</ele>
        <time>2014-05-11T09:12:34Z</time>
      </trkpt>
      <trkpt lat="43.22229" lon="6.02322">
        <ele>155.158</ele>
        <time>2014-05-11T09:12:40Z</time>
      </trkpt>
      <trkpt lat="43.22204" lon="6.02293">
        <ele>156.965</ele>
        <time>2014-05-11T09:12:46Z</time>
      </trkpt>
      <trkpt lat="43.22171" lon="6.02266">
        <ele>155.881</ele>
        <time>2014-05-11T09:12:52Z</time>
      </trkpt>
      <trkpt lat="43.22166" lon="6.02246">
        <ele>154.337</ele>
        <time>2014-05-11T09:12:55Z</time>
      </trkpt>
      <trkpt lat="43.22155" lon="6.0224">
        <ele>153.916</ele>
        <time>2014-05-11T09:13:00Z</time>
      </trkpt>
      <trkpt lat="43.22124" lon="6.0225">
        <ele>157.091</ele>
        <time>2014-05-11T09:13:07Z</time>
      </trkpt>
      <trkpt lat="43.22094" lon="6.02258">
        <ele>155.234</ele>
        <time>2014-05-11T09:13:12Z</time>
      </trkpt>
      <trkpt lat="43.2206" lon="6.02264">
        <ele>147.759</ele>
        <time>2014-05-11T09:13:18Z</time>
      </trkpt>
      <trkpt lat="43.22026" lon="6.02263">
        <ele>143.779</ele>
        <time>2014-05-11T09:13:23Z</time>
      </trkpt>
      <trkpt lat="43.21994" lon="6.02261">
        <ele>146.114</ele>
        <time>2014-05-11T09:13:28Z</time>
      </trkpt>
      <trkpt lat="43.21962" lon="6.02291">
        <ele>145.481</ele>
        <time>2014-05-11T09:13:34Z</time>
      </trkpt>
      <trkpt lat="43.2195" lon="6.02306">
        <ele>145.939</ele>
        <time>2014-05-11T09:13:37Z</time>
      </trkpt>
      <trkpt lat="43.21925" lon="6.02321">
        <ele>148.266</ele>
        <time>2014-05-11T09:13:42Z</time>
      </trkpt>
      <trkpt lat="43.21909" lon="6.02331">
        <ele>150.489</ele>
        <time>2014-05-11T09:13:46Z</time>
      </trkpt>
      <trkpt lat="43.21895" lon="6.02348">
        <ele>151.205</ele>
        <time>2014-05-11T09:13:51Z</time>
      </trkpt>
      <trkpt lat="43.21867" lon="6.0236">
        <ele>152.879</ele>
        <time>2014-05-11T09:13:59Z</time>
      </trkpt>
      <trkpt lat="43.21844" lon="6.02363">
        <ele>153.071</ele>
        <time>2014-05-11T09:14:05Z</time>
      </trkpt>
      <trkpt lat="43.21832" lon="6.02363">
        <ele>153.853</ele>
        <time>2014-05-11T09:14:08Z</time>
      </trkpt>
      <trkpt lat="43.21815" lon="6.02363">
        <ele>153.262</ele>
        <time>2014-05-11T09:14:12Z</time>
      </trkpt>
      <trkpt lat="43.21791" lon="6.02363">
        <ele>152.672</ele>
        <time>2014-05-11T09:14:17Z</time>
      </trkpt>
      <trkpt lat="43.21768" lon="6.0236">
        <ele>152.085</ele>
        <time>2014-05-11T09:14:24Z</time>
      </trkpt>
      <trkpt lat="43.2174" lon="6.02358">
        <ele>151.967</ele>
        <time>2014-05-11T09:14:31Z</time>
      </trkpt>
      <trkpt lat="43.21705" lon="6.02368">
        <ele>151.872</ele>
        <time>2014-05-11T09:14:37Z</time>
      </trkpt>
      <trkpt lat="43.21672" lon="6.02377">
        <ele>152.022</ele>
        <time>2014-05-11T09:14:43Z</time>
      </trkpt>
      <trkpt lat="43.21642" lon="6.02389">
        <ele>152.331</ele>
        <time>2014-05-11T09:14:49Z</time>
      </trkpt>
      <trkpt lat="43.21616" lon="6.02398">
        <ele>149.787</ele>
        <time>2014-05-11T09:14:54Z</time>
      </trkpt>
      <trkpt lat="43.21588" lon="6.02398">
        <ele>151.787</ele>
        <time>2014-05-11T09:14:59Z</time>
      </trkpt>
      <trkpt lat="43.2156" lon="6.024">
        <ele>149.086</ele>
        <time>2014-05-11T09:15:05Z</time>
      </trkpt>
      <trkpt lat="43.21537" lon="6.02404">
        <ele>150.379</ele>
        <time>2014-05-11T09:15:10Z</time>
      </trkpt>
      <trkpt lat="43.21513" lon="6.02418">
        <ele>151.691</ele>
        <time>2014-05-11T09:15:15Z</time>
      </trkpt>
      <trkpt lat="43.21485" lon="6.02444">
        <ele>153.887</ele>
        <time>2014-05-11T09:15:21Z</time>
      </trkpt>
      <trkpt lat="43.21471" lon="6.02455">
        <ele>153.626</ele>
        <time>2014-05-11T09:15:24Z</time>
      </trkpt>
      <trkpt lat="43.21455" lon="6.02462">
        <ele>154.151</ele>
        <time>2014-05-11T09:15:27Z</time>
      </trkpt>
      <trkpt lat="43.21417" lon="6.02469">
        <ele>150.838</ele>
        <time>2014-05-11T09:15:33Z</time>
      </trkpt>
      <trkpt lat="43.21376" lon="6.02469">
        <ele>150.812</ele>
        <time>2014-05-11T09:15:39Z</time>
      </trkpt>
      <trkpt lat="43.21335" lon="6.02468">
        <ele>151.426</ele>
        <time>2014-05-11T09:15:45Z</time>
      </trkpt>
      <trkpt lat="43.21304" lon="6.02467">
        <ele>149.798</ele>
        <time>2014-05-11T09:15:50Z</time>
      </trkpt>
      <trkpt lat="43.21283" lon="6.02468">
        <ele>150.296</ele>
        <time>2014-05-11T09:15:54Z</time>
      </trkpt>
      <trkpt lat="43.21257" lon="6.02472">
        <ele>150.623</ele>
        <time>2014-05-11T09:15:59Z</time>
      </trkpt>
      <trkpt lat="43.21235" lon="6.02479">
        <ele>149.039</ele>
        <time>2014-05-11T09:16:05Z</time>
      </trkpt>
      <trkpt lat="43.21225" lon="6.02483">
        <ele>148.698</ele>
        <time>2014-05-11T09:16:08Z</time>
      </trkpt>
      <trkpt lat="43.21191" lon="6.02505">
        <ele>149.005</ele>
        <time>2014-05-11T09:16:16Z</time>
      </trkpt>
      <trkpt lat="43.21161" lon="6.02526">
        <ele>148.393</ele>
        <time>2014-05-11T09:16:22Z</time>
      </trkpt>
      <trkpt lat="43.21148" lon="6.02538">
        <ele>150.753</ele>
        <time>2014-05-11T09:16:25Z</time>
      </trkpt>
      <trkpt lat="43.21136" lon="6.02553">
        <ele>151.947</ele>
        <time>2014-05-11T09:16:28Z</time>
      </trkpt>
      <trkpt lat="43.21117" lon="6.02565">
        <ele>151.046</ele>
        <time>2014-05-11T09:16:31Z</time>
      </trkpt>
      <trkpt lat="43.21085" lon="6.02567">
        <ele>149.272</ele>
        <time>2014-05-11T09:16:36Z</time>
      </trkpt>
      <trkpt lat="43.21057" lon="6.02552">
        <ele>147.548</ele>
        <time>2014-05-11T09:16:42Z</time>
      </trkpt>
      <trkpt lat="43.21042" lon="6.0255">
        <ele>147.464</ele>
        <time>2014-05-11T09:16:45Z</time>
      </trkpt>
      <trkpt lat="43.21025" lon="6.02552">
        <ele>148.866</ele>
        <time>2014-05-11T09:16:49Z</time>
      </trkpt>
      <trkpt lat="43.20995" lon="6.02567">
        <ele>147.411</ele>
        <time>2014-05-11T09:16:55Z</time>
      </trkpt>
      <trkpt lat="43.20974" lon="6.02586">
        <ele>149.265</ele>
        <time>2014-05-11T09:16:59Z</time>
      </trkpt>
      <trkpt lat="43.20947" lon="6.0259">
        <ele>150.961</ele>
        <time>2014-05-11T09:17:05Z</time>
      </trkpt>
      <trkpt lat="43.20947" lon="6.0259">
        <ele>150.961</ele>
        <time>2014-05-11T09:17:11Z</time>
      </trkpt>
      <trkpt lat="43.20947" lon="6.0259">
        <ele>106.2</ele>
        <time>2014-05-11T09:17:11Z</time>
      </trkpt>
      <trkpt lat="43.20947" lon="6.0259">
        <ele>106.2</ele>
        <time>2014-05-11T09:17:28Z</time>
      </trkpt>
      <trkpt lat="43.20946" lon="6.02618">
        <ele>149.575</ele>
        <time>2014-05-11T09:17:28Z</time>
      </trkpt>
      <trkpt lat="43.20951" lon="6.02622">
        <ele>149.341</ele>
        <time>2014-05-11T09:17:31Z</time>
      </trkpt>
      <trkpt lat="43.20951" lon="6.02622">
        <ele>103.6</ele>
        <time>2014-05-11T09:17:37Z</time>
      </trkpt>
      <trkpt lat="43.20951" lon="6.02622">
        <ele>103.6</ele>
        <time>2014-05-11T09:18:37Z</time>
      </trkpt>
      <trkpt lat="43.20934" lon="6.02597">
        <ele>148.45</ele>
        <time>2014-05-11T09:18:37Z</time>
      </trkpt>
      <trkpt lat="43.20916" lon="6.02584">
        <ele>148.019</ele>
        <time>2014-05-11T09:18:46Z</time>
      </trkpt>
      <trkpt lat="43.20893" lon="6.02572">
        <ele>147.572</ele>
        <time>2014-05-11T09:18:53Z</time>
      </trkpt>
      <trkpt lat="43.20875" lon="6.02552">
        <ele>147.846</ele>
        <time>2014-05-11T09:19:00Z</time>
      </trkpt>
      <trkpt lat="43.20869" lon="6.02545">
        <ele>147.907</ele>
        <time>2014-05-11T09:19:03Z</time>
      </trkpt>
      <trkpt lat="43.20862" lon="6.02538">
        <ele>147.909</ele>
        <time>2014-05-11T09:19:06Z</time>
      </trkpt>
      <trkpt lat="43.20848" lon="6.02525">
        <ele>147.917</ele>
        <time>2014-05-11T09:19:12Z</time>
      </trkpt>
      <trkpt lat="43.20831" lon="6.02513">
        <ele>148.501</ele>
        <time>2014-05-11T09:19:20Z</time>
      </trkpt>
      <trkpt lat="43.20797" lon="6.02497">
        <ele>150.456</ele>
        <time>2014-05-11T09:19:30Z</time>
      </trkpt>
      <trkpt lat="43.20776" lon="6.02491">
        <ele>150.97</ele>
        <time>2014-05-11T09:19:37Z</time>
      </trkpt>
      <trkpt lat="43.20749" lon="6.02487">
        <ele>150.731</ele>
        <time>2014-05-11T09:19:45Z</time>
      </trkpt>
      <trkpt lat="43.2073" lon="6.02483">
        <ele>149.057</ele>
        <time>2014-05-11T09:19:51Z</time>
      </trkpt>
      <trkpt lat="43.207" lon="6.02484">
        <ele>148.756</ele>
        <time>2014-05-11T09:20:00Z</time>
      </trkpt>
      <trkpt lat="43.20686" lon="6.02493">
        <ele>148.149</ele>
        <time>2014-05-11T09:20:06Z</time>
      </trkpt>
      <trkpt lat="43.20668" lon="6.02509">
        <ele>147.452</ele>
        <time>2014-05-11T09:20:13Z</time>
      </trkpt>
      <trkpt lat="43.20648" lon="6.02514">
        <ele>145.72</ele>
        <time>2014-05-11T09:20:24Z</time>
      </trkpt>
      <trkpt lat="43.2063" lon="6.02566">
        <ele>130.209</ele>
        <time>2014-05-11T09:20:39Z</time>
      </trkpt>
      <trkpt lat="43.20615" lon="6.02578">
        <ele>126.643</ele>
        <time>2014-05-11T09:20:42Z</time>
      </trkpt>
      <trkpt lat="43.206" lon="6.02598">
        <ele>128.421</ele>
        <time>2014-05-11T09:20:45Z</time>
      </trkpt>
      <trkpt lat="43.20567" lon="6.02645">
        <ele>134.008</ele>
        <time>2014-05-11T09:20:51Z</time>
      </trkpt>
      <trkpt lat="43.20527" lon="6.02678">
        <ele>135.619</ele>
        <time>2014-05-11T09:20:58Z</time>
      </trkpt>
      <trkpt lat="43.20491" lon="6.02713">
        <ele>133.475</ele>
        <time>2014-05-11T09:21:04Z</time>
      </trkpt>
      <trkpt lat="43.2046" lon="6.02714">
        <ele>132.288</ele>
        <time>2014-05-11T09:21:10Z</time>
      </trkpt>
      <trkpt lat="43.20453" lon="6.02674">
        <ele>133.917</ele>
        <time>2014-05-11T09:21:16Z</time>
      </trkpt>
      <trkpt lat="43.20431" lon="6.0267">
        <ele>134.207</ele>
        <time>2014-05-11T09:21:22Z</time>
      </trkpt>
      <trkpt lat="43.20414" lon="6.02658">
        <ele>133.99</ele>
        <time>2014-05-11T09:21:28Z</time>
      </trkpt>
      <trkpt lat="43.20411" lon="6.02656">
        <ele>133.973</ele>
        <time>2014-05-11T09:21:29Z</time>
      </trkpt>
      <trkpt lat="43.20411" lon="6.02656">
        <ele>93.9</ele>
        <time>2014-05-11T09:21:34Z</time>
      </trkpt>
      <trkpt lat="43.20411" lon="6.02656">
        <ele>93.9</ele>
        <time>2014-05-11T09:22:24Z</time>
      </trkpt>
      <trkpt lat="43.2041" lon="6.02632">
        <ele>135.389</ele>
        <time>2014-05-11T09:22:24Z</time>
      </trkpt>
      <trkpt lat="43.20421" lon="6.02587">
        <ele>136.39</ele>
        <time>2014-05-11T09:22:33Z</time>
      </trkpt>
      <trkpt lat="43.204" lon="6.02575">
        <ele>136.263</ele>
        <time>2014-05-11T09:22:40Z</time>
      </trkpt>
      <trkpt lat="43.20367" lon="6.0257">
        <ele>136.959</ele>
        <time>2014-05-11T09:22:46Z</time>
      </trkpt>
      <trkpt lat="43.20343" lon="6.02564">
        <ele>136.772</ele>
        <time>2014-05-11T09:22:51Z</time>
      </trkpt>
      <trkpt lat="43.20325" lon="6.02559">
        <ele>138.028</ele>
        <time>2014-05-11T09:22:54Z</time>
      </trkpt>
      <trkpt lat="43.20306" lon="6.02531">
        <ele>136.425</ele>
        <time>2014-05-11T09:22:59Z</time>
      </trkpt>
      <trkpt lat="43.2029" lon="6.02499">
        <ele>137.11</ele>
        <time>2014-05-11T09:23:05Z</time>
      </trkpt>
      <trkpt lat="43.20284" lon="6.02478">
        <ele>137.361</ele>
        <time>2014-05-11T09:23:09Z</time>
      </trkpt>
      <trkpt lat="43.20269" lon="6.02459">
        <ele>136.724</ele>
        <time>2014-05-11T09:23:14Z</time>
      </trkpt>
      <trkpt lat="43.20249" lon="6.02474">
        <ele>136.825</ele>
        <time>2014-05-11T09:23:20Z</time>
      </trkpt>
      <trkpt lat="43.20236" lon="6.02507">
        <ele>137.149</ele>
        <time>2014-05-11T09:23:27Z</time>
      </trkpt>
      <trkpt lat="43.20224" lon="6.02542">
        <ele>138.184</ele>
        <time>2014-05-11T09:23:34Z</time>
      </trkpt>
      <trkpt lat="43.20201" lon="6.02577">
        <ele>139.594</ele>
        <time>2014-05-11T09:23:41Z</time>
      </trkpt>
      <trkpt lat="43.20182" lon="6.026">
        <ele>137.764</ele>
        <time>2014-05-11T09:23:46Z</time>
      </trkpt>
      <trkpt lat="43.20151" lon="6.02626">
        <ele>137.063</ele>
        <time>2014-05-11T09:23:53Z</time>
      </trkpt>
      <trkpt lat="43.20113" lon="6.02661">
        <ele>132.927</ele>
        <time>2014-05-11T09:23:59Z</time>
      </trkpt>
      <trkpt lat="43.20089" lon="6.02674">
        <ele>132.248</ele>
        <time>2014-05-11T09:24:02Z</time>
      </trkpt>
      <trkpt lat="43.2007" lon="6.0269">
        <ele>131.845</ele>
        <time>2014-05-11T09:24:05Z</time>
      </trkpt>
      <trkpt lat="43.2004" lon="6.02713">
        <ele>130.585</ele>
        <time>2014-05-11T09:24:10Z</time>
      </trkpt>
      <trkpt lat="43.20022" lon="6.02728">
        <ele>131.509</ele>
        <time>2014-05-11T09:24:13Z</time>
      </trkpt>
      <trkpt lat="43.2" lon="6.02746">
        <ele>132.855</ele>
        <time>2014-05-11T09:24:18Z</time>
      </trkpt>
      <trkpt lat="43.19986" lon="6.02756">
        <ele>132.526</ele>
        <time>2014-05-11T09:24:21Z</time>
      </trkpt>
      <trkpt lat="43.19956" lon="6.02774">
        <ele>130.064</ele>
        <time>2014-05-11T09:24:27Z</time>
      </trkpt>
      <trkpt lat="43.19925" lon="6.02787">
        <ele>131.586</ele>
        <time>2014-05-11T09:24:33Z</time>
      </trkpt>
      <trkpt lat="43.19895" lon="6.02799">
        <ele>133.144</ele>
        <time>2014-05-11T09:24:40Z</time>
      </trkpt>
      <trkpt lat="43.19875" lon="6.02813">
        <ele>133.577</ele>
        <time>2014-05-11T09:24:47Z</time>
      </trkpt>
      <trkpt lat="43.19854" lon="6.02836">
        <ele>134.671</ele>
        <time>2014-05-11T09:24:55Z</time>
      </trkpt>
      <trkpt lat="43.19843" lon="6.0285">
        <ele>134.733</ele>
        <time>2014-05-11T09:24:59Z</time>
      </trkpt>
      <trkpt lat="43.1983" lon="6.02879">
        <ele>135.471</ele>
        <time>2014-05-11T09:25:04Z</time>
      </trkpt>
      <trkpt lat="43.19806" lon="6.0292">
        <ele>134.761</ele>
        <time>2014-05-11T09:25:09Z</time>
      </trkpt>
      <trkpt lat="43.19772" lon="6.02957">
        <ele>130.393</ele>
        <time>2014-05-11T09:25:15Z</time>
      </trkpt>
      <trkpt lat="43.19744" lon="6.02965">
        <ele>128.627</ele>
        <time>2014-05-11T09:25:20Z</time>
      </trkpt>
      <trkpt lat="43.19704" lon="6.02968">
        <ele>127.764</ele>
        <time>2014-05-11T09:25:26Z</time>
      </trkpt>
      <trkpt lat="43.19676" lon="6.0297">
        <ele>126.571</ele>
        <time>2014-05-11T09:25:31Z</time>
      </trkpt>
      <trkpt lat="43.19647" lon="6.02983">
        <ele>131.199</ele>
        <time>2014-05-11T09:25:37Z</time>
      </trkpt>
      <trkpt lat="43.19615" lon="6.02994">
        <ele>136.979</ele>
        <time>2014-05-11T09:25:43Z</time>
      </trkpt>
      <trkpt lat="43.1959" lon="6.03006">
        <ele>138.099</ele>
        <time>2014-05-11T09:25:48Z</time>
      </trkpt>
      <trkpt lat="43.19572" lon="6.03032">
        <ele>137.231</ele>
        <time>2014-05-11T09:25:53Z</time>
      </trkpt>
      <trkpt lat="43.19546" lon="6.0306">
        <ele>135.27</ele>
        <time>2014-05-11T09:25:59Z</time>
      </trkpt>
      <trkpt lat="43.19525" lon="6.03076">
        <ele>133.065</ele>
        <time>2014-05-11T09:26:04Z</time>
      </trkpt>
      <trkpt lat="43.19503" lon="6.03094">
        <ele>134.527</ele>
        <time>2014-05-11T09:26:10Z</time>
      </trkpt>
      <trkpt lat="43.19485" lon="6.0312">
        <ele>136.411</ele>
        <time>2014-05-11T09:26:15Z</time>
      </trkpt>
      <trkpt lat="43.19464" lon="6.03157">
        <ele>135.21</ele>
        <time>2014-05-11T09:26:20Z</time>
      </trkpt>
      <trkpt lat="43.19435" lon="6.03218">
        <ele>133.643</ele>
        <time>2014-05-11T09:26:28Z</time>
      </trkpt>
      <trkpt lat="43.19449" lon="6.03265">
        <ele>133.149</ele>
        <time>2014-05-11T09:26:33Z</time>
      </trkpt>
      <trkpt lat="43.19436" lon="6.03299">
        <ele>131.539</ele>
        <time>2014-05-11T09:26:37Z</time>
      </trkpt>
      <trkpt lat="43.19416" lon="6.03316">
        <ele>129.315</ele>
        <time>2014-05-11T09:26:40Z</time>
      </trkpt>
      <trkpt lat="43.19395" lon="6.03358">
        <ele>126.004</ele>
        <time>2014-05-11T09:26:45Z</time>
      </trkpt>
      <trkpt lat="43.19391" lon="6.03414">
        <ele>128.404</ele>
        <time>2014-05-11T09:26:51Z</time>
      </trkpt>
      <trkpt lat="43.19395" lon="6.03466">
        <ele>127.843</ele>
        <time>2014-05-11T09:26:57Z</time>
      </trkpt>
      <trkpt lat="43.19364" lon="6.035">
        <ele>124.95</ele>
        <time>2014-05-11T09:27:03Z</time>
      </trkpt>
      <trkpt lat="43.19346" lon="6.03512">
        <ele>124.714</ele>
        <time>2014-05-11T09:27:06Z</time>
      </trkpt>
      <trkpt lat="43.19325" lon="6.03523">
        <ele>124.83</ele>
        <time>2014-05-11T09:27:09Z</time>
      </trkpt>
      <trkpt lat="43.19288" lon="6.03534">
        <ele>126.866</ele>
        <time>2014-05-11T09:27:15Z</time>
      </trkpt>
      <trkpt lat="43.19253" lon="6.0355">
        <ele>129.279</ele>
        <time>2014-05-11T09:27:21Z</time>
      </trkpt>
      <trkpt lat="43.19217" lon="6.03563">
        <ele>129.184</ele>
        <time>2014-05-11T09:27:27Z</time>
      </trkpt>
      <trkpt lat="43.19201" lon="6.03571">
        <ele>128.511</ele>
        <time>2014-05-11T09:27:30Z</time>
      </trkpt>
      <trkpt lat="43.19177" lon="6.03591">
        <ele>126.933</ele>
        <time>2014-05-11T09:27:35Z</time>
      </trkpt>
      <trkpt lat="43.19148" lon="6.03625">
        <ele>124.957</ele>
        <time>2014-05-11T09:27:42Z</time>
      </trkpt>
      <trkpt lat="43.19125" lon="6.03649">
        <ele>125.549</ele>
        <time>2014-05-11T09:27:47Z</time>
      </trkpt>
      <trkpt lat="43.19101" lon="6.03678">
        <ele>125.245</ele>
        <time>2014-05-11T09:27:54Z</time>
      </trkpt>
      <trkpt lat="43.19103" lon="6.03691">
        <ele>125.286</ele>
        <time>2014-05-11T09:27:58Z</time>
      </trkpt>
      <trkpt lat="43.19103" lon="6.03691">
        <ele>84.1</ele>
        <time>2014-05-11T09:28:03Z</time>
      </trkpt>
      <trkpt lat="43.19103" lon="6.03691">
        <ele>84.1</ele>
        <time>2014-05-11T09:28:07Z</time>
      </trkpt>
      <trkpt lat="43.19091" lon="6.03695">
        <ele>125.005</ele>
        <time>2014-05-11T09:28:07Z</time>
      </trkpt>
      <trkpt lat="43.19069" lon="6.03714">
        <ele>123.341</ele>
        <time>2014-05-11T09:28:18Z</time>
      </trkpt>
      <trkpt lat="43.19069" lon="6.0373">
        <ele>123.26</ele>
        <time>2014-05-11T09:28:21Z</time>
      </trkpt>
      <trkpt lat="43.19062" lon="6.03776">
        <ele>122.063</ele>
        <time>2014-05-11T09:28:28Z</time>
      </trkpt>
      <trkpt lat="43.19057" lon="6.03818">
        <ele>121.736</ele>
        <time>2014-05-11T09:28:34Z</time>
      </trkpt>
      <trkpt lat="43.1905" lon="6.03851">
        <ele>124.02</ele>
        <time>2014-05-11T09:28:39Z</time>
      </trkpt>
      <trkpt lat="43.19037" lon="6.03883">
        <ele>127.118</ele>
        <time>2014-05-11T09:28:44Z</time>
      </trkpt>
      <trkpt lat="43.19024" lon="6.03918">
        <ele>126.807</ele>
        <time>2014-05-11T09:28:50Z</time>
      </trkpt>
      <trkpt lat="43.19015" lon="6.0395">
        <ele>125.869</ele>
        <time>2014-05-11T09:28:56Z</time>
      </trkpt>
      <trkpt lat="43.19003" lon="6.03977">
        <ele>125.038</ele>
        <time>2014-05-11T09:29:02Z</time>
      </trkpt>
      <trkpt lat="43.18995" lon="6.03992">
        <ele>125.143</ele>
        <time>2014-05-11T09:29:06Z</time>
      </trkpt>
      <trkpt lat="43.18995" lon="6.03992">
        <ele>79.3</ele>
        <time>2014-05-11T09:29:11Z</time>
      </trkpt>
      <trkpt lat="43.18995" lon="6.03992">
        <ele>79.3</ele>
        <time>2014-05-11T09:29:45Z</time>
      </trkpt>
      <trkpt lat="43.18978" lon="6.03991">
        <ele>123.131</ele>
        <time>2014-05-11T09:29:45Z</time>
      </trkpt>
      <trkpt lat="43.18964" lon="6.03972">
        <ele>120.636</ele>
        <time>2014-05-11T09:29:50Z</time>
      </trkpt>
      <trkpt lat="43.18953" lon="6.03962">
        <ele>117.631</ele>
        <time>2014-05-11T09:29:53Z</time>
      </trkpt>
      <trkpt lat="43.18944" lon="6.03949">
        <ele>116.937</ele>
        <time>2014-05-11T09:29:57Z</time>
      </trkpt>
      <trkpt lat="43.18936" lon="6.03936">
        <ele>116.865</ele>
        <time>2014-05-11T09:30:01Z</time>
      </trkpt>
      <trkpt lat="43.18926" lon="6.03918">
        <ele>117.551</ele>
        <time>2014-05-11T09:30:05Z</time>
      </trkpt>
      <trkpt lat="43.18906" lon="6.03897">
        <ele>119.117</ele>
        <time>2014-05-11T09:30:12Z</time>
      </trkpt>
      <trkpt lat="43.18884" lon="6.03897">
        <ele>119.983</ele>
        <time>2014-05-11T09:30:18Z</time>
      </trkpt>
      <trkpt lat="43.18867" lon="6.03905">
        <ele>120.522</ele>
        <time>2014-05-11T09:30:23Z</time>
      </trkpt>
      <trkpt lat="43.1885" lon="6.03916">
        <ele>121.511</ele>
        <time>2014-05-11T09:30:28Z</time>
      </trkpt>
      <trkpt lat="43.18828" lon="6.03931">
        <ele>122.292</ele>
        <time>2014-05-11T09:30:34Z</time>
      </trkpt>
      <trkpt lat="43.18798" lon="6.0395">
        <ele>126.383</ele>
        <time>2014-05-11T09:30:41Z</time>
      </trkpt>
      <trkpt lat="43.18771" lon="6.03968">
        <ele>127.229</ele>
        <time>2014-05-11T09:30:47Z</time>
      </trkpt>
      <trkpt lat="43.18747" lon="6.03982">
        <ele>128.643</ele>
        <time>2014-05-11T09:30:52Z</time>
      </trkpt>
      <trkpt lat="43.18719" lon="6.03996">
        <ele>128.308</ele>
        <time>2014-05-11T09:30:58Z</time>
      </trkpt>
      <trkpt lat="43.18702" lon="6.04004">
        <ele>127.159</ele>
        <time>2014-05-11T09:31:01Z</time>
      </trkpt>
      <trkpt lat="43.18666" lon="6.04025">
        <ele>123.564</ele>
        <time>2014-05-11T09:31:09Z</time>
      </trkpt>
      <trkpt lat="43.18642" lon="6.04042">
        <ele>124.626</ele>
        <time>2014-05-11T09:31:14Z</time>
      </trkpt>
      <trkpt lat="43.18611" lon="6.04074">
        <ele>124.467</ele>
        <time>2014-05-11T09:31:20Z</time>
      </trkpt>
      <trkpt lat="43.18586" lon="6.04112">
        <ele>122.482</ele>
        <time>2014-05-11T09:31:25Z</time>
      </trkpt>
      <trkpt lat="43.18553" lon="6.04157">
        <ele>120.658</ele>
        <time>2014-05-11T09:31:31Z</time>
      </trkpt>
      <trkpt lat="43.18538" lon="6.04182">
        <ele>119.873</ele>
        <time>2014-05-11T09:31:34Z</time>
      </trkpt>
      <trkpt lat="43.18513" lon="6.04255">
        <ele>118.486</ele>
        <time>2014-05-11T09:31:41Z</time>
      </trkpt>
      <trkpt lat="43.18508" lon="6.04334">
        <ele>117.684</ele>
        <time>2014-05-11T09:31:49Z</time>
      </trkpt>
      <trkpt lat="43.18527" lon="6.04385">
        <ele>113.877</ele>
        <time>2014-05-11T09:31:55Z</time>
      </trkpt>
      <trkpt lat="43.18491" lon="6.04403">
        <ele>108.36</ele>
        <time>2014-05-11T09:32:01Z</time>
      </trkpt>
      <trkpt lat="43.18459" lon="6.04402">
        <ele>109.51</ele>
        <time>2014-05-11T09:32:07Z</time>
      </trkpt>
      <trkpt lat="43.18444" lon="6.04427">
        <ele>110.872</ele>
        <time>2014-05-11T09:32:14Z</time>
      </trkpt>
      <trkpt lat="43.18428" lon="6.0444">
        <ele>111.085</ele>
        <time>2014-05-11T09:32:20Z</time>
      </trkpt>
      <trkpt lat="43.18402" lon="6.04442">
        <ele>112.201</ele>
        <time>2014-05-11T09:32:26Z</time>
      </trkpt>
      <trkpt lat="43.18388" lon="6.04443">
        <ele>112.751</ele>
        <time>2014-05-11T09:32:29Z</time>
      </trkpt>
      <trkpt lat="43.18364" lon="6.04448">
        <ele>109.993</ele>
        <time>2014-05-11T09:32:34Z</time>
      </trkpt>
      <trkpt lat="43.18349" lon="6.04451">
        <ele>111.561</ele>
        <time>2014-05-11T09:32:37Z</time>
      </trkpt>
      <trkpt lat="43.18333" lon="6.04456">
        <ele>112.955</ele>
        <time>2014-05-11T09:32:40Z</time>
      </trkpt>
      <trkpt lat="43.18312" lon="6.0446">
        <ele>113.574</ele>
        <time>2014-05-11T09:32:44Z</time>
      </trkpt>
      <trkpt lat="43.18282" lon="6.04478">
        <ele>113.862</ele>
        <time>2014-05-11T09:32:50Z</time>
      </trkpt>
      <trkpt lat="43.18268" lon="6.04486">
        <ele>114.808</ele>
        <time>2014-05-11T09:32:53Z</time>
      </trkpt>
      <trkpt lat="43.18252" lon="6.04494">
        <ele>114.655</ele>
        <time>2014-05-11T09:32:56Z</time>
      </trkpt>
      <trkpt lat="43.18223" lon="6.04513">
        <ele>113.521</ele>
        <time>2014-05-11T09:33:02Z</time>
      </trkpt>
      <trkpt lat="43.18198" lon="6.04529">
        <ele>115.036</ele>
        <time>2014-05-11T09:33:08Z</time>
      </trkpt>
      <trkpt lat="43.18173" lon="6.04545">
        <ele>114.102</ele>
        <time>2014-05-11T09:33:13Z</time>
      </trkpt>
      <trkpt lat="43.18126" lon="6.04581">
        <ele>112.792</ele>
        <time>2014-05-11T09:33:21Z</time>
      </trkpt>
      <trkpt lat="43.18096" lon="6.04602">
        <ele>113.418</ele>
        <time>2014-05-11T09:33:26Z</time>
      </trkpt>
      <trkpt lat="43.18077" lon="6.04614">
        <ele>113.677</ele>
        <time>2014-05-11T09:33:29Z</time>
      </trkpt>
      <trkpt lat="43.18044" lon="6.04634">
        <ele>111.981</ele>
        <time>2014-05-11T09:33:35Z</time>
      </trkpt>
      <trkpt lat="43.18013" lon="6.04658">
        <ele>110.627</ele>
        <time>2014-05-11T09:33:41Z</time>
      </trkpt>
      <trkpt lat="43.17994" lon="6.04673">
        <ele>111.112</ele>
        <time>2014-05-11T09:33:44Z</time>
      </trkpt>
      <trkpt lat="43.17964" lon="6.04694">
        <ele>110.008</ele>
        <time>2014-05-11T09:33:49Z</time>
      </trkpt>
      <trkpt lat="43.1794" lon="6.0471">
        <ele>110.508</ele>
        <time>2014-05-11T09:33:54Z</time>
      </trkpt>
      <trkpt lat="43.17945" lon="6.04735">
        <ele>110.325</ele>
        <time>2014-05-11T09:33:58Z</time>
      </trkpt>
      <trkpt lat="43.17962" lon="6.04773">
        <ele>108.924</ele>
        <time>2014-05-11T09:34:03Z</time>
      </trkpt>
      <trkpt lat="43.17976" lon="6.0481">
        <ele>110.093</ele>
        <time>2014-05-11T09:34:09Z</time>
      </trkpt>
      <trkpt lat="43.17971" lon="6.04834">
        <ele>109.712</ele>
        <time>2014-05-11T09:34:15Z</time>
      </trkpt>
      <trkpt lat="43.17961" lon="6.04871">
        <ele>106.262</ele>
        <time>2014-05-11T09:34:21Z</time>
      </trkpt>
      <trkpt lat="43.17968" lon="6.049">
        <ele>106.165</ele>
        <time>2014-05-11T09:34:26Z</time>
      </trkpt>
      <trkpt lat="43.17977" lon="6.04919">
        <ele>106.187</ele>
        <time>2014-05-11T09:34:32Z</time>
      </trkpt>
      <trkpt lat="43.17988" lon="6.04935">
        <ele>106.795</ele>
        <time>2014-05-11T09:34:35Z</time>
      </trkpt>
      <trkpt lat="43.18013" lon="6.0492">
        <ele>105.398</ele>
        <time>2014-05-11T09:34:39Z</time>
      </trkpt>
      <trkpt lat="43.18044" lon="6.04885">
        <ele>102.99</ele>
        <time>2014-05-11T09:34:45Z</time>
      </trkpt>
      <trkpt lat="43.18069" lon="6.04867">
        <ele>103.917</ele>
        <time>2014-05-11T09:34:50Z</time>
      </trkpt>
      <trkpt lat="43.18081" lon="6.0488">
        <ele>106.529</ele>
        <time>2014-05-11T09:34:53Z</time>
      </trkpt>
      <trkpt lat="43.18098" lon="6.04917">
        <ele>107.655</ele>
        <time>2014-05-11T09:34:58Z</time>
      </trkpt>
      <trkpt lat="43.1811" lon="6.04949">
        <ele>110.398</ele>
        <time>2014-05-11T09:35:03Z</time>
      </trkpt>
      <trkpt lat="43.18124" lon="6.04982">
        <ele>110.702</ele>
        <time>2014-05-11T09:35:08Z</time>
      </trkpt>
      <trkpt lat="43.18131" lon="6.05">
        <ele>111.167</ele>
        <time>2014-05-11T09:35:11Z</time>
      </trkpt>
      <trkpt lat="43.18145" lon="6.05037">
        <ele>110.201</ele>
        <time>2014-05-11T09:35:17Z</time>
      </trkpt>
      <trkpt lat="43.18156" lon="6.05067">
        <ele>110.176</ele>
        <time>2014-05-11T09:35:22Z</time>
      </trkpt>
      <trkpt lat="43.1815" lon="6.05087">
        <ele>110.765</ele>
        <time>2014-05-11T09:35:28Z</time>
      </trkpt>
      <trkpt lat="43.18124" lon="6.05099">
        <ele>109.578</ele>
        <time>2014-05-11T09:35:34Z</time>
      </trkpt>
      <trkpt lat="43.18108" lon="6.05106">
        <ele>111.523</ele>
        <time>2014-05-11T09:35:37Z</time>
      </trkpt>
      <trkpt lat="43.18074" lon="6.05123">
        <ele>111.791</ele>
        <time>2014-05-11T09:35:43Z</time>
      </trkpt>
      <trkpt lat="43.18042" lon="6.05138">
        <ele>113.705</ele>
        <time>2014-05-11T09:35:49Z</time>
      </trkpt>
      <trkpt lat="43.18001" lon="6.05155">
        <ele>114.207</ele>
        <time>2014-05-11T09:35:56Z</time>
      </trkpt>
      <trkpt lat="43.17975" lon="6.05171">
        <ele>113.614</ele>
        <time>2014-05-11T09:36:01Z</time>
      </trkpt>
      <trkpt lat="43.17959" lon="6.05221">
        <ele>110.241</ele>
        <time>2014-05-11T09:36:08Z</time>
      </trkpt>
      <trkpt lat="43.17948" lon="6.05236">
        <ele>108.838</ele>
        <time>2014-05-11T09:36:11Z</time>
      </trkpt>
      <trkpt lat="43.17936" lon="6.05244">
        <ele>107.161</ele>
        <time>2014-05-11T09:36:14Z</time>
      </trkpt>
      <trkpt lat="43.17911" lon="6.05264">
        <ele>108.093</ele>
        <time>2014-05-11T09:36:44Z</time>
      </trkpt>
      <trkpt lat="43.17894" lon="6.05273">
        <ele>109.544</ele>
        <time>2014-05-11T09:36:47Z</time>
      </trkpt>
      <trkpt lat="43.17868" lon="6.05295">
        <ele>111.237</ele>
        <time>2014-05-11T09:36:52Z</time>
      </trkpt>
      <trkpt lat="43.17835" lon="6.05324">
        <ele>109.944</ele>
        <time>2014-05-11T09:36:58Z</time>
      </trkpt>
      <trkpt lat="43.17805" lon="6.05348">
        <ele>108.817</ele>
        <time>2014-05-11T09:37:03Z</time>
      </trkpt>
      <trkpt lat="43.1777" lon="6.05371">
        <ele>108.659</ele>
        <time>2014-05-11T09:37:09Z</time>
      </trkpt>
      <trkpt lat="43.17739" lon="6.05391">
        <ele>107.685</ele>
        <time>2014-05-11T09:37:14Z</time>
      </trkpt>
      <trkpt lat="43.17721" lon="6.05406">
        <ele>107.761</ele>
        <time>2014-05-11T09:37:17Z</time>
      </trkpt>
      <trkpt lat="43.17703" lon="6.05423">
        <ele>107.162</ele>
        <time>2014-05-11T09:37:20Z</time>
      </trkpt>
      <trkpt lat="43.17683" lon="6.05441">
        <ele>106.358</ele>
        <time>2014-05-11T09:37:23Z</time>
      </trkpt>
      <trkpt lat="43.17652" lon="6.0547">
        <ele>104.295</ele>
        <time>2014-05-11T09:37:28Z</time>
      </trkpt>
      <trkpt lat="43.17616" lon="6.05504">
        <ele>102.49</ele>
        <time>2014-05-11T09:37:34Z</time>
      </trkpt>
      <trkpt lat="43.17583" lon="6.0553">
        <ele>104.133</ele>
        <time>2014-05-11T09:37:39Z</time>
      </trkpt>
      <trkpt lat="43.17554" lon="6.0556">
        <ele>105.784</ele>
        <time>2014-05-11T09:37:44Z</time>
      </trkpt>
      <trkpt lat="43.17544" lon="6.05586">
        <ele>105.187</ele>
        <time>2014-05-11T09:37:47Z</time>
      </trkpt>
      <trkpt lat="43.17524" lon="6.05623">
        <ele>104.529</ele>
        <time>2014-05-11T09:37:52Z</time>
      </trkpt>
      <trkpt lat="43.17488" lon="6.05651">
        <ele>106.599</ele>
        <time>2014-05-11T09:37:58Z</time>
      </trkpt>
      <trkpt lat="43.17454" lon="6.05671">
        <ele>106.332</ele>
        <time>2014-05-11T09:38:04Z</time>
      </trkpt>
      <trkpt lat="43.17423" lon="6.05693">
        <ele>103.8</ele>
        <time>2014-05-11T09:38:09Z</time>
      </trkpt>
      <trkpt lat="43.17392" lon="6.05724">
        <ele>103.241</ele>
        <time>2014-05-11T09:38:15Z</time>
      </trkpt>
      <trkpt lat="43.17378" lon="6.0574">
        <ele>103.137</ele>
        <time>2014-05-11T09:38:18Z</time>
      </trkpt>
      <trkpt lat="43.17363" lon="6.0575">
        <ele>102.876</ele>
        <time>2014-05-11T09:38:21Z</time>
      </trkpt>
      <trkpt lat="43.17328" lon="6.05771">
        <ele>105.113</ele>
        <time>2014-05-11T09:38:27Z</time>
      </trkpt>
      <trkpt lat="43.17313" lon="6.05782">
        <ele>105.808</ele>
        <time>2014-05-11T09:38:30Z</time>
      </trkpt>
      <trkpt lat="43.17288" lon="6.05803">
        <ele>105.053</ele>
        <time>2014-05-11T09:38:35Z</time>
      </trkpt>
      <trkpt lat="43.17268" lon="6.05802">
        <ele>104.949</ele>
        <time>2014-05-11T09:38:41Z</time>
      </trkpt>
      <trkpt lat="43.17264" lon="6.05769">
        <ele>105.814</ele>
        <time>2014-05-11T09:38:46Z</time>
      </trkpt>
      <trkpt lat="43.1726" lon="6.05733">
        <ele>106.516</ele>
        <time>2014-05-11T09:38:52Z</time>
      </trkpt>
      <trkpt lat="43.17261" lon="6.05689">
        <ele>109.78</ele>
        <time>2014-05-11T09:38:58Z</time>
      </trkpt>
      <trkpt lat="43.17266" lon="6.0564">
        <ele>109.059</ele>
        <time>2014-05-11T09:39:04Z</time>
      </trkpt>
      <trkpt lat="43.17256" lon="6.05583">
        <ele>109.911</ele>
        <time>2014-05-11T09:39:10Z</time>
      </trkpt>
      <trkpt lat="43.17248" lon="6.05532">
        <ele>109.909</ele>
        <time>2014-05-11T09:39:15Z</time>
      </trkpt>
      <trkpt lat="43.1724" lon="6.0549">
        <ele>110.136</ele>
        <time>2014-05-11T09:39:20Z</time>
      </trkpt>
      <trkpt lat="43.17229" lon="6.05442">
        <ele>110.33</ele>
        <time>2014-05-11T09:39:26Z</time>
      </trkpt>
      <trkpt lat="43.17222" lon="6.054">
        <ele>107.553</ele>
        <time>2014-05-11T09:39:31Z</time>
      </trkpt>
      <trkpt lat="43.17243" lon="6.05369">
        <ele>107.907</ele>
        <time>2014-05-11T09:39:36Z</time>
      </trkpt>
      <trkpt lat="43.17255" lon="6.05355">
        <ele>108.281</ele>
        <time>2014-05-11T09:39:39Z</time>
      </trkpt>
      <trkpt lat="43.17258" lon="6.05316">
        <ele>106.884</ele>
        <time>2014-05-11T09:39:44Z</time>
      </trkpt>
      <trkpt lat="43.17265" lon="6.05285">
        <ele>106.122</ele>
        <time>2014-05-11T09:39:49Z</time>
      </trkpt>
      <trkpt lat="43.173" lon="6.05264">
        <ele>105.22</ele>
        <time>2014-05-11T09:39:56Z</time>
      </trkpt>
      <trkpt lat="43.17308" lon="6.05214">
        <ele>106.766</ele>
        <time>2014-05-11T09:40:02Z</time>
      </trkpt>
      <trkpt lat="43.17305" lon="6.05186">
        <ele>107.41</ele>
        <time>2014-05-11T09:40:05Z</time>
      </trkpt>
      <trkpt lat="43.17304" lon="6.05148">
        <ele>109.844</ele>
        <time>2014-05-11T09:40:10Z</time>
      </trkpt>
      <trkpt lat="43.17308" lon="6.05114">
        <ele>110.753</ele>
        <time>2014-05-11T09:40:16Z</time>
      </trkpt>
      <trkpt lat="43.1729" lon="6.05082">
        <ele>110.675</ele>
        <time>2014-05-11T09:40:24Z</time>
      </trkpt>
      <trkpt lat="43.17273" lon="6.05063">
        <ele>110.544</ele>
        <time>2014-05-11T09:40:29Z</time>
      </trkpt>
      <trkpt lat="43.17247" lon="6.05059">
        <ele>110.194</ele>
        <time>2014-05-11T09:40:35Z</time>
      </trkpt>
      <trkpt lat="43.17227" lon="6.05068">
        <ele>108.857</ele>
        <time>2014-05-11T09:40:39Z</time>
      </trkpt>
      <trkpt lat="43.17196" lon="6.05095">
        <ele>104.804</ele>
        <time>2014-05-11T09:40:45Z</time>
      </trkpt>
      <trkpt lat="43.17171" lon="6.05121">
        <ele>101.603</ele>
        <time>2014-05-11T09:40:50Z</time>
      </trkpt>
      <trkpt lat="43.17147" lon="6.05142">
        <ele>101.123</ele>
        <time>2014-05-11T09:40:55Z</time>
      </trkpt>
      <trkpt lat="43.17114" lon="6.05167">
        <ele>100.416</ele>
        <time>2014-05-11T09:41:01Z</time>
      </trkpt>
      <trkpt lat="43.17081" lon="6.05193">
        <ele>100.873</ele>
        <time>2014-05-11T09:41:07Z</time>
      </trkpt>
      <trkpt lat="43.17047" lon="6.05225">
        <ele>98.6245</ele>
        <time>2014-05-11T09:41:13Z</time>
      </trkpt>
      <trkpt lat="43.17027" lon="6.05281">
        <ele>98.2358</ele>
        <time>2014-05-11T09:41:20Z</time>
      </trkpt>
      <trkpt lat="43.17026" lon="6.05328">
        <ele>99.4045</ele>
        <time>2014-05-11T09:41:25Z</time>
      </trkpt>
      <trkpt lat="43.17027" lon="6.05377">
        <ele>100.302</ele>
        <time>2014-05-11T09:41:30Z</time>
      </trkpt>
      <trkpt lat="43.17022" lon="6.05433">
        <ele>101.166</ele>
        <time>2014-05-11T09:41:36Z</time>
      </trkpt>
      <trkpt lat="43.16996" lon="6.05466">
        <ele>99.051</ele>
        <time>2014-05-11T09:41:41Z</time>
      </trkpt>
      <trkpt lat="43.16964" lon="6.05498">
        <ele>97.8171</ele>
        <time>2014-05-11T09:41:47Z</time>
      </trkpt>
      <trkpt lat="43.16943" lon="6.05532">
        <ele>97.8025</ele>
        <time>2014-05-11T09:41:52Z</time>
      </trkpt>
      <trkpt lat="43.16928" lon="6.05582">
        <ele>98.7717</ele>
        <time>2014-05-11T09:41:58Z</time>
      </trkpt>
      <trkpt lat="43.16909" lon="6.05622">
        <ele>97.2339</ele>
        <time>2014-05-11T09:42:03Z</time>
      </trkpt>
      <trkpt lat="43.16877" lon="6.05662">
        <ele>95.1008</ele>
        <time>2014-05-11T09:42:09Z</time>
      </trkpt>
      <trkpt lat="43.16863" lon="6.05681">
        <ele>94.9962</ele>
        <time>2014-05-11T09:42:12Z</time>
      </trkpt>
      <trkpt lat="43.16835" lon="6.05705">
        <ele>96.7302</ele>
        <time>2014-05-11T09:42:17Z</time>
      </trkpt>
      <trkpt lat="43.16803" lon="6.05719">
        <ele>100.187</ele>
        <time>2014-05-11T09:42:22Z</time>
      </trkpt>
      <trkpt lat="43.16771" lon="6.05731">
        <ele>100.817</ele>
        <time>2014-05-11T09:42:27Z</time>
      </trkpt>
      <trkpt lat="43.16733" lon="6.05744">
        <ele>100.827</ele>
        <time>2014-05-11T09:42:33Z</time>
      </trkpt>
      <trkpt lat="43.16696" lon="6.0576">
        <ele>99.2648</ele>
        <time>2014-05-11T09:42:39Z</time>
      </trkpt>
      <trkpt lat="43.16675" lon="6.05769">
        <ele>99.6769</ele>
        <time>2014-05-11T09:42:42Z</time>
      </trkpt>
      <trkpt lat="43.1664" lon="6.05786">
        <ele>101.27</ele>
        <time>2014-05-11T09:42:48Z</time>
      </trkpt>
      <trkpt lat="43.16602" lon="6.05807">
        <ele>100.44</ele>
        <time>2014-05-11T09:42:54Z</time>
      </trkpt>
      <trkpt lat="43.16558" lon="6.05839">
        <ele>98.0294</ele>
        <time>2014-05-11T09:43:01Z</time>
      </trkpt>
      <trkpt lat="43.16528" lon="6.05863">
        <ele>97.2995</ele>
        <time>2014-05-11T09:43:06Z</time>
      </trkpt>
      <trkpt lat="43.16491" lon="6.05888">
        <ele>96.5195</ele>
        <time>2014-05-11T09:43:12Z</time>
      </trkpt>
      <trkpt lat="43.16458" lon="6.0591">
        <ele>95.3689</ele>
        <time>2014-05-11T09:43:17Z</time>
      </trkpt>
      <trkpt lat="43.16423" lon="6.05928">
        <ele>93.6479</ele>
        <time>2014-05-11T09:43:22Z</time>
      </trkpt>
      <trkpt lat="43.16404" lon="6.05937">
        <ele>93.9574</ele>
        <time>2014-05-11T09:43:25Z</time>
      </trkpt>
      <trkpt lat="43.16362" lon="6.05954">
        <ele>95.3151</ele>
        <time>2014-05-11T09:43:31Z</time>
      </trkpt>
      <trkpt lat="43.16327" lon="6.05968">
        <ele>94.4871</ele>
        <time>2014-05-11T09:43:36Z</time>
      </trkpt>
      <trkpt lat="43.16305" lon="6.05978">
        <ele>95.7971</ele>
        <time>2014-05-11T09:43:39Z</time>
      </trkpt>
      <trkpt lat="43.16284" lon="6.05986">
        <ele>94.8713</ele>
        <time>2014-05-11T09:43:42Z</time>
      </trkpt>
      <trkpt lat="43.16264" lon="6.05994">
        <ele>94.3431</ele>
        <time>2014-05-11T09:43:45Z</time>
      </trkpt>
      <trkpt lat="43.16223" lon="6.06005">
        <ele>94.1747</ele>
        <time>2014-05-11T09:43:51Z</time>
      </trkpt>
      <trkpt lat="43.16189" lon="6.06009">
        <ele>94.6444</ele>
        <time>2014-05-11T09:43:57Z</time>
      </trkpt>
      <trkpt lat="43.16156" lon="6.06013">
        <ele>96.6799</ele>
        <time>2014-05-11T09:44:03Z</time>
      </trkpt>
      <trkpt lat="43.16132" lon="6.06014">
        <ele>96.9976</ele>
        <time>2014-05-11T09:44:08Z</time>
      </trkpt>
      <trkpt lat="43.16125" lon="6.0601">
        <ele>97.0361</ele>
        <time>2014-05-11T09:44:12Z</time>
      </trkpt>
      <trkpt lat="43.16125" lon="6.0601">
        <ele>52.5</ele>
        <time>2014-05-11T09:44:17Z</time>
      </trkpt>
      <trkpt lat="43.16125" lon="6.0601">
        <ele>52.5</ele>
        <time>2014-05-11T09:44:20Z</time>
      </trkpt>
      <trkpt lat="43.1612" lon="6.06002">
        <ele>96.7875</ele>
        <time>2014-05-11T09:44:20Z</time>
      </trkpt>
      <trkpt lat="43.16099" lon="6.05996">
        <ele>97.0644</ele>
        <time>2014-05-11T09:44:26Z</time>
      </trkpt>
      <trkpt lat="43.16093" lon="6.06043">
        <ele>93.9957</ele>
        <time>2014-05-11T09:44:32Z</time>
      </trkpt>
      <trkpt lat="43.16082" lon="6.06083">
        <ele>91.3563</ele>
        <time>2014-05-11T09:44:37Z</time>
      </trkpt>
      <trkpt lat="43.16058" lon="6.06131">
        <ele>92.1905</ele>
        <time>2014-05-11T09:44:43Z</time>
      </trkpt>
      <trkpt lat="43.16031" lon="6.06184">
        <ele>91.9912</ele>
        <time>2014-05-11T09:44:50Z</time>
      </trkpt>
      <trkpt lat="43.1601" lon="6.06225">
        <ele>93.7362</ele>
        <time>2014-05-11T09:44:55Z</time>
      </trkpt>
      <trkpt lat="43.15991" lon="6.06264">
        <ele>93.711</ele>
        <time>2014-05-11T09:45:00Z</time>
      </trkpt>
      <trkpt lat="43.15965" lon="6.06313">
        <ele>90.2289</ele>
        <time>2014-05-11T09:45:06Z</time>
      </trkpt>
      <trkpt lat="43.15945" lon="6.06351">
        <ele>87.2645</ele>
        <time>2014-05-11T09:45:11Z</time>
      </trkpt>
      <trkpt lat="43.15922" lon="6.06394">
        <ele>86.5298</ele>
        <time>2014-05-11T09:45:16Z</time>
      </trkpt>
      <trkpt lat="43.15896" lon="6.06441">
        <ele>88.1265</ele>
        <time>2014-05-11T09:45:22Z</time>
      </trkpt>
      <trkpt lat="43.15883" lon="6.06463">
        <ele>87.651</ele>
        <time>2014-05-11T09:45:25Z</time>
      </trkpt>
      <trkpt lat="43.15868" lon="6.06487">
        <ele>88.681</ele>
        <time>2014-05-11T09:45:28Z</time>
      </trkpt>
      <trkpt lat="43.15841" lon="6.06526">
        <ele>90.0228</ele>
        <time>2014-05-11T09:45:33Z</time>
      </trkpt>
      <trkpt lat="43.15812" lon="6.06565">
        <ele>90.6878</ele>
        <time>2014-05-11T09:45:39Z</time>
      </trkpt>
      <trkpt lat="43.15784" lon="6.06598">
        <ele>90.7653</ele>
        <time>2014-05-11T09:45:44Z</time>
      </trkpt>
      <trkpt lat="43.15767" lon="6.06619">
        <ele>91.133</ele>
        <time>2014-05-11T09:45:47Z</time>
      </trkpt>
      <trkpt lat="43.15733" lon="6.06662">
        <ele>88.5949</ele>
        <time>2014-05-11T09:45:53Z</time>
      </trkpt>
      <trkpt lat="43.15699" lon="6.06704">
        <ele>88.255</ele>
        <time>2014-05-11T09:45:59Z</time>
      </trkpt>
      <trkpt lat="43.15663" lon="6.06748">
        <ele>87.5394</ele>
        <time>2014-05-11T09:46:05Z</time>
      </trkpt>
      <trkpt lat="43.15634" lon="6.0678">
        <ele>88.1149</ele>
        <time>2014-05-11T09:46:10Z</time>
      </trkpt>
      <trkpt lat="43.15602" lon="6.06812">
        <ele>86.1617</ele>
        <time>2014-05-11T09:46:15Z</time>
      </trkpt>
      <trkpt lat="43.15586" lon="6.06828">
        <ele>86.2417</ele>
        <time>2014-05-11T09:46:18Z</time>
      </trkpt>
      <trkpt lat="43.15569" lon="6.06846">
        <ele>85.0968</ele>
        <time>2014-05-11T09:46:21Z</time>
      </trkpt>
      <trkpt lat="43.15543" lon="6.06875">
        <ele>85.3259</ele>
        <time>2014-05-11T09:46:26Z</time>
      </trkpt>
      <trkpt lat="43.15516" lon="6.06908">
        <ele>85.0445</ele>
        <time>2014-05-11T09:46:32Z</time>
      </trkpt>
      <trkpt lat="43.15503" lon="6.06928">
        <ele>84.7612</ele>
        <time>2014-05-11T09:46:35Z</time>
      </trkpt>
      <trkpt lat="43.15474" lon="6.06965">
        <ele>85.9289</ele>
        <time>2014-05-11T09:46:41Z</time>
      </trkpt>
      <trkpt lat="43.15456" lon="6.06988">
        <ele>85.7979</ele>
        <time>2014-05-11T09:46:46Z</time>
      </trkpt>
      <trkpt lat="43.1544" lon="6.07001">
        <ele>87.3165</ele>
        <time>2014-05-11T09:46:49Z</time>
      </trkpt>
      <trkpt lat="43.15416" lon="6.07023">
        <ele>85.6406</ele>
        <time>2014-05-11T09:46:54Z</time>
      </trkpt>
      <trkpt lat="43.1539" lon="6.07034">
        <ele>86.2133</ele>
        <time>2014-05-11T09:46:59Z</time>
      </trkpt>
      <trkpt lat="43.15364" lon="6.07021">
        <ele>89.2584</ele>
        <time>2014-05-11T09:47:04Z</time>
      </trkpt>
      <trkpt lat="43.15343" lon="6.07">
        <ele>93.6686</ele>
        <time>2014-05-11T09:47:09Z</time>
      </trkpt>
      <trkpt lat="43.15326" lon="6.06974">
        <ele>95.4114</ele>
        <time>2014-05-11T09:47:14Z</time>
      </trkpt>
      <trkpt lat="43.15305" lon="6.06942">
        <ele>94.1065</ele>
        <time>2014-05-11T09:47:20Z</time>
      </trkpt>
      <trkpt lat="43.15284" lon="6.06909">
        <ele>92.5392</ele>
        <time>2014-05-11T09:47:26Z</time>
      </trkpt>
      <trkpt lat="43.15267" lon="6.06889">
        <ele>93.6287</ele>
        <time>2014-05-11T09:47:31Z</time>
      </trkpt>
      <trkpt lat="43.15245" lon="6.06856">
        <ele>95.2334</ele>
        <time>2014-05-11T09:47:37Z</time>
      </trkpt>
      <trkpt lat="43.15236" lon="6.0684">
        <ele>93.9134</ele>
        <time>2014-05-11T09:47:40Z</time>
      </trkpt>
      <trkpt lat="43.15214" lon="6.06808">
        <ele>93.4222</ele>
        <time>2014-05-11T09:47:46Z</time>
      </trkpt>
      <trkpt lat="43.15201" lon="6.06791">
        <ele>95.3384</ele>
        <time>2014-05-11T09:47:49Z</time>
      </trkpt>
      <trkpt lat="43.15181" lon="6.06766">
        <ele>94.4954</ele>
        <time>2014-05-11T09:47:54Z</time>
      </trkpt>
      <trkpt lat="43.15156" lon="6.06738">
        <ele>93.7308</ele>
        <time>2014-05-11T09:48:00Z</time>
      </trkpt>
      <trkpt lat="43.1514" lon="6.06739">
        <ele>92.0165</ele>
        <time>2014-05-11T09:48:03Z</time>
      </trkpt>
      <trkpt lat="43.15103" lon="6.06745">
        <ele>91.4313</ele>
        <time>2014-05-11T09:48:09Z</time>
      </trkpt>
      <trkpt lat="43.15076" lon="6.06756">
        <ele>91.2388</ele>
        <time>2014-05-11T09:48:14Z</time>
      </trkpt>
      <trkpt lat="43.1505" lon="6.06751">
        <ele>92.3444</ele>
        <time>2014-05-11T09:48:21Z</time>
      </trkpt>
      <trkpt lat="43.15026" lon="6.06713">
        <ele>93.2697</ele>
        <time>2014-05-11T09:48:28Z</time>
      </trkpt>
      <trkpt lat="43.15001" lon="6.06713">
        <ele>93.0797</ele>
        <time>2014-05-11T09:48:33Z</time>
      </trkpt>
      <trkpt lat="43.14989" lon="6.067">
        <ele>93.8272</ele>
        <time>2014-05-11T09:48:36Z</time>
      </trkpt>
      <trkpt lat="43.14956" lon="6.06707">
        <ele>91.8711</ele>
        <time>2014-05-11T09:48:42Z</time>
      </trkpt>
      <trkpt lat="43.14929" lon="6.06694">
        <ele>88.9219</ele>
        <time>2014-05-11T09:48:48Z</time>
      </trkpt>
      <trkpt lat="43.14908" lon="6.06669">
        <ele>91.2124</ele>
        <time>2014-05-11T09:48:53Z</time>
      </trkpt>
      <trkpt lat="43.14884" lon="6.06636">
        <ele>91.293</ele>
        <time>2014-05-11T09:48:59Z</time>
      </trkpt>
      <trkpt lat="43.14851" lon="6.06611">
        <ele>88.6753</ele>
        <time>2014-05-11T09:49:07Z</time>
      </trkpt>
      <trkpt lat="43.14832" lon="6.0663">
        <ele>87.0262</ele>
        <time>2014-05-11T09:49:12Z</time>
      </trkpt>
      <trkpt lat="43.1481" lon="6.06628">
        <ele>85.1056</ele>
        <time>2014-05-11T09:49:19Z</time>
      </trkpt>
      <trkpt lat="43.14792" lon="6.06601">
        <ele>86.8971</ele>
        <time>2014-05-11T09:49:24Z</time>
      </trkpt>
      <trkpt lat="43.14765" lon="6.06562">
        <ele>89.9287</ele>
        <time>2014-05-11T09:49:31Z</time>
      </trkpt>
      <trkpt lat="43.14728" lon="6.06542">
        <ele>88.8358</ele>
        <time>2014-05-11T09:49:39Z</time>
      </trkpt>
      <trkpt lat="43.14705" lon="6.06516">
        <ele>88.9113</ele>
        <time>2014-05-11T09:49:45Z</time>
      </trkpt>
      <trkpt lat="43.14687" lon="6.06488">
        <ele>89.7734</ele>
        <time>2014-05-11T09:49:50Z</time>
      </trkpt>
      <trkpt lat="43.14668" lon="6.0646">
        <ele>89.6449</ele>
        <time>2014-05-11T09:49:55Z</time>
      </trkpt>
      <trkpt lat="43.14638" lon="6.06451">
        <ele>88.101</ele>
        <time>2014-05-11T09:50:01Z</time>
      </trkpt>
      <trkpt lat="43.14613" lon="6.06456">
        <ele>89.3607</ele>
        <time>2014-05-11T09:50:06Z</time>
      </trkpt>
      <trkpt lat="43.14596" lon="6.06488">
        <ele>87.9119</ele>
        <time>2014-05-11T09:50:13Z</time>
      </trkpt>
      <trkpt lat="43.14593" lon="6.0653">
        <ele>86.1248</ele>
        <time>2014-05-11T09:50:18Z</time>
      </trkpt>
      <trkpt lat="43.14585" lon="6.06578">
        <ele>88.0583</ele>
        <time>2014-05-11T09:50:24Z</time>
      </trkpt>
      <trkpt lat="43.14576" lon="6.06613">
        <ele>87.6147</ele>
        <time>2014-05-11T09:50:29Z</time>
      </trkpt>
      <trkpt lat="43.1457" lon="6.06637">
        <ele>87.3767</ele>
        <time>2014-05-11T09:50:32Z</time>
      </trkpt>
      <trkpt lat="43.14558" lon="6.06679">
        <ele>86.1429</ele>
        <time>2014-05-11T09:50:38Z</time>
      </trkpt>
      <trkpt lat="43.14547" lon="6.06681">
        <ele>85.953</ele>
        <time>2014-05-11T09:50:44Z</time>
      </trkpt>
      <trkpt lat="43.14527" lon="6.06665">
        <ele>86.6787</ele>
        <time>2014-05-11T09:50:49Z</time>
      </trkpt>
      <trkpt lat="43.14501" lon="6.06697">
        <ele>80.6564</ele>
        <time>2014-05-11T09:50:56Z</time>
      </trkpt>
      <trkpt lat="43.14489" lon="6.0674">
        <ele>79.0816</ele>
        <time>2014-05-11T09:51:01Z</time>
      </trkpt>
      <trkpt lat="43.14482" lon="6.06765">
        <ele>79.0606</ele>
        <time>2014-05-11T09:51:04Z</time>
      </trkpt>
      <trkpt lat="43.14473" lon="6.06798">
        <ele>78.0005</ele>
        <time>2014-05-11T09:51:08Z</time>
      </trkpt>
      <trkpt lat="43.14467" lon="6.06821">
        <ele>77.5336</ele>
        <time>2014-05-11T09:51:11Z</time>
      </trkpt>
      <trkpt lat="43.1445" lon="6.06853">
        <ele>76.4932</ele>
        <time>2014-05-11T09:51:16Z</time>
      </trkpt>
      <trkpt lat="43.14432" lon="6.06895">
        <ele>76.0698</ele>
        <time>2014-05-11T09:51:22Z</time>
      </trkpt>
      <trkpt lat="43.14423" lon="6.0693">
        <ele>73.5183</ele>
        <time>2014-05-11T09:51:27Z</time>
      </trkpt>
      <trkpt lat="43.14416" lon="6.06971">
        <ele>72.6281</ele>
        <time>2014-05-11T09:51:33Z</time>
      </trkpt>
      <trkpt lat="43.14416" lon="6.07001">
        <ele>75.2943</ele>
        <time>2014-05-11T09:51:36Z</time>
      </trkpt>
      <trkpt lat="43.14421" lon="6.07038">
        <ele>77.5988</ele>
        <time>2014-05-11T09:51:40Z</time>
      </trkpt>
      <trkpt lat="43.14423" lon="6.07064">
        <ele>76.4665</ele>
        <time>2014-05-11T09:51:43Z</time>
      </trkpt>
      <trkpt lat="43.14396" lon="6.07092">
        <ele>73.4305</ele>
        <time>2014-05-11T09:51:49Z</time>
      </trkpt>
      <trkpt lat="43.14361" lon="6.07106">
        <ele>75.1968</ele>
        <time>2014-05-11T09:51:55Z</time>
      </trkpt>
      <trkpt lat="43.14335" lon="6.07125">
        <ele>80.416</ele>
        <time>2014-05-11T09:52:00Z</time>
      </trkpt>
      <trkpt lat="43.14319" lon="6.07141">
        <ele>80.5101</ele>
        <time>2014-05-11T09:52:03Z</time>
      </trkpt>
      <trkpt lat="43.14295" lon="6.07172">
        <ele>76.9284</ele>
        <time>2014-05-11T09:52:08Z</time>
      </trkpt>
      <trkpt lat="43.14271" lon="6.07208">
        <ele>75.0974</ele>
        <time>2014-05-11T09:52:14Z</time>
      </trkpt>
      <trkpt lat="43.14246" lon="6.07248">
        <ele>74.8939</ele>
        <time>2014-05-11T09:52:21Z</time>
      </trkpt>
      <trkpt lat="43.14235" lon="6.07285">
        <ele>79.0489</ele>
        <time>2014-05-11T09:52:26Z</time>
      </trkpt>
      <trkpt lat="43.14229" lon="6.07337">
        <ele>79.9079</ele>
        <time>2014-05-11T09:52:32Z</time>
      </trkpt>
      <trkpt lat="43.14222" lon="6.07388">
        <ele>81.1399</ele>
        <time>2014-05-11T09:52:38Z</time>
      </trkpt>
      <trkpt lat="43.14209" lon="6.07435">
        <ele>80.5498</ele>
        <time>2014-05-11T09:52:44Z</time>
      </trkpt>
      <trkpt lat="43.14185" lon="6.07464">
        <ele>80.8238</ele>
        <time>2014-05-11T09:52:49Z</time>
      </trkpt>
      <trkpt lat="43.14155" lon="6.07496">
        <ele>78.6147</ele>
        <time>2014-05-11T09:52:55Z</time>
      </trkpt>
      <trkpt lat="43.14121" lon="6.0752">
        <ele>78.1709</ele>
        <time>2014-05-11T09:53:01Z</time>
      </trkpt>
      <trkpt lat="43.14091" lon="6.0753">
        <ele>79.6817</ele>
        <time>2014-05-11T09:53:07Z</time>
      </trkpt>
      <trkpt lat="43.14075" lon="6.07535">
        <ele>80.2688</ele>
        <time>2014-05-11T09:53:10Z</time>
      </trkpt>
      <trkpt lat="43.14058" lon="6.0754">
        <ele>81.8997</ele>
        <time>2014-05-11T09:53:13Z</time>
      </trkpt>
      <trkpt lat="43.14042" lon="6.07543">
        <ele>84.0839</ele>
        <time>2014-05-11T09:53:16Z</time>
      </trkpt>
      <trkpt lat="43.14009" lon="6.07549">
        <ele>87.7414</ele>
        <time>2014-05-11T09:53:22Z</time>
      </trkpt>
      <trkpt lat="43.13976" lon="6.07548">
        <ele>85.4153</ele>
        <time>2014-05-11T09:53:28Z</time>
      </trkpt>
      <trkpt lat="43.13947" lon="6.07549">
        <ele>86.506</ele>
        <time>2014-05-11T09:53:34Z</time>
      </trkpt>
      <trkpt lat="43.13916" lon="6.07546">
        <ele>85.3232</ele>
        <time>2014-05-11T09:53:40Z</time>
      </trkpt>
      <trkpt lat="43.13892" lon="6.07543">
        <ele>84.2937</ele>
        <time>2014-05-11T09:53:45Z</time>
      </trkpt>
      <trkpt lat="43.13865" lon="6.07537">
        <ele>86.1351</ele>
        <time>2014-05-11T09:53:50Z</time>
      </trkpt>
      <trkpt lat="43.13834" lon="6.07524">
        <ele>85.8944</ele>
        <time>2014-05-11T09:53:56Z</time>
      </trkpt>
      <trkpt lat="43.13804" lon="6.07514">
        <ele>86.4884</ele>
        <time>2014-05-11T09:54:02Z</time>
      </trkpt>
      <trkpt lat="43.13775" lon="6.07502">
        <ele>85.5851</ele>
        <time>2014-05-11T09:54:08Z</time>
      </trkpt>
      <trkpt lat="43.13754" lon="6.0749">
        <ele>87.1029</ele>
        <time>2014-05-11T09:54:14Z</time>
      </trkpt>
      <trkpt lat="43.13733" lon="6.07482">
        <ele>87.2774</ele>
        <time>2014-05-11T09:54:20Z</time>
      </trkpt>
      <trkpt lat="43.13709" lon="6.07479">
        <ele>87.5953</ele>
        <time>2014-05-11T09:54:27Z</time>
      </trkpt>
      <trkpt lat="43.13691" lon="6.07501">
        <ele>86.6704</ele>
        <time>2014-05-11T09:54:35Z</time>
      </trkpt>
      <trkpt lat="43.1367" lon="6.07511">
        <ele>86.011</ele>
        <time>2014-05-11T09:54:42Z</time>
      </trkpt>
      <trkpt lat="43.13657" lon="6.07549">
        <ele>84.4884</ele>
        <time>2014-05-11T09:54:49Z</time>
      </trkpt>
      <trkpt lat="43.13651" lon="6.07563">
        <ele>84.2095</ele>
        <time>2014-05-11T09:54:52Z</time>
      </trkpt>
      <trkpt lat="43.13638" lon="6.07595">
        <ele>83.9647</ele>
        <time>2014-05-11T09:54:59Z</time>
      </trkpt>
      <trkpt lat="43.13626" lon="6.07615">
        <ele>84.4185</ele>
        <time>2014-05-11T09:55:05Z</time>
      </trkpt>
      <trkpt lat="43.1361" lon="6.07651">
        <ele>84.7158</ele>
        <time>2014-05-11T09:55:14Z</time>
      </trkpt>
      <trkpt lat="43.13601" lon="6.0767">
        <ele>84.6087</ele>
        <time>2014-05-11T09:55:19Z</time>
      </trkpt>
      <trkpt lat="43.13593" lon="6.07686">
        <ele>84.5928</ele>
        <time>2014-05-11T09:55:23Z</time>
      </trkpt>
      <trkpt lat="43.13573" lon="6.07698">
        <ele>85.5795</ele>
        <time>2014-05-11T09:55:34Z</time>
      </trkpt>
      <trkpt lat="43.13542" lon="6.07669">
        <ele>96.1643</ele>
        <time>2014-05-11T09:55:42Z</time>
      </trkpt>
      <trkpt lat="43.13526" lon="6.07662">
        <ele>96.8096</ele>
        <time>2014-05-11T09:55:46Z</time>
      </trkpt>
      <trkpt lat="43.13512" lon="6.07656">
        <ele>96.4188</ele>
        <time>2014-05-11T09:55:49Z</time>
      </trkpt>
      <trkpt lat="43.13499" lon="6.07649">
        <ele>96.9333</ele>
        <time>2014-05-11T09:55:52Z</time>
      </trkpt>
      <trkpt lat="43.13486" lon="6.07641">
        <ele>96.6182</ele>
        <time>2014-05-11T09:55:55Z</time>
      </trkpt>
      <trkpt lat="43.13472" lon="6.07633">
        <ele>96.0107</ele>
        <time>2014-05-11T09:55:58Z</time>
      </trkpt>
      <trkpt lat="43.13438" lon="6.07621">
        <ele>94.9422</ele>
        <time>2014-05-11T09:56:05Z</time>
      </trkpt>
      <trkpt lat="43.13411" lon="6.07623">
        <ele>95.9814</ele>
        <time>2014-05-11T09:56:10Z</time>
      </trkpt>
      <trkpt lat="43.13394" lon="6.07635">
        <ele>93.6388</ele>
        <time>2014-05-11T09:56:13Z</time>
      </trkpt>
      <trkpt lat="43.13378" lon="6.07651">
        <ele>92.2717</ele>
        <time>2014-05-11T09:56:16Z</time>
      </trkpt>
      <trkpt lat="43.13358" lon="6.07683">
        <ele>91.4448</ele>
        <time>2014-05-11T09:56:21Z</time>
      </trkpt>
      <trkpt lat="43.13337" lon="6.0773">
        <ele>89.4058</ele>
        <time>2014-05-11T09:56:27Z</time>
      </trkpt>
      <trkpt lat="43.13313" lon="6.07774">
        <ele>87.3107</ele>
        <time>2014-05-11T09:56:33Z</time>
      </trkpt>
      <trkpt lat="43.13283" lon="6.07798">
        <ele>85.7202</ele>
        <time>2014-05-11T09:56:38Z</time>
      </trkpt>
      <trkpt lat="43.1326" lon="6.07802">
        <ele>84.7689</ele>
        <time>2014-05-11T09:56:41Z</time>
      </trkpt>
      <trkpt lat="43.13241" lon="6.078">
        <ele>83.6601</ele>
        <time>2014-05-11T09:56:44Z</time>
      </trkpt>
      <trkpt lat="43.13212" lon="6.07789">
        <ele>83.1382</ele>
        <time>2014-05-11T09:56:49Z</time>
      </trkpt>
      <trkpt lat="43.13194" lon="6.07779">
        <ele>83.032</ele>
        <time>2014-05-11T09:56:52Z</time>
      </trkpt>
      <trkpt lat="43.13158" lon="6.07757">
        <ele>85.0017</ele>
        <time>2014-05-11T09:56:58Z</time>
      </trkpt>
      <trkpt lat="43.1314" lon="6.07748">
        <ele>84.9877</ele>
        <time>2014-05-11T09:57:01Z</time>
      </trkpt>
      <trkpt lat="43.13123" lon="6.07739">
        <ele>84.3385</ele>
        <time>2014-05-11T09:57:04Z</time>
      </trkpt>
      <trkpt lat="43.13095" lon="6.07723">
        <ele>84.5551</ele>
        <time>2014-05-11T09:57:09Z</time>
      </trkpt>
      <trkpt lat="43.13066" lon="6.07708">
        <ele>85.7037</ele>
        <time>2014-05-11T09:57:14Z</time>
      </trkpt>
      <trkpt lat="43.13032" lon="6.07691">
        <ele>85.9046</ele>
        <time>2014-05-11T09:57:20Z</time>
      </trkpt>
      <trkpt lat="43.12997" lon="6.07672">
        <ele>86.5628</ele>
        <time>2014-05-11T09:57:26Z</time>
      </trkpt>
      <trkpt lat="43.12958" lon="6.0765">
        <ele>84.6484</ele>
        <time>2014-05-11T09:57:33Z</time>
      </trkpt>
      <trkpt lat="43.12935" lon="6.07674">
        <ele>83.4129</ele>
        <time>2014-05-11T09:57:38Z</time>
      </trkpt>
      <trkpt lat="43.12914" lon="6.07717">
        <ele>80.9231</ele>
        <time>2014-05-11T09:57:44Z</time>
      </trkpt>
      <trkpt lat="43.12888" lon="6.07768">
        <ele>83.0405</ele>
        <time>2014-05-11T09:57:52Z</time>
      </trkpt>
      <trkpt lat="43.1288" lon="6.07776">
        <ele>83.1189</ele>
        <time>2014-05-11T09:57:55Z</time>
      </trkpt>
      <trkpt lat="43.1288" lon="6.07776">
        <ele>43</ele>
        <time>2014-05-11T09:58:00Z</time>
      </trkpt>
      <trkpt lat="43.1288" lon="6.07776">
        <ele>43</ele>
        <time>2014-05-11T09:58:03Z</time>
      </trkpt>
      <trkpt lat="43.12871" lon="6.07777">
        <ele>83.4149</ele>
        <time>2014-05-11T09:58:03Z</time>
      </trkpt>
      <trkpt lat="43.12864" lon="6.07814">
        <ele>84.0871</ele>
        <time>2014-05-11T09:58:10Z</time>
      </trkpt>
      <trkpt lat="43.12858" lon="6.07865">
        <ele>81.8404</ele>
        <time>2014-05-11T09:58:16Z</time>
      </trkpt>
      <trkpt lat="43.12853" lon="6.07893">
        <ele>82.062</ele>
        <time>2014-05-11T09:58:19Z</time>
      </trkpt>
      <trkpt lat="43.12843" lon="6.07948">
        <ele>82.2954</ele>
        <time>2014-05-11T09:58:25Z</time>
      </trkpt>
      <trkpt lat="43.12835" lon="6.07993">
        <ele>81.4499</ele>
        <time>2014-05-11T09:58:30Z</time>
      </trkpt>
      <trkpt lat="43.12824" lon="6.08041">
        <ele>80.1477</ele>
        <time>2014-05-11T09:58:36Z</time>
      </trkpt>
      <trkpt lat="43.12808" lon="6.08096">
        <ele>80.5513</ele>
        <time>2014-05-11T09:58:42Z</time>
      </trkpt>
      <trkpt lat="43.12792" lon="6.08153">
        <ele>80.6952</ele>
        <time>2014-05-11T09:58:48Z</time>
      </trkpt>
      <trkpt lat="43.12774" lon="6.08203">
        <ele>79.9938</ele>
        <time>2014-05-11T09:58:54Z</time>
      </trkpt>
      <trkpt lat="43.12752" lon="6.08255">
        <ele>80.9411</ele>
        <time>2014-05-11T09:59:00Z</time>
      </trkpt>
      <trkpt lat="43.12735" lon="6.08295">
        <ele>83.9051</ele>
        <time>2014-05-11T09:59:05Z</time>
      </trkpt>
      <trkpt lat="43.12713" lon="6.08347">
        <ele>81.7774</ele>
        <time>2014-05-11T09:59:12Z</time>
      </trkpt>
      <trkpt lat="43.12699" lon="6.08384">
        <ele>79.757</ele>
        <time>2014-05-11T09:59:17Z</time>
      </trkpt>
      <trkpt lat="43.1268" lon="6.08432">
        <ele>81.4417</ele>
        <time>2014-05-11T09:59:23Z</time>
      </trkpt>
      <trkpt lat="43.12672" lon="6.08455">
        <ele>80.9246</ele>
        <time>2014-05-11T09:59:26Z</time>
      </trkpt>
      <trkpt lat="43.12663" lon="6.08477">
        <ele>80.5895</ele>
        <time>2014-05-11T09:59:29Z</time>
      </trkpt>
      <trkpt lat="43.12644" lon="6.08525">
        <ele>81.0948</ele>
        <time>2014-05-11T09:59:35Z</time>
      </trkpt>
      <trkpt lat="43.12629" lon="6.08568">
        <ele>80.8195</ele>
        <time>2014-05-11T09:59:40Z</time>
      </trkpt>
      <trkpt lat="43.12617" lon="6.08614">
        <ele>79.9526</ele>
        <time>2014-05-11T09:59:45Z</time>
      </trkpt>
      <trkpt lat="43.12607" lon="6.08665">
        <ele>79.9206</ele>
        <time>2014-05-11T09:59:50Z</time>
      </trkpt>
      <trkpt lat="43.12602" lon="6.08721">
        <ele>81.9759</ele>
        <time>2014-05-11T09:59:55Z</time>
      </trkpt>
      <trkpt lat="43.126" lon="6.08784">
        <ele>82.127</ele>
        <time>2014-05-11T10:00:01Z</time>
      </trkpt>
      <trkpt lat="43.12602" lon="6.08836">
        <ele>84.0074</ele>
        <time>2014-05-11T10:00:06Z</time>
      </trkpt>
      <trkpt lat="43.12605" lon="6.08898">
        <ele>81.513</ele>
        <time>2014-05-11T10:00:12Z</time>
      </trkpt>
      <trkpt lat="43.12601" lon="6.08949">
        <ele>81.7709</ele>
        <time>2014-05-11T10:00:17Z</time>
      </trkpt>
      <trkpt lat="43.12581" lon="6.09001">
        <ele>82.4879</ele>
        <time>2014-05-11T10:00:23Z</time>
      </trkpt>
      <trkpt lat="43.12557" lon="6.0907">
        <ele>81.4086</ele>
        <time>2014-05-11T10:00:30Z</time>
      </trkpt>
      <trkpt lat="43.12568" lon="6.09121">
        <ele>79.876</ele>
        <time>2014-05-11T10:00:36Z</time>
      </trkpt>
      <trkpt lat="43.12578" lon="6.09147">
        <ele>81.3647</ele>
        <time>2014-05-11T10:00:39Z</time>
      </trkpt>
      <trkpt lat="43.12576" lon="6.09171">
        <ele>82.2763</ele>
        <time>2014-05-11T10:00:42Z</time>
      </trkpt>
      <trkpt lat="43.12576" lon="6.09198">
        <ele>83.6534</ele>
        <time>2014-05-11T10:00:45Z</time>
      </trkpt>
      <trkpt lat="43.12587" lon="6.09242">
        <ele>83.6383</ele>
        <time>2014-05-11T10:00:50Z</time>
      </trkpt>
      <trkpt lat="43.12593" lon="6.09304">
        <ele>81.8588</ele>
        <time>2014-05-11T10:00:56Z</time>
      </trkpt>
      <trkpt lat="43.12596" lon="6.09361">
        <ele>80.9093</ele>
        <time>2014-05-11T10:01:01Z</time>
      </trkpt>
      <trkpt lat="43.12601" lon="6.09415">
        <ele>80.9354</ele>
        <time>2014-05-11T10:01:06Z</time>
      </trkpt>
      <trkpt lat="43.12605" lon="6.09482">
        <ele>81.9706</ele>
        <time>2014-05-11T10:01:12Z</time>
      </trkpt>
      <trkpt lat="43.12609" lon="6.09537">
        <ele>81.3394</ele>
        <time>2014-05-11T10:01:17Z</time>
      </trkpt>
      <trkpt lat="43.12611" lon="6.09572">
        <ele>82.0085</ele>
        <time>2014-05-11T10:01:20Z</time>
      </trkpt>
      <trkpt lat="43.12615" lon="6.09641">
        <ele>80.1653</ele>
        <time>2014-05-11T10:01:26Z</time>
      </trkpt>
      <trkpt lat="43.12618" lon="6.09674">
        <ele>79.6087</ele>
        <time>2014-05-11T10:01:29Z</time>
      </trkpt>
      <trkpt lat="43.12621" lon="6.09709">
        <ele>79.6693</ele>
        <time>2014-05-11T10:01:32Z</time>
      </trkpt>
      <trkpt lat="43.12622" lon="6.09744">
        <ele>80.8591</ele>
        <time>2014-05-11T10:01:35Z</time>
      </trkpt>
      <trkpt lat="43.12624" lon="6.09803">
        <ele>82.1693</ele>
        <time>2014-05-11T10:01:41Z</time>
      </trkpt>
      <trkpt lat="43.12623" lon="6.09853">
        <ele>85.484</ele>
        <time>2014-05-11T10:01:46Z</time>
      </trkpt>
      <trkpt lat="43.12617" lon="6.0989">
        <ele>83.4281</ele>
        <time>2014-05-11T10:01:51Z</time>
      </trkpt>
      <trkpt lat="43.12593" lon="6.09912">
        <ele>85.4766</ele>
        <time>2014-05-11T10:01:56Z</time>
      </trkpt>
      <trkpt lat="43.12582" lon="6.09933">
        <ele>85.44</ele>
        <time>2014-05-11T10:01:59Z</time>
      </trkpt>
      <trkpt lat="43.12564" lon="6.09976">
        <ele>85.8022</ele>
        <time>2014-05-11T10:02:04Z</time>
      </trkpt>
      <trkpt lat="43.12551" lon="6.10029">
        <ele>88.7077</ele>
        <time>2014-05-11T10:02:10Z</time>
      </trkpt>
      <trkpt lat="43.12537" lon="6.10088">
        <ele>92.0163</ele>
        <time>2014-05-11T10:02:16Z</time>
      </trkpt>
      <trkpt lat="43.12521" lon="6.10143">
        <ele>89.5076</ele>
        <time>2014-05-11T10:02:22Z</time>
      </trkpt>
      <trkpt lat="43.12502" lon="6.10194">
        <ele>86.3225</ele>
        <time>2014-05-11T10:02:28Z</time>
      </trkpt>
      <trkpt lat="43.12492" lon="6.10221">
        <ele>84.3639</ele>
        <time>2014-05-11T10:02:31Z</time>
      </trkpt>
      <trkpt lat="43.12485" lon="6.10248">
        <ele>85.0766</ele>
        <time>2014-05-11T10:02:34Z</time>
      </trkpt>
      <trkpt lat="43.12468" lon="6.10307">
        <ele>86.5378</ele>
        <time>2014-05-11T10:02:40Z</time>
      </trkpt>
      <trkpt lat="43.12418" lon="6.10359">
        <ele>88.2408</ele>
        <time>2014-05-11T10:02:47Z</time>
      </trkpt>
      <trkpt lat="43.12381" lon="6.10393">
        <ele>84.5978</ele>
        <time>2014-05-11T10:02:53Z</time>
      </trkpt>
      <trkpt lat="43.12366" lon="6.10431">
        <ele>84.321</ele>
        <time>2014-05-11T10:02:58Z</time>
      </trkpt>
      <trkpt lat="43.12362" lon="6.10461">
        <ele>83.3029</ele>
        <time>2014-05-11T10:03:01Z</time>
      </trkpt>
      <trkpt lat="43.12343" lon="6.10516">
        <ele>81.9015</ele>
        <time>2014-05-11T10:03:07Z</time>
      </trkpt>
      <trkpt lat="43.12324" lon="6.10562">
        <ele>80.9217</ele>
        <time>2014-05-11T10:03:12Z</time>
      </trkpt>
      <trkpt lat="43.12307" lon="6.10605">
        <ele>82.2394</ele>
        <time>2014-05-11T10:03:17Z</time>
      </trkpt>
      <trkpt lat="43.12284" lon="6.10657">
        <ele>81.7353</ele>
        <time>2014-05-11T10:03:23Z</time>
      </trkpt>
      <trkpt lat="43.12266" lon="6.10697">
        <ele>75.8798</ele>
        <time>2014-05-11T10:03:28Z</time>
      </trkpt>
      <trkpt lat="43.12254" lon="6.10735">
        <ele>74.6031</ele>
        <time>2014-05-11T10:03:33Z</time>
      </trkpt>
      <trkpt lat="43.12246" lon="6.1076">
        <ele>74.676</ele>
        <time>2014-05-11T10:03:36Z</time>
      </trkpt>
      <trkpt lat="43.1223" lon="6.10807">
        <ele>79.6931</ele>
        <time>2014-05-11T10:03:42Z</time>
      </trkpt>
      <trkpt lat="43.12214" lon="6.10848">
        <ele>82.646</ele>
        <time>2014-05-11T10:03:47Z</time>
      </trkpt>
      <trkpt lat="43.122" lon="6.10897">
        <ele>81.8611</ele>
        <time>2014-05-11T10:03:53Z</time>
      </trkpt>
      <trkpt lat="43.12187" lon="6.10944">
        <ele>82.3802</ele>
        <time>2014-05-11T10:03:59Z</time>
      </trkpt>
      <trkpt lat="43.12179" lon="6.1098">
        <ele>80.5348</ele>
        <time>2014-05-11T10:04:04Z</time>
      </trkpt>
      <trkpt lat="43.1216" lon="6.11014">
        <ele>74.9632</ele>
        <time>2014-05-11T10:04:10Z</time>
      </trkpt>
      <trkpt lat="43.12146" lon="6.11047">
        <ele>71.8546</ele>
        <time>2014-05-11T10:04:15Z</time>
      </trkpt>
      <trkpt lat="43.12131" lon="6.11058">
        <ele>72.9121</ele>
        <time>2014-05-11T10:04:18Z</time>
      </trkpt>
      <trkpt lat="43.12116" lon="6.11101">
        <ele>69.0381</ele>
        <time>2014-05-11T10:04:25Z</time>
      </trkpt>
      <trkpt lat="43.12095" lon="6.11145">
        <ele>68.0337</ele>
        <time>2014-05-11T10:04:32Z</time>
      </trkpt>
      <trkpt lat="43.1208" lon="6.11186">
        <ele>69.1245</ele>
        <time>2014-05-11T10:04:38Z</time>
      </trkpt>
      <trkpt lat="43.12066" lon="6.11225">
        <ele>71.9089</ele>
        <time>2014-05-11T10:04:43Z</time>
      </trkpt>
      <trkpt lat="43.12049" lon="6.1127">
        <ele>72.5285</ele>
        <time>2014-05-11T10:04:49Z</time>
      </trkpt>
      <trkpt lat="43.12033" lon="6.11307">
        <ele>70.7152</ele>
        <time>2014-05-11T10:04:54Z</time>
      </trkpt>
      <trkpt lat="43.12023" lon="6.11329">
        <ele>70.0724</ele>
        <time>2014-05-11T10:04:57Z</time>
      </trkpt>
      <trkpt lat="43.12007" lon="6.11365">
        <ele>70.4639</ele>
        <time>2014-05-11T10:05:02Z</time>
      </trkpt>
      <trkpt lat="43.11999" lon="6.11383">
        <ele>71.0231</ele>
        <time>2014-05-11T10:05:05Z</time>
      </trkpt>
      <trkpt lat="43.1198" lon="6.11412">
        <ele>72.909</ele>
        <time>2014-05-11T10:05:11Z</time>
      </trkpt>
      <trkpt lat="43.11968" lon="6.11431">
        <ele>72.9375</ele>
        <time>2014-05-11T10:05:14Z</time>
      </trkpt>
      <trkpt lat="43.11963" lon="6.11452">
        <ele>70.7309</ele>
        <time>2014-05-11T10:05:17Z</time>
      </trkpt>
      <trkpt lat="43.11951" lon="6.11497">
        <ele>67.6404</ele>
        <time>2014-05-11T10:05:23Z</time>
      </trkpt>
      <trkpt lat="43.11934" lon="6.11535">
        <ele>67.2887</ele>
        <time>2014-05-11T10:05:28Z</time>
      </trkpt>
      <trkpt lat="43.11917" lon="6.11577">
        <ele>65.482</ele>
        <time>2014-05-11T10:05:33Z</time>
      </trkpt>
      <trkpt lat="43.1191" lon="6.11603">
        <ele>65.7831</ele>
        <time>2014-05-11T10:05:36Z</time>
      </trkpt>
      <trkpt lat="43.11898" lon="6.11649">
        <ele>64.1561</ele>
        <time>2014-05-11T10:05:42Z</time>
      </trkpt>
      <trkpt lat="43.11896" lon="6.11679">
        <ele>64.2982</ele>
        <time>2014-05-11T10:05:45Z</time>
      </trkpt>
      <trkpt lat="43.1189" lon="6.11704">
        <ele>65.2198</ele>
        <time>2014-05-11T10:05:48Z</time>
      </trkpt>
      <trkpt lat="43.1188" lon="6.11732">
        <ele>66.1644</ele>
        <time>2014-05-11T10:05:51Z</time>
      </trkpt>
      <trkpt lat="43.11869" lon="6.1176">
        <ele>67.5191</ele>
        <time>2014-05-11T10:05:54Z</time>
      </trkpt>
      <trkpt lat="43.11853" lon="6.118">
        <ele>67.5841</ele>
        <time>2014-05-11T10:05:59Z</time>
      </trkpt>
      <trkpt lat="43.11845" lon="6.11824">
        <ele>67.2395</ele>
        <time>2014-05-11T10:06:02Z</time>
      </trkpt>
      <trkpt lat="43.11828" lon="6.11875">
        <ele>63.8709</ele>
        <time>2014-05-11T10:06:08Z</time>
      </trkpt>
      <trkpt lat="43.11813" lon="6.11913">
        <ele>63.2304</ele>
        <time>2014-05-11T10:06:13Z</time>
      </trkpt>
      <trkpt lat="43.11788" lon="6.11961">
        <ele>63.1995</ele>
        <time>2014-05-11T10:06:20Z</time>
      </trkpt>
      <trkpt lat="43.11771" lon="6.12013">
        <ele>66.0502</ele>
        <time>2014-05-11T10:06:26Z</time>
      </trkpt>
      <trkpt lat="43.11759" lon="6.12063">
        <ele>69.6504</ele>
        <time>2014-05-11T10:06:32Z</time>
      </trkpt>
      <trkpt lat="43.11751" lon="6.12088">
        <ele>69.8346</ele>
        <time>2014-05-11T10:06:35Z</time>
      </trkpt>
      <trkpt lat="43.11722" lon="6.12126">
        <ele>69.0074</ele>
        <time>2014-05-11T10:06:41Z</time>
      </trkpt>
      <trkpt lat="43.11707" lon="6.12177">
        <ele>67.6694</ele>
        <time>2014-05-11T10:06:47Z</time>
      </trkpt>
      <trkpt lat="43.11699" lon="6.12218">
        <ele>65.5647</ele>
        <time>2014-05-11T10:06:51Z</time>
      </trkpt>
      <trkpt lat="43.11692" lon="6.12261">
        <ele>63.5637</ele>
        <time>2014-05-11T10:06:57Z</time>
      </trkpt>
      <trkpt lat="43.11687" lon="6.12289">
        <ele>63.8099</ele>
        <time>2014-05-11T10:07:04Z</time>
      </trkpt>
      <trkpt lat="43.11687" lon="6.12289">
        <ele>63.8099</ele>
        <time>2014-05-11T10:07:10Z</time>
      </trkpt>
      <trkpt lat="43.11687" lon="6.12289">
        <ele>19.7</ele>
        <time>2014-05-11T10:07:10Z</time>
      </trkpt>
      <trkpt lat="43.11687" lon="6.12289">
        <ele>19.7</ele>
        <time>2014-05-11T10:07:19Z</time>
      </trkpt>
      <trkpt lat="43.11687" lon="6.12289">
        <ele>19.7</ele>
        <time>2014-05-11T10:07:21Z</time>
      </trkpt>
      <trkpt lat="43.11687" lon="6.12289">
        <ele>19.7</ele>
        <time>2014-05-11T10:07:25Z</time>
      </trkpt>
      <trkpt lat="43.11687" lon="6.12289">
        <ele>63.7989</ele>
        <time>2014-05-11T10:07:26Z</time>
      </trkpt>
      <trkpt lat="43.11695" lon="6.12311">
        <ele>64.982</ele>
        <time>2014-05-11T10:07:41Z</time>
      </trkpt>
      <trkpt lat="43.11694" lon="6.12357">
        <ele>65.6741</ele>
        <time>2014-05-11T10:07:47Z</time>
      </trkpt>
      <trkpt lat="43.1169" lon="6.12407">
        <ele>61.8095</ele>
        <time>2014-05-11T10:07:53Z</time>
      </trkpt>
      <trkpt lat="43.11686" lon="6.12456">
        <ele>57.6655</ele>
        <time>2014-05-11T10:07:59Z</time>
      </trkpt>
      <trkpt lat="43.11684" lon="6.1248">
        <ele>57.2032</ele>
        <time>2014-05-11T10:08:02Z</time>
      </trkpt>
      <trkpt lat="43.11683" lon="6.12507">
        <ele>59.3922</ele>
        <time>2014-05-11T10:08:05Z</time>
      </trkpt>
      <trkpt lat="43.11682" lon="6.12531">
        <ele>61.0742</ele>
        <time>2014-05-11T10:08:08Z</time>
      </trkpt>
      <trkpt lat="43.1169" lon="6.12578">
        <ele>63.7203</ele>
        <time>2014-05-11T10:08:14Z</time>
      </trkpt>
      <trkpt lat="43.11704" lon="6.12609">
        <ele>62.5974</ele>
        <time>2014-05-11T10:08:20Z</time>
      </trkpt>
      <trkpt lat="43.11716" lon="6.12654">
        <ele>64.6494</ele>
        <time>2014-05-11T10:08:27Z</time>
      </trkpt>
      <trkpt lat="43.11715" lon="6.12691">
        <ele>64.2558</ele>
        <time>2014-05-11T10:08:32Z</time>
      </trkpt>
      <trkpt lat="43.11721" lon="6.12729">
        <ele>66.3639</ele>
        <time>2014-05-11T10:08:37Z</time>
      </trkpt>
      <trkpt lat="43.11723" lon="6.12771">
        <ele>66.4669</ele>
        <time>2014-05-11T10:08:43Z</time>
      </trkpt>
      <trkpt lat="43.11715" lon="6.12806">
        <ele>66.7057</ele>
        <time>2014-05-11T10:08:48Z</time>
      </trkpt>
      <trkpt lat="43.11712" lon="6.12844">
        <ele>66.7533</ele>
        <time>2014-05-11T10:08:54Z</time>
      </trkpt>
      <trkpt lat="43.11705" lon="6.12878">
        <ele>68.2421</ele>
        <time>2014-05-11T10:09:00Z</time>
      </trkpt>
      <trkpt lat="43.11703" lon="6.12916">
        <ele>67.4317</ele>
        <time>2014-05-11T10:09:05Z</time>
      </trkpt>
      <trkpt lat="43.11704" lon="6.1296">
        <ele>67.9735</ele>
        <time>2014-05-11T10:09:11Z</time>
      </trkpt>
      <trkpt lat="43.11708" lon="6.13006">
        <ele>69.6285</ele>
        <time>2014-05-11T10:09:17Z</time>
      </trkpt>
      <trkpt lat="43.11711" lon="6.13043">
        <ele>71.8272</ele>
        <time>2014-05-11T10:09:22Z</time>
      </trkpt>
      <trkpt lat="43.11718" lon="6.13075">
        <ele>72.2468</ele>
        <time>2014-05-11T10:09:28Z</time>
      </trkpt>
      <trkpt lat="43.11725" lon="6.1309">
        <ele>72.3998</ele>
        <time>2014-05-11T10:09:33Z</time>
      </trkpt>
      <trkpt lat="43.1174" lon="6.13131">
        <ele>74.7358</ele>
        <time>2014-05-11T10:09:40Z</time>
      </trkpt>
      <trkpt lat="43.11748" lon="6.13166">
        <ele>69.0712</ele>
        <time>2014-05-11T10:09:45Z</time>
      </trkpt>
      <trkpt lat="43.11758" lon="6.13198">
        <ele>66.1302</ele>
        <time>2014-05-11T10:09:52Z</time>
      </trkpt>
      <trkpt lat="43.1177" lon="6.13203">
        <ele>66.6628</ele>
        <time>2014-05-11T10:10:02Z</time>
      </trkpt>
      <trkpt lat="43.11793" lon="6.13186">
        <ele>70.9598</ele>
        <time>2014-05-11T10:10:10Z</time>
      </trkpt>
      <trkpt lat="43.11809" lon="6.13175">
        <ele>73.4853</ele>
        <time>2014-05-11T10:10:14Z</time>
      </trkpt>
      <trkpt lat="43.11828" lon="6.1316">
        <ele>77.7504</ele>
        <time>2014-05-11T10:10:19Z</time>
      </trkpt>
      <trkpt lat="43.11844" lon="6.13146">
        <ele>78.2776</ele>
        <time>2014-05-11T10:10:23Z</time>
      </trkpt>
      <trkpt lat="43.11853" lon="6.13139">
        <ele>78.4538</ele>
        <time>2014-05-11T10:10:26Z</time>
      </trkpt>
      <trkpt lat="43.11868" lon="6.13131">
        <ele>79.1548</ele>
        <time>2014-05-11T10:10:36Z</time>
      </trkpt>
      <trkpt lat="43.11884" lon="6.13122">
        <ele>79.2683</ele>
        <time>2014-05-11T10:10:42Z</time>
      </trkpt>
      <trkpt lat="43.11898" lon="6.13136">
        <ele>78.9348</ele>
        <time>2014-05-11T10:10:49Z</time>
      </trkpt>
      <trkpt lat="43.11922" lon="6.13173">
        <ele>77.3883</ele>
        <time>2014-05-11T10:11:00Z</time>
      </trkpt>
      <trkpt lat="43.11937" lon="6.13178">
        <ele>76.9713</ele>
        <time>2014-05-11T10:11:07Z</time>
      </trkpt>
      <trkpt lat="43.11969" lon="6.13201">
        <ele>76.3047</ele>
        <time>2014-05-11T10:11:17Z</time>
      </trkpt>
      <trkpt lat="43.11984" lon="6.13187">
        <ele>76.6463</ele>
        <time>2014-05-11T10:11:22Z</time>
      </trkpt>
      <trkpt lat="43.12" lon="6.13175">
        <ele>77.1312</ele>
        <time>2014-05-11T10:11:27Z</time>
      </trkpt>
      <trkpt lat="43.1202" lon="6.13169">
        <ele>77.4513</ele>
        <time>2014-05-11T10:11:33Z</time>
      </trkpt>
      <trkpt lat="43.12037" lon="6.13178">
        <ele>77.6251</ele>
        <time>2014-05-11T10:11:39Z</time>
      </trkpt>
      <trkpt lat="43.12043" lon="6.1322">
        <ele>77.8551</ele>
        <time>2014-05-11T10:11:46Z</time>
      </trkpt>
      <trkpt lat="43.12047" lon="6.13258">
        <ele>76.2097</ele>
        <time>2014-05-11T10:11:51Z</time>
      </trkpt>
      <trkpt lat="43.12064" lon="6.13281">
        <ele>76.412</ele>
        <time>2014-05-11T10:11:57Z</time>
      </trkpt>
      <trkpt lat="43.12084" lon="6.13249">
        <ele>77.2393</ele>
        <time>2014-05-11T10:12:04Z</time>
      </trkpt>
      <trkpt lat="43.12085" lon="6.1322">
        <ele>77.6541</ele>
        <time>2014-05-11T10:12:10Z</time>
      </trkpt>
      <trkpt lat="43.12079" lon="6.13185">
        <ele>78.6172</ele>
        <time>2014-05-11T10:12:17Z</time>
      </trkpt>
      <trkpt lat="43.12079" lon="6.13164">
        <ele>79.1415</ele>
        <time>2014-05-11T10:12:22Z</time>
      </trkpt>
      <trkpt lat="43.12077" lon="6.13125">
        <ele>79.5047</ele>
        <time>2014-05-11T10:12:30Z</time>
      </trkpt>
      <trkpt lat="43.12099" lon="6.13102">
        <ele>80.463</ele>
        <time>2014-05-11T10:12:35Z</time>
      </trkpt>
      <trkpt lat="43.12119" lon="6.13113">
        <ele>81.8938</ele>
        <time>2014-05-11T10:12:40Z</time>
      </trkpt>
      <trkpt lat="43.12141" lon="6.13134">
        <ele>83.0766</ele>
        <time>2014-05-11T10:12:47Z</time>
      </trkpt>
      <trkpt lat="43.1217" lon="6.13114">
        <ele>84.3038</ele>
        <time>2014-05-11T10:12:55Z</time>
      </trkpt>
      <trkpt lat="43.12192" lon="6.13095">
        <ele>86.8759</ele>
        <time>2014-05-11T10:13:01Z</time>
      </trkpt>
      <trkpt lat="43.12209" lon="6.1308">
        <ele>87.9774</ele>
        <time>2014-05-11T10:13:07Z</time>
      </trkpt>
      <trkpt lat="43.12228" lon="6.13068">
        <ele>88.8712</ele>
        <time>2014-05-11T10:13:13Z</time>
      </trkpt>
      <trkpt lat="43.12246" lon="6.13066">
        <ele>90.1</ele>
        <time>2014-05-11T10:13:20Z</time>
      </trkpt>
      <trkpt lat="43.12269" lon="6.13095">
        <ele>91.066</ele>
        <time>2014-05-11T10:13:31Z</time>
      </trkpt>
      <trkpt lat="43.12269" lon="6.13095">
        <ele>91.066</ele>
        <time>2014-05-11T10:13:37Z</time>
      </trkpt>
      <trkpt lat="43.12269" lon="6.13095">
        <ele>42.3</ele>
        <time>2014-05-11T10:13:37Z</time>
      </trkpt>
      <trkpt lat="43.12269" lon="6.13095">
        <ele>42.3</ele>
        <time>2014-05-11T10:13:41Z</time>
      </trkpt>
      <trkpt lat="43.12269" lon="6.13095">
        <ele>42.3</ele>
        <time>2014-05-11T10:13:43Z</time>
      </trkpt>
      <trkpt lat="43.12269" lon="6.13095">
        <ele>42.3</ele>
        <time>2014-05-11T10:19:18Z</time>
      </trkpt>
    </trkseg>
  </trk>
</gpx>